<?xml version="1.0" encoding="UTF-8" standalone="no" ?>
<gpx xmlns="http://www.topografix.com/GPX/1/1" xmlns:xsi="http://www.w3.org/2001/XMLSchema-instance" xsi:schemaLocation="http://www.topografix.com/GPX/1/1 http://www.topografix.com/GPX/1/1/gpx.xsd" version="1.1" creator="VisuGPX - https://www.visugpx.com">
  <metadata>
    <name>Colline de Fourvière depuis St-Rambert</name>
    <desc><![CDATA[Les divers escaliers pour aller à Fourvière]]></desc>
  </metadata>
  <trk>
    <name><![CDATA[2011-11-27T08:14:51Z]]></name>
    <trkseg>
      <trkpt lat="45.80369" lon="4.8318">
        <ele>235</ele>
        <time>2011-11-27T08:14:51Z</time>
      </trkpt>
      <trkpt lat="45.80367" lon="4.83188">
        <ele>234</ele>
        <time>2011-11-27T08:14:54Z</time>
      </trkpt>
      <trkpt lat="45.8036" lon="4.83202">
        <ele>234</ele>
        <time>2011-11-27T08:14:59Z</time>
      </trkpt>
      <trkpt lat="45.80358" lon="4.83202">
        <ele>234</ele>
        <time>2011-11-27T08:15:00Z</time>
      </trkpt>
      <trkpt lat="45.80344" lon="4.832">
        <ele>234</ele>
        <time>2011-11-27T08:15:05Z</time>
      </trkpt>
      <trkpt lat="45.80342" lon="4.83199">
        <ele>234</ele>
        <time>2011-11-27T08:15:06Z</time>
      </trkpt>
      <trkpt lat="45.80329" lon="4.83194">
        <ele>231</ele>
        <time>2011-11-27T08:15:11Z</time>
      </trkpt>
      <trkpt lat="45.80324" lon="4.83191">
        <ele>231</ele>
        <time>2011-11-27T08:15:13Z</time>
      </trkpt>
      <trkpt lat="45.80316" lon="4.83186">
        <ele>231</ele>
        <time>2011-11-27T08:15:16Z</time>
      </trkpt>
      <trkpt lat="45.80306" lon="4.83178">
        <ele>231</ele>
        <time>2011-11-27T08:15:20Z</time>
      </trkpt>
      <trkpt lat="45.80304" lon="4.83176">
        <ele>231</ele>
        <time>2011-11-27T08:15:21Z</time>
      </trkpt>
      <trkpt lat="45.80289" lon="4.83164">
        <ele>232</ele>
        <time>2011-11-27T08:15:27Z</time>
      </trkpt>
      <trkpt lat="45.80277" lon="4.83155">
        <ele>231</ele>
        <time>2011-11-27T08:15:32Z</time>
      </trkpt>
      <trkpt lat="45.80273" lon="4.83151">
        <ele>231</ele>
        <time>2011-11-27T08:15:34Z</time>
      </trkpt>
      <trkpt lat="45.80267" lon="4.83149">
        <ele>231</ele>
        <time>2011-11-27T08:15:37Z</time>
      </trkpt>
      <trkpt lat="45.80265" lon="4.8315">
        <ele>231</ele>
        <time>2011-11-27T08:15:38Z</time>
      </trkpt>
      <trkpt lat="45.80257" lon="4.83156">
        <ele>230</ele>
        <time>2011-11-27T08:15:42Z</time>
      </trkpt>
      <trkpt lat="45.80249" lon="4.83165">
        <ele>228</ele>
        <time>2011-11-27T08:15:46Z</time>
      </trkpt>
      <trkpt lat="45.80247" lon="4.83172">
        <ele>227</ele>
        <time>2011-11-27T08:15:48Z</time>
      </trkpt>
      <trkpt lat="45.80246" lon="4.8318">
        <ele>225</ele>
        <time>2011-11-27T08:15:50Z</time>
      </trkpt>
      <trkpt lat="45.80244" lon="4.83187">
        <ele>223</ele>
        <time>2011-11-27T08:15:52Z</time>
      </trkpt>
      <trkpt lat="45.8024" lon="4.83206">
        <ele>221</ele>
        <time>2011-11-27T08:15:57Z</time>
      </trkpt>
      <trkpt lat="45.80239" lon="4.83213">
        <ele>221</ele>
        <time>2011-11-27T08:15:59Z</time>
      </trkpt>
      <trkpt lat="45.80234" lon="4.83232">
        <ele>220</ele>
        <time>2011-11-27T08:16:04Z</time>
      </trkpt>
      <trkpt lat="45.80225" lon="4.83246">
        <ele>220</ele>
        <time>2011-11-27T08:16:09Z</time>
      </trkpt>
      <trkpt lat="45.80221" lon="4.83251">
        <ele>216</ele>
        <time>2011-11-27T08:16:11Z</time>
      </trkpt>
      <trkpt lat="45.80209" lon="4.83265">
        <ele>214</ele>
        <time>2011-11-27T08:16:17Z</time>
      </trkpt>
      <trkpt lat="45.80206" lon="4.83267">
        <ele>214</ele>
        <time>2011-11-27T08:16:18Z</time>
      </trkpt>
      <trkpt lat="45.80194" lon="4.83278">
        <ele>213</ele>
        <time>2011-11-27T08:16:23Z</time>
      </trkpt>
      <trkpt lat="45.80188" lon="4.83281">
        <ele>213</ele>
        <time>2011-11-27T08:16:25Z</time>
      </trkpt>
      <trkpt lat="45.80181" lon="4.83277">
        <ele>212</ele>
        <time>2011-11-27T08:16:28Z</time>
      </trkpt>
      <trkpt lat="45.80178" lon="4.83262">
        <ele>212</ele>
        <time>2011-11-27T08:16:32Z</time>
      </trkpt>
      <trkpt lat="45.80175" lon="4.8324">
        <ele>214</ele>
        <time>2011-11-27T08:16:38Z</time>
      </trkpt>
      <trkpt lat="45.80175" lon="4.83236">
        <ele>215</ele>
        <time>2011-11-27T08:16:39Z</time>
      </trkpt>
      <trkpt lat="45.80173" lon="4.83225">
        <ele>216</ele>
        <time>2011-11-27T08:16:43Z</time>
      </trkpt>
      <trkpt lat="45.80168" lon="4.83208">
        <ele>217</ele>
        <time>2011-11-27T08:16:47Z</time>
      </trkpt>
      <trkpt lat="45.80164" lon="4.83187">
        <ele>210</ele>
        <time>2011-11-27T08:16:52Z</time>
      </trkpt>
      <trkpt lat="45.80163" lon="4.83183">
        <ele>211</ele>
        <time>2011-11-27T08:16:53Z</time>
      </trkpt>
      <trkpt lat="45.8016" lon="4.83162">
        <ele>214</ele>
        <time>2011-11-27T08:16:58Z</time>
      </trkpt>
      <trkpt lat="45.8016" lon="4.83154">
        <ele>214</ele>
        <time>2011-11-27T08:17:00Z</time>
      </trkpt>
      <trkpt lat="45.8016" lon="4.83138">
        <ele>214</ele>
        <time>2011-11-27T08:17:04Z</time>
      </trkpt>
      <trkpt lat="45.8016" lon="4.83127">
        <ele>215</ele>
        <time>2011-11-27T08:17:07Z</time>
      </trkpt>
      <trkpt lat="45.80159" lon="4.83119">
        <ele>215</ele>
        <time>2011-11-27T08:17:09Z</time>
      </trkpt>
      <trkpt lat="45.80159" lon="4.83115">
        <ele>215</ele>
        <time>2011-11-27T08:17:10Z</time>
      </trkpt>
      <trkpt lat="45.80155" lon="4.83105">
        <ele>215</ele>
        <time>2011-11-27T08:17:13Z</time>
      </trkpt>
      <trkpt lat="45.80153" lon="4.83102">
        <ele>216</ele>
        <time>2011-11-27T08:17:14Z</time>
      </trkpt>
      <trkpt lat="45.80151" lon="4.831">
        <ele>216</ele>
        <time>2011-11-27T08:17:15Z</time>
      </trkpt>
      <trkpt lat="45.80142" lon="4.83092">
        <ele>216</ele>
        <time>2011-11-27T08:17:19Z</time>
      </trkpt>
      <trkpt lat="45.80138" lon="4.83089">
        <ele>216</ele>
        <time>2011-11-27T08:17:21Z</time>
      </trkpt>
      <trkpt lat="45.80138" lon="4.83087">
        <ele>216</ele>
        <time>2011-11-27T08:17:22Z</time>
      </trkpt>
      <trkpt lat="45.80137" lon="4.83085">
        <ele>216</ele>
        <time>2011-11-27T08:17:23Z</time>
      </trkpt>
      <trkpt lat="45.80136" lon="4.83079">
        <ele>220</ele>
        <time>2011-11-27T08:17:29Z</time>
      </trkpt>
      <trkpt lat="45.80134" lon="4.83077">
        <ele>220</ele>
        <time>2011-11-27T08:17:35Z</time>
      </trkpt>
      <trkpt lat="45.80133" lon="4.83076">
        <ele>220</ele>
        <time>2011-11-27T08:17:41Z</time>
      </trkpt>
      <trkpt lat="45.80133" lon="4.83073">
        <ele>220</ele>
        <time>2011-11-27T08:17:44Z</time>
      </trkpt>
      <trkpt lat="45.80135" lon="4.83066">
        <ele>220</ele>
        <time>2011-11-27T08:17:47Z</time>
      </trkpt>
      <trkpt lat="45.80138" lon="4.83058">
        <ele>220</ele>
        <time>2011-11-27T08:17:50Z</time>
      </trkpt>
      <trkpt lat="45.80141" lon="4.83051">
        <ele>220</ele>
        <time>2011-11-27T08:17:53Z</time>
      </trkpt>
      <trkpt lat="45.80143" lon="4.83041">
        <ele>220</ele>
        <time>2011-11-27T08:17:57Z</time>
      </trkpt>
      <trkpt lat="45.80142" lon="4.83039">
        <ele>220</ele>
        <time>2011-11-27T08:17:58Z</time>
      </trkpt>
      <trkpt lat="45.80134" lon="4.83036">
        <ele>221</ele>
        <time>2011-11-27T08:18:02Z</time>
      </trkpt>
      <trkpt lat="45.80132" lon="4.83041">
        <ele>221</ele>
        <time>2011-11-27T08:18:06Z</time>
      </trkpt>
      <trkpt lat="45.8013" lon="4.83046">
        <ele>221</ele>
        <time>2011-11-27T08:18:08Z</time>
      </trkpt>
      <trkpt lat="45.80126" lon="4.83057">
        <ele>221</ele>
        <time>2011-11-27T08:18:12Z</time>
      </trkpt>
      <trkpt lat="45.80125" lon="4.8306">
        <ele>221</ele>
        <time>2011-11-27T08:18:13Z</time>
      </trkpt>
      <trkpt lat="45.80121" lon="4.8307">
        <ele>221</ele>
        <time>2011-11-27T08:18:17Z</time>
      </trkpt>
      <trkpt lat="45.8012" lon="4.83072">
        <ele>221</ele>
        <time>2011-11-27T08:18:18Z</time>
      </trkpt>
      <trkpt lat="45.80119" lon="4.83072">
        <ele>221</ele>
        <time>2011-11-27T08:18:19Z</time>
      </trkpt>
      <trkpt lat="45.80114" lon="4.83069">
        <ele>221</ele>
        <time>2011-11-27T08:18:23Z</time>
      </trkpt>
      <trkpt lat="45.8011" lon="4.83067">
        <ele>222</ele>
        <time>2011-11-27T08:18:26Z</time>
      </trkpt>
      <trkpt lat="45.80104" lon="4.83062">
        <ele>222</ele>
        <time>2011-11-27T08:18:29Z</time>
      </trkpt>
      <trkpt lat="45.80098" lon="4.83053">
        <ele>222</ele>
        <time>2011-11-27T08:18:33Z</time>
      </trkpt>
      <trkpt lat="45.80091" lon="4.83044">
        <ele>223</ele>
        <time>2011-11-27T08:18:37Z</time>
      </trkpt>
      <trkpt lat="45.80083" lon="4.83031">
        <ele>224</ele>
        <time>2011-11-27T08:18:42Z</time>
      </trkpt>
      <trkpt lat="45.80077" lon="4.83022">
        <ele>224</ele>
        <time>2011-11-27T08:18:46Z</time>
      </trkpt>
      <trkpt lat="45.80074" lon="4.83017">
        <ele>225</ele>
        <time>2011-11-27T08:18:48Z</time>
      </trkpt>
      <trkpt lat="45.80066" lon="4.83008">
        <ele>225</ele>
        <time>2011-11-27T08:18:53Z</time>
      </trkpt>
      <trkpt lat="45.80062" lon="4.83005">
        <ele>224</ele>
        <time>2011-11-27T08:18:55Z</time>
      </trkpt>
      <trkpt lat="45.80055" lon="4.83001">
        <ele>224</ele>
        <time>2011-11-27T08:18:58Z</time>
      </trkpt>
      <trkpt lat="45.80046" lon="4.82993">
        <ele>227</ele>
        <time>2011-11-27T08:19:02Z</time>
      </trkpt>
      <trkpt lat="45.80035" lon="4.82974">
        <ele>227</ele>
        <time>2011-11-27T08:19:09Z</time>
      </trkpt>
      <trkpt lat="45.80033" lon="4.82972">
        <ele>227</ele>
        <time>2011-11-27T08:19:10Z</time>
      </trkpt>
      <trkpt lat="45.80026" lon="4.82964">
        <ele>227</ele>
        <time>2011-11-27T08:19:14Z</time>
      </trkpt>
      <trkpt lat="45.80017" lon="4.82958">
        <ele>227</ele>
        <time>2011-11-27T08:19:18Z</time>
      </trkpt>
      <trkpt lat="45.80011" lon="4.82946">
        <ele>227</ele>
        <time>2011-11-27T08:19:23Z</time>
      </trkpt>
      <trkpt lat="45.80009" lon="4.82943">
        <ele>227</ele>
        <time>2011-11-27T08:19:24Z</time>
      </trkpt>
      <trkpt lat="45.80006" lon="4.82934">
        <ele>227</ele>
        <time>2011-11-27T08:19:27Z</time>
      </trkpt>
      <trkpt lat="45.79996" lon="4.82917">
        <ele>224</ele>
        <time>2011-11-27T08:19:33Z</time>
      </trkpt>
      <trkpt lat="45.79993" lon="4.82912">
        <ele>223</ele>
        <time>2011-11-27T08:19:35Z</time>
      </trkpt>
      <trkpt lat="45.79985" lon="4.82897">
        <ele>220</ele>
        <time>2011-11-27T08:19:40Z</time>
      </trkpt>
      <trkpt lat="45.79981" lon="4.82889">
        <ele>218</ele>
        <time>2011-11-27T08:19:43Z</time>
      </trkpt>
      <trkpt lat="45.79978" lon="4.82878">
        <ele>218</ele>
        <time>2011-11-27T08:19:46Z</time>
      </trkpt>
      <trkpt lat="45.79976" lon="4.82864">
        <ele>218</ele>
        <time>2011-11-27T08:19:50Z</time>
      </trkpt>
      <trkpt lat="45.79974" lon="4.82839">
        <ele>219</ele>
        <time>2011-11-27T08:19:57Z</time>
      </trkpt>
      <trkpt lat="45.79974" lon="4.82835">
        <ele>219</ele>
        <time>2011-11-27T08:19:58Z</time>
      </trkpt>
      <trkpt lat="45.79974" lon="4.82818">
        <ele>221</ele>
        <time>2011-11-27T08:20:03Z</time>
      </trkpt>
      <trkpt lat="45.79974" lon="4.82807">
        <ele>221</ele>
        <time>2011-11-27T08:20:06Z</time>
      </trkpt>
      <trkpt lat="45.79975" lon="4.828">
        <ele>221</ele>
        <time>2011-11-27T08:20:08Z</time>
      </trkpt>
      <trkpt lat="45.79971" lon="4.82779">
        <ele>222</ele>
        <time>2011-11-27T08:20:14Z</time>
      </trkpt>
      <trkpt lat="45.79964" lon="4.82762">
        <ele>222</ele>
        <time>2011-11-27T08:20:20Z</time>
      </trkpt>
      <trkpt lat="45.79962" lon="4.82757">
        <ele>221</ele>
        <time>2011-11-27T08:20:22Z</time>
      </trkpt>
      <trkpt lat="45.79959" lon="4.82748">
        <ele>224</ele>
        <time>2011-11-27T08:20:25Z</time>
      </trkpt>
      <trkpt lat="45.79953" lon="4.82733">
        <ele>223</ele>
        <time>2011-11-27T08:20:30Z</time>
      </trkpt>
      <trkpt lat="45.79948" lon="4.82719">
        <ele>223</ele>
        <time>2011-11-27T08:20:35Z</time>
      </trkpt>
      <trkpt lat="45.79943" lon="4.82708">
        <ele>223</ele>
        <time>2011-11-27T08:20:39Z</time>
      </trkpt>
      <trkpt lat="45.79942" lon="4.82701">
        <ele>223</ele>
        <time>2011-11-27T08:20:41Z</time>
      </trkpt>
      <trkpt lat="45.79935" lon="4.82683">
        <ele>223</ele>
        <time>2011-11-27T08:20:47Z</time>
      </trkpt>
      <trkpt lat="45.79927" lon="4.82663">
        <ele>223</ele>
        <time>2011-11-27T08:20:54Z</time>
      </trkpt>
      <trkpt lat="45.79926" lon="4.8266">
        <ele>223</ele>
        <time>2011-11-27T08:20:55Z</time>
      </trkpt>
      <trkpt lat="45.7992" lon="4.82647">
        <ele>224</ele>
        <time>2011-11-27T08:21:00Z</time>
      </trkpt>
      <trkpt lat="45.79915" lon="4.82637">
        <ele>216</ele>
        <time>2011-11-27T08:21:04Z</time>
      </trkpt>
      <trkpt lat="45.79914" lon="4.82633">
        <ele>216</ele>
        <time>2011-11-27T08:21:05Z</time>
      </trkpt>
      <trkpt lat="45.79907" lon="4.82618">
        <ele>217</ele>
        <time>2011-11-27T08:21:10Z</time>
      </trkpt>
      <trkpt lat="45.79906" lon="4.82615">
        <ele>217</ele>
        <time>2011-11-27T08:21:11Z</time>
      </trkpt>
      <trkpt lat="45.79898" lon="4.826">
        <ele>218</ele>
        <time>2011-11-27T08:21:16Z</time>
      </trkpt>
      <trkpt lat="45.79894" lon="4.82591">
        <ele>218</ele>
        <time>2011-11-27T08:21:19Z</time>
      </trkpt>
      <trkpt lat="45.79892" lon="4.82586">
        <ele>218</ele>
        <time>2011-11-27T08:21:21Z</time>
      </trkpt>
      <trkpt lat="45.79885" lon="4.82572">
        <ele>222</ele>
        <time>2011-11-27T08:21:26Z</time>
      </trkpt>
      <trkpt lat="45.79883" lon="4.8257">
        <ele>222</ele>
        <time>2011-11-27T08:21:27Z</time>
      </trkpt>
      <trkpt lat="45.79879" lon="4.82559">
        <ele>222</ele>
        <time>2011-11-27T08:21:31Z</time>
      </trkpt>
      <trkpt lat="45.79874" lon="4.82545">
        <ele>222</ele>
        <time>2011-11-27T08:21:36Z</time>
      </trkpt>
      <trkpt lat="45.79872" lon="4.82539">
        <ele>222</ele>
        <time>2011-11-27T08:21:38Z</time>
      </trkpt>
      <trkpt lat="45.79867" lon="4.82519">
        <ele>222</ele>
        <time>2011-11-27T08:21:44Z</time>
      </trkpt>
      <trkpt lat="45.79865" lon="4.82501">
        <ele>222</ele>
        <time>2011-11-27T08:21:49Z</time>
      </trkpt>
      <trkpt lat="45.79865" lon="4.82491">
        <ele>227</ele>
        <time>2011-11-27T08:21:52Z</time>
      </trkpt>
      <trkpt lat="45.79866" lon="4.82482">
        <ele>227</ele>
        <time>2011-11-27T08:21:55Z</time>
      </trkpt>
      <trkpt lat="45.79874" lon="4.82466">
        <ele>228</ele>
        <time>2011-11-27T08:22:01Z</time>
      </trkpt>
      <trkpt lat="45.79877" lon="4.82459">
        <ele>229</ele>
        <time>2011-11-27T08:22:04Z</time>
      </trkpt>
      <trkpt lat="45.79878" lon="4.82455">
        <ele>229</ele>
        <time>2011-11-27T08:22:06Z</time>
      </trkpt>
      <trkpt lat="45.79879" lon="4.8245">
        <ele>229</ele>
        <time>2011-11-27T08:22:08Z</time>
      </trkpt>
      <trkpt lat="45.7988" lon="4.82442">
        <ele>229</ele>
        <time>2011-11-27T08:22:11Z</time>
      </trkpt>
      <trkpt lat="45.79879" lon="4.82439">
        <ele>229</ele>
        <time>2011-11-27T08:22:12Z</time>
      </trkpt>
      <trkpt lat="45.79867" lon="4.82426">
        <ele>229</ele>
        <time>2011-11-27T08:22:18Z</time>
      </trkpt>
      <trkpt lat="45.79866" lon="4.82424">
        <ele>229</ele>
        <time>2011-11-27T08:22:19Z</time>
      </trkpt>
      <trkpt lat="45.79857" lon="4.82414">
        <ele>230</ele>
        <time>2011-11-27T08:22:24Z</time>
      </trkpt>
      <trkpt lat="45.79852" lon="4.82408">
        <ele>230</ele>
        <time>2011-11-27T08:22:27Z</time>
      </trkpt>
      <trkpt lat="45.79848" lon="4.82404">
        <ele>230</ele>
        <time>2011-11-27T08:22:29Z</time>
      </trkpt>
      <trkpt lat="45.79836" lon="4.82391">
        <ele>230</ele>
        <time>2011-11-27T08:22:35Z</time>
      </trkpt>
      <trkpt lat="45.79835" lon="4.82389">
        <ele>231</ele>
        <time>2011-11-27T08:22:36Z</time>
      </trkpt>
      <trkpt lat="45.79834" lon="4.82388">
        <ele>231</ele>
        <time>2011-11-27T08:22:37Z</time>
      </trkpt>
      <trkpt lat="45.79831" lon="4.82391">
        <ele>225</ele>
        <time>2011-11-27T08:22:39Z</time>
      </trkpt>
      <trkpt lat="45.79824" lon="4.82406">
        <ele>226</ele>
        <time>2011-11-27T08:22:45Z</time>
      </trkpt>
      <trkpt lat="45.79818" lon="4.82419">
        <ele>220</ele>
        <time>2011-11-27T08:22:50Z</time>
      </trkpt>
      <trkpt lat="45.79816" lon="4.8242">
        <ele>219</ele>
        <time>2011-11-27T08:22:51Z</time>
      </trkpt>
      <trkpt lat="45.79814" lon="4.82421">
        <ele>218</ele>
        <time>2011-11-27T08:22:52Z</time>
      </trkpt>
      <trkpt lat="45.79809" lon="4.82419">
        <ele>217</ele>
        <time>2011-11-27T08:22:54Z</time>
      </trkpt>
      <trkpt lat="45.79807" lon="4.82417">
        <ele>216</ele>
        <time>2011-11-27T08:22:55Z</time>
      </trkpt>
      <trkpt lat="45.79804" lon="4.82416">
        <ele>223</ele>
        <time>2011-11-27T08:22:56Z</time>
      </trkpt>
      <trkpt lat="45.79794" lon="4.82406">
        <ele>222</ele>
        <time>2011-11-27T08:23:01Z</time>
      </trkpt>
      <trkpt lat="45.79779" lon="4.82391">
        <ele>221</ele>
        <time>2011-11-27T08:23:08Z</time>
      </trkpt>
      <trkpt lat="45.79777" lon="4.82389">
        <ele>220</ele>
        <time>2011-11-27T08:23:09Z</time>
      </trkpt>
      <trkpt lat="45.79765" lon="4.82375">
        <ele>221</ele>
        <time>2011-11-27T08:23:15Z</time>
      </trkpt>
      <trkpt lat="45.79762" lon="4.82372">
        <ele>221</ele>
        <time>2011-11-27T08:23:17Z</time>
      </trkpt>
      <trkpt lat="45.79752" lon="4.8236">
        <ele>222</ele>
        <time>2011-11-27T08:23:22Z</time>
      </trkpt>
      <trkpt lat="45.79748" lon="4.82355">
        <ele>213</ele>
        <time>2011-11-27T08:23:24Z</time>
      </trkpt>
      <trkpt lat="45.7974" lon="4.82346">
        <ele>214</ele>
        <time>2011-11-27T08:23:28Z</time>
      </trkpt>
      <trkpt lat="45.79733" lon="4.82336">
        <ele>214</ele>
        <time>2011-11-27T08:23:32Z</time>
      </trkpt>
      <trkpt lat="45.79731" lon="4.82333">
        <ele>220</ele>
        <time>2011-11-27T08:23:33Z</time>
      </trkpt>
      <trkpt lat="45.7972" lon="4.82318">
        <ele>218</ele>
        <time>2011-11-27T08:23:39Z</time>
      </trkpt>
      <trkpt lat="45.79718" lon="4.82315">
        <ele>218</ele>
        <time>2011-11-27T08:23:40Z</time>
      </trkpt>
      <trkpt lat="45.79709" lon="4.82302">
        <ele>218</ele>
        <time>2011-11-27T08:23:45Z</time>
      </trkpt>
      <trkpt lat="45.79706" lon="4.82297">
        <ele>218</ele>
        <time>2011-11-27T08:23:47Z</time>
      </trkpt>
      <trkpt lat="45.797" lon="4.82286">
        <ele>218</ele>
        <time>2011-11-27T08:23:51Z</time>
      </trkpt>
      <trkpt lat="45.79694" lon="4.82275">
        <ele>219</ele>
        <time>2011-11-27T08:23:55Z</time>
      </trkpt>
      <trkpt lat="45.79692" lon="4.82272">
        <ele>219</ele>
        <time>2011-11-27T08:23:56Z</time>
      </trkpt>
      <trkpt lat="45.79684" lon="4.82258">
        <ele>219</ele>
        <time>2011-11-27T08:24:01Z</time>
      </trkpt>
      <trkpt lat="45.79683" lon="4.82255">
        <ele>219</ele>
        <time>2011-11-27T08:24:02Z</time>
      </trkpt>
      <trkpt lat="45.79676" lon="4.8224">
        <ele>223</ele>
        <time>2011-11-27T08:24:07Z</time>
      </trkpt>
      <trkpt lat="45.79671" lon="4.82233">
        <ele>223</ele>
        <time>2011-11-27T08:24:10Z</time>
      </trkpt>
      <trkpt lat="45.79669" lon="4.82228">
        <ele>224</ele>
        <time>2011-11-27T08:24:12Z</time>
      </trkpt>
      <trkpt lat="45.79659" lon="4.82214">
        <ele>218</ele>
        <time>2011-11-27T08:24:18Z</time>
      </trkpt>
      <trkpt lat="45.79657" lon="4.82211">
        <ele>218</ele>
        <time>2011-11-27T08:24:19Z</time>
      </trkpt>
      <trkpt lat="45.79649" lon="4.82197">
        <ele>219</ele>
        <time>2011-11-27T08:24:24Z</time>
      </trkpt>
      <trkpt lat="45.79646" lon="4.82192">
        <ele>219</ele>
        <time>2011-11-27T08:24:26Z</time>
      </trkpt>
      <trkpt lat="45.7964" lon="4.82179">
        <ele>219</ele>
        <time>2011-11-27T08:24:30Z</time>
      </trkpt>
      <trkpt lat="45.79635" lon="4.82166">
        <ele>223</ele>
        <time>2011-11-27T08:24:34Z</time>
      </trkpt>
      <trkpt lat="45.79633" lon="4.8216">
        <ele>222</ele>
        <time>2011-11-27T08:24:36Z</time>
      </trkpt>
      <trkpt lat="45.79626" lon="4.82144">
        <ele>222</ele>
        <time>2011-11-27T08:24:41Z</time>
      </trkpt>
      <trkpt lat="45.79621" lon="4.82126">
        <ele>222</ele>
        <time>2011-11-27T08:24:46Z</time>
      </trkpt>
      <trkpt lat="45.79619" lon="4.82119">
        <ele>222</ele>
        <time>2011-11-27T08:24:48Z</time>
      </trkpt>
      <trkpt lat="45.79616" lon="4.82104">
        <ele>222</ele>
        <time>2011-11-27T08:24:52Z</time>
      </trkpt>
      <trkpt lat="45.79613" lon="4.82092">
        <ele>222</ele>
        <time>2011-11-27T08:24:55Z</time>
      </trkpt>
      <trkpt lat="45.79611" lon="4.82081">
        <ele>222</ele>
        <time>2011-11-27T08:24:58Z</time>
      </trkpt>
      <trkpt lat="45.79608" lon="4.82065">
        <ele>222</ele>
        <time>2011-11-27T08:25:02Z</time>
      </trkpt>
      <trkpt lat="45.79606" lon="4.82058">
        <ele>222</ele>
        <time>2011-11-27T08:25:04Z</time>
      </trkpt>
      <trkpt lat="45.79599" lon="4.82042">
        <ele>222</ele>
        <time>2011-11-27T08:25:09Z</time>
      </trkpt>
      <trkpt lat="45.79594" lon="4.82029">
        <ele>222</ele>
        <time>2011-11-27T08:25:13Z</time>
      </trkpt>
      <trkpt lat="45.79588" lon="4.82016">
        <ele>222</ele>
        <time>2011-11-27T08:25:17Z</time>
      </trkpt>
      <trkpt lat="45.79584" lon="4.82008">
        <ele>222</ele>
        <time>2011-11-27T08:25:20Z</time>
      </trkpt>
      <trkpt lat="45.79575" lon="4.81997">
        <ele>222</ele>
        <time>2011-11-27T08:25:25Z</time>
      </trkpt>
      <trkpt lat="45.79564" lon="4.81999">
        <ele>222</ele>
        <time>2011-11-27T08:25:30Z</time>
      </trkpt>
      <trkpt lat="45.79557" lon="4.82001">
        <ele>217</ele>
        <time>2011-11-27T08:25:33Z</time>
      </trkpt>
      <trkpt lat="45.79551" lon="4.82003">
        <ele>217</ele>
        <time>2011-11-27T08:25:36Z</time>
      </trkpt>
      <trkpt lat="45.79549" lon="4.82003">
        <ele>217</ele>
        <time>2011-11-27T08:25:37Z</time>
      </trkpt>
      <trkpt lat="45.79544" lon="4.82006">
        <ele>216</ele>
        <time>2011-11-27T08:25:40Z</time>
      </trkpt>
      <trkpt lat="45.79537" lon="4.82007">
        <ele>216</ele>
        <time>2011-11-27T08:25:43Z</time>
      </trkpt>
      <trkpt lat="45.79531" lon="4.82008">
        <ele>215</ele>
        <time>2011-11-27T08:25:45Z</time>
      </trkpt>
      <trkpt lat="45.79517" lon="4.82013">
        <ele>215</ele>
        <time>2011-11-27T08:25:50Z</time>
      </trkpt>
      <trkpt lat="45.79503" lon="4.82015">
        <ele>214</ele>
        <time>2011-11-27T08:25:56Z</time>
      </trkpt>
      <trkpt lat="45.79497" lon="4.82017">
        <ele>207</ele>
        <time>2011-11-27T08:25:58Z</time>
      </trkpt>
      <trkpt lat="45.79485" lon="4.82021">
        <ele>204</ele>
        <time>2011-11-27T08:26:03Z</time>
      </trkpt>
      <trkpt lat="45.79479" lon="4.82023">
        <ele>202</ele>
        <time>2011-11-27T08:26:05Z</time>
      </trkpt>
      <trkpt lat="45.79474" lon="4.82026">
        <ele>201</ele>
        <time>2011-11-27T08:26:08Z</time>
      </trkpt>
      <trkpt lat="45.79466" lon="4.8203">
        <ele>200</ele>
        <time>2011-11-27T08:26:12Z</time>
      </trkpt>
      <trkpt lat="45.79461" lon="4.82033">
        <ele>199</ele>
        <time>2011-11-27T08:26:14Z</time>
      </trkpt>
      <trkpt lat="45.79453" lon="4.82036">
        <ele>197</ele>
        <time>2011-11-27T08:26:18Z</time>
      </trkpt>
      <trkpt lat="45.79444" lon="4.82041">
        <ele>196</ele>
        <time>2011-11-27T08:26:22Z</time>
      </trkpt>
      <trkpt lat="45.79441" lon="4.82042">
        <ele>196</ele>
        <time>2011-11-27T08:26:23Z</time>
      </trkpt>
      <trkpt lat="45.7943" lon="4.82044">
        <ele>194</ele>
        <time>2011-11-27T08:26:27Z</time>
      </trkpt>
      <trkpt lat="45.79424" lon="4.82046">
        <ele>194</ele>
        <time>2011-11-27T08:26:29Z</time>
      </trkpt>
      <trkpt lat="45.79417" lon="4.82047">
        <ele>193</ele>
        <time>2011-11-27T08:26:32Z</time>
      </trkpt>
      <trkpt lat="45.79405" lon="4.82048">
        <ele>182</ele>
        <time>2011-11-27T08:26:38Z</time>
      </trkpt>
      <trkpt lat="45.79404" lon="4.82048">
        <ele>182</ele>
        <time>2011-11-27T08:26:39Z</time>
      </trkpt>
      <trkpt lat="45.79395" lon="4.82048">
        <ele>182</ele>
        <time>2011-11-27T08:26:44Z</time>
      </trkpt>
      <trkpt lat="45.79387" lon="4.82041">
        <ele>181</ele>
        <time>2011-11-27T08:26:50Z</time>
      </trkpt>
      <trkpt lat="45.79378" lon="4.82025">
        <ele>181</ele>
        <time>2011-11-27T08:26:55Z</time>
      </trkpt>
      <trkpt lat="45.79376" lon="4.82019">
        <ele>181</ele>
        <time>2011-11-27T08:26:57Z</time>
      </trkpt>
      <trkpt lat="45.79372" lon="4.8201">
        <ele>181</ele>
        <time>2011-11-27T08:27:00Z</time>
      </trkpt>
      <trkpt lat="45.79365" lon="4.81999">
        <ele>185</ele>
        <time>2011-11-27T08:27:04Z</time>
      </trkpt>
      <trkpt lat="45.79364" lon="4.81996">
        <ele>184</ele>
        <time>2011-11-27T08:27:05Z</time>
      </trkpt>
      <trkpt lat="45.79357" lon="4.8198">
        <ele>184</ele>
        <time>2011-11-27T08:27:10Z</time>
      </trkpt>
      <trkpt lat="45.79352" lon="4.81972">
        <ele>185</ele>
        <time>2011-11-27T08:27:13Z</time>
      </trkpt>
      <trkpt lat="45.79351" lon="4.81969">
        <ele>185</ele>
        <time>2011-11-27T08:27:14Z</time>
      </trkpt>
      <trkpt lat="45.79345" lon="4.81956">
        <ele>185</ele>
        <time>2011-11-27T08:27:19Z</time>
      </trkpt>
      <trkpt lat="45.79343" lon="4.81949">
        <ele>185</ele>
        <time>2011-11-27T08:27:21Z</time>
      </trkpt>
      <trkpt lat="45.79336" lon="4.81938">
        <ele>184</ele>
        <time>2011-11-27T08:27:25Z</time>
      </trkpt>
      <trkpt lat="45.7933" lon="4.81927">
        <ele>179</ele>
        <time>2011-11-27T08:27:29Z</time>
      </trkpt>
      <trkpt lat="45.79327" lon="4.81922">
        <ele>179</ele>
        <time>2011-11-27T08:27:31Z</time>
      </trkpt>
      <trkpt lat="45.7932" lon="4.81915">
        <ele>180</ele>
        <time>2011-11-27T08:27:35Z</time>
      </trkpt>
      <trkpt lat="45.79317" lon="4.81914">
        <ele>180</ele>
        <time>2011-11-27T08:27:36Z</time>
      </trkpt>
      <trkpt lat="45.79316" lon="4.81911">
        <ele>180</ele>
        <time>2011-11-27T08:27:38Z</time>
      </trkpt>
      <trkpt lat="45.79315" lon="4.8191">
        <ele>180</ele>
        <time>2011-11-27T08:27:40Z</time>
      </trkpt>
      <trkpt lat="45.79318" lon="4.81913">
        <ele>180</ele>
        <time>2011-11-27T08:27:43Z</time>
      </trkpt>
      <trkpt lat="45.79318" lon="4.81913">
        <ele>180</ele>
        <time>2011-11-27T08:27:44Z</time>
      </trkpt>
      <trkpt lat="45.79311" lon="4.81914">
        <ele>180</ele>
        <time>2011-11-27T08:27:48Z</time>
      </trkpt>
      <trkpt lat="45.79305" lon="4.81918">
        <ele>176</ele>
        <time>2011-11-27T08:27:51Z</time>
      </trkpt>
      <trkpt lat="45.793" lon="4.81921">
        <ele>176</ele>
        <time>2011-11-27T08:27:52Z</time>
      </trkpt>
      <trkpt lat="45.79289" lon="4.8193">
        <ele>175</ele>
        <time>2011-11-27T08:27:56Z</time>
      </trkpt>
      <trkpt lat="45.79284" lon="4.81933">
        <ele>175</ele>
        <time>2011-11-27T08:27:58Z</time>
      </trkpt>
      <trkpt lat="45.79272" lon="4.8194">
        <ele>174</ele>
        <time>2011-11-27T08:28:03Z</time>
      </trkpt>
      <trkpt lat="45.7927" lon="4.81939">
        <ele>174</ele>
        <time>2011-11-27T08:28:04Z</time>
      </trkpt>
      <trkpt lat="45.79261" lon="4.81932">
        <ele>173</ele>
        <time>2011-11-27T08:28:08Z</time>
      </trkpt>
      <trkpt lat="45.79259" lon="4.8193">
        <ele>173</ele>
        <time>2011-11-27T08:28:09Z</time>
      </trkpt>
      <trkpt lat="45.79255" lon="4.81926">
        <ele>172</ele>
        <time>2011-11-27T08:28:11Z</time>
      </trkpt>
      <trkpt lat="45.7925" lon="4.81917">
        <ele>171</ele>
        <time>2011-11-27T08:28:14Z</time>
      </trkpt>
      <trkpt lat="45.79243" lon="4.81905">
        <ele>171</ele>
        <time>2011-11-27T08:28:18Z</time>
      </trkpt>
      <trkpt lat="45.79239" lon="4.819">
        <ele>171</ele>
        <time>2011-11-27T08:28:20Z</time>
      </trkpt>
      <trkpt lat="45.79229" lon="4.81887">
        <ele>171</ele>
        <time>2011-11-27T08:28:25Z</time>
      </trkpt>
      <trkpt lat="45.79227" lon="4.81884">
        <ele>172</ele>
        <time>2011-11-27T08:28:26Z</time>
      </trkpt>
      <trkpt lat="45.79218" lon="4.81881">
        <ele>172</ele>
        <time>2011-11-27T08:28:31Z</time>
      </trkpt>
      <trkpt lat="45.79211" lon="4.81887">
        <ele>171</ele>
        <time>2011-11-27T08:28:34Z</time>
      </trkpt>
      <trkpt lat="45.79208" lon="4.81893">
        <ele>171</ele>
        <time>2011-11-27T08:28:36Z</time>
      </trkpt>
      <trkpt lat="45.79199" lon="4.81906">
        <ele>171</ele>
        <time>2011-11-27T08:28:41Z</time>
      </trkpt>
      <trkpt lat="45.79197" lon="4.81909">
        <ele>171</ele>
        <time>2011-11-27T08:28:42Z</time>
      </trkpt>
      <trkpt lat="45.79188" lon="4.81923">
        <ele>170</ele>
        <time>2011-11-27T08:28:47Z</time>
      </trkpt>
      <trkpt lat="45.79186" lon="4.81927">
        <ele>170</ele>
        <time>2011-11-27T08:28:48Z</time>
      </trkpt>
      <trkpt lat="45.79177" lon="4.8194">
        <ele>170</ele>
        <time>2011-11-27T08:28:54Z</time>
      </trkpt>
      <trkpt lat="45.79173" lon="4.81947">
        <ele>169</ele>
        <time>2011-11-27T08:28:57Z</time>
      </trkpt>
      <trkpt lat="45.79167" lon="4.81954">
        <ele>169</ele>
        <time>2011-11-27T08:29:01Z</time>
      </trkpt>
      <trkpt lat="45.79165" lon="4.81955">
        <ele>167</ele>
        <time>2011-11-27T08:29:02Z</time>
      </trkpt>
      <trkpt lat="45.7916" lon="4.81948">
        <ele>168</ele>
        <time>2011-11-27T08:29:05Z</time>
      </trkpt>
      <trkpt lat="45.79158" lon="4.81946">
        <ele>168</ele>
        <time>2011-11-27T08:29:06Z</time>
      </trkpt>
      <trkpt lat="45.7915" lon="4.81937">
        <ele>168</ele>
        <time>2011-11-27T08:29:10Z</time>
      </trkpt>
      <trkpt lat="45.79141" lon="4.81933">
        <ele>168</ele>
        <time>2011-11-27T08:29:14Z</time>
      </trkpt>
      <trkpt lat="45.79129" lon="4.81928">
        <ele>167</ele>
        <time>2011-11-27T08:29:20Z</time>
      </trkpt>
      <trkpt lat="45.79123" lon="4.81922">
        <ele>167</ele>
        <time>2011-11-27T08:29:23Z</time>
      </trkpt>
      <trkpt lat="45.79119" lon="4.81918">
        <ele>167</ele>
        <time>2011-11-27T08:29:25Z</time>
      </trkpt>
      <trkpt lat="45.79117" lon="4.81915">
        <ele>168</ele>
        <time>2011-11-27T08:29:26Z</time>
      </trkpt>
      <trkpt lat="45.79108" lon="4.81904">
        <ele>168</ele>
        <time>2011-11-27T08:29:31Z</time>
      </trkpt>
      <trkpt lat="45.79096" lon="4.81891">
        <ele>168</ele>
        <time>2011-11-27T08:29:36Z</time>
      </trkpt>
      <trkpt lat="45.79093" lon="4.81884">
        <ele>168</ele>
        <time>2011-11-27T08:29:38Z</time>
      </trkpt>
      <trkpt lat="45.79084" lon="4.81871">
        <ele>168</ele>
        <time>2011-11-27T08:29:43Z</time>
      </trkpt>
      <trkpt lat="45.79079" lon="4.81864">
        <ele>166</ele>
        <time>2011-11-27T08:29:46Z</time>
      </trkpt>
      <trkpt lat="45.79074" lon="4.81857">
        <ele>166</ele>
        <time>2011-11-27T08:29:49Z</time>
      </trkpt>
      <trkpt lat="45.79066" lon="4.81847">
        <ele>167</ele>
        <time>2011-11-27T08:29:53Z</time>
      </trkpt>
      <trkpt lat="45.79054" lon="4.81832">
        <ele>167</ele>
        <time>2011-11-27T08:29:59Z</time>
      </trkpt>
      <trkpt lat="45.79052" lon="4.81829">
        <ele>167</ele>
        <time>2011-11-27T08:30:00Z</time>
      </trkpt>
      <trkpt lat="45.79046" lon="4.81822">
        <ele>167</ele>
        <time>2011-11-27T08:30:03Z</time>
      </trkpt>
      <trkpt lat="45.79039" lon="4.81813">
        <ele>167</ele>
        <time>2011-11-27T08:30:07Z</time>
      </trkpt>
      <trkpt lat="45.79037" lon="4.8181">
        <ele>167</ele>
        <time>2011-11-27T08:30:08Z</time>
      </trkpt>
      <trkpt lat="45.79031" lon="4.81803">
        <ele>167</ele>
        <time>2011-11-27T08:30:11Z</time>
      </trkpt>
      <trkpt lat="45.79022" lon="4.81791">
        <ele>167</ele>
        <time>2011-11-27T08:30:15Z</time>
      </trkpt>
      <trkpt lat="45.79019" lon="4.81785">
        <ele>168</ele>
        <time>2011-11-27T08:30:17Z</time>
      </trkpt>
      <trkpt lat="45.79009" lon="4.81771">
        <ele>168</ele>
        <time>2011-11-27T08:30:22Z</time>
      </trkpt>
      <trkpt lat="45.79" lon="4.81759">
        <ele>169</ele>
        <time>2011-11-27T08:30:27Z</time>
      </trkpt>
      <trkpt lat="45.78996" lon="4.81751">
        <ele>169</ele>
        <time>2011-11-27T08:30:30Z</time>
      </trkpt>
      <trkpt lat="45.78993" lon="4.81746">
        <ele>169</ele>
        <time>2011-11-27T08:30:32Z</time>
      </trkpt>
      <trkpt lat="45.78984" lon="4.81732">
        <ele>168</ele>
        <time>2011-11-27T08:30:37Z</time>
      </trkpt>
      <trkpt lat="45.78982" lon="4.81729">
        <ele>168</ele>
        <time>2011-11-27T08:30:38Z</time>
      </trkpt>
      <trkpt lat="45.78971" lon="4.81713">
        <ele>168</ele>
        <time>2011-11-27T08:30:44Z</time>
      </trkpt>
      <trkpt lat="45.78962" lon="4.817">
        <ele>168</ele>
        <time>2011-11-27T08:30:49Z</time>
      </trkpt>
      <trkpt lat="45.78958" lon="4.81695">
        <ele>168</ele>
        <time>2011-11-27T08:30:51Z</time>
      </trkpt>
      <trkpt lat="45.78954" lon="4.8169">
        <ele>169</ele>
        <time>2011-11-27T08:30:53Z</time>
      </trkpt>
      <trkpt lat="45.78946" lon="4.81679">
        <ele>169</ele>
        <time>2011-11-27T08:30:58Z</time>
      </trkpt>
      <trkpt lat="45.78944" lon="4.81677">
        <ele>169</ele>
        <time>2011-11-27T08:30:59Z</time>
      </trkpt>
      <trkpt lat="45.78937" lon="4.81666">
        <ele>170</ele>
        <time>2011-11-27T08:31:03Z</time>
      </trkpt>
      <trkpt lat="45.78931" lon="4.81658">
        <ele>170</ele>
        <time>2011-11-27T08:31:07Z</time>
      </trkpt>
      <trkpt lat="45.78928" lon="4.81653">
        <ele>170</ele>
        <time>2011-11-27T08:31:09Z</time>
      </trkpt>
      <trkpt lat="45.78918" lon="4.8164">
        <ele>170</ele>
        <time>2011-11-27T08:31:14Z</time>
      </trkpt>
      <trkpt lat="45.78914" lon="4.81636">
        <ele>170</ele>
        <time>2011-11-27T08:31:16Z</time>
      </trkpt>
      <trkpt lat="45.78906" lon="4.81625">
        <ele>170</ele>
        <time>2011-11-27T08:31:21Z</time>
      </trkpt>
      <trkpt lat="45.78904" lon="4.81623">
        <ele>170</ele>
        <time>2011-11-27T08:31:22Z</time>
      </trkpt>
      <trkpt lat="45.78896" lon="4.81612">
        <ele>170</ele>
        <time>2011-11-27T08:31:26Z</time>
      </trkpt>
      <trkpt lat="45.7889" lon="4.81604">
        <ele>170</ele>
        <time>2011-11-27T08:31:29Z</time>
      </trkpt>
      <trkpt lat="45.78884" lon="4.81597">
        <ele>170</ele>
        <time>2011-11-27T08:31:32Z</time>
      </trkpt>
      <trkpt lat="45.78882" lon="4.81595">
        <ele>170</ele>
        <time>2011-11-27T08:31:33Z</time>
      </trkpt>
      <trkpt lat="45.78877" lon="4.81589">
        <ele>170</ele>
        <time>2011-11-27T08:31:36Z</time>
      </trkpt>
      <trkpt lat="45.78876" lon="4.81587">
        <ele>171</ele>
        <time>2011-11-27T08:31:37Z</time>
      </trkpt>
      <trkpt lat="45.7887" lon="4.81581">
        <ele>172</ele>
        <time>2011-11-27T08:31:40Z</time>
      </trkpt>
      <trkpt lat="45.78866" lon="4.81577">
        <ele>172</ele>
        <time>2011-11-27T08:31:42Z</time>
      </trkpt>
      <trkpt lat="45.7886" lon="4.81571">
        <ele>172</ele>
        <time>2011-11-27T08:31:45Z</time>
      </trkpt>
      <trkpt lat="45.78854" lon="4.81563">
        <ele>172</ele>
        <time>2011-11-27T08:31:48Z</time>
      </trkpt>
      <trkpt lat="45.78847" lon="4.81552">
        <ele>172</ele>
        <time>2011-11-27T08:31:52Z</time>
      </trkpt>
      <trkpt lat="45.78845" lon="4.8155">
        <ele>172</ele>
        <time>2011-11-27T08:31:53Z</time>
      </trkpt>
      <trkpt lat="45.78832" lon="4.81537">
        <ele>171</ele>
        <time>2011-11-27T08:31:59Z</time>
      </trkpt>
      <trkpt lat="45.78819" lon="4.81524">
        <ele>171</ele>
        <time>2011-11-27T08:32:05Z</time>
      </trkpt>
      <trkpt lat="45.78816" lon="4.81521">
        <ele>171</ele>
        <time>2011-11-27T08:32:07Z</time>
      </trkpt>
      <trkpt lat="45.78804" lon="4.81509">
        <ele>171</ele>
        <time>2011-11-27T08:32:13Z</time>
      </trkpt>
      <trkpt lat="45.788" lon="4.81507">
        <ele>171</ele>
        <time>2011-11-27T08:32:15Z</time>
      </trkpt>
      <trkpt lat="45.78791" lon="4.815">
        <ele>172</ele>
        <time>2011-11-27T08:32:19Z</time>
      </trkpt>
      <trkpt lat="45.78782" lon="4.81494">
        <ele>173</ele>
        <time>2011-11-27T08:32:23Z</time>
      </trkpt>
      <trkpt lat="45.78775" lon="4.81488">
        <ele>173</ele>
        <time>2011-11-27T08:32:26Z</time>
      </trkpt>
      <trkpt lat="45.78766" lon="4.81481">
        <ele>173</ele>
        <time>2011-11-27T08:32:30Z</time>
      </trkpt>
      <trkpt lat="45.78762" lon="4.81478">
        <ele>173</ele>
        <time>2011-11-27T08:32:32Z</time>
      </trkpt>
      <trkpt lat="45.78749" lon="4.81468">
        <ele>171</ele>
        <time>2011-11-27T08:32:38Z</time>
      </trkpt>
      <trkpt lat="45.78733" lon="4.81456">
        <ele>171</ele>
        <time>2011-11-27T08:32:45Z</time>
      </trkpt>
      <trkpt lat="45.7872" lon="4.81447">
        <ele>171</ele>
        <time>2011-11-27T08:32:51Z</time>
      </trkpt>
      <trkpt lat="45.78715" lon="4.81443">
        <ele>170</ele>
        <time>2011-11-27T08:32:53Z</time>
      </trkpt>
      <trkpt lat="45.78705" lon="4.81435">
        <ele>170</ele>
        <time>2011-11-27T08:32:58Z</time>
      </trkpt>
      <trkpt lat="45.78698" lon="4.8143">
        <ele>170</ele>
        <time>2011-11-27T08:33:01Z</time>
      </trkpt>
      <trkpt lat="45.78688" lon="4.81423">
        <ele>170</ele>
        <time>2011-11-27T08:33:05Z</time>
      </trkpt>
      <trkpt lat="45.7868" lon="4.81417">
        <ele>171</ele>
        <time>2011-11-27T08:33:09Z</time>
      </trkpt>
      <trkpt lat="45.78671" lon="4.8141">
        <ele>171</ele>
        <time>2011-11-27T08:33:13Z</time>
      </trkpt>
      <trkpt lat="45.78663" lon="4.81405">
        <ele>170</ele>
        <time>2011-11-27T08:33:16Z</time>
      </trkpt>
      <trkpt lat="45.78658" lon="4.81401">
        <ele>169</ele>
        <time>2011-11-27T08:33:18Z</time>
      </trkpt>
      <trkpt lat="45.78644" lon="4.81393">
        <ele>169</ele>
        <time>2011-11-27T08:33:24Z</time>
      </trkpt>
      <trkpt lat="45.7863" lon="4.81385">
        <ele>168</ele>
        <time>2011-11-27T08:33:29Z</time>
      </trkpt>
      <trkpt lat="45.78625" lon="4.81382">
        <ele>168</ele>
        <time>2011-11-27T08:33:32Z</time>
      </trkpt>
      <trkpt lat="45.78614" lon="4.81375">
        <ele>168</ele>
        <time>2011-11-27T08:33:35Z</time>
      </trkpt>
      <trkpt lat="45.78605" lon="4.8137">
        <ele>168</ele>
        <time>2011-11-27T08:33:39Z</time>
      </trkpt>
      <trkpt lat="45.78603" lon="4.81369">
        <ele>168</ele>
        <time>2011-11-27T08:33:40Z</time>
      </trkpt>
      <trkpt lat="45.78589" lon="4.81358">
        <ele>168</ele>
        <time>2011-11-27T08:33:46Z</time>
      </trkpt>
      <trkpt lat="45.78578" lon="4.8135">
        <ele>167</ele>
        <time>2011-11-27T08:33:51Z</time>
      </trkpt>
      <trkpt lat="45.78572" lon="4.81347">
        <ele>167</ele>
        <time>2011-11-27T08:33:54Z</time>
      </trkpt>
      <trkpt lat="45.78569" lon="4.81345">
        <ele>167</ele>
        <time>2011-11-27T08:33:55Z</time>
      </trkpt>
      <trkpt lat="45.78553" lon="4.81335">
        <ele>166</ele>
        <time>2011-11-27T08:34:02Z</time>
      </trkpt>
      <trkpt lat="45.78542" lon="4.81327">
        <ele>167</ele>
        <time>2011-11-27T08:34:07Z</time>
      </trkpt>
      <trkpt lat="45.78537" lon="4.81322">
        <ele>167</ele>
        <time>2011-11-27T08:34:10Z</time>
      </trkpt>
      <trkpt lat="45.78533" lon="4.8132">
        <ele>167</ele>
        <time>2011-11-27T08:34:12Z</time>
      </trkpt>
      <trkpt lat="45.78522" lon="4.81313">
        <ele>167</ele>
        <time>2011-11-27T08:34:17Z</time>
      </trkpt>
      <trkpt lat="45.7852" lon="4.81311">
        <ele>167</ele>
        <time>2011-11-27T08:34:18Z</time>
      </trkpt>
      <trkpt lat="45.78507" lon="4.81303">
        <ele>167</ele>
        <time>2011-11-27T08:34:23Z</time>
      </trkpt>
      <trkpt lat="45.78502" lon="4.813">
        <ele>167</ele>
        <time>2011-11-27T08:34:25Z</time>
      </trkpt>
      <trkpt lat="45.78495" lon="4.81295">
        <ele>168</ele>
        <time>2011-11-27T08:34:28Z</time>
      </trkpt>
      <trkpt lat="45.78485" lon="4.81285">
        <ele>168</ele>
        <time>2011-11-27T08:34:33Z</time>
      </trkpt>
      <trkpt lat="45.78481" lon="4.81282">
        <ele>168</ele>
        <time>2011-11-27T08:34:35Z</time>
      </trkpt>
      <trkpt lat="45.78472" lon="4.81271">
        <ele>169</ele>
        <time>2011-11-27T08:34:40Z</time>
      </trkpt>
      <trkpt lat="45.78469" lon="4.81269">
        <ele>169</ele>
        <time>2011-11-27T08:34:41Z</time>
      </trkpt>
      <trkpt lat="45.78457" lon="4.81258">
        <ele>169</ele>
        <time>2011-11-27T08:34:47Z</time>
      </trkpt>
      <trkpt lat="45.78454" lon="4.81254">
        <ele>170</ele>
        <time>2011-11-27T08:34:49Z</time>
      </trkpt>
      <trkpt lat="45.78443" lon="4.81244">
        <ele>172</ele>
        <time>2011-11-27T08:34:54Z</time>
      </trkpt>
      <trkpt lat="45.78439" lon="4.8124">
        <ele>172</ele>
        <time>2011-11-27T08:34:56Z</time>
      </trkpt>
      <trkpt lat="45.78432" lon="4.81234">
        <ele>172</ele>
        <time>2011-11-27T08:34:59Z</time>
      </trkpt>
      <trkpt lat="45.78423" lon="4.81225">
        <ele>172</ele>
        <time>2011-11-27T08:35:04Z</time>
      </trkpt>
      <trkpt lat="45.7842" lon="4.81224">
        <ele>172</ele>
        <time>2011-11-27T08:35:05Z</time>
      </trkpt>
      <trkpt lat="45.78409" lon="4.81216">
        <ele>172</ele>
        <time>2011-11-27T08:35:10Z</time>
      </trkpt>
      <trkpt lat="45.78407" lon="4.81214">
        <ele>172</ele>
        <time>2011-11-27T08:35:11Z</time>
      </trkpt>
      <trkpt lat="45.78398" lon="4.81209">
        <ele>172</ele>
        <time>2011-11-27T08:35:15Z</time>
      </trkpt>
      <trkpt lat="45.78389" lon="4.81205">
        <ele>172</ele>
        <time>2011-11-27T08:35:19Z</time>
      </trkpt>
      <trkpt lat="45.78379" lon="4.81198">
        <ele>172</ele>
        <time>2011-11-27T08:35:24Z</time>
      </trkpt>
      <trkpt lat="45.78373" lon="4.8119">
        <ele>172</ele>
        <time>2011-11-27T08:35:28Z</time>
      </trkpt>
      <trkpt lat="45.7837" lon="4.81185">
        <ele>172</ele>
        <time>2011-11-27T08:35:30Z</time>
      </trkpt>
      <trkpt lat="45.7836" lon="4.81174">
        <ele>173</ele>
        <time>2011-11-27T08:35:36Z</time>
      </trkpt>
      <trkpt lat="45.78358" lon="4.81172">
        <ele>173</ele>
        <time>2011-11-27T08:35:37Z</time>
      </trkpt>
      <trkpt lat="45.7835" lon="4.81165">
        <ele>175</ele>
        <time>2011-11-27T08:35:41Z</time>
      </trkpt>
      <trkpt lat="45.78342" lon="4.81159">
        <ele>175</ele>
        <time>2011-11-27T08:35:45Z</time>
      </trkpt>
      <trkpt lat="45.78339" lon="4.81158">
        <ele>175</ele>
        <time>2011-11-27T08:35:46Z</time>
      </trkpt>
      <trkpt lat="45.78326" lon="4.81146">
        <ele>173</ele>
        <time>2011-11-27T08:35:52Z</time>
      </trkpt>
      <trkpt lat="45.78324" lon="4.81145">
        <ele>173</ele>
        <time>2011-11-27T08:35:53Z</time>
      </trkpt>
      <trkpt lat="45.78315" lon="4.81138">
        <ele>173</ele>
        <time>2011-11-27T08:35:58Z</time>
      </trkpt>
      <trkpt lat="45.78309" lon="4.81133">
        <ele>172</ele>
        <time>2011-11-27T08:36:01Z</time>
      </trkpt>
      <trkpt lat="45.78303" lon="4.81131">
        <ele>172</ele>
        <time>2011-11-27T08:36:03Z</time>
      </trkpt>
      <trkpt lat="45.78292" lon="4.81125">
        <ele>172</ele>
        <time>2011-11-27T08:36:07Z</time>
      </trkpt>
      <trkpt lat="45.78289" lon="4.81124">
        <ele>172</ele>
        <time>2011-11-27T08:36:08Z</time>
      </trkpt>
      <trkpt lat="45.78276" lon="4.81113">
        <ele>171</ele>
        <time>2011-11-27T08:36:14Z</time>
      </trkpt>
      <trkpt lat="45.78267" lon="4.81103">
        <ele>171</ele>
        <time>2011-11-27T08:36:19Z</time>
      </trkpt>
      <trkpt lat="45.78259" lon="4.81097">
        <ele>171</ele>
        <time>2011-11-27T08:36:23Z</time>
      </trkpt>
      <trkpt lat="45.78256" lon="4.81092">
        <ele>171</ele>
        <time>2011-11-27T08:36:25Z</time>
      </trkpt>
      <trkpt lat="45.78244" lon="4.81083">
        <ele>170</ele>
        <time>2011-11-27T08:36:30Z</time>
      </trkpt>
      <trkpt lat="45.78242" lon="4.81082">
        <ele>170</ele>
        <time>2011-11-27T08:36:32Z</time>
      </trkpt>
      <trkpt lat="45.78229" lon="4.8107">
        <ele>169</ele>
        <time>2011-11-27T08:36:37Z</time>
      </trkpt>
      <trkpt lat="45.78226" lon="4.81068">
        <ele>168</ele>
        <time>2011-11-27T08:36:38Z</time>
      </trkpt>
      <trkpt lat="45.78213" lon="4.81057">
        <ele>168</ele>
        <time>2011-11-27T08:36:44Z</time>
      </trkpt>
      <trkpt lat="45.78209" lon="4.81053">
        <ele>168</ele>
        <time>2011-11-27T08:36:47Z</time>
      </trkpt>
      <trkpt lat="45.782" lon="4.81046">
        <ele>167</ele>
        <time>2011-11-27T08:36:50Z</time>
      </trkpt>
      <trkpt lat="45.78191" lon="4.81038">
        <ele>167</ele>
        <time>2011-11-27T08:36:54Z</time>
      </trkpt>
      <trkpt lat="45.78187" lon="4.81035">
        <ele>167</ele>
        <time>2011-11-27T08:36:56Z</time>
      </trkpt>
      <trkpt lat="45.78176" lon="4.81026">
        <ele>167</ele>
        <time>2011-11-27T08:37:01Z</time>
      </trkpt>
      <trkpt lat="45.78174" lon="4.81025">
        <ele>166</ele>
        <time>2011-11-27T08:37:03Z</time>
      </trkpt>
      <trkpt lat="45.78164" lon="4.81017">
        <ele>165</ele>
        <time>2011-11-27T08:37:07Z</time>
      </trkpt>
      <trkpt lat="45.78157" lon="4.81012">
        <ele>165</ele>
        <time>2011-11-27T08:37:09Z</time>
      </trkpt>
      <trkpt lat="45.7815" lon="4.81006">
        <ele>165</ele>
        <time>2011-11-27T08:37:13Z</time>
      </trkpt>
      <trkpt lat="45.7814" lon="4.80998">
        <ele>166</ele>
        <time>2011-11-27T08:37:16Z</time>
      </trkpt>
      <trkpt lat="45.78135" lon="4.80994">
        <ele>166</ele>
        <time>2011-11-27T08:37:18Z</time>
      </trkpt>
      <trkpt lat="45.78124" lon="4.80986">
        <ele>166</ele>
        <time>2011-11-27T08:37:23Z</time>
      </trkpt>
      <trkpt lat="45.78122" lon="4.80984">
        <ele>166</ele>
        <time>2011-11-27T08:37:24Z</time>
      </trkpt>
      <trkpt lat="45.78113" lon="4.80976">
        <ele>167</ele>
        <time>2011-11-27T08:37:29Z</time>
      </trkpt>
      <trkpt lat="45.78104" lon="4.8097">
        <ele>167</ele>
        <time>2011-11-27T08:37:33Z</time>
      </trkpt>
      <trkpt lat="45.78101" lon="4.80966">
        <ele>167</ele>
        <time>2011-11-27T08:37:34Z</time>
      </trkpt>
      <trkpt lat="45.78089" lon="4.80955">
        <ele>167</ele>
        <time>2011-11-27T08:37:41Z</time>
      </trkpt>
      <trkpt lat="45.78076" lon="4.80945">
        <ele>169</ele>
        <time>2011-11-27T08:37:46Z</time>
      </trkpt>
      <trkpt lat="45.78071" lon="4.80943">
        <ele>169</ele>
        <time>2011-11-27T08:37:48Z</time>
      </trkpt>
      <trkpt lat="45.78063" lon="4.80939">
        <ele>169</ele>
        <time>2011-11-27T08:37:52Z</time>
      </trkpt>
      <trkpt lat="45.78052" lon="4.80933">
        <ele>169</ele>
        <time>2011-11-27T08:37:56Z</time>
      </trkpt>
      <trkpt lat="45.78048" lon="4.80931">
        <ele>170</ele>
        <time>2011-11-27T08:37:58Z</time>
      </trkpt>
      <trkpt lat="45.78037" lon="4.80923">
        <ele>170</ele>
        <time>2011-11-27T08:38:03Z</time>
      </trkpt>
      <trkpt lat="45.78034" lon="4.80921">
        <ele>170</ele>
        <time>2011-11-27T08:38:04Z</time>
      </trkpt>
      <trkpt lat="45.78024" lon="4.80915">
        <ele>174</ele>
        <time>2011-11-27T08:38:08Z</time>
      </trkpt>
      <trkpt lat="45.78016" lon="4.8091">
        <ele>174</ele>
        <time>2011-11-27T08:38:12Z</time>
      </trkpt>
      <trkpt lat="45.78014" lon="4.80908">
        <ele>174</ele>
        <time>2011-11-27T08:38:13Z</time>
      </trkpt>
      <trkpt lat="45.78" lon="4.80901">
        <ele>174</ele>
        <time>2011-11-27T08:38:19Z</time>
      </trkpt>
      <trkpt lat="45.77998" lon="4.809">
        <ele>174</ele>
        <time>2011-11-27T08:38:20Z</time>
      </trkpt>
      <trkpt lat="45.7799" lon="4.80897">
        <ele>174</ele>
        <time>2011-11-27T08:38:24Z</time>
      </trkpt>
      <trkpt lat="45.77979" lon="4.80891">
        <ele>173</ele>
        <time>2011-11-27T08:38:29Z</time>
      </trkpt>
      <trkpt lat="45.77977" lon="4.80889">
        <ele>173</ele>
        <time>2011-11-27T08:38:30Z</time>
      </trkpt>
      <trkpt lat="45.77962" lon="4.80879">
        <ele>173</ele>
        <time>2011-11-27T08:38:37Z</time>
      </trkpt>
      <trkpt lat="45.77947" lon="4.80869">
        <ele>173</ele>
        <time>2011-11-27T08:38:44Z</time>
      </trkpt>
      <trkpt lat="45.77945" lon="4.80868">
        <ele>173</ele>
        <time>2011-11-27T08:38:45Z</time>
      </trkpt>
      <trkpt lat="45.77936" lon="4.80861">
        <ele>173</ele>
        <time>2011-11-27T08:38:50Z</time>
      </trkpt>
      <trkpt lat="45.77929" lon="4.80855">
        <ele>173</ele>
        <time>2011-11-27T08:38:52Z</time>
      </trkpt>
      <trkpt lat="45.77925" lon="4.8085">
        <ele>173</ele>
        <time>2011-11-27T08:38:54Z</time>
      </trkpt>
      <trkpt lat="45.77914" lon="4.8084">
        <ele>172</ele>
        <time>2011-11-27T08:38:59Z</time>
      </trkpt>
      <trkpt lat="45.77912" lon="4.80838">
        <ele>172</ele>
        <time>2011-11-27T08:39:00Z</time>
      </trkpt>
      <trkpt lat="45.77905" lon="4.80834">
        <ele>171</ele>
        <time>2011-11-27T08:39:03Z</time>
      </trkpt>
      <trkpt lat="45.77894" lon="4.80826">
        <ele>172</ele>
        <time>2011-11-27T08:39:08Z</time>
      </trkpt>
      <trkpt lat="45.77885" lon="4.8082">
        <ele>172</ele>
        <time>2011-11-27T08:39:13Z</time>
      </trkpt>
      <trkpt lat="45.77875" lon="4.80813">
        <ele>172</ele>
        <time>2011-11-27T08:39:17Z</time>
      </trkpt>
      <trkpt lat="45.77862" lon="4.80805">
        <ele>171</ele>
        <time>2011-11-27T08:39:22Z</time>
      </trkpt>
      <trkpt lat="45.7786" lon="4.80803">
        <ele>171</ele>
        <time>2011-11-27T08:39:23Z</time>
      </trkpt>
      <trkpt lat="45.7785" lon="4.808">
        <ele>171</ele>
        <time>2011-11-27T08:39:27Z</time>
      </trkpt>
      <trkpt lat="45.77841" lon="4.80802">
        <ele>171</ele>
        <time>2011-11-27T08:39:31Z</time>
      </trkpt>
      <trkpt lat="45.77836" lon="4.80801">
        <ele>171</ele>
        <time>2011-11-27T08:39:33Z</time>
      </trkpt>
      <trkpt lat="45.77822" lon="4.80798">
        <ele>169</ele>
        <time>2011-11-27T08:39:39Z</time>
      </trkpt>
      <trkpt lat="45.77804" lon="4.80793">
        <ele>169</ele>
        <time>2011-11-27T08:39:46Z</time>
      </trkpt>
      <trkpt lat="45.77794" lon="4.80789">
        <ele>169</ele>
        <time>2011-11-27T08:39:50Z</time>
      </trkpt>
      <trkpt lat="45.77785" lon="4.80787">
        <ele>169</ele>
        <time>2011-11-27T08:39:54Z</time>
      </trkpt>
      <trkpt lat="45.77779" lon="4.80784">
        <ele>169</ele>
        <time>2011-11-27T08:39:56Z</time>
      </trkpt>
      <trkpt lat="45.77765" lon="4.8078">
        <ele>169</ele>
        <time>2011-11-27T08:40:01Z</time>
      </trkpt>
      <trkpt lat="45.77753" lon="4.80778">
        <ele>170</ele>
        <time>2011-11-27T08:40:06Z</time>
      </trkpt>
      <trkpt lat="45.77746" lon="4.80775">
        <ele>169</ele>
        <time>2011-11-27T08:40:09Z</time>
      </trkpt>
      <trkpt lat="45.77739" lon="4.80774">
        <ele>169</ele>
        <time>2011-11-27T08:40:11Z</time>
      </trkpt>
      <trkpt lat="45.77726" lon="4.80775">
        <ele>169</ele>
        <time>2011-11-27T08:40:16Z</time>
      </trkpt>
      <trkpt lat="45.77723" lon="4.80774">
        <ele>169</ele>
        <time>2011-11-27T08:40:17Z</time>
      </trkpt>
      <trkpt lat="45.77708" lon="4.80778">
        <ele>168</ele>
        <time>2011-11-27T08:40:22Z</time>
      </trkpt>
      <trkpt lat="45.77692" lon="4.80784">
        <ele>168</ele>
        <time>2011-11-27T08:40:28Z</time>
      </trkpt>
      <trkpt lat="45.77689" lon="4.80785">
        <ele>168</ele>
        <time>2011-11-27T08:40:30Z</time>
      </trkpt>
      <trkpt lat="45.77676" lon="4.8079">
        <ele>168</ele>
        <time>2011-11-27T08:40:34Z</time>
      </trkpt>
      <trkpt lat="45.77671" lon="4.80793">
        <ele>168</ele>
        <time>2011-11-27T08:40:36Z</time>
      </trkpt>
      <trkpt lat="45.77662" lon="4.80797">
        <ele>169</ele>
        <time>2011-11-27T08:40:40Z</time>
      </trkpt>
      <trkpt lat="45.77652" lon="4.80803">
        <ele>169</ele>
        <time>2011-11-27T08:40:44Z</time>
      </trkpt>
      <trkpt lat="45.77647" lon="4.80805">
        <ele>169</ele>
        <time>2011-11-27T08:40:46Z</time>
      </trkpt>
      <trkpt lat="45.77635" lon="4.80809">
        <ele>169</ele>
        <time>2011-11-27T08:40:51Z</time>
      </trkpt>
      <trkpt lat="45.77616" lon="4.8082">
        <ele>170</ele>
        <time>2011-11-27T08:40:58Z</time>
      </trkpt>
      <trkpt lat="45.77603" lon="4.80827">
        <ele>170</ele>
        <time>2011-11-27T08:41:04Z</time>
      </trkpt>
      <trkpt lat="45.77598" lon="4.80828">
        <ele>170</ele>
        <time>2011-11-27T08:41:05Z</time>
      </trkpt>
      <trkpt lat="45.7759" lon="4.80831">
        <ele>171</ele>
        <time>2011-11-27T08:41:09Z</time>
      </trkpt>
      <trkpt lat="45.7758" lon="4.80834">
        <ele>171</ele>
        <time>2011-11-27T08:41:12Z</time>
      </trkpt>
      <trkpt lat="45.77575" lon="4.80836">
        <ele>170</ele>
        <time>2011-11-27T08:41:14Z</time>
      </trkpt>
      <trkpt lat="45.77563" lon="4.80841">
        <ele>169</ele>
        <time>2011-11-27T08:41:19Z</time>
      </trkpt>
      <trkpt lat="45.7756" lon="4.80842">
        <ele>169</ele>
        <time>2011-11-27T08:41:20Z</time>
      </trkpt>
      <trkpt lat="45.77545" lon="4.80849">
        <ele>169</ele>
        <time>2011-11-27T08:41:27Z</time>
      </trkpt>
      <trkpt lat="45.77528" lon="4.80856">
        <ele>169</ele>
        <time>2011-11-27T08:41:33Z</time>
      </trkpt>
      <trkpt lat="45.77526" lon="4.80857">
        <ele>169</ele>
        <time>2011-11-27T08:41:34Z</time>
      </trkpt>
      <trkpt lat="45.77518" lon="4.80862">
        <ele>169</ele>
        <time>2011-11-27T08:41:38Z</time>
      </trkpt>
      <trkpt lat="45.77507" lon="4.80868">
        <ele>168</ele>
        <time>2011-11-27T08:41:43Z</time>
      </trkpt>
      <trkpt lat="45.77495" lon="4.80877">
        <ele>170</ele>
        <time>2011-11-27T08:41:48Z</time>
      </trkpt>
      <trkpt lat="45.77488" lon="4.80878">
        <ele>170</ele>
        <time>2011-11-27T08:41:52Z</time>
      </trkpt>
      <trkpt lat="45.77483" lon="4.80888">
        <ele>170</ele>
        <time>2011-11-27T08:41:55Z</time>
      </trkpt>
      <trkpt lat="45.77472" lon="4.80896">
        <ele>170</ele>
        <time>2011-11-27T08:41:59Z</time>
      </trkpt>
      <trkpt lat="45.77463" lon="4.80905">
        <ele>170</ele>
        <time>2011-11-27T08:42:04Z</time>
      </trkpt>
      <trkpt lat="45.77454" lon="4.80908">
        <ele>170</ele>
        <time>2011-11-27T08:42:07Z</time>
      </trkpt>
      <trkpt lat="45.7745" lon="4.80911">
        <ele>171</ele>
        <time>2011-11-27T08:42:09Z</time>
      </trkpt>
      <trkpt lat="45.77437" lon="4.80916">
        <ele>171</ele>
        <time>2011-11-27T08:42:16Z</time>
      </trkpt>
      <trkpt lat="45.77425" lon="4.80926">
        <ele>170</ele>
        <time>2011-11-27T08:42:21Z</time>
      </trkpt>
      <trkpt lat="45.77421" lon="4.80929">
        <ele>170</ele>
        <time>2011-11-27T08:42:23Z</time>
      </trkpt>
      <trkpt lat="45.77413" lon="4.80936">
        <ele>172</ele>
        <time>2011-11-27T08:42:28Z</time>
      </trkpt>
      <trkpt lat="45.77405" lon="4.80945">
        <ele>171</ele>
        <time>2011-11-27T08:42:31Z</time>
      </trkpt>
      <trkpt lat="45.77403" lon="4.80947">
        <ele>171</ele>
        <time>2011-11-27T08:42:33Z</time>
      </trkpt>
      <trkpt lat="45.77392" lon="4.80959">
        <ele>171</ele>
        <time>2011-11-27T08:42:38Z</time>
      </trkpt>
      <trkpt lat="45.7739" lon="4.80961">
        <ele>171</ele>
        <time>2011-11-27T08:42:40Z</time>
      </trkpt>
      <trkpt lat="45.7738" lon="4.80973">
        <ele>171</ele>
        <time>2011-11-27T08:42:45Z</time>
      </trkpt>
      <trkpt lat="45.77372" lon="4.80982">
        <ele>171</ele>
        <time>2011-11-27T08:42:48Z</time>
      </trkpt>
      <trkpt lat="45.77371" lon="4.80985">
        <ele>171</ele>
        <time>2011-11-27T08:42:49Z</time>
      </trkpt>
      <trkpt lat="45.77368" lon="4.8099">
        <ele>172</ele>
        <time>2011-11-27T08:42:51Z</time>
      </trkpt>
      <trkpt lat="45.7736" lon="4.80997">
        <ele>172</ele>
        <time>2011-11-27T08:42:55Z</time>
      </trkpt>
      <trkpt lat="45.77356" lon="4.81001">
        <ele>170</ele>
        <time>2011-11-27T08:42:57Z</time>
      </trkpt>
      <trkpt lat="45.77345" lon="4.81013">
        <ele>170</ele>
        <time>2011-11-27T08:43:03Z</time>
      </trkpt>
      <trkpt lat="45.77333" lon="4.81025">
        <ele>174</ele>
        <time>2011-11-27T08:43:09Z</time>
      </trkpt>
      <trkpt lat="45.77329" lon="4.8103">
        <ele>174</ele>
        <time>2011-11-27T08:43:11Z</time>
      </trkpt>
      <trkpt lat="45.77323" lon="4.81037">
        <ele>173</ele>
        <time>2011-11-27T08:43:14Z</time>
      </trkpt>
      <trkpt lat="45.77314" lon="4.81045">
        <ele>173</ele>
        <time>2011-11-27T08:43:20Z</time>
      </trkpt>
      <trkpt lat="45.77308" lon="4.81055">
        <ele>173</ele>
        <time>2011-11-27T08:43:25Z</time>
      </trkpt>
      <trkpt lat="45.773" lon="4.81064">
        <ele>172</ele>
        <time>2011-11-27T08:43:29Z</time>
      </trkpt>
      <trkpt lat="45.77298" lon="4.81067">
        <ele>172</ele>
        <time>2011-11-27T08:43:30Z</time>
      </trkpt>
      <trkpt lat="45.77286" lon="4.81083">
        <ele>173</ele>
        <time>2011-11-27T08:43:36Z</time>
      </trkpt>
      <trkpt lat="45.77285" lon="4.81085">
        <ele>168</ele>
        <time>2011-11-27T08:43:37Z</time>
      </trkpt>
      <trkpt lat="45.77272" lon="4.81095">
        <ele>169</ele>
        <time>2011-11-27T08:43:43Z</time>
      </trkpt>
      <trkpt lat="45.7727" lon="4.81097">
        <ele>169</ele>
        <time>2011-11-27T08:43:44Z</time>
      </trkpt>
      <trkpt lat="45.7726" lon="4.81107">
        <ele>168</ele>
        <time>2011-11-27T08:43:49Z</time>
      </trkpt>
      <trkpt lat="45.77253" lon="4.81112">
        <ele>168</ele>
        <time>2011-11-27T08:43:52Z</time>
      </trkpt>
      <trkpt lat="45.7725" lon="4.81115">
        <ele>172</ele>
        <time>2011-11-27T08:43:54Z</time>
      </trkpt>
      <trkpt lat="45.77246" lon="4.81122">
        <ele>172</ele>
        <time>2011-11-27T08:43:58Z</time>
      </trkpt>
      <trkpt lat="45.77246" lon="4.81124">
        <ele>172</ele>
        <time>2011-11-27T08:44:00Z</time>
      </trkpt>
      <trkpt lat="45.77247" lon="4.81131">
        <ele>171</ele>
        <time>2011-11-27T08:44:04Z</time>
      </trkpt>
      <trkpt lat="45.77247" lon="4.81132">
        <ele>171</ele>
        <time>2011-11-27T08:44:05Z</time>
      </trkpt>
      <trkpt lat="45.77249" lon="4.81134">
        <ele>171</ele>
        <time>2011-11-27T08:44:12Z</time>
      </trkpt>
      <trkpt lat="45.7725" lon="4.81132">
        <ele>171</ele>
        <time>2011-11-27T08:44:14Z</time>
      </trkpt>
      <trkpt lat="45.77248" lon="4.81129">
        <ele>171</ele>
        <time>2011-11-27T08:44:26Z</time>
      </trkpt>
      <trkpt lat="45.77246" lon="4.81128">
        <ele>171</ele>
        <time>2011-11-27T08:44:29Z</time>
      </trkpt>
      <trkpt lat="45.77245" lon="4.81128">
        <ele>171</ele>
        <time>2011-11-27T08:44:31Z</time>
      </trkpt>
      <trkpt lat="45.77242" lon="4.8113">
        <ele>171</ele>
        <time>2011-11-27T08:44:33Z</time>
      </trkpt>
      <trkpt lat="45.77237" lon="4.81132">
        <ele>171</ele>
        <time>2011-11-27T08:44:38Z</time>
      </trkpt>
      <trkpt lat="45.77235" lon="4.81133">
        <ele>171</ele>
        <time>2011-11-27T08:44:40Z</time>
      </trkpt>
      <trkpt lat="45.77227" lon="4.81139">
        <ele>171</ele>
        <time>2011-11-27T08:44:43Z</time>
      </trkpt>
      <trkpt lat="45.77225" lon="4.81141">
        <ele>171</ele>
        <time>2011-11-27T08:44:44Z</time>
      </trkpt>
      <trkpt lat="45.7722" lon="4.81147">
        <ele>171</ele>
        <time>2011-11-27T08:44:47Z</time>
      </trkpt>
      <trkpt lat="45.77216" lon="4.81151">
        <ele>172</ele>
        <time>2011-11-27T08:44:49Z</time>
      </trkpt>
      <trkpt lat="45.77207" lon="4.8116">
        <ele>172</ele>
        <time>2011-11-27T08:44:54Z</time>
      </trkpt>
      <trkpt lat="45.77203" lon="4.81163">
        <ele>172</ele>
        <time>2011-11-27T08:44:56Z</time>
      </trkpt>
      <trkpt lat="45.77195" lon="4.81167">
        <ele>169</ele>
        <time>2011-11-27T08:45:00Z</time>
      </trkpt>
      <trkpt lat="45.77186" lon="4.8117">
        <ele>170</ele>
        <time>2011-11-27T08:45:04Z</time>
      </trkpt>
      <trkpt lat="45.77184" lon="4.81171">
        <ele>170</ele>
        <time>2011-11-27T08:45:05Z</time>
      </trkpt>
      <trkpt lat="45.77168" lon="4.81176">
        <ele>172</ele>
        <time>2011-11-27T08:45:12Z</time>
      </trkpt>
      <trkpt lat="45.77155" lon="4.8118">
        <ele>172</ele>
        <time>2011-11-27T08:45:18Z</time>
      </trkpt>
      <trkpt lat="45.7715" lon="4.81181">
        <ele>172</ele>
        <time>2011-11-27T08:45:20Z</time>
      </trkpt>
      <trkpt lat="45.77141" lon="4.81185">
        <ele>171</ele>
        <time>2011-11-27T08:45:24Z</time>
      </trkpt>
      <trkpt lat="45.77132" lon="4.8119">
        <ele>171</ele>
        <time>2011-11-27T08:45:28Z</time>
      </trkpt>
      <trkpt lat="45.7713" lon="4.8119">
        <ele>171</ele>
        <time>2011-11-27T08:45:29Z</time>
      </trkpt>
      <trkpt lat="45.77115" lon="4.812">
        <ele>170</ele>
        <time>2011-11-27T08:45:35Z</time>
      </trkpt>
      <trkpt lat="45.77113" lon="4.81202">
        <ele>170</ele>
        <time>2011-11-27T08:45:36Z</time>
      </trkpt>
      <trkpt lat="45.77105" lon="4.81207">
        <ele>170</ele>
        <time>2011-11-27T08:45:40Z</time>
      </trkpt>
      <trkpt lat="45.77103" lon="4.81208">
        <ele>170</ele>
        <time>2011-11-27T08:45:41Z</time>
      </trkpt>
      <trkpt lat="45.77097" lon="4.8121">
        <ele>170</ele>
        <time>2011-11-27T08:45:43Z</time>
      </trkpt>
      <trkpt lat="45.77088" lon="4.81212">
        <ele>170</ele>
        <time>2011-11-27T08:45:47Z</time>
      </trkpt>
      <trkpt lat="45.77077" lon="4.81215">
        <ele>170</ele>
        <time>2011-11-27T08:45:51Z</time>
      </trkpt>
      <trkpt lat="45.77066" lon="4.81219">
        <ele>169</ele>
        <time>2011-11-27T08:45:56Z</time>
      </trkpt>
      <trkpt lat="45.7706" lon="4.8122">
        <ele>169</ele>
        <time>2011-11-27T08:45:59Z</time>
      </trkpt>
      <trkpt lat="45.77055" lon="4.81221">
        <ele>169</ele>
        <time>2011-11-27T08:46:02Z</time>
      </trkpt>
      <trkpt lat="45.77041" lon="4.81227">
        <ele>169</ele>
        <time>2011-11-27T08:46:07Z</time>
      </trkpt>
      <trkpt lat="45.77025" lon="4.81239">
        <ele>168</ele>
        <time>2011-11-27T08:46:15Z</time>
      </trkpt>
      <trkpt lat="45.77009" lon="4.81256">
        <ele>165</ele>
        <time>2011-11-27T08:46:22Z</time>
      </trkpt>
      <trkpt lat="45.77008" lon="4.81256">
        <ele>165</ele>
        <time>2011-11-27T08:46:23Z</time>
      </trkpt>
      <trkpt lat="45.77005" lon="4.81256">
        <ele>165</ele>
        <time>2011-11-27T08:46:25Z</time>
      </trkpt>
      <trkpt lat="45.76998" lon="4.8126">
        <ele>165</ele>
        <time>2011-11-27T08:46:28Z</time>
      </trkpt>
      <trkpt lat="45.76996" lon="4.81262">
        <ele>165</ele>
        <time>2011-11-27T08:46:29Z</time>
      </trkpt>
      <trkpt lat="45.76993" lon="4.81262">
        <ele>165</ele>
        <time>2011-11-27T08:46:31Z</time>
      </trkpt>
      <trkpt lat="45.7699" lon="4.81261">
        <ele>165</ele>
        <time>2011-11-27T08:46:32Z</time>
      </trkpt>
      <trkpt lat="45.76985" lon="4.81263">
        <ele>165</ele>
        <time>2011-11-27T08:46:34Z</time>
      </trkpt>
      <trkpt lat="45.76979" lon="4.81264">
        <ele>165</ele>
        <time>2011-11-27T08:46:36Z</time>
      </trkpt>
      <trkpt lat="45.76971" lon="4.81266">
        <ele>165</ele>
        <time>2011-11-27T08:46:38Z</time>
      </trkpt>
      <trkpt lat="45.76969" lon="4.81267">
        <ele>165</ele>
        <time>2011-11-27T08:46:39Z</time>
      </trkpt>
      <trkpt lat="45.76953" lon="4.81269">
        <ele>165</ele>
        <time>2011-11-27T08:46:45Z</time>
      </trkpt>
      <trkpt lat="45.76951" lon="4.8127">
        <ele>165</ele>
        <time>2011-11-27T08:46:47Z</time>
      </trkpt>
      <trkpt lat="45.76933" lon="4.81272">
        <ele>165</ele>
        <time>2011-11-27T08:46:53Z</time>
      </trkpt>
      <trkpt lat="45.76916" lon="4.81275">
        <ele>166</ele>
        <time>2011-11-27T08:47:00Z</time>
      </trkpt>
      <trkpt lat="45.76914" lon="4.81276">
        <ele>166</ele>
        <time>2011-11-27T08:47:02Z</time>
      </trkpt>
      <trkpt lat="45.76899" lon="4.81279">
        <ele>166</ele>
        <time>2011-11-27T08:47:07Z</time>
      </trkpt>
      <trkpt lat="45.76894" lon="4.8128">
        <ele>166</ele>
        <time>2011-11-27T08:47:10Z</time>
      </trkpt>
      <trkpt lat="45.76885" lon="4.81282">
        <ele>166</ele>
        <time>2011-11-27T08:47:13Z</time>
      </trkpt>
      <trkpt lat="45.76875" lon="4.81283">
        <ele>167</ele>
        <time>2011-11-27T08:47:17Z</time>
      </trkpt>
      <trkpt lat="45.76866" lon="4.81285">
        <ele>167</ele>
        <time>2011-11-27T08:47:21Z</time>
      </trkpt>
      <trkpt lat="45.76856" lon="4.81288">
        <ele>167</ele>
        <time>2011-11-27T08:47:26Z</time>
      </trkpt>
      <trkpt lat="45.76849" lon="4.8129">
        <ele>167</ele>
        <time>2011-11-27T08:47:28Z</time>
      </trkpt>
      <trkpt lat="45.76837" lon="4.81297">
        <ele>167</ele>
        <time>2011-11-27T08:47:33Z</time>
      </trkpt>
      <trkpt lat="45.76832" lon="4.81299">
        <ele>170</ele>
        <time>2011-11-27T08:47:35Z</time>
      </trkpt>
      <trkpt lat="45.76818" lon="4.81309">
        <ele>170</ele>
        <time>2011-11-27T08:47:41Z</time>
      </trkpt>
      <trkpt lat="45.76803" lon="4.81324">
        <ele>171</ele>
        <time>2011-11-27T08:47:49Z</time>
      </trkpt>
      <trkpt lat="45.7679" lon="4.8134">
        <ele>169</ele>
        <time>2011-11-27T08:47:54Z</time>
      </trkpt>
      <trkpt lat="45.76788" lon="4.81342">
        <ele>169</ele>
        <time>2011-11-27T08:47:56Z</time>
      </trkpt>
      <trkpt lat="45.76777" lon="4.81358">
        <ele>169</ele>
        <time>2011-11-27T08:48:01Z</time>
      </trkpt>
      <trkpt lat="45.76774" lon="4.81363">
        <ele>169</ele>
        <time>2011-11-27T08:48:03Z</time>
      </trkpt>
      <trkpt lat="45.76769" lon="4.81374">
        <ele>168</ele>
        <time>2011-11-27T08:48:08Z</time>
      </trkpt>
      <trkpt lat="45.76763" lon="4.81387">
        <ele>167</ele>
        <time>2011-11-27T08:48:11Z</time>
      </trkpt>
      <trkpt lat="45.7676" lon="4.81393">
        <ele>167</ele>
        <time>2011-11-27T08:48:14Z</time>
      </trkpt>
      <trkpt lat="45.76754" lon="4.81409">
        <ele>166</ele>
        <time>2011-11-27T08:48:18Z</time>
      </trkpt>
      <trkpt lat="45.76747" lon="4.81429">
        <ele>169</ele>
        <time>2011-11-27T08:48:24Z</time>
      </trkpt>
      <trkpt lat="45.76746" lon="4.81432">
        <ele>169</ele>
        <time>2011-11-27T08:48:26Z</time>
      </trkpt>
      <trkpt lat="45.7674" lon="4.81453">
        <ele>172</ele>
        <time>2011-11-27T08:48:32Z</time>
      </trkpt>
      <trkpt lat="45.76739" lon="4.81457">
        <ele>172</ele>
        <time>2011-11-27T08:48:33Z</time>
      </trkpt>
      <trkpt lat="45.76731" lon="4.81472">
        <ele>172</ele>
        <time>2011-11-27T08:48:39Z</time>
      </trkpt>
      <trkpt lat="45.76725" lon="4.81472">
        <ele>173</ele>
        <time>2011-11-27T08:48:42Z</time>
      </trkpt>
      <trkpt lat="45.76723" lon="4.81471">
        <ele>173</ele>
        <time>2011-11-27T08:48:43Z</time>
      </trkpt>
      <trkpt lat="45.7672" lon="4.81469">
        <ele>173</ele>
        <time>2011-11-27T08:48:45Z</time>
      </trkpt>
      <trkpt lat="45.76711" lon="4.81465">
        <ele>174</ele>
        <time>2011-11-27T08:48:50Z</time>
      </trkpt>
      <trkpt lat="45.76707" lon="4.81463">
        <ele>175</ele>
        <time>2011-11-27T08:48:52Z</time>
      </trkpt>
      <trkpt lat="45.76704" lon="4.81462">
        <ele>175</ele>
        <time>2011-11-27T08:48:54Z</time>
      </trkpt>
      <trkpt lat="45.76701" lon="4.81462">
        <ele>176</ele>
        <time>2011-11-27T08:48:56Z</time>
      </trkpt>
      <trkpt lat="45.76697" lon="4.81464">
        <ele>176</ele>
        <time>2011-11-27T08:48:59Z</time>
      </trkpt>
      <trkpt lat="45.76694" lon="4.81464">
        <ele>176</ele>
        <time>2011-11-27T08:49:01Z</time>
      </trkpt>
      <trkpt lat="45.76685" lon="4.81463">
        <ele>177</ele>
        <time>2011-11-27T08:49:06Z</time>
      </trkpt>
      <trkpt lat="45.76684" lon="4.81463">
        <ele>177</ele>
        <time>2011-11-27T08:49:07Z</time>
      </trkpt>
      <trkpt lat="45.76682" lon="4.81462">
        <ele>178</ele>
        <time>2011-11-27T08:49:10Z</time>
      </trkpt>
      <trkpt lat="45.76678" lon="4.81461">
        <ele>178</ele>
        <time>2011-11-27T08:49:13Z</time>
      </trkpt>
      <trkpt lat="45.76672" lon="4.8146">
        <ele>178</ele>
        <time>2011-11-27T08:49:19Z</time>
      </trkpt>
      <trkpt lat="45.76666" lon="4.8146">
        <ele>194</ele>
        <time>2011-11-27T08:49:24Z</time>
      </trkpt>
      <trkpt lat="45.76665" lon="4.81457">
        <ele>194</ele>
        <time>2011-11-27T08:49:26Z</time>
      </trkpt>
      <trkpt lat="45.76666" lon="4.81454">
        <ele>194</ele>
        <time>2011-11-27T08:49:28Z</time>
      </trkpt>
      <trkpt lat="45.76665" lon="4.81453">
        <ele>194</ele>
        <time>2011-11-27T08:49:30Z</time>
      </trkpt>
      <trkpt lat="45.76664" lon="4.81451">
        <ele>194</ele>
        <time>2011-11-27T08:49:31Z</time>
      </trkpt>
      <trkpt lat="45.7666" lon="4.81448">
        <ele>194</ele>
        <time>2011-11-27T08:49:36Z</time>
      </trkpt>
      <trkpt lat="45.76658" lon="4.81448">
        <ele>194</ele>
        <time>2011-11-27T08:49:38Z</time>
      </trkpt>
      <trkpt lat="45.76658" lon="4.81447">
        <ele>194</ele>
        <time>2011-11-27T08:49:39Z</time>
      </trkpt>
      <trkpt lat="45.76653" lon="4.81446">
        <ele>195</ele>
        <time>2011-11-27T08:49:43Z</time>
      </trkpt>
      <trkpt lat="45.76651" lon="4.81447">
        <ele>195</ele>
        <time>2011-11-27T08:49:45Z</time>
      </trkpt>
      <trkpt lat="45.76649" lon="4.81447">
        <ele>196</ele>
        <time>2011-11-27T08:49:47Z</time>
      </trkpt>
      <trkpt lat="45.76648" lon="4.81447">
        <ele>196</ele>
        <time>2011-11-27T08:49:48Z</time>
      </trkpt>
      <trkpt lat="45.76644" lon="4.81447">
        <ele>196</ele>
        <time>2011-11-27T08:49:53Z</time>
      </trkpt>
      <trkpt lat="45.76643" lon="4.81447">
        <ele>197</ele>
        <time>2011-11-27T08:49:54Z</time>
      </trkpt>
      <trkpt lat="45.76639" lon="4.81446">
        <ele>197</ele>
        <time>2011-11-27T08:49:59Z</time>
      </trkpt>
      <trkpt lat="45.76638" lon="4.81446">
        <ele>198</ele>
        <time>2011-11-27T08:50:00Z</time>
      </trkpt>
      <trkpt lat="45.76635" lon="4.81445">
        <ele>198</ele>
        <time>2011-11-27T08:50:05Z</time>
      </trkpt>
      <trkpt lat="45.76633" lon="4.81445">
        <ele>198</ele>
        <time>2011-11-27T08:50:07Z</time>
      </trkpt>
      <trkpt lat="45.7663" lon="4.81443">
        <ele>199</ele>
        <time>2011-11-27T08:50:12Z</time>
      </trkpt>
      <trkpt lat="45.76628" lon="4.81441">
        <ele>199</ele>
        <time>2011-11-27T08:50:17Z</time>
      </trkpt>
      <trkpt lat="45.76626" lon="4.81441">
        <ele>200</ele>
        <time>2011-11-27T08:50:19Z</time>
      </trkpt>
      <trkpt lat="45.76622" lon="4.8144">
        <ele>201</ele>
        <time>2011-11-27T08:50:25Z</time>
      </trkpt>
      <trkpt lat="45.76618" lon="4.81441">
        <ele>202</ele>
        <time>2011-11-27T08:50:29Z</time>
      </trkpt>
      <trkpt lat="45.76616" lon="4.81441">
        <ele>202</ele>
        <time>2011-11-27T08:50:30Z</time>
      </trkpt>
      <trkpt lat="45.76615" lon="4.81439">
        <ele>202</ele>
        <time>2011-11-27T08:50:32Z</time>
      </trkpt>
      <trkpt lat="45.76615" lon="4.81441">
        <ele>202</ele>
        <time>2011-11-27T08:50:34Z</time>
      </trkpt>
      <trkpt lat="45.7661" lon="4.81437">
        <ele>203</ele>
        <time>2011-11-27T08:50:42Z</time>
      </trkpt>
      <trkpt lat="45.76601" lon="4.81437">
        <ele>205</ele>
        <time>2011-11-27T08:50:48Z</time>
      </trkpt>
      <trkpt lat="45.76598" lon="4.81437">
        <ele>205</ele>
        <time>2011-11-27T08:50:49Z</time>
      </trkpt>
      <trkpt lat="45.76595" lon="4.81436">
        <ele>206</ele>
        <time>2011-11-27T08:50:52Z</time>
      </trkpt>
      <trkpt lat="45.76593" lon="4.81435">
        <ele>206</ele>
        <time>2011-11-27T08:50:54Z</time>
      </trkpt>
      <trkpt lat="45.76591" lon="4.81434">
        <ele>207</ele>
        <time>2011-11-27T08:50:58Z</time>
      </trkpt>
      <trkpt lat="45.76588" lon="4.81431">
        <ele>208</ele>
        <time>2011-11-27T08:51:02Z</time>
      </trkpt>
      <trkpt lat="45.76585" lon="4.81433">
        <ele>208</ele>
        <time>2011-11-27T08:51:08Z</time>
      </trkpt>
      <trkpt lat="45.76583" lon="4.81428">
        <ele>221</ele>
        <time>2011-11-27T08:51:13Z</time>
      </trkpt>
      <trkpt lat="45.76581" lon="4.81428">
        <ele>221</ele>
        <time>2011-11-27T08:51:14Z</time>
      </trkpt>
      <trkpt lat="45.76574" lon="4.81425">
        <ele>222</ele>
        <time>2011-11-27T08:51:20Z</time>
      </trkpt>
      <trkpt lat="45.76573" lon="4.81424">
        <ele>222</ele>
        <time>2011-11-27T08:51:22Z</time>
      </trkpt>
      <trkpt lat="45.7657" lon="4.81419">
        <ele>222</ele>
        <time>2011-11-27T08:51:26Z</time>
      </trkpt>
      <trkpt lat="45.76569" lon="4.81417">
        <ele>222</ele>
        <time>2011-11-27T08:51:28Z</time>
      </trkpt>
      <trkpt lat="45.76568" lon="4.81417">
        <ele>223</ele>
        <time>2011-11-27T08:51:29Z</time>
      </trkpt>
      <trkpt lat="45.76566" lon="4.81417">
        <ele>224</ele>
        <time>2011-11-27T08:51:32Z</time>
      </trkpt>
      <trkpt lat="45.76564" lon="4.81417">
        <ele>225</ele>
        <time>2011-11-27T08:51:35Z</time>
      </trkpt>
      <trkpt lat="45.76563" lon="4.81418">
        <ele>225</ele>
        <time>2011-11-27T08:51:36Z</time>
      </trkpt>
      <trkpt lat="45.76559" lon="4.81416">
        <ele>225</ele>
        <time>2011-11-27T08:51:42Z</time>
      </trkpt>
      <trkpt lat="45.76557" lon="4.81417">
        <ele>228</ele>
        <time>2011-11-27T08:51:47Z</time>
      </trkpt>
      <trkpt lat="45.76554" lon="4.81416">
        <ele>227</ele>
        <time>2011-11-27T08:51:52Z</time>
      </trkpt>
      <trkpt lat="45.76551" lon="4.81413">
        <ele>228</ele>
        <time>2011-11-27T08:51:58Z</time>
      </trkpt>
      <trkpt lat="45.76548" lon="4.81411">
        <ele>229</ele>
        <time>2011-11-27T08:52:04Z</time>
      </trkpt>
      <trkpt lat="45.76544" lon="4.8141">
        <ele>230</ele>
        <time>2011-11-27T08:52:11Z</time>
      </trkpt>
      <trkpt lat="45.76544" lon="4.8141">
        <ele>231</ele>
        <time>2011-11-27T08:52:12Z</time>
      </trkpt>
      <trkpt lat="45.7654" lon="4.81414">
        <ele>232</ele>
        <time>2011-11-27T08:52:19Z</time>
      </trkpt>
      <trkpt lat="45.76537" lon="4.81412">
        <ele>233</ele>
        <time>2011-11-27T08:52:24Z</time>
      </trkpt>
      <trkpt lat="45.76532" lon="4.8141">
        <ele>234</ele>
        <time>2011-11-27T08:52:31Z</time>
      </trkpt>
      <trkpt lat="45.76531" lon="4.81403">
        <ele>234</ele>
        <time>2011-11-27T08:52:35Z</time>
      </trkpt>
      <trkpt lat="45.76529" lon="4.81399">
        <ele>235</ele>
        <time>2011-11-27T08:52:38Z</time>
      </trkpt>
      <trkpt lat="45.76527" lon="4.81397">
        <ele>235</ele>
        <time>2011-11-27T08:52:40Z</time>
      </trkpt>
      <trkpt lat="45.76525" lon="4.81396">
        <ele>235</ele>
        <time>2011-11-27T08:52:44Z</time>
      </trkpt>
      <trkpt lat="45.76525" lon="4.81397">
        <ele>235</ele>
        <time>2011-11-27T08:52:48Z</time>
      </trkpt>
      <trkpt lat="45.76525" lon="4.81406">
        <ele>236</ele>
        <time>2011-11-27T08:52:51Z</time>
      </trkpt>
      <trkpt lat="45.76526" lon="4.81409">
        <ele>236</ele>
        <time>2011-11-27T08:52:53Z</time>
      </trkpt>
      <trkpt lat="45.76527" lon="4.81426">
        <ele>238</ele>
        <time>2011-11-27T08:52:57Z</time>
      </trkpt>
      <trkpt lat="45.76529" lon="4.81435">
        <ele>237</ele>
        <time>2011-11-27T08:53:00Z</time>
      </trkpt>
      <trkpt lat="45.76534" lon="4.8145">
        <ele>236</ele>
        <time>2011-11-27T08:53:05Z</time>
      </trkpt>
      <trkpt lat="45.76535" lon="4.81453">
        <ele>236</ele>
        <time>2011-11-27T08:53:06Z</time>
      </trkpt>
      <trkpt lat="45.76538" lon="4.81458">
        <ele>235</ele>
        <time>2011-11-27T08:53:08Z</time>
      </trkpt>
      <trkpt lat="45.76541" lon="4.81463">
        <ele>235</ele>
        <time>2011-11-27T08:53:10Z</time>
      </trkpt>
      <trkpt lat="45.7655" lon="4.81478">
        <ele>233</ele>
        <time>2011-11-27T08:53:16Z</time>
      </trkpt>
      <trkpt lat="45.76552" lon="4.8148">
        <ele>233</ele>
        <time>2011-11-27T08:53:18Z</time>
      </trkpt>
      <trkpt lat="45.76561" lon="4.81496">
        <ele>230</ele>
        <time>2011-11-27T08:53:24Z</time>
      </trkpt>
      <trkpt lat="45.76562" lon="4.81497">
        <ele>229</ele>
        <time>2011-11-27T08:53:25Z</time>
      </trkpt>
      <trkpt lat="45.76564" lon="4.81502">
        <ele>228</ele>
        <time>2011-11-27T08:53:28Z</time>
      </trkpt>
      <trkpt lat="45.7656" lon="4.81507">
        <ele>230</ele>
        <time>2011-11-27T08:53:33Z</time>
      </trkpt>
      <trkpt lat="45.76559" lon="4.81507">
        <ele>230</ele>
        <time>2011-11-27T08:53:34Z</time>
      </trkpt>
      <trkpt lat="45.76555" lon="4.81509">
        <ele>231</ele>
        <time>2011-11-27T08:53:40Z</time>
      </trkpt>
      <trkpt lat="45.76554" lon="4.81512">
        <ele>231</ele>
        <time>2011-11-27T08:53:46Z</time>
      </trkpt>
      <trkpt lat="45.76552" lon="4.81514">
        <ele>232</ele>
        <time>2011-11-27T08:53:57Z</time>
      </trkpt>
      <trkpt lat="45.76549" lon="4.81513">
        <ele>233</ele>
        <time>2011-11-27T08:54:00Z</time>
      </trkpt>
      <trkpt lat="45.76549" lon="4.81514">
        <ele>233</ele>
        <time>2011-11-27T08:54:02Z</time>
      </trkpt>
      <trkpt lat="45.76546" lon="4.81513">
        <ele>233</ele>
        <time>2011-11-27T08:54:04Z</time>
      </trkpt>
      <trkpt lat="45.76544" lon="4.81511">
        <ele>234</ele>
        <time>2011-11-27T08:54:09Z</time>
      </trkpt>
      <trkpt lat="45.76541" lon="4.81512">
        <ele>235</ele>
        <time>2011-11-27T08:54:13Z</time>
      </trkpt>
      <trkpt lat="45.7654" lon="4.81513">
        <ele>235</ele>
        <time>2011-11-27T08:54:14Z</time>
      </trkpt>
      <trkpt lat="45.76537" lon="4.81516">
        <ele>236</ele>
        <time>2011-11-27T08:54:17Z</time>
      </trkpt>
      <trkpt lat="45.76536" lon="4.81516">
        <ele>236</ele>
        <time>2011-11-27T08:54:19Z</time>
      </trkpt>
      <trkpt lat="45.76535" lon="4.81516">
        <ele>236</ele>
        <time>2011-11-27T08:54:20Z</time>
      </trkpt>
      <trkpt lat="45.76531" lon="4.81516">
        <ele>238</ele>
        <time>2011-11-27T08:54:25Z</time>
      </trkpt>
      <trkpt lat="45.76529" lon="4.81515">
        <ele>238</ele>
        <time>2011-11-27T08:54:26Z</time>
      </trkpt>
      <trkpt lat="45.76527" lon="4.81514">
        <ele>239</ele>
        <time>2011-11-27T08:54:33Z</time>
      </trkpt>
      <trkpt lat="45.76522" lon="4.81513">
        <ele>241</ele>
        <time>2011-11-27T08:54:42Z</time>
      </trkpt>
      <trkpt lat="45.76517" lon="4.81512">
        <ele>243</ele>
        <time>2011-11-27T08:54:49Z</time>
      </trkpt>
      <trkpt lat="45.76515" lon="4.81508">
        <ele>244</ele>
        <time>2011-11-27T08:54:53Z</time>
      </trkpt>
      <trkpt lat="45.76515" lon="4.81508">
        <ele>245</ele>
        <time>2011-11-27T08:54:54Z</time>
      </trkpt>
      <trkpt lat="45.76513" lon="4.81508">
        <ele>245</ele>
        <time>2011-11-27T08:54:55Z</time>
      </trkpt>
      <trkpt lat="45.76512" lon="4.81508">
        <ele>246</ele>
        <time>2011-11-27T08:54:56Z</time>
      </trkpt>
      <trkpt lat="45.76509" lon="4.81508">
        <ele>247</ele>
        <time>2011-11-27T08:54:59Z</time>
      </trkpt>
      <trkpt lat="45.76505" lon="4.81508">
        <ele>248</ele>
        <time>2011-11-27T08:55:03Z</time>
      </trkpt>
      <trkpt lat="45.76502" lon="4.81506">
        <ele>251</ele>
        <time>2011-11-27T08:55:05Z</time>
      </trkpt>
      <trkpt lat="45.76501" lon="4.81507">
        <ele>250</ele>
        <time>2011-11-27T08:55:07Z</time>
      </trkpt>
      <trkpt lat="45.76495" lon="4.81508">
        <ele>256</ele>
        <time>2011-11-27T08:55:12Z</time>
      </trkpt>
      <trkpt lat="45.76494" lon="4.81508">
        <ele>256</ele>
        <time>2011-11-27T08:55:13Z</time>
      </trkpt>
      <trkpt lat="45.76491" lon="4.81507">
        <ele>257</ele>
        <time>2011-11-27T08:55:18Z</time>
      </trkpt>
      <trkpt lat="45.76487" lon="4.81505">
        <ele>257</ele>
        <time>2011-11-27T08:55:25Z</time>
      </trkpt>
      <trkpt lat="45.76486" lon="4.81505">
        <ele>257</ele>
        <time>2011-11-27T08:55:26Z</time>
      </trkpt>
      <trkpt lat="45.76482" lon="4.81506">
        <ele>257</ele>
        <time>2011-11-27T08:55:32Z</time>
      </trkpt>
      <trkpt lat="45.7648" lon="4.81506">
        <ele>257</ele>
        <time>2011-11-27T08:55:33Z</time>
      </trkpt>
      <trkpt lat="45.76477" lon="4.81506">
        <ele>258</ele>
        <time>2011-11-27T08:55:37Z</time>
      </trkpt>
      <trkpt lat="45.76475" lon="4.81505">
        <ele>258</ele>
        <time>2011-11-27T08:55:38Z</time>
      </trkpt>
      <trkpt lat="45.76472" lon="4.81503">
        <ele>258</ele>
        <time>2011-11-27T08:55:44Z</time>
      </trkpt>
      <trkpt lat="45.76471" lon="4.81506">
        <ele>258</ele>
        <time>2011-11-27T08:55:49Z</time>
      </trkpt>
      <trkpt lat="45.76468" lon="4.81504">
        <ele>259</ele>
        <time>2011-11-27T08:55:52Z</time>
      </trkpt>
      <trkpt lat="45.76467" lon="4.81503">
        <ele>259</ele>
        <time>2011-11-27T08:55:55Z</time>
      </trkpt>
      <trkpt lat="45.76465" lon="4.81503">
        <ele>259</ele>
        <time>2011-11-27T08:55:57Z</time>
      </trkpt>
      <trkpt lat="45.76463" lon="4.81501">
        <ele>260</ele>
        <time>2011-11-27T08:56:01Z</time>
      </trkpt>
      <trkpt lat="45.76462" lon="4.81501">
        <ele>260</ele>
        <time>2011-11-27T08:56:02Z</time>
      </trkpt>
      <trkpt lat="45.76459" lon="4.81499">
        <ele>265</ele>
        <time>2011-11-27T08:56:06Z</time>
      </trkpt>
      <trkpt lat="45.76457" lon="4.81497">
        <ele>265</ele>
        <time>2011-11-27T08:56:09Z</time>
      </trkpt>
      <trkpt lat="45.76455" lon="4.81496">
        <ele>266</ele>
        <time>2011-11-27T08:56:12Z</time>
      </trkpt>
      <trkpt lat="45.76453" lon="4.81497">
        <ele>266</ele>
        <time>2011-11-27T08:56:15Z</time>
      </trkpt>
      <trkpt lat="45.7645" lon="4.81496">
        <ele>267</ele>
        <time>2011-11-27T08:56:18Z</time>
      </trkpt>
      <trkpt lat="45.76449" lon="4.81498">
        <ele>267</ele>
        <time>2011-11-27T08:56:20Z</time>
      </trkpt>
      <trkpt lat="45.76447" lon="4.81497">
        <ele>267</ele>
        <time>2011-11-27T08:56:22Z</time>
      </trkpt>
      <trkpt lat="45.76444" lon="4.81496">
        <ele>268</ele>
        <time>2011-11-27T08:56:25Z</time>
      </trkpt>
      <trkpt lat="45.76443" lon="4.81496">
        <ele>268</ele>
        <time>2011-11-27T08:56:26Z</time>
      </trkpt>
      <trkpt lat="45.76439" lon="4.81494">
        <ele>269</ele>
        <time>2011-11-27T08:56:32Z</time>
      </trkpt>
      <trkpt lat="45.76437" lon="4.81492">
        <ele>269</ele>
        <time>2011-11-27T08:56:34Z</time>
      </trkpt>
      <trkpt lat="45.76434" lon="4.8149">
        <ele>269</ele>
        <time>2011-11-27T08:56:37Z</time>
      </trkpt>
      <trkpt lat="45.76426" lon="4.81486">
        <ele>270</ele>
        <time>2011-11-27T08:56:43Z</time>
      </trkpt>
      <trkpt lat="45.76422" lon="4.81485">
        <ele>270</ele>
        <time>2011-11-27T08:56:45Z</time>
      </trkpt>
      <trkpt lat="45.76415" lon="4.8148">
        <ele>278</ele>
        <time>2011-11-27T08:56:50Z</time>
      </trkpt>
      <trkpt lat="45.76411" lon="4.81473">
        <ele>279</ele>
        <time>2011-11-27T08:56:52Z</time>
      </trkpt>
      <trkpt lat="45.76407" lon="4.81467">
        <ele>280</ele>
        <time>2011-11-27T08:56:55Z</time>
      </trkpt>
      <trkpt lat="45.76403" lon="4.81453">
        <ele>281</ele>
        <time>2011-11-27T08:57:01Z</time>
      </trkpt>
      <trkpt lat="45.76401" lon="4.81449">
        <ele>281</ele>
        <time>2011-11-27T08:57:03Z</time>
      </trkpt>
      <trkpt lat="45.764" lon="4.81436">
        <ele>282</ele>
        <time>2011-11-27T08:57:08Z</time>
      </trkpt>
      <trkpt lat="45.76402" lon="4.81421">
        <ele>282</ele>
        <time>2011-11-27T08:57:13Z</time>
      </trkpt>
      <trkpt lat="45.76399" lon="4.81406">
        <ele>282</ele>
        <time>2011-11-27T08:57:18Z</time>
      </trkpt>
      <trkpt lat="45.76397" lon="4.81396">
        <ele>282</ele>
        <time>2011-11-27T08:57:21Z</time>
      </trkpt>
      <trkpt lat="45.76397" lon="4.8139">
        <ele>282</ele>
        <time>2011-11-27T08:57:23Z</time>
      </trkpt>
      <trkpt lat="45.76398" lon="4.81377">
        <ele>282</ele>
        <time>2011-11-27T08:57:28Z</time>
      </trkpt>
      <trkpt lat="45.76396" lon="4.81368">
        <ele>281</ele>
        <time>2011-11-27T08:57:32Z</time>
      </trkpt>
      <trkpt lat="45.76396" lon="4.81356">
        <ele>281</ele>
        <time>2011-11-27T08:57:35Z</time>
      </trkpt>
      <trkpt lat="45.76394" lon="4.81347">
        <ele>281</ele>
        <time>2011-11-27T08:57:38Z</time>
      </trkpt>
      <trkpt lat="45.76391" lon="4.81343">
        <ele>281</ele>
        <time>2011-11-27T08:57:40Z</time>
      </trkpt>
      <trkpt lat="45.76381" lon="4.81338">
        <ele>281</ele>
        <time>2011-11-27T08:57:46Z</time>
      </trkpt>
      <trkpt lat="45.76372" lon="4.81336">
        <ele>282</ele>
        <time>2011-11-27T08:57:50Z</time>
      </trkpt>
      <trkpt lat="45.76366" lon="4.81334">
        <ele>282</ele>
        <time>2011-11-27T08:57:52Z</time>
      </trkpt>
      <trkpt lat="45.76357" lon="4.81332">
        <ele>281</ele>
        <time>2011-11-27T08:57:58Z</time>
      </trkpt>
      <trkpt lat="45.76353" lon="4.8133">
        <ele>281</ele>
        <time>2011-11-27T08:58:00Z</time>
      </trkpt>
      <trkpt lat="45.76343" lon="4.81328">
        <ele>282</ele>
        <time>2011-11-27T08:58:05Z</time>
      </trkpt>
      <trkpt lat="45.76334" lon="4.81327">
        <ele>283</ele>
        <time>2011-11-27T08:58:09Z</time>
      </trkpt>
      <trkpt lat="45.7633" lon="4.81326">
        <ele>284</ele>
        <time>2011-11-27T08:58:11Z</time>
      </trkpt>
      <trkpt lat="45.7632" lon="4.81324">
        <ele>285</ele>
        <time>2011-11-27T08:58:16Z</time>
      </trkpt>
      <trkpt lat="45.76316" lon="4.81327">
        <ele>285</ele>
        <time>2011-11-27T08:58:19Z</time>
      </trkpt>
      <trkpt lat="45.76313" lon="4.8133">
        <ele>285</ele>
        <time>2011-11-27T08:58:21Z</time>
      </trkpt>
      <trkpt lat="45.76303" lon="4.81339">
        <ele>287</ele>
        <time>2011-11-27T08:58:26Z</time>
      </trkpt>
      <trkpt lat="45.76301" lon="4.81341">
        <ele>287</ele>
        <time>2011-11-27T08:58:27Z</time>
      </trkpt>
      <trkpt lat="45.76293" lon="4.81353">
        <ele>288</ele>
        <time>2011-11-27T08:58:33Z</time>
      </trkpt>
      <trkpt lat="45.76293" lon="4.81363">
        <ele>288</ele>
        <time>2011-11-27T08:58:37Z</time>
      </trkpt>
      <trkpt lat="45.76293" lon="4.81371">
        <ele>288</ele>
        <time>2011-11-27T08:58:39Z</time>
      </trkpt>
      <trkpt lat="45.76292" lon="4.8139">
        <ele>288</ele>
        <time>2011-11-27T08:58:44Z</time>
      </trkpt>
      <trkpt lat="45.76291" lon="4.8141">
        <ele>288</ele>
        <time>2011-11-27T08:58:48Z</time>
      </trkpt>
      <trkpt lat="45.7629" lon="4.81417">
        <ele>289</ele>
        <time>2011-11-27T08:58:50Z</time>
      </trkpt>
      <trkpt lat="45.7629" lon="4.8143">
        <ele>289</ele>
        <time>2011-11-27T08:58:55Z</time>
      </trkpt>
      <trkpt lat="45.7629" lon="4.81443">
        <ele>289</ele>
        <time>2011-11-27T08:58:59Z</time>
      </trkpt>
      <trkpt lat="45.7629" lon="4.81446">
        <ele>289</ele>
        <time>2011-11-27T08:59:00Z</time>
      </trkpt>
      <trkpt lat="45.76295" lon="4.8147">
        <ele>289</ele>
        <time>2011-11-27T08:59:07Z</time>
      </trkpt>
      <trkpt lat="45.76299" lon="4.81495">
        <ele>289</ele>
        <time>2011-11-27T08:59:15Z</time>
      </trkpt>
      <trkpt lat="45.763" lon="4.81498">
        <ele>289</ele>
        <time>2011-11-27T08:59:16Z</time>
      </trkpt>
      <trkpt lat="45.76302" lon="4.81516">
        <ele>288</ele>
        <time>2011-11-27T08:59:22Z</time>
      </trkpt>
      <trkpt lat="45.76304" lon="4.81526">
        <ele>288</ele>
        <time>2011-11-27T08:59:25Z</time>
      </trkpt>
      <trkpt lat="45.76305" lon="4.81536">
        <ele>287</ele>
        <time>2011-11-27T08:59:28Z</time>
      </trkpt>
      <trkpt lat="45.76306" lon="4.81554">
        <ele>287</ele>
        <time>2011-11-27T08:59:33Z</time>
      </trkpt>
      <trkpt lat="45.76306" lon="4.81568">
        <ele>286</ele>
        <time>2011-11-27T08:59:37Z</time>
      </trkpt>
      <trkpt lat="45.76307" lon="4.81582">
        <ele>286</ele>
        <time>2011-11-27T08:59:41Z</time>
      </trkpt>
      <trkpt lat="45.76307" lon="4.81588">
        <ele>284</ele>
        <time>2011-11-27T08:59:43Z</time>
      </trkpt>
      <trkpt lat="45.76309" lon="4.81607">
        <ele>284</ele>
        <time>2011-11-27T08:59:48Z</time>
      </trkpt>
      <trkpt lat="45.76309" lon="4.81611">
        <ele>284</ele>
        <time>2011-11-27T08:59:49Z</time>
      </trkpt>
      <trkpt lat="45.76311" lon="4.81628">
        <ele>284</ele>
        <time>2011-11-27T08:59:54Z</time>
      </trkpt>
      <trkpt lat="45.76312" lon="4.81637">
        <ele>284</ele>
        <time>2011-11-27T08:59:57Z</time>
      </trkpt>
      <trkpt lat="45.76311" lon="4.81645">
        <ele>284</ele>
        <time>2011-11-27T08:59:59Z</time>
      </trkpt>
      <trkpt lat="45.76313" lon="4.81649">
        <ele>284</ele>
        <time>2011-11-27T09:00:00Z</time>
      </trkpt>
      <trkpt lat="45.76317" lon="4.81659">
        <ele>283</ele>
        <time>2011-11-27T09:00:03Z</time>
      </trkpt>
      <trkpt lat="45.76319" lon="4.81663">
        <ele>282</ele>
        <time>2011-11-27T09:00:04Z</time>
      </trkpt>
      <trkpt lat="45.76323" lon="4.81677">
        <ele>282</ele>
        <time>2011-11-27T09:00:08Z</time>
      </trkpt>
      <trkpt lat="45.76327" lon="4.81686">
        <ele>283</ele>
        <time>2011-11-27T09:00:13Z</time>
      </trkpt>
      <trkpt lat="45.76327" lon="4.81684">
        <ele>283</ele>
        <time>2011-11-27T09:00:14Z</time>
      </trkpt>
      <trkpt lat="45.76325" lon="4.81675">
        <ele>282</ele>
        <time>2011-11-27T09:00:18Z</time>
      </trkpt>
      <trkpt lat="45.76328" lon="4.81669">
        <ele>281</ele>
        <time>2011-11-27T09:00:22Z</time>
      </trkpt>
      <trkpt lat="45.76329" lon="4.81662">
        <ele>281</ele>
        <time>2011-11-27T09:00:25Z</time>
      </trkpt>
      <trkpt lat="45.76332" lon="4.81663">
        <ele>281</ele>
        <time>2011-11-27T09:00:26Z</time>
      </trkpt>
      <trkpt lat="45.76336" lon="4.81659">
        <ele>277</ele>
        <time>2011-11-27T09:00:29Z</time>
      </trkpt>
      <trkpt lat="45.7634" lon="4.81657">
        <ele>276</ele>
        <time>2011-11-27T09:00:31Z</time>
      </trkpt>
      <trkpt lat="45.76348" lon="4.81652">
        <ele>274</ele>
        <time>2011-11-27T09:00:35Z</time>
      </trkpt>
      <trkpt lat="45.76349" lon="4.81651">
        <ele>273</ele>
        <time>2011-11-27T09:00:36Z</time>
      </trkpt>
      <trkpt lat="45.76352" lon="4.81646">
        <ele>272</ele>
        <time>2011-11-27T09:00:39Z</time>
      </trkpt>
      <trkpt lat="45.76356" lon="4.81642">
        <ele>272</ele>
        <time>2011-11-27T09:00:41Z</time>
      </trkpt>
      <trkpt lat="45.76359" lon="4.81638">
        <ele>271</ele>
        <time>2011-11-27T09:00:43Z</time>
      </trkpt>
      <trkpt lat="45.76362" lon="4.81635">
        <ele>271</ele>
        <time>2011-11-27T09:00:45Z</time>
      </trkpt>
      <trkpt lat="45.76365" lon="4.81632">
        <ele>270</ele>
        <time>2011-11-27T09:00:47Z</time>
      </trkpt>
      <trkpt lat="45.76369" lon="4.8163">
        <ele>270</ele>
        <time>2011-11-27T09:00:49Z</time>
      </trkpt>
      <trkpt lat="45.76371" lon="4.81632">
        <ele>269</ele>
        <time>2011-11-27T09:00:51Z</time>
      </trkpt>
      <trkpt lat="45.76373" lon="4.81642">
        <ele>269</ele>
        <time>2011-11-27T09:00:56Z</time>
      </trkpt>
      <trkpt lat="45.76373" lon="4.81662">
        <ele>268</ele>
        <time>2011-11-27T09:01:02Z</time>
      </trkpt>
      <trkpt lat="45.76374" lon="4.81669">
        <ele>266</ele>
        <time>2011-11-27T09:01:03Z</time>
      </trkpt>
      <trkpt lat="45.76374" lon="4.81672">
        <ele>266</ele>
        <time>2011-11-27T09:01:05Z</time>
      </trkpt>
      <trkpt lat="45.76374" lon="4.81675">
        <ele>266</ele>
        <time>2011-11-27T09:01:06Z</time>
      </trkpt>
      <trkpt lat="45.76375" lon="4.81676">
        <ele>266</ele>
        <time>2011-11-27T09:01:07Z</time>
      </trkpt>
      <trkpt lat="45.76379" lon="4.81679">
        <ele>265</ele>
        <time>2011-11-27T09:01:11Z</time>
      </trkpt>
      <trkpt lat="45.76381" lon="4.81679">
        <ele>265</ele>
        <time>2011-11-27T09:01:12Z</time>
      </trkpt>
      <trkpt lat="45.76387" lon="4.81672">
        <ele>263</ele>
        <time>2011-11-27T09:01:15Z</time>
      </trkpt>
      <trkpt lat="45.76389" lon="4.81669">
        <ele>263</ele>
        <time>2011-11-27T09:01:16Z</time>
      </trkpt>
      <trkpt lat="45.76395" lon="4.81654">
        <ele>263</ele>
        <time>2011-11-27T09:01:21Z</time>
      </trkpt>
      <trkpt lat="45.76398" lon="4.81654">
        <ele>263</ele>
        <time>2011-11-27T09:01:23Z</time>
      </trkpt>
      <trkpt lat="45.76399" lon="4.81654">
        <ele>262</ele>
        <time>2011-11-27T09:01:24Z</time>
      </trkpt>
      <trkpt lat="45.764" lon="4.81655">
        <ele>262</ele>
        <time>2011-11-27T09:01:25Z</time>
      </trkpt>
      <trkpt lat="45.76404" lon="4.81662">
        <ele>260</ele>
        <time>2011-11-27T09:01:31Z</time>
      </trkpt>
      <trkpt lat="45.76411" lon="4.8166">
        <ele>258</ele>
        <time>2011-11-27T09:01:36Z</time>
      </trkpt>
      <trkpt lat="45.76412" lon="4.81656">
        <ele>259</ele>
        <time>2011-11-27T09:01:38Z</time>
      </trkpt>
      <trkpt lat="45.76415" lon="4.81654">
        <ele>259</ele>
        <time>2011-11-27T09:01:41Z</time>
      </trkpt>
      <trkpt lat="45.76415" lon="4.81664">
        <ele>255</ele>
        <time>2011-11-27T09:01:45Z</time>
      </trkpt>
      <trkpt lat="45.76413" lon="4.81669">
        <ele>255</ele>
        <time>2011-11-27T09:01:47Z</time>
      </trkpt>
      <trkpt lat="45.76412" lon="4.81675">
        <ele>257</ele>
        <time>2011-11-27T09:01:49Z</time>
      </trkpt>
      <trkpt lat="45.76411" lon="4.81679">
        <ele>258</ele>
        <time>2011-11-27T09:01:50Z</time>
      </trkpt>
      <trkpt lat="45.76411" lon="4.81684">
        <ele>259</ele>
        <time>2011-11-27T09:01:52Z</time>
      </trkpt>
      <trkpt lat="45.76415" lon="4.81685">
        <ele>259</ele>
        <time>2011-11-27T09:01:54Z</time>
      </trkpt>
      <trkpt lat="45.76418" lon="4.81681">
        <ele>247</ele>
        <time>2011-11-27T09:01:56Z</time>
      </trkpt>
      <trkpt lat="45.76422" lon="4.81676">
        <ele>248</ele>
        <time>2011-11-27T09:01:58Z</time>
      </trkpt>
      <trkpt lat="45.76424" lon="4.81675">
        <ele>248</ele>
        <time>2011-11-27T09:01:59Z</time>
      </trkpt>
      <trkpt lat="45.76425" lon="4.81674">
        <ele>248</ele>
        <time>2011-11-27T09:02:00Z</time>
      </trkpt>
      <trkpt lat="45.76428" lon="4.81677">
        <ele>246</ele>
        <time>2011-11-27T09:02:03Z</time>
      </trkpt>
      <trkpt lat="45.76432" lon="4.81681">
        <ele>245</ele>
        <time>2011-11-27T09:02:07Z</time>
      </trkpt>
      <trkpt lat="45.76434" lon="4.81682">
        <ele>244</ele>
        <time>2011-11-27T09:02:09Z</time>
      </trkpt>
      <trkpt lat="45.76439" lon="4.81683">
        <ele>243</ele>
        <time>2011-11-27T09:02:12Z</time>
      </trkpt>
      <trkpt lat="45.7644" lon="4.81684">
        <ele>242</ele>
        <time>2011-11-27T09:02:13Z</time>
      </trkpt>
      <trkpt lat="45.76448" lon="4.81692">
        <ele>240</ele>
        <time>2011-11-27T09:02:18Z</time>
      </trkpt>
      <trkpt lat="45.76451" lon="4.81698">
        <ele>240</ele>
        <time>2011-11-27T09:02:22Z</time>
      </trkpt>
      <trkpt lat="45.76453" lon="4.81699">
        <ele>239</ele>
        <time>2011-11-27T09:02:24Z</time>
      </trkpt>
      <trkpt lat="45.76458" lon="4.81704">
        <ele>238</ele>
        <time>2011-11-27T09:02:29Z</time>
      </trkpt>
      <trkpt lat="45.76467" lon="4.81711">
        <ele>237</ele>
        <time>2011-11-27T09:02:35Z</time>
      </trkpt>
      <trkpt lat="45.76467" lon="4.81712">
        <ele>237</ele>
        <time>2011-11-27T09:02:36Z</time>
      </trkpt>
      <trkpt lat="45.76468" lon="4.81713">
        <ele>237</ele>
        <time>2011-11-27T09:02:37Z</time>
      </trkpt>
      <trkpt lat="45.7647" lon="4.81713">
        <ele>237</ele>
        <time>2011-11-27T09:02:38Z</time>
      </trkpt>
      <trkpt lat="45.76475" lon="4.81711">
        <ele>236</ele>
        <time>2011-11-27T09:02:42Z</time>
      </trkpt>
      <trkpt lat="45.76478" lon="4.81712">
        <ele>236</ele>
        <time>2011-11-27T09:02:44Z</time>
      </trkpt>
      <trkpt lat="45.76484" lon="4.81713">
        <ele>235</ele>
        <time>2011-11-27T09:02:47Z</time>
      </trkpt>
      <trkpt lat="45.76488" lon="4.81712">
        <ele>234</ele>
        <time>2011-11-27T09:02:49Z</time>
      </trkpt>
      <trkpt lat="45.76496" lon="4.81708">
        <ele>234</ele>
        <time>2011-11-27T09:02:51Z</time>
      </trkpt>
      <trkpt lat="45.76505" lon="4.81705">
        <ele>219</ele>
        <time>2011-11-27T09:02:53Z</time>
      </trkpt>
      <trkpt lat="45.76512" lon="4.817">
        <ele>219</ele>
        <time>2011-11-27T09:02:55Z</time>
      </trkpt>
      <trkpt lat="45.76515" lon="4.81698">
        <ele>219</ele>
        <time>2011-11-27T09:02:56Z</time>
      </trkpt>
      <trkpt lat="45.76522" lon="4.8169">
        <ele>219</ele>
        <time>2011-11-27T09:02:59Z</time>
      </trkpt>
      <trkpt lat="45.76529" lon="4.81686">
        <ele>218</ele>
        <time>2011-11-27T09:03:02Z</time>
      </trkpt>
      <trkpt lat="45.76531" lon="4.81686">
        <ele>217</ele>
        <time>2011-11-27T09:03:03Z</time>
      </trkpt>
      <trkpt lat="45.76538" lon="4.81692">
        <ele>216</ele>
        <time>2011-11-27T09:03:06Z</time>
      </trkpt>
      <trkpt lat="45.76545" lon="4.81705">
        <ele>214</ele>
        <time>2011-11-27T09:03:11Z</time>
      </trkpt>
      <trkpt lat="45.76544" lon="4.81702">
        <ele>215</ele>
        <time>2011-11-27T09:03:14Z</time>
      </trkpt>
      <trkpt lat="45.76543" lon="4.817">
        <ele>215</ele>
        <time>2011-11-27T09:03:15Z</time>
      </trkpt>
      <trkpt lat="45.76542" lon="4.81699">
        <ele>215</ele>
        <time>2011-11-27T09:03:16Z</time>
      </trkpt>
      <trkpt lat="45.76538" lon="4.81695">
        <ele>216</ele>
        <time>2011-11-27T09:03:18Z</time>
      </trkpt>
      <trkpt lat="45.76532" lon="4.81695">
        <ele>217</ele>
        <time>2011-11-27T09:03:21Z</time>
      </trkpt>
      <trkpt lat="45.7653" lon="4.81698">
        <ele>217</ele>
        <time>2011-11-27T09:03:22Z</time>
      </trkpt>
      <trkpt lat="45.76528" lon="4.81705">
        <ele>217</ele>
        <time>2011-11-27T09:03:24Z</time>
      </trkpt>
      <trkpt lat="45.76527" lon="4.81709">
        <ele>217</ele>
        <time>2011-11-27T09:03:25Z</time>
      </trkpt>
      <trkpt lat="45.76526" lon="4.81712">
        <ele>217</ele>
        <time>2011-11-27T09:03:26Z</time>
      </trkpt>
      <trkpt lat="45.76523" lon="4.81733">
        <ele>217</ele>
        <time>2011-11-27T09:03:32Z</time>
      </trkpt>
      <trkpt lat="45.76522" lon="4.8174">
        <ele>218</ele>
        <time>2011-11-27T09:03:37Z</time>
      </trkpt>
      <trkpt lat="45.76521" lon="4.81739">
        <ele>218</ele>
        <time>2011-11-27T09:03:40Z</time>
      </trkpt>
      <trkpt lat="45.7652" lon="4.81735">
        <ele>218</ele>
        <time>2011-11-27T09:03:41Z</time>
      </trkpt>
      <trkpt lat="45.76519" lon="4.8173">
        <ele>218</ele>
        <time>2011-11-27T09:03:43Z</time>
      </trkpt>
      <trkpt lat="45.76518" lon="4.81724">
        <ele>218</ele>
        <time>2011-11-27T09:03:45Z</time>
      </trkpt>
      <trkpt lat="45.76515" lon="4.8171">
        <ele>218</ele>
        <time>2011-11-27T09:03:50Z</time>
      </trkpt>
      <trkpt lat="45.76514" lon="4.81698">
        <ele>219</ele>
        <time>2011-11-27T09:03:54Z</time>
      </trkpt>
      <trkpt lat="45.76513" lon="4.81695">
        <ele>219</ele>
        <time>2011-11-27T09:03:55Z</time>
      </trkpt>
      <trkpt lat="45.76512" lon="4.81693">
        <ele>220</ele>
        <time>2011-11-27T09:03:56Z</time>
      </trkpt>
      <trkpt lat="45.76504" lon="4.81684">
        <ele>222</ele>
        <time>2011-11-27T09:04:01Z</time>
      </trkpt>
      <trkpt lat="45.76499" lon="4.8168">
        <ele>232</ele>
        <time>2011-11-27T09:04:05Z</time>
      </trkpt>
      <trkpt lat="45.76498" lon="4.81678">
        <ele>232</ele>
        <time>2011-11-27T09:04:06Z</time>
      </trkpt>
      <trkpt lat="45.76496" lon="4.81678">
        <ele>232</ele>
        <time>2011-11-27T09:04:07Z</time>
      </trkpt>
      <trkpt lat="45.76492" lon="4.81674">
        <ele>232</ele>
        <time>2011-11-27T09:04:11Z</time>
      </trkpt>
      <trkpt lat="45.76486" lon="4.81669">
        <ele>233</ele>
        <time>2011-11-27T09:04:16Z</time>
      </trkpt>
      <trkpt lat="45.76485" lon="4.81668">
        <ele>233</ele>
        <time>2011-11-27T09:04:17Z</time>
      </trkpt>
      <trkpt lat="45.76483" lon="4.81666">
        <ele>237</ele>
        <time>2011-11-27T09:04:19Z</time>
      </trkpt>
      <trkpt lat="45.76476" lon="4.81658">
        <ele>239</ele>
        <time>2011-11-27T09:04:26Z</time>
      </trkpt>
      <trkpt lat="45.76469" lon="4.81649">
        <ele>242</ele>
        <time>2011-11-27T09:04:33Z</time>
      </trkpt>
      <trkpt lat="45.76468" lon="4.81648">
        <ele>242</ele>
        <time>2011-11-27T09:04:34Z</time>
      </trkpt>
      <trkpt lat="45.76461" lon="4.81638">
        <ele>244</ele>
        <time>2011-11-27T09:04:43Z</time>
      </trkpt>
      <trkpt lat="45.76455" lon="4.8163">
        <ele>245</ele>
        <time>2011-11-27T09:04:51Z</time>
      </trkpt>
      <trkpt lat="45.76454" lon="4.81629">
        <ele>246</ele>
        <time>2011-11-27T09:04:53Z</time>
      </trkpt>
      <trkpt lat="45.76448" lon="4.81624">
        <ele>247</ele>
        <time>2011-11-27T09:05:02Z</time>
      </trkpt>
      <trkpt lat="45.76442" lon="4.81621">
        <ele>248</ele>
        <time>2011-11-27T09:05:09Z</time>
      </trkpt>
      <trkpt lat="45.76441" lon="4.8162">
        <ele>248</ele>
        <time>2011-11-27T09:05:11Z</time>
      </trkpt>
      <trkpt lat="45.76439" lon="4.81619">
        <ele>248</ele>
        <time>2011-11-27T09:05:13Z</time>
      </trkpt>
      <trkpt lat="45.76438" lon="4.81617">
        <ele>248</ele>
        <time>2011-11-27T09:05:15Z</time>
      </trkpt>
      <trkpt lat="45.76436" lon="4.81615">
        <ele>249</ele>
        <time>2011-11-27T09:05:18Z</time>
      </trkpt>
      <trkpt lat="45.76432" lon="4.81611">
        <ele>250</ele>
        <time>2011-11-27T09:05:24Z</time>
      </trkpt>
      <trkpt lat="45.76426" lon="4.81609">
        <ele>251</ele>
        <time>2011-11-27T09:05:31Z</time>
      </trkpt>
      <trkpt lat="45.76425" lon="4.81608">
        <ele>251</ele>
        <time>2011-11-27T09:05:33Z</time>
      </trkpt>
      <trkpt lat="45.76423" lon="4.81606">
        <ele>251</ele>
        <time>2011-11-27T09:05:36Z</time>
      </trkpt>
      <trkpt lat="45.76421" lon="4.81601">
        <ele>253</ele>
        <time>2011-11-27T09:05:41Z</time>
      </trkpt>
      <trkpt lat="45.76414" lon="4.81597">
        <ele>263</ele>
        <time>2011-11-27T09:05:50Z</time>
      </trkpt>
      <trkpt lat="45.76408" lon="4.81593">
        <ele>263</ele>
        <time>2011-11-27T09:05:59Z</time>
      </trkpt>
      <trkpt lat="45.76407" lon="4.81593">
        <ele>264</ele>
        <time>2011-11-27T09:06:00Z</time>
      </trkpt>
      <trkpt lat="45.76402" lon="4.81589">
        <ele>264</ele>
        <time>2011-11-27T09:06:08Z</time>
      </trkpt>
      <trkpt lat="45.76397" lon="4.81586">
        <ele>265</ele>
        <time>2011-11-27T09:06:16Z</time>
      </trkpt>
      <trkpt lat="45.76394" lon="4.81587">
        <ele>266</ele>
        <time>2011-11-27T09:06:19Z</time>
      </trkpt>
      <trkpt lat="45.76392" lon="4.81584">
        <ele>266</ele>
        <time>2011-11-27T09:06:23Z</time>
      </trkpt>
      <trkpt lat="45.76387" lon="4.81579">
        <ele>271</ele>
        <time>2011-11-27T09:06:31Z</time>
      </trkpt>
      <trkpt lat="45.76383" lon="4.81569">
        <ele>273</ele>
        <time>2011-11-27T09:06:39Z</time>
      </trkpt>
      <trkpt lat="45.76383" lon="4.81566">
        <ele>273</ele>
        <time>2011-11-27T09:06:41Z</time>
      </trkpt>
      <trkpt lat="45.76382" lon="4.81565">
        <ele>273</ele>
        <time>2011-11-27T09:06:42Z</time>
      </trkpt>
      <trkpt lat="45.7638" lon="4.81561">
        <ele>274</ele>
        <time>2011-11-27T09:06:45Z</time>
      </trkpt>
      <trkpt lat="45.76379" lon="4.8156">
        <ele>274</ele>
        <time>2011-11-27T09:06:46Z</time>
      </trkpt>
      <trkpt lat="45.76378" lon="4.81555">
        <ele>274</ele>
        <time>2011-11-27T09:06:51Z</time>
      </trkpt>
      <trkpt lat="45.76377" lon="4.81553">
        <ele>275</ele>
        <time>2011-11-27T09:06:53Z</time>
      </trkpt>
      <trkpt lat="45.76373" lon="4.81545">
        <ele>276</ele>
        <time>2011-11-27T09:07:00Z</time>
      </trkpt>
      <trkpt lat="45.76373" lon="4.81542">
        <ele>276</ele>
        <time>2011-11-27T09:07:02Z</time>
      </trkpt>
      <trkpt lat="45.76372" lon="4.81538">
        <ele>276</ele>
        <time>2011-11-27T09:07:07Z</time>
      </trkpt>
      <trkpt lat="45.76371" lon="4.81537">
        <ele>276</ele>
        <time>2011-11-27T09:07:08Z</time>
      </trkpt>
      <trkpt lat="45.76369" lon="4.81534">
        <ele>276</ele>
        <time>2011-11-27T09:07:11Z</time>
      </trkpt>
      <trkpt lat="45.76369" lon="4.8153">
        <ele>277</ele>
        <time>2011-11-27T09:07:15Z</time>
      </trkpt>
      <trkpt lat="45.76369" lon="4.81532">
        <ele>277</ele>
        <time>2011-11-27T09:07:22Z</time>
      </trkpt>
      <trkpt lat="45.76368" lon="4.8154">
        <ele>276</ele>
        <time>2011-11-27T09:07:25Z</time>
      </trkpt>
      <trkpt lat="45.76367" lon="4.81542">
        <ele>276</ele>
        <time>2011-11-27T09:07:26Z</time>
      </trkpt>
      <trkpt lat="45.76366" lon="4.81553">
        <ele>276</ele>
        <time>2011-11-27T09:07:30Z</time>
      </trkpt>
      <trkpt lat="45.76366" lon="4.81558">
        <ele>276</ele>
        <time>2011-11-27T09:07:34Z</time>
      </trkpt>
      <trkpt lat="45.76367" lon="4.81559">
        <ele>276</ele>
        <time>2011-11-27T09:07:44Z</time>
      </trkpt>
      <trkpt lat="45.76365" lon="4.81564">
        <ele>276</ele>
        <time>2011-11-27T09:07:51Z</time>
      </trkpt>
      <trkpt lat="45.76364" lon="4.81575">
        <ele>276</ele>
        <time>2011-11-27T09:07:55Z</time>
      </trkpt>
      <trkpt lat="45.76363" lon="4.81578">
        <ele>276</ele>
        <time>2011-11-27T09:07:56Z</time>
      </trkpt>
      <trkpt lat="45.76361" lon="4.81589">
        <ele>272</ele>
        <time>2011-11-27T09:08:02Z</time>
      </trkpt>
      <trkpt lat="45.76361" lon="4.8159">
        <ele>272</ele>
        <time>2011-11-27T09:08:03Z</time>
      </trkpt>
      <trkpt lat="45.76359" lon="4.81595">
        <ele>273</ele>
        <time>2011-11-27T09:08:07Z</time>
      </trkpt>
      <trkpt lat="45.76356" lon="4.81598">
        <ele>273</ele>
        <time>2011-11-27T09:08:14Z</time>
      </trkpt>
      <trkpt lat="45.76352" lon="4.816">
        <ele>274</ele>
        <time>2011-11-27T09:08:18Z</time>
      </trkpt>
      <trkpt lat="45.7635" lon="4.81602">
        <ele>274</ele>
        <time>2011-11-27T09:08:20Z</time>
      </trkpt>
      <trkpt lat="45.76347" lon="4.81606">
        <ele>274</ele>
        <time>2011-11-27T09:08:25Z</time>
      </trkpt>
      <trkpt lat="45.76346" lon="4.81607">
        <ele>274</ele>
        <time>2011-11-27T09:08:26Z</time>
      </trkpt>
      <trkpt lat="45.76345" lon="4.8161">
        <ele>274</ele>
        <time>2011-11-27T09:08:28Z</time>
      </trkpt>
      <trkpt lat="45.76343" lon="4.81619">
        <ele>273</ele>
        <time>2011-11-27T09:08:31Z</time>
      </trkpt>
      <trkpt lat="45.76342" lon="4.81622">
        <ele>273</ele>
        <time>2011-11-27T09:08:32Z</time>
      </trkpt>
      <trkpt lat="45.76343" lon="4.81631">
        <ele>273</ele>
        <time>2011-11-27T09:08:35Z</time>
      </trkpt>
      <trkpt lat="45.76342" lon="4.81649">
        <ele>274</ele>
        <time>2011-11-27T09:08:41Z</time>
      </trkpt>
      <trkpt lat="45.76341" lon="4.81657">
        <ele>276</ele>
        <time>2011-11-27T09:08:44Z</time>
      </trkpt>
      <trkpt lat="45.7634" lon="4.81659">
        <ele>276</ele>
        <time>2011-11-27T09:08:45Z</time>
      </trkpt>
      <trkpt lat="45.76338" lon="4.81662">
        <ele>277</ele>
        <time>2011-11-27T09:08:49Z</time>
      </trkpt>
      <trkpt lat="45.76329" lon="4.81668">
        <ele>281</ele>
        <time>2011-11-27T09:08:56Z</time>
      </trkpt>
      <trkpt lat="45.76326" lon="4.81672">
        <ele>282</ele>
        <time>2011-11-27T09:08:59Z</time>
      </trkpt>
      <trkpt lat="45.76326" lon="4.81673">
        <ele>282</ele>
        <time>2011-11-27T09:09:00Z</time>
      </trkpt>
      <trkpt lat="45.76325" lon="4.81682">
        <ele>283</ele>
        <time>2011-11-27T09:09:04Z</time>
      </trkpt>
      <trkpt lat="45.76328" lon="4.81691">
        <ele>283</ele>
        <time>2011-11-27T09:09:09Z</time>
      </trkpt>
      <trkpt lat="45.76328" lon="4.81692">
        <ele>283</ele>
        <time>2011-11-27T09:09:10Z</time>
      </trkpt>
      <trkpt lat="45.76331" lon="4.8169">
        <ele>283</ele>
        <time>2011-11-27T09:09:19Z</time>
      </trkpt>
      <trkpt lat="45.76331" lon="4.81692">
        <ele>283</ele>
        <time>2011-11-27T09:09:20Z</time>
      </trkpt>
      <trkpt lat="45.76331" lon="4.81695">
        <ele>283</ele>
        <time>2011-11-27T09:09:21Z</time>
      </trkpt>
      <trkpt lat="45.7633" lon="4.81703">
        <ele>284</ele>
        <time>2011-11-27T09:09:23Z</time>
      </trkpt>
      <trkpt lat="45.76331" lon="4.8172">
        <ele>284</ele>
        <time>2011-11-27T09:09:27Z</time>
      </trkpt>
      <trkpt lat="45.76331" lon="4.81724">
        <ele>284</ele>
        <time>2011-11-27T09:09:28Z</time>
      </trkpt>
      <trkpt lat="45.76329" lon="4.81748">
        <ele>283</ele>
        <time>2011-11-27T09:09:34Z</time>
      </trkpt>
      <trkpt lat="45.76331" lon="4.81777">
        <ele>283</ele>
        <time>2011-11-27T09:09:41Z</time>
      </trkpt>
      <trkpt lat="45.76333" lon="4.81803">
        <ele>281</ele>
        <time>2011-11-27T09:09:48Z</time>
      </trkpt>
      <trkpt lat="45.76334" lon="4.81832">
        <ele>277</ele>
        <time>2011-11-27T09:09:55Z</time>
      </trkpt>
      <trkpt lat="45.76332" lon="4.81854">
        <ele>276</ele>
        <time>2011-11-27T09:10:01Z</time>
      </trkpt>
      <trkpt lat="45.76332" lon="4.81858">
        <ele>276</ele>
        <time>2011-11-27T09:10:02Z</time>
      </trkpt>
      <trkpt lat="45.76331" lon="4.81869">
        <ele>275</ele>
        <time>2011-11-27T09:10:05Z</time>
      </trkpt>
      <trkpt lat="45.76328" lon="4.81884">
        <ele>274</ele>
        <time>2011-11-27T09:10:10Z</time>
      </trkpt>
      <trkpt lat="45.76323" lon="4.81903">
        <ele>272</ele>
        <time>2011-11-27T09:10:16Z</time>
      </trkpt>
      <trkpt lat="45.76321" lon="4.8191">
        <ele>272</ele>
        <time>2011-11-27T09:10:18Z</time>
      </trkpt>
      <trkpt lat="45.76317" lon="4.81924">
        <ele>271</ele>
        <time>2011-11-27T09:10:22Z</time>
      </trkpt>
      <trkpt lat="45.76313" lon="4.81934">
        <ele>271</ele>
        <time>2011-11-27T09:10:25Z</time>
      </trkpt>
      <trkpt lat="45.76311" lon="4.81941">
        <ele>272</ele>
        <time>2011-11-27T09:10:27Z</time>
      </trkpt>
      <trkpt lat="45.76306" lon="4.81959">
        <ele>272</ele>
        <time>2011-11-27T09:10:32Z</time>
      </trkpt>
      <trkpt lat="45.76304" lon="4.81966">
        <ele>272</ele>
        <time>2011-11-27T09:10:34Z</time>
      </trkpt>
      <trkpt lat="45.76299" lon="4.81983">
        <ele>273</ele>
        <time>2011-11-27T09:10:39Z</time>
      </trkpt>
      <trkpt lat="45.76298" lon="4.81989">
        <ele>273</ele>
        <time>2011-11-27T09:10:41Z</time>
      </trkpt>
      <trkpt lat="45.76296" lon="4.82005">
        <ele>275</ele>
        <time>2011-11-27T09:10:46Z</time>
      </trkpt>
      <trkpt lat="45.76296" lon="4.82009">
        <ele>275</ele>
        <time>2011-11-27T09:10:47Z</time>
      </trkpt>
      <trkpt lat="45.76296" lon="4.82013">
        <ele>276</ele>
        <time>2011-11-27T09:10:49Z</time>
      </trkpt>
      <trkpt lat="45.76297" lon="4.82018">
        <ele>276</ele>
        <time>2011-11-27T09:10:51Z</time>
      </trkpt>
      <trkpt lat="45.763" lon="4.82034">
        <ele>276</ele>
        <time>2011-11-27T09:10:56Z</time>
      </trkpt>
      <trkpt lat="45.76301" lon="4.82037">
        <ele>276</ele>
        <time>2011-11-27T09:10:57Z</time>
      </trkpt>
      <trkpt lat="45.76305" lon="4.82055">
        <ele>276</ele>
        <time>2011-11-27T09:11:03Z</time>
      </trkpt>
      <trkpt lat="45.76306" lon="4.82058">
        <ele>276</ele>
        <time>2011-11-27T09:11:04Z</time>
      </trkpt>
      <trkpt lat="45.76309" lon="4.82071">
        <ele>276</ele>
        <time>2011-11-27T09:11:08Z</time>
      </trkpt>
      <trkpt lat="45.76313" lon="4.82083">
        <ele>276</ele>
        <time>2011-11-27T09:11:12Z</time>
      </trkpt>
      <trkpt lat="45.76314" lon="4.8209">
        <ele>282</ele>
        <time>2011-11-27T09:11:14Z</time>
      </trkpt>
      <trkpt lat="45.7632" lon="4.82108">
        <ele>284</ele>
        <time>2011-11-27T09:11:20Z</time>
      </trkpt>
      <trkpt lat="45.76325" lon="4.82124">
        <ele>287</ele>
        <time>2011-11-27T09:11:25Z</time>
      </trkpt>
      <trkpt lat="45.76328" lon="4.82134">
        <ele>288</ele>
        <time>2011-11-27T09:11:28Z</time>
      </trkpt>
      <trkpt lat="45.76331" lon="4.82144">
        <ele>290</ele>
        <time>2011-11-27T09:11:31Z</time>
      </trkpt>
      <trkpt lat="45.76335" lon="4.82152">
        <ele>286</ele>
        <time>2011-11-27T09:11:34Z</time>
      </trkpt>
      <trkpt lat="45.76337" lon="4.82153">
        <ele>286</ele>
        <time>2011-11-27T09:11:35Z</time>
      </trkpt>
      <trkpt lat="45.76339" lon="4.82155">
        <ele>287</ele>
        <time>2011-11-27T09:11:36Z</time>
      </trkpt>
      <trkpt lat="45.76348" lon="4.82164">
        <ele>286</ele>
        <time>2011-11-27T09:11:41Z</time>
      </trkpt>
      <trkpt lat="45.76352" lon="4.82171">
        <ele>290</ele>
        <time>2011-11-27T09:11:44Z</time>
      </trkpt>
      <trkpt lat="45.76354" lon="4.82176">
        <ele>290</ele>
        <time>2011-11-27T09:11:46Z</time>
      </trkpt>
      <trkpt lat="45.76356" lon="4.82188">
        <ele>289</ele>
        <time>2011-11-27T09:11:50Z</time>
      </trkpt>
      <trkpt lat="45.76356" lon="4.82191">
        <ele>289</ele>
        <time>2011-11-27T09:11:51Z</time>
      </trkpt>
      <trkpt lat="45.76355" lon="4.82197">
        <ele>289</ele>
        <time>2011-11-27T09:11:53Z</time>
      </trkpt>
      <trkpt lat="45.76354" lon="4.82207">
        <ele>289</ele>
        <time>2011-11-27T09:11:56Z</time>
      </trkpt>
      <trkpt lat="45.76353" lon="4.82215">
        <ele>290</ele>
        <time>2011-11-27T09:12:00Z</time>
      </trkpt>
      <trkpt lat="45.76352" lon="4.82224">
        <ele>290</ele>
        <time>2011-11-27T09:12:06Z</time>
      </trkpt>
      <trkpt lat="45.76347" lon="4.82226">
        <ele>291</ele>
        <time>2011-11-27T09:12:09Z</time>
      </trkpt>
      <trkpt lat="45.76341" lon="4.82227">
        <ele>291</ele>
        <time>2011-11-27T09:12:11Z</time>
      </trkpt>
      <trkpt lat="45.76334" lon="4.82229">
        <ele>292</ele>
        <time>2011-11-27T09:12:14Z</time>
      </trkpt>
      <trkpt lat="45.76326" lon="4.8223">
        <ele>297</ele>
        <time>2011-11-27T09:12:17Z</time>
      </trkpt>
      <trkpt lat="45.76313" lon="4.82227">
        <ele>297</ele>
        <time>2011-11-27T09:12:21Z</time>
      </trkpt>
      <trkpt lat="45.763" lon="4.82225">
        <ele>296</ele>
        <time>2011-11-27T09:12:26Z</time>
      </trkpt>
      <trkpt lat="45.76293" lon="4.82226">
        <ele>297</ele>
        <time>2011-11-27T09:12:29Z</time>
      </trkpt>
      <trkpt lat="45.76288" lon="4.82222">
        <ele>296</ele>
        <time>2011-11-27T09:12:31Z</time>
      </trkpt>
      <trkpt lat="45.76286" lon="4.82222">
        <ele>296</ele>
        <time>2011-11-27T09:12:32Z</time>
      </trkpt>
      <trkpt lat="45.76283" lon="4.82228">
        <ele>297</ele>
        <time>2011-11-27T09:12:35Z</time>
      </trkpt>
      <trkpt lat="45.76283" lon="4.82236">
        <ele>297</ele>
        <time>2011-11-27T09:12:38Z</time>
      </trkpt>
      <trkpt lat="45.76283" lon="4.82239">
        <ele>297</ele>
        <time>2011-11-27T09:12:39Z</time>
      </trkpt>
      <trkpt lat="45.76282" lon="4.82259">
        <ele>291</ele>
        <time>2011-11-27T09:12:45Z</time>
      </trkpt>
      <trkpt lat="45.76282" lon="4.82266">
        <ele>290</ele>
        <time>2011-11-27T09:12:48Z</time>
      </trkpt>
      <trkpt lat="45.76281" lon="4.82272">
        <ele>290</ele>
        <time>2011-11-27T09:12:50Z</time>
      </trkpt>
      <trkpt lat="45.76278" lon="4.82294">
        <ele>287</ele>
        <time>2011-11-27T09:12:56Z</time>
      </trkpt>
      <trkpt lat="45.76278" lon="4.82306">
        <ele>285</ele>
        <time>2011-11-27T09:13:00Z</time>
      </trkpt>
      <trkpt lat="45.76278" lon="4.82308">
        <ele>285</ele>
        <time>2011-11-27T09:13:05Z</time>
      </trkpt>
      <trkpt lat="45.7628" lon="4.82308">
        <ele>285</ele>
        <time>2011-11-27T09:13:16Z</time>
      </trkpt>
      <trkpt lat="45.76279" lon="4.82308">
        <ele>285</ele>
        <time>2011-11-27T09:13:30Z</time>
      </trkpt>
      <trkpt lat="45.76277" lon="4.82304">
        <ele>286</ele>
        <time>2011-11-27T09:14:28Z</time>
      </trkpt>
      <trkpt lat="45.76278" lon="4.82303">
        <ele>286</ele>
        <time>2011-11-27T09:14:29Z</time>
      </trkpt>
      <trkpt lat="45.76279" lon="4.82303">
        <ele>286</ele>
        <time>2011-11-27T09:14:30Z</time>
      </trkpt>
      <trkpt lat="45.7628" lon="4.82301">
        <ele>286</ele>
        <time>2011-11-27T09:14:32Z</time>
      </trkpt>
      <trkpt lat="45.7628" lon="4.823">
        <ele>286</ele>
        <time>2011-11-27T09:14:33Z</time>
      </trkpt>
      <trkpt lat="45.76283" lon="4.82297">
        <ele>287</ele>
        <time>2011-11-27T09:14:37Z</time>
      </trkpt>
      <trkpt lat="45.76284" lon="4.82296">
        <ele>287</ele>
        <time>2011-11-27T09:14:39Z</time>
      </trkpt>
      <trkpt lat="45.76284" lon="4.82297">
        <ele>287</ele>
        <time>2011-11-27T09:14:46Z</time>
      </trkpt>
      <trkpt lat="45.76282" lon="4.82293">
        <ele>287</ele>
        <time>2011-11-27T09:15:03Z</time>
      </trkpt>
      <trkpt lat="45.76281" lon="4.82291">
        <ele>287</ele>
        <time>2011-11-27T09:15:06Z</time>
      </trkpt>
      <trkpt lat="45.76281" lon="4.82289">
        <ele>288</ele>
        <time>2011-11-27T09:15:08Z</time>
      </trkpt>
      <trkpt lat="45.76281" lon="4.82289">
        <ele>288</ele>
        <time>2011-11-27T09:15:09Z</time>
      </trkpt>
      <trkpt lat="45.76281" lon="4.82289">
        <ele>288</ele>
        <time>2011-11-27T09:15:11Z</time>
      </trkpt>
      <trkpt lat="45.7628" lon="4.82289">
        <ele>288</ele>
        <time>2011-11-27T09:15:18Z</time>
      </trkpt>
      <trkpt lat="45.76282" lon="4.82284">
        <ele>288</ele>
        <time>2011-11-27T09:15:24Z</time>
      </trkpt>
      <trkpt lat="45.76286" lon="4.82269">
        <ele>290</ele>
        <time>2011-11-27T09:15:29Z</time>
      </trkpt>
      <trkpt lat="45.76287" lon="4.82245">
        <ele>297</ele>
        <time>2011-11-27T09:15:34Z</time>
      </trkpt>
      <trkpt lat="45.76288" lon="4.82242">
        <ele>297</ele>
        <time>2011-11-27T09:15:35Z</time>
      </trkpt>
      <trkpt lat="45.76287" lon="4.82225">
        <ele>296</ele>
        <time>2011-11-27T09:15:39Z</time>
      </trkpt>
      <trkpt lat="45.76289" lon="4.82224">
        <ele>296</ele>
        <time>2011-11-27T09:15:40Z</time>
      </trkpt>
      <trkpt lat="45.76292" lon="4.82223">
        <ele>296</ele>
        <time>2011-11-27T09:15:42Z</time>
      </trkpt>
      <trkpt lat="45.76298" lon="4.82225">
        <ele>296</ele>
        <time>2011-11-27T09:15:44Z</time>
      </trkpt>
      <trkpt lat="45.76306" lon="4.82226">
        <ele>296</ele>
        <time>2011-11-27T09:15:47Z</time>
      </trkpt>
      <trkpt lat="45.76312" lon="4.82227">
        <ele>297</ele>
        <time>2011-11-27T09:15:49Z</time>
      </trkpt>
      <trkpt lat="45.76321" lon="4.8223">
        <ele>297</ele>
        <time>2011-11-27T09:15:52Z</time>
      </trkpt>
      <trkpt lat="45.76333" lon="4.82231">
        <ele>297</ele>
        <time>2011-11-27T09:15:56Z</time>
      </trkpt>
      <trkpt lat="45.76336" lon="4.8223">
        <ele>292</ele>
        <time>2011-11-27T09:15:57Z</time>
      </trkpt>
      <trkpt lat="45.76353" lon="4.82232">
        <ele>291</ele>
        <time>2011-11-27T09:16:03Z</time>
      </trkpt>
      <trkpt lat="45.76371" lon="4.82233">
        <ele>288</ele>
        <time>2011-11-27T09:16:09Z</time>
      </trkpt>
      <trkpt lat="45.7638" lon="4.82241">
        <ele>288</ele>
        <time>2011-11-27T09:16:14Z</time>
      </trkpt>
      <trkpt lat="45.76383" lon="4.82254">
        <ele>285</ele>
        <time>2011-11-27T09:16:18Z</time>
      </trkpt>
      <trkpt lat="45.76385" lon="4.82261">
        <ele>285</ele>
        <time>2011-11-27T09:16:20Z</time>
      </trkpt>
      <trkpt lat="45.76388" lon="4.8227">
        <ele>284</ele>
        <time>2011-11-27T09:16:24Z</time>
      </trkpt>
      <trkpt lat="45.76391" lon="4.82271">
        <ele>284</ele>
        <time>2011-11-27T09:16:27Z</time>
      </trkpt>
      <trkpt lat="45.76392" lon="4.82271">
        <ele>284</ele>
        <time>2011-11-27T09:16:29Z</time>
      </trkpt>
      <trkpt lat="45.76395" lon="4.8227">
        <ele>284</ele>
        <time>2011-11-27T09:16:30Z</time>
      </trkpt>
      <trkpt lat="45.764" lon="4.82269">
        <ele>284</ele>
        <time>2011-11-27T09:16:32Z</time>
      </trkpt>
      <trkpt lat="45.76402" lon="4.82268">
        <ele>284</ele>
        <time>2011-11-27T09:16:33Z</time>
      </trkpt>
      <trkpt lat="45.76405" lon="4.82268">
        <ele>284</ele>
        <time>2011-11-27T09:16:34Z</time>
      </trkpt>
      <trkpt lat="45.76413" lon="4.82265">
        <ele>284</ele>
        <time>2011-11-27T09:16:37Z</time>
      </trkpt>
      <trkpt lat="45.76421" lon="4.82269">
        <ele>276</ele>
        <time>2011-11-27T09:16:41Z</time>
      </trkpt>
      <trkpt lat="45.76424" lon="4.82272">
        <ele>275</ele>
        <time>2011-11-27T09:16:44Z</time>
      </trkpt>
      <trkpt lat="45.76432" lon="4.82275">
        <ele>274</ele>
        <time>2011-11-27T09:16:46Z</time>
      </trkpt>
      <trkpt lat="45.7644" lon="4.82279">
        <ele>273</ele>
        <time>2011-11-27T09:16:51Z</time>
      </trkpt>
      <trkpt lat="45.76449" lon="4.82282">
        <ele>271</ele>
        <time>2011-11-27T09:16:54Z</time>
      </trkpt>
      <trkpt lat="45.76454" lon="4.82284">
        <ele>271</ele>
        <time>2011-11-27T09:16:56Z</time>
      </trkpt>
      <trkpt lat="45.76466" lon="4.8229">
        <ele>269</ele>
        <time>2011-11-27T09:17:01Z</time>
      </trkpt>
      <trkpt lat="45.76468" lon="4.82293">
        <ele>269</ele>
        <time>2011-11-27T09:17:02Z</time>
      </trkpt>
      <trkpt lat="45.76473" lon="4.82299">
        <ele>268</ele>
        <time>2011-11-27T09:17:06Z</time>
      </trkpt>
      <trkpt lat="45.76476" lon="4.82308">
        <ele>268</ele>
        <time>2011-11-27T09:17:11Z</time>
      </trkpt>
      <trkpt lat="45.76476" lon="4.8231">
        <ele>268</ele>
        <time>2011-11-27T09:17:12Z</time>
      </trkpt>
      <trkpt lat="45.76477" lon="4.82314">
        <ele>267</ele>
        <time>2011-11-27T09:17:14Z</time>
      </trkpt>
      <trkpt lat="45.76478" lon="4.82316">
        <ele>267</ele>
        <time>2011-11-27T09:17:15Z</time>
      </trkpt>
      <trkpt lat="45.76484" lon="4.82322">
        <ele>266</ele>
        <time>2011-11-27T09:17:20Z</time>
      </trkpt>
      <trkpt lat="45.76484" lon="4.82328">
        <ele>265</ele>
        <time>2011-11-27T09:17:23Z</time>
      </trkpt>
      <trkpt lat="45.76485" lon="4.82332">
        <ele>265</ele>
        <time>2011-11-27T09:17:25Z</time>
      </trkpt>
      <trkpt lat="45.7649" lon="4.82336">
        <ele>261</ele>
        <time>2011-11-27T09:17:28Z</time>
      </trkpt>
      <trkpt lat="45.76493" lon="4.82339">
        <ele>261</ele>
        <time>2011-11-27T09:17:30Z</time>
      </trkpt>
      <trkpt lat="45.76497" lon="4.8234">
        <ele>261</ele>
        <time>2011-11-27T09:17:31Z</time>
      </trkpt>
      <trkpt lat="45.76507" lon="4.82349">
        <ele>252</ele>
        <time>2011-11-27T09:17:36Z</time>
      </trkpt>
      <trkpt lat="45.7651" lon="4.82351">
        <ele>251</ele>
        <time>2011-11-27T09:17:37Z</time>
      </trkpt>
      <trkpt lat="45.76518" lon="4.8236">
        <ele>248</ele>
        <time>2011-11-27T09:17:41Z</time>
      </trkpt>
      <trkpt lat="45.76524" lon="4.82363">
        <ele>246</ele>
        <time>2011-11-27T09:17:44Z</time>
      </trkpt>
      <trkpt lat="45.76525" lon="4.82365">
        <ele>246</ele>
        <time>2011-11-27T09:17:45Z</time>
      </trkpt>
      <trkpt lat="45.76532" lon="4.82376">
        <ele>244</ele>
        <time>2011-11-27T09:17:51Z</time>
      </trkpt>
      <trkpt lat="45.76539" lon="4.8238">
        <ele>243</ele>
        <time>2011-11-27T09:17:54Z</time>
      </trkpt>
      <trkpt lat="45.76546" lon="4.82383">
        <ele>242</ele>
        <time>2011-11-27T09:17:57Z</time>
      </trkpt>
      <trkpt lat="45.76557" lon="4.82392">
        <ele>240</ele>
        <time>2011-11-27T09:18:02Z</time>
      </trkpt>
      <trkpt lat="45.76561" lon="4.82396">
        <ele>238</ele>
        <time>2011-11-27T09:18:04Z</time>
      </trkpt>
      <trkpt lat="45.76573" lon="4.82405">
        <ele>235</ele>
        <time>2011-11-27T09:18:09Z</time>
      </trkpt>
      <trkpt lat="45.76578" lon="4.82404">
        <ele>234</ele>
        <time>2011-11-27T09:18:14Z</time>
      </trkpt>
      <trkpt lat="45.76578" lon="4.8241">
        <ele>232</ele>
        <time>2011-11-27T09:18:17Z</time>
      </trkpt>
      <trkpt lat="45.76578" lon="4.82412">
        <ele>232</ele>
        <time>2011-11-27T09:18:19Z</time>
      </trkpt>
      <trkpt lat="45.76582" lon="4.82416">
        <ele>229</ele>
        <time>2011-11-27T09:18:23Z</time>
      </trkpt>
      <trkpt lat="45.76584" lon="4.82419">
        <ele>226</ele>
        <time>2011-11-27T09:18:25Z</time>
      </trkpt>
      <trkpt lat="45.76589" lon="4.82425">
        <ele>222</ele>
        <time>2011-11-27T09:18:28Z</time>
      </trkpt>
      <trkpt lat="45.76593" lon="4.82431">
        <ele>218</ele>
        <time>2011-11-27T09:18:31Z</time>
      </trkpt>
      <trkpt lat="45.76591" lon="4.82432">
        <ele>218</ele>
        <time>2011-11-27T09:18:32Z</time>
      </trkpt>
      <trkpt lat="45.76593" lon="4.82435">
        <ele>217</ele>
        <time>2011-11-27T09:18:34Z</time>
      </trkpt>
      <trkpt lat="45.76599" lon="4.82438">
        <ele>215</ele>
        <time>2011-11-27T09:18:35Z</time>
      </trkpt>
      <trkpt lat="45.76602" lon="4.8244">
        <ele>214</ele>
        <time>2011-11-27T09:18:36Z</time>
      </trkpt>
      <trkpt lat="45.76614" lon="4.8245">
        <ele>210</ele>
        <time>2011-11-27T09:18:41Z</time>
      </trkpt>
      <trkpt lat="45.76616" lon="4.82453">
        <ele>210</ele>
        <time>2011-11-27T09:18:44Z</time>
      </trkpt>
      <trkpt lat="45.7662" lon="4.82457">
        <ele>209</ele>
        <time>2011-11-27T09:18:46Z</time>
      </trkpt>
      <trkpt lat="45.76621" lon="4.82456">
        <ele>209</ele>
        <time>2011-11-27T09:18:47Z</time>
      </trkpt>
      <trkpt lat="45.76623" lon="4.82452">
        <ele>208</ele>
        <time>2011-11-27T09:18:50Z</time>
      </trkpt>
      <trkpt lat="45.76622" lon="4.82444">
        <ele>209</ele>
        <time>2011-11-27T09:18:53Z</time>
      </trkpt>
      <trkpt lat="45.76622" lon="4.82439">
        <ele>209</ele>
        <time>2011-11-27T09:18:54Z</time>
      </trkpt>
      <trkpt lat="45.76623" lon="4.82424">
        <ele>209</ele>
        <time>2011-11-27T09:18:57Z</time>
      </trkpt>
      <trkpt lat="45.7662" lon="4.8241">
        <ele>214</ele>
        <time>2011-11-27T09:19:00Z</time>
      </trkpt>
      <trkpt lat="45.76618" lon="4.82403">
        <ele>215</ele>
        <time>2011-11-27T09:19:02Z</time>
      </trkpt>
      <trkpt lat="45.76615" lon="4.82387">
        <ele>216</ele>
        <time>2011-11-27T09:19:06Z</time>
      </trkpt>
      <trkpt lat="45.76613" lon="4.82384">
        <ele>216</ele>
        <time>2011-11-27T09:19:07Z</time>
      </trkpt>
      <trkpt lat="45.76611" lon="4.82373">
        <ele>217</ele>
        <time>2011-11-27T09:19:10Z</time>
      </trkpt>
      <trkpt lat="45.76612" lon="4.8237">
        <ele>217</ele>
        <time>2011-11-27T09:19:11Z</time>
      </trkpt>
      <trkpt lat="45.76615" lon="4.82359">
        <ele>217</ele>
        <time>2011-11-27T09:19:14Z</time>
      </trkpt>
      <trkpt lat="45.76618" lon="4.82352">
        <ele>217</ele>
        <time>2011-11-27T09:19:16Z</time>
      </trkpt>
      <trkpt lat="45.76624" lon="4.82337">
        <ele>216</ele>
        <time>2011-11-27T09:19:21Z</time>
      </trkpt>
      <trkpt lat="45.76625" lon="4.82334">
        <ele>216</ele>
        <time>2011-11-27T09:19:22Z</time>
      </trkpt>
      <trkpt lat="45.76628" lon="4.82318">
        <ele>218</ele>
        <time>2011-11-27T09:19:26Z</time>
      </trkpt>
      <trkpt lat="45.76628" lon="4.82305">
        <ele>218</ele>
        <time>2011-11-27T09:19:29Z</time>
      </trkpt>
      <trkpt lat="45.76628" lon="4.82302">
        <ele>218</ele>
        <time>2011-11-27T09:19:30Z</time>
      </trkpt>
      <trkpt lat="45.7663" lon="4.82286">
        <ele>218</ele>
        <time>2011-11-27T09:19:35Z</time>
      </trkpt>
      <trkpt lat="45.7663" lon="4.82278">
        <ele>218</ele>
        <time>2011-11-27T09:19:37Z</time>
      </trkpt>
      <trkpt lat="45.76631" lon="4.82266">
        <ele>218</ele>
        <time>2011-11-27T09:19:40Z</time>
      </trkpt>
      <trkpt lat="45.7663" lon="4.8225">
        <ele>216</ele>
        <time>2011-11-27T09:19:45Z</time>
      </trkpt>
      <trkpt lat="45.76627" lon="4.82233">
        <ele>216</ele>
        <time>2011-11-27T09:19:49Z</time>
      </trkpt>
      <trkpt lat="45.76626" lon="4.82222">
        <ele>216</ele>
        <time>2011-11-27T09:19:52Z</time>
      </trkpt>
      <trkpt lat="45.76628" lon="4.82215">
        <ele>216</ele>
        <time>2011-11-27T09:19:54Z</time>
      </trkpt>
      <trkpt lat="45.76628" lon="4.82201">
        <ele>215</ele>
        <time>2011-11-27T09:19:58Z</time>
      </trkpt>
      <trkpt lat="45.76629" lon="4.82195">
        <ele>215</ele>
        <time>2011-11-27T09:20:00Z</time>
      </trkpt>
      <trkpt lat="45.76631" lon="4.82186">
        <ele>214</ele>
        <time>2011-11-27T09:20:03Z</time>
      </trkpt>
      <trkpt lat="45.76632" lon="4.82183">
        <ele>213</ele>
        <time>2011-11-27T09:20:04Z</time>
      </trkpt>
      <trkpt lat="45.76631" lon="4.8217">
        <ele>213</ele>
        <time>2011-11-27T09:20:08Z</time>
      </trkpt>
      <trkpt lat="45.7663" lon="4.82167">
        <ele>213</ele>
        <time>2011-11-27T09:20:09Z</time>
      </trkpt>
      <trkpt lat="45.76625" lon="4.82155">
        <ele>204</ele>
        <time>2011-11-27T09:20:14Z</time>
      </trkpt>
      <trkpt lat="45.7662" lon="4.82146">
        <ele>204</ele>
        <time>2011-11-27T09:20:18Z</time>
      </trkpt>
      <trkpt lat="45.76617" lon="4.82141">
        <ele>204</ele>
        <time>2011-11-27T09:20:20Z</time>
      </trkpt>
      <trkpt lat="45.76607" lon="4.82132">
        <ele>205</ele>
        <time>2011-11-27T09:20:25Z</time>
      </trkpt>
      <trkpt lat="45.76605" lon="4.82131">
        <ele>206</ele>
        <time>2011-11-27T09:20:26Z</time>
      </trkpt>
      <trkpt lat="45.76594" lon="4.82127">
        <ele>206</ele>
        <time>2011-11-27T09:20:31Z</time>
      </trkpt>
      <trkpt lat="45.76587" lon="4.82126">
        <ele>207</ele>
        <time>2011-11-27T09:20:34Z</time>
      </trkpt>
      <trkpt lat="45.76579" lon="4.82126">
        <ele>225</ele>
        <time>2011-11-27T09:20:37Z</time>
      </trkpt>
      <trkpt lat="45.76569" lon="4.82123">
        <ele>225</ele>
        <time>2011-11-27T09:20:43Z</time>
      </trkpt>
      <trkpt lat="45.76568" lon="4.82123">
        <ele>225</ele>
        <time>2011-11-27T09:20:44Z</time>
      </trkpt>
      <trkpt lat="45.7656" lon="4.82119">
        <ele>225</ele>
        <time>2011-11-27T09:20:49Z</time>
      </trkpt>
      <trkpt lat="45.76552" lon="4.82113">
        <ele>225</ele>
        <time>2011-11-27T09:20:55Z</time>
      </trkpt>
      <trkpt lat="45.7655" lon="4.8211">
        <ele>225</ele>
        <time>2011-11-27T09:20:57Z</time>
      </trkpt>
      <trkpt lat="45.76549" lon="4.82108">
        <ele>225</ele>
        <time>2011-11-27T09:21:02Z</time>
      </trkpt>
      <trkpt lat="45.76551" lon="4.82108">
        <ele>225</ele>
        <time>2011-11-27T09:21:11Z</time>
      </trkpt>
      <trkpt lat="45.76551" lon="4.82106">
        <ele>225</ele>
        <time>2011-11-27T09:21:15Z</time>
      </trkpt>
      <trkpt lat="45.76551" lon="4.82104">
        <ele>225</ele>
        <time>2011-11-27T09:21:17Z</time>
      </trkpt>
      <trkpt lat="45.7655" lon="4.82097">
        <ele>224</ele>
        <time>2011-11-27T09:21:22Z</time>
      </trkpt>
      <trkpt lat="45.76549" lon="4.82094">
        <ele>224</ele>
        <time>2011-11-27T09:21:25Z</time>
      </trkpt>
      <trkpt lat="45.76546" lon="4.82091">
        <ele>224</ele>
        <time>2011-11-27T09:21:27Z</time>
      </trkpt>
      <trkpt lat="45.76544" lon="4.8209">
        <ele>224</ele>
        <time>2011-11-27T09:21:28Z</time>
      </trkpt>
      <trkpt lat="45.76536" lon="4.82081">
        <ele>214</ele>
        <time>2011-11-27T09:21:34Z</time>
      </trkpt>
      <trkpt lat="45.76534" lon="4.82078">
        <ele>214</ele>
        <time>2011-11-27T09:21:35Z</time>
      </trkpt>
      <trkpt lat="45.76528" lon="4.82066">
        <ele>215</ele>
        <time>2011-11-27T09:21:39Z</time>
      </trkpt>
      <trkpt lat="45.76522" lon="4.82058">
        <ele>214</ele>
        <time>2011-11-27T09:21:42Z</time>
      </trkpt>
      <trkpt lat="45.7652" lon="4.82055">
        <ele>214</ele>
        <time>2011-11-27T09:21:43Z</time>
      </trkpt>
      <trkpt lat="45.76509" lon="4.82043">
        <ele>214</ele>
        <time>2011-11-27T09:21:48Z</time>
      </trkpt>
      <trkpt lat="45.76508" lon="4.82041">
        <ele>214</ele>
        <time>2011-11-27T09:21:49Z</time>
      </trkpt>
      <trkpt lat="45.76499" lon="4.82029">
        <ele>227</ele>
        <time>2011-11-27T09:21:54Z</time>
      </trkpt>
      <trkpt lat="45.76496" lon="4.8202">
        <ele>225</ele>
        <time>2011-11-27T09:21:57Z</time>
      </trkpt>
      <trkpt lat="45.76496" lon="4.82018">
        <ele>224</ele>
        <time>2011-11-27T09:21:58Z</time>
      </trkpt>
      <trkpt lat="45.76492" lon="4.81998">
        <ele>219</ele>
        <time>2011-11-27T09:22:02Z</time>
      </trkpt>
      <trkpt lat="45.76493" lon="4.81995">
        <ele>219</ele>
        <time>2011-11-27T09:22:03Z</time>
      </trkpt>
      <trkpt lat="45.765" lon="4.81989">
        <ele>219</ele>
        <time>2011-11-27T09:22:07Z</time>
      </trkpt>
      <trkpt lat="45.7651" lon="4.81992">
        <ele>210</ele>
        <time>2011-11-27T09:22:11Z</time>
      </trkpt>
      <trkpt lat="45.76513" lon="4.81993">
        <ele>209</ele>
        <time>2011-11-27T09:22:12Z</time>
      </trkpt>
      <trkpt lat="45.76514" lon="4.81992">
        <ele>208</ele>
        <time>2011-11-27T09:22:13Z</time>
      </trkpt>
      <trkpt lat="45.76527" lon="4.81987">
        <ele>204</ele>
        <time>2011-11-27T09:22:18Z</time>
      </trkpt>
      <trkpt lat="45.76531" lon="4.81986">
        <ele>203</ele>
        <time>2011-11-27T09:22:19Z</time>
      </trkpt>
      <trkpt lat="45.76545" lon="4.81985">
        <ele>200</ele>
        <time>2011-11-27T09:22:23Z</time>
      </trkpt>
      <trkpt lat="45.76549" lon="4.81986">
        <ele>199</ele>
        <time>2011-11-27T09:22:25Z</time>
      </trkpt>
      <trkpt lat="45.76553" lon="4.81989">
        <ele>198</ele>
        <time>2011-11-27T09:22:27Z</time>
      </trkpt>
      <trkpt lat="45.76563" lon="4.81998">
        <ele>195</ele>
        <time>2011-11-27T09:22:33Z</time>
      </trkpt>
      <trkpt lat="45.76565" lon="4.81999">
        <ele>194</ele>
        <time>2011-11-27T09:22:34Z</time>
      </trkpt>
      <trkpt lat="45.76574" lon="4.82">
        <ele>191</ele>
        <time>2011-11-27T09:22:38Z</time>
      </trkpt>
      <trkpt lat="45.76583" lon="4.82001">
        <ele>188</ele>
        <time>2011-11-27T09:22:42Z</time>
      </trkpt>
      <trkpt lat="45.76586" lon="4.82001">
        <ele>187</ele>
        <time>2011-11-27T09:22:43Z</time>
      </trkpt>
      <trkpt lat="45.76589" lon="4.81998">
        <ele>184</ele>
        <time>2011-11-27T09:22:45Z</time>
      </trkpt>
      <trkpt lat="45.76593" lon="4.81993">
        <ele>182</ele>
        <time>2011-11-27T09:22:48Z</time>
      </trkpt>
      <trkpt lat="45.76594" lon="4.8199">
        <ele>182</ele>
        <time>2011-11-27T09:22:49Z</time>
      </trkpt>
      <trkpt lat="45.76599" lon="4.81989">
        <ele>180</ele>
        <time>2011-11-27T09:22:51Z</time>
      </trkpt>
      <trkpt lat="45.76601" lon="4.81988">
        <ele>180</ele>
        <time>2011-11-27T09:22:52Z</time>
      </trkpt>
      <trkpt lat="45.76614" lon="4.81985">
        <ele>177</ele>
        <time>2011-11-27T09:22:58Z</time>
      </trkpt>
      <trkpt lat="45.76618" lon="4.81984">
        <ele>177</ele>
        <time>2011-11-27T09:23:00Z</time>
      </trkpt>
      <trkpt lat="45.76624" lon="4.81983">
        <ele>175</ele>
        <time>2011-11-27T09:23:03Z</time>
      </trkpt>
      <trkpt lat="45.76627" lon="4.81982">
        <ele>175</ele>
        <time>2011-11-27T09:23:04Z</time>
      </trkpt>
      <trkpt lat="45.76633" lon="4.81978">
        <ele>174</ele>
        <time>2011-11-27T09:23:08Z</time>
      </trkpt>
      <trkpt lat="45.76634" lon="4.81978">
        <ele>174</ele>
        <time>2011-11-27T09:23:09Z</time>
      </trkpt>
      <trkpt lat="45.76634" lon="4.81974">
        <ele>174</ele>
        <time>2011-11-27T09:23:11Z</time>
      </trkpt>
      <trkpt lat="45.76634" lon="4.81971">
        <ele>174</ele>
        <time>2011-11-27T09:23:12Z</time>
      </trkpt>
      <trkpt lat="45.76632" lon="4.81965">
        <ele>174</ele>
        <time>2011-11-27T09:23:14Z</time>
      </trkpt>
      <trkpt lat="45.76632" lon="4.81958">
        <ele>174</ele>
        <time>2011-11-27T09:23:17Z</time>
      </trkpt>
      <trkpt lat="45.76633" lon="4.81955">
        <ele>174</ele>
        <time>2011-11-27T09:23:19Z</time>
      </trkpt>
      <trkpt lat="45.76637" lon="4.81946">
        <ele>173</ele>
        <time>2011-11-27T09:23:22Z</time>
      </trkpt>
      <trkpt lat="45.76636" lon="4.81944">
        <ele>173</ele>
        <time>2011-11-27T09:23:23Z</time>
      </trkpt>
      <trkpt lat="45.76637" lon="4.81941">
        <ele>173</ele>
        <time>2011-11-27T09:23:25Z</time>
      </trkpt>
      <trkpt lat="45.7664" lon="4.81938">
        <ele>173</ele>
        <time>2011-11-27T09:23:27Z</time>
      </trkpt>
      <trkpt lat="45.76643" lon="4.81937">
        <ele>172</ele>
        <time>2011-11-27T09:23:28Z</time>
      </trkpt>
      <trkpt lat="45.76644" lon="4.81927">
        <ele>171</ele>
        <time>2011-11-27T09:23:31Z</time>
      </trkpt>
      <trkpt lat="45.76641" lon="4.81912">
        <ele>172</ele>
        <time>2011-11-27T09:23:34Z</time>
      </trkpt>
      <trkpt lat="45.7664" lon="4.81908">
        <ele>172</ele>
        <time>2011-11-27T09:23:35Z</time>
      </trkpt>
      <trkpt lat="45.7664" lon="4.81901">
        <ele>172</ele>
        <time>2011-11-27T09:23:37Z</time>
      </trkpt>
      <trkpt lat="45.76641" lon="4.81893">
        <ele>173</ele>
        <time>2011-11-27T09:23:40Z</time>
      </trkpt>
      <trkpt lat="45.76641" lon="4.81886">
        <ele>173</ele>
        <time>2011-11-27T09:23:42Z</time>
      </trkpt>
      <trkpt lat="45.76645" lon="4.81877">
        <ele>173</ele>
        <time>2011-11-27T09:23:45Z</time>
      </trkpt>
      <trkpt lat="45.76645" lon="4.8187">
        <ele>173</ele>
        <time>2011-11-27T09:23:47Z</time>
      </trkpt>
      <trkpt lat="45.76642" lon="4.81859">
        <ele>173</ele>
        <time>2011-11-27T09:23:50Z</time>
      </trkpt>
      <trkpt lat="45.76641" lon="4.81855">
        <ele>173</ele>
        <time>2011-11-27T09:23:51Z</time>
      </trkpt>
      <trkpt lat="45.76635" lon="4.81826">
        <ele>175</ele>
        <time>2011-11-27T09:23:57Z</time>
      </trkpt>
      <trkpt lat="45.76641" lon="4.81803">
        <ele>175</ele>
        <time>2011-11-27T09:24:02Z</time>
      </trkpt>
      <trkpt lat="45.76643" lon="4.818">
        <ele>175</ele>
        <time>2011-11-27T09:24:03Z</time>
      </trkpt>
      <trkpt lat="45.76647" lon="4.81791">
        <ele>175</ele>
        <time>2011-11-27T09:24:06Z</time>
      </trkpt>
      <trkpt lat="45.76647" lon="4.81777">
        <ele>175</ele>
        <time>2011-11-27T09:24:10Z</time>
      </trkpt>
      <trkpt lat="45.76648" lon="4.81774">
        <ele>174</ele>
        <time>2011-11-27T09:24:11Z</time>
      </trkpt>
      <trkpt lat="45.76648" lon="4.8177">
        <ele>174</ele>
        <time>2011-11-27T09:24:12Z</time>
      </trkpt>
      <trkpt lat="45.76648" lon="4.81755">
        <ele>173</ele>
        <time>2011-11-27T09:24:16Z</time>
      </trkpt>
      <trkpt lat="45.76648" lon="4.81745">
        <ele>178</ele>
        <time>2011-11-27T09:24:19Z</time>
      </trkpt>
      <trkpt lat="45.76651" lon="4.81735">
        <ele>179</ele>
        <time>2011-11-27T09:24:22Z</time>
      </trkpt>
      <trkpt lat="45.76653" lon="4.8172">
        <ele>182</ele>
        <time>2011-11-27T09:24:26Z</time>
      </trkpt>
      <trkpt lat="45.76655" lon="4.81718">
        <ele>182</ele>
        <time>2011-11-27T09:24:27Z</time>
      </trkpt>
      <trkpt lat="45.76658" lon="4.81706">
        <ele>184</ele>
        <time>2011-11-27T09:24:31Z</time>
      </trkpt>
      <trkpt lat="45.76661" lon="4.81695">
        <ele>185</ele>
        <time>2011-11-27T09:24:34Z</time>
      </trkpt>
      <trkpt lat="45.76662" lon="4.81692">
        <ele>185</ele>
        <time>2011-11-27T09:24:35Z</time>
      </trkpt>
      <trkpt lat="45.76664" lon="4.81678">
        <ele>185</ele>
        <time>2011-11-27T09:24:39Z</time>
      </trkpt>
      <trkpt lat="45.76664" lon="4.81667">
        <ele>184</ele>
        <time>2011-11-27T09:24:42Z</time>
      </trkpt>
      <trkpt lat="45.76664" lon="4.81663">
        <ele>186</ele>
        <time>2011-11-27T09:24:43Z</time>
      </trkpt>
      <trkpt lat="45.76663" lon="4.8165">
        <ele>190</ele>
        <time>2011-11-27T09:24:47Z</time>
      </trkpt>
      <trkpt lat="45.76663" lon="4.81647">
        <ele>191</ele>
        <time>2011-11-27T09:24:48Z</time>
      </trkpt>
      <trkpt lat="45.76662" lon="4.8164">
        <ele>192</ele>
        <time>2011-11-27T09:24:50Z</time>
      </trkpt>
      <trkpt lat="45.76663" lon="4.81633">
        <ele>193</ele>
        <time>2011-11-27T09:24:52Z</time>
      </trkpt>
      <trkpt lat="45.76665" lon="4.81618">
        <ele>193</ele>
        <time>2011-11-27T09:24:56Z</time>
      </trkpt>
      <trkpt lat="45.76665" lon="4.81612">
        <ele>193</ele>
        <time>2011-11-27T09:24:58Z</time>
      </trkpt>
      <trkpt lat="45.76665" lon="4.81603">
        <ele>192</ele>
        <time>2011-11-27T09:25:01Z</time>
      </trkpt>
      <trkpt lat="45.76665" lon="4.81585">
        <ele>187</ele>
        <time>2011-11-27T09:25:06Z</time>
      </trkpt>
      <trkpt lat="45.76669" lon="4.81575">
        <ele>183</ele>
        <time>2011-11-27T09:25:11Z</time>
      </trkpt>
      <trkpt lat="45.76669" lon="4.81574">
        <ele>183</ele>
        <time>2011-11-27T09:25:12Z</time>
      </trkpt>
      <trkpt lat="45.76669" lon="4.81574">
        <ele>183</ele>
        <time>2011-11-27T09:25:15Z</time>
      </trkpt>
      <trkpt lat="45.7667" lon="4.81574">
        <ele>183</ele>
        <time>2011-11-27T09:25:16Z</time>
      </trkpt>
      <trkpt lat="45.76675" lon="4.81578">
        <ele>182</ele>
        <time>2011-11-27T09:25:25Z</time>
      </trkpt>
      <trkpt lat="45.76675" lon="4.81577">
        <ele>182</ele>
        <time>2011-11-27T09:25:28Z</time>
      </trkpt>
      <trkpt lat="45.76663" lon="4.8157">
        <ele>193</ele>
        <time>2011-11-27T09:25:34Z</time>
      </trkpt>
      <trkpt lat="45.76661" lon="4.81569">
        <ele>193</ele>
        <time>2011-11-27T09:25:35Z</time>
      </trkpt>
      <trkpt lat="45.76661" lon="4.81568">
        <ele>193</ele>
        <time>2011-11-27T09:25:37Z</time>
      </trkpt>
      <trkpt lat="45.76662" lon="4.8157">
        <ele>193</ele>
        <time>2011-11-27T09:25:43Z</time>
      </trkpt>
      <trkpt lat="45.7666" lon="4.8157">
        <ele>193</ele>
        <time>2011-11-27T09:25:54Z</time>
      </trkpt>
      <trkpt lat="45.76657" lon="4.81568">
        <ele>194</ele>
        <time>2011-11-27T09:25:57Z</time>
      </trkpt>
      <trkpt lat="45.76654" lon="4.81564">
        <ele>196</ele>
        <time>2011-11-27T09:26:00Z</time>
      </trkpt>
      <trkpt lat="45.76652" lon="4.81562">
        <ele>196</ele>
        <time>2011-11-27T09:26:04Z</time>
      </trkpt>
      <trkpt lat="45.76651" lon="4.81562">
        <ele>196</ele>
        <time>2011-11-27T09:26:05Z</time>
      </trkpt>
      <trkpt lat="45.76652" lon="4.81561">
        <ele>196</ele>
        <time>2011-11-27T09:26:11Z</time>
      </trkpt>
      <trkpt lat="45.76651" lon="4.81562">
        <ele>196</ele>
        <time>2011-11-27T09:26:20Z</time>
      </trkpt>
      <trkpt lat="45.76647" lon="4.81559">
        <ele>197</ele>
        <time>2011-11-27T09:26:24Z</time>
      </trkpt>
      <trkpt lat="45.76644" lon="4.81556">
        <ele>198</ele>
        <time>2011-11-27T09:26:28Z</time>
      </trkpt>
      <trkpt lat="45.76645" lon="4.81553">
        <ele>198</ele>
        <time>2011-11-27T09:26:32Z</time>
      </trkpt>
      <trkpt lat="45.76642" lon="4.81552">
        <ele>199</ele>
        <time>2011-11-27T09:26:35Z</time>
      </trkpt>
      <trkpt lat="45.76637" lon="4.81557">
        <ele>200</ele>
        <time>2011-11-27T09:26:53Z</time>
      </trkpt>
      <trkpt lat="45.76638" lon="4.81558">
        <ele>199</ele>
        <time>2011-11-27T09:26:56Z</time>
      </trkpt>
      <trkpt lat="45.76636" lon="4.81556">
        <ele>200</ele>
        <time>2011-11-27T09:26:58Z</time>
      </trkpt>
      <trkpt lat="45.76633" lon="4.8155">
        <ele>201</ele>
        <time>2011-11-27T09:27:06Z</time>
      </trkpt>
      <trkpt lat="45.76633" lon="4.81549">
        <ele>201</ele>
        <time>2011-11-27T09:27:09Z</time>
      </trkpt>
      <trkpt lat="45.76632" lon="4.81549">
        <ele>201</ele>
        <time>2011-11-27T09:27:10Z</time>
      </trkpt>
      <trkpt lat="45.76619" lon="4.81538">
        <ele>204</ele>
        <time>2011-11-27T09:27:40Z</time>
      </trkpt>
      <trkpt lat="45.76618" lon="4.81537">
        <ele>204</ele>
        <time>2011-11-27T09:27:43Z</time>
      </trkpt>
      <trkpt lat="45.76618" lon="4.81535">
        <ele>204</ele>
        <time>2011-11-27T09:27:44Z</time>
      </trkpt>
      <trkpt lat="45.76617" lon="4.81533">
        <ele>204</ele>
        <time>2011-11-27T09:27:45Z</time>
      </trkpt>
      <trkpt lat="45.76614" lon="4.8153">
        <ele>205</ele>
        <time>2011-11-27T09:27:48Z</time>
      </trkpt>
      <trkpt lat="45.76612" lon="4.81528">
        <ele>205</ele>
        <time>2011-11-27T09:27:50Z</time>
      </trkpt>
      <trkpt lat="45.76612" lon="4.81526">
        <ele>205</ele>
        <time>2011-11-27T09:27:53Z</time>
      </trkpt>
      <trkpt lat="45.76609" lon="4.81526">
        <ele>206</ele>
        <time>2011-11-27T09:27:55Z</time>
      </trkpt>
      <trkpt lat="45.76604" lon="4.81525">
        <ele>207</ele>
        <time>2011-11-27T09:27:59Z</time>
      </trkpt>
      <trkpt lat="45.76601" lon="4.81524">
        <ele>208</ele>
        <time>2011-11-27T09:28:01Z</time>
      </trkpt>
      <trkpt lat="45.76597" lon="4.81524">
        <ele>209</ele>
        <time>2011-11-27T09:28:04Z</time>
      </trkpt>
      <trkpt lat="45.76595" lon="4.81525">
        <ele>209</ele>
        <time>2011-11-27T09:28:06Z</time>
      </trkpt>
      <trkpt lat="45.76596" lon="4.81528">
        <ele>208</ele>
        <time>2011-11-27T09:28:08Z</time>
      </trkpt>
      <trkpt lat="45.76596" lon="4.81533">
        <ele>208</ele>
        <time>2011-11-27T09:28:11Z</time>
      </trkpt>
      <trkpt lat="45.76595" lon="4.81539">
        <ele>207</ele>
        <time>2011-11-27T09:28:14Z</time>
      </trkpt>
      <trkpt lat="45.76594" lon="4.81543">
        <ele>207</ele>
        <time>2011-11-27T09:28:17Z</time>
      </trkpt>
      <trkpt lat="45.76594" lon="4.81548">
        <ele>207</ele>
        <time>2011-11-27T09:28:22Z</time>
      </trkpt>
      <trkpt lat="45.76593" lon="4.81556">
        <ele>208</ele>
        <time>2011-11-27T09:28:35Z</time>
      </trkpt>
      <trkpt lat="45.76593" lon="4.81565">
        <ele>209</ele>
        <time>2011-11-27T09:28:41Z</time>
      </trkpt>
      <trkpt lat="45.76592" lon="4.81567">
        <ele>210</ele>
        <time>2011-11-27T09:28:42Z</time>
      </trkpt>
      <trkpt lat="45.76592" lon="4.8157">
        <ele>210</ele>
        <time>2011-11-27T09:28:44Z</time>
      </trkpt>
      <trkpt lat="45.76591" lon="4.81579">
        <ele>213</ele>
        <time>2011-11-27T09:28:49Z</time>
      </trkpt>
      <trkpt lat="45.76589" lon="4.81595">
        <ele>210</ele>
        <time>2011-11-27T09:28:54Z</time>
      </trkpt>
      <trkpt lat="45.76589" lon="4.81598">
        <ele>209</ele>
        <time>2011-11-27T09:28:55Z</time>
      </trkpt>
      <trkpt lat="45.76588" lon="4.81622">
        <ele>204</ele>
        <time>2011-11-27T09:29:01Z</time>
      </trkpt>
      <trkpt lat="45.76586" lon="4.81639">
        <ele>204</ele>
        <time>2011-11-27T09:29:06Z</time>
      </trkpt>
      <trkpt lat="45.76584" lon="4.8165">
        <ele>205</ele>
        <time>2011-11-27T09:29:09Z</time>
      </trkpt>
      <trkpt lat="45.76583" lon="4.81657">
        <ele>213</ele>
        <time>2011-11-27T09:29:11Z</time>
      </trkpt>
      <trkpt lat="45.76582" lon="4.81667">
        <ele>209</ele>
        <time>2011-11-27T09:29:14Z</time>
      </trkpt>
      <trkpt lat="45.76581" lon="4.8167">
        <ele>210</ele>
        <time>2011-11-27T09:29:15Z</time>
      </trkpt>
      <trkpt lat="45.7658" lon="4.81677">
        <ele>211</ele>
        <time>2011-11-27T09:29:17Z</time>
      </trkpt>
      <trkpt lat="45.76579" lon="4.81686">
        <ele>211</ele>
        <time>2011-11-27T09:29:20Z</time>
      </trkpt>
      <trkpt lat="45.76579" lon="4.81688">
        <ele>211</ele>
        <time>2011-11-27T09:29:21Z</time>
      </trkpt>
      <trkpt lat="45.76574" lon="4.81701">
        <ele>211</ele>
        <time>2011-11-27T09:29:26Z</time>
      </trkpt>
      <trkpt lat="45.76563" lon="4.81719">
        <ele>211</ele>
        <time>2011-11-27T09:29:34Z</time>
      </trkpt>
      <trkpt lat="45.76562" lon="4.81721">
        <ele>211</ele>
        <time>2011-11-27T09:29:35Z</time>
      </trkpt>
      <trkpt lat="45.76555" lon="4.81732">
        <ele>211</ele>
        <time>2011-11-27T09:29:40Z</time>
      </trkpt>
      <trkpt lat="45.7655" lon="4.81742">
        <ele>211</ele>
        <time>2011-11-27T09:29:44Z</time>
      </trkpt>
      <trkpt lat="45.76547" lon="4.81748">
        <ele>212</ele>
        <time>2011-11-27T09:29:46Z</time>
      </trkpt>
      <trkpt lat="45.76544" lon="4.81756">
        <ele>208</ele>
        <time>2011-11-27T09:29:49Z</time>
      </trkpt>
      <trkpt lat="45.76541" lon="4.81762">
        <ele>209</ele>
        <time>2011-11-27T09:29:51Z</time>
      </trkpt>
      <trkpt lat="45.7654" lon="4.81765">
        <ele>209</ele>
        <time>2011-11-27T09:29:52Z</time>
      </trkpt>
      <trkpt lat="45.76533" lon="4.81783">
        <ele>209</ele>
        <time>2011-11-27T09:29:58Z</time>
      </trkpt>
      <trkpt lat="45.76531" lon="4.81788">
        <ele>209</ele>
        <time>2011-11-27T09:30:00Z</time>
      </trkpt>
      <trkpt lat="45.76529" lon="4.81798">
        <ele>209</ele>
        <time>2011-11-27T09:30:03Z</time>
      </trkpt>
      <trkpt lat="45.76528" lon="4.81814">
        <ele>210</ele>
        <time>2011-11-27T09:30:08Z</time>
      </trkpt>
      <trkpt lat="45.76527" lon="4.81817">
        <ele>210</ele>
        <time>2011-11-27T09:30:09Z</time>
      </trkpt>
      <trkpt lat="45.76527" lon="4.81834">
        <ele>207</ele>
        <time>2011-11-27T09:30:14Z</time>
      </trkpt>
      <trkpt lat="45.76527" lon="4.8184">
        <ele>207</ele>
        <time>2011-11-27T09:30:16Z</time>
      </trkpt>
      <trkpt lat="45.76526" lon="4.81857">
        <ele>205</ele>
        <time>2011-11-27T09:30:21Z</time>
      </trkpt>
      <trkpt lat="45.76526" lon="4.81867">
        <ele>204</ele>
        <time>2011-11-27T09:30:24Z</time>
      </trkpt>
      <trkpt lat="45.76524" lon="4.81882">
        <ele>204</ele>
        <time>2011-11-27T09:30:28Z</time>
      </trkpt>
      <trkpt lat="45.7652" lon="4.81894">
        <ele>205</ele>
        <time>2011-11-27T09:30:32Z</time>
      </trkpt>
      <trkpt lat="45.7652" lon="4.81898">
        <ele>205</ele>
        <time>2011-11-27T09:30:33Z</time>
      </trkpt>
      <trkpt lat="45.76516" lon="4.81915">
        <ele>208</ele>
        <time>2011-11-27T09:30:38Z</time>
      </trkpt>
      <trkpt lat="45.76515" lon="4.81922">
        <ele>207</ele>
        <time>2011-11-27T09:30:40Z</time>
      </trkpt>
      <trkpt lat="45.76513" lon="4.8193">
        <ele>207</ele>
        <time>2011-11-27T09:30:42Z</time>
      </trkpt>
      <trkpt lat="45.76512" lon="4.81933">
        <ele>206</ele>
        <time>2011-11-27T09:30:43Z</time>
      </trkpt>
      <trkpt lat="45.76511" lon="4.81946">
        <ele>205</ele>
        <time>2011-11-27T09:30:47Z</time>
      </trkpt>
      <trkpt lat="45.76511" lon="4.8195">
        <ele>205</ele>
        <time>2011-11-27T09:30:48Z</time>
      </trkpt>
      <trkpt lat="45.76508" lon="4.81966">
        <ele>205</ele>
        <time>2011-11-27T09:30:53Z</time>
      </trkpt>
      <trkpt lat="45.76505" lon="4.81977">
        <ele>207</ele>
        <time>2011-11-27T09:30:56Z</time>
      </trkpt>
      <trkpt lat="45.76504" lon="4.81981">
        <ele>208</ele>
        <time>2011-11-27T09:30:57Z</time>
      </trkpt>
      <trkpt lat="45.76502" lon="4.81994">
        <ele>213</ele>
        <time>2011-11-27T09:31:01Z</time>
      </trkpt>
      <trkpt lat="45.76508" lon="4.81994">
        <ele>211</ele>
        <time>2011-11-27T09:31:05Z</time>
      </trkpt>
      <trkpt lat="45.76509" lon="4.81994">
        <ele>210</ele>
        <time>2011-11-27T09:31:06Z</time>
      </trkpt>
      <trkpt lat="45.76518" lon="4.81993">
        <ele>207</ele>
        <time>2011-11-27T09:31:11Z</time>
      </trkpt>
      <trkpt lat="45.76526" lon="4.81992">
        <ele>205</ele>
        <time>2011-11-27T09:31:15Z</time>
      </trkpt>
      <trkpt lat="45.76542" lon="4.8199">
        <ele>201</ele>
        <time>2011-11-27T09:31:21Z</time>
      </trkpt>
      <trkpt lat="45.76547" lon="4.8199">
        <ele>199</ele>
        <time>2011-11-27T09:31:23Z</time>
      </trkpt>
      <trkpt lat="45.76555" lon="4.81995">
        <ele>197</ele>
        <time>2011-11-27T09:31:27Z</time>
      </trkpt>
      <trkpt lat="45.76563" lon="4.82001">
        <ele>200</ele>
        <time>2011-11-27T09:31:31Z</time>
      </trkpt>
      <trkpt lat="45.76567" lon="4.82003">
        <ele>198</ele>
        <time>2011-11-27T09:31:33Z</time>
      </trkpt>
      <trkpt lat="45.76575" lon="4.82002">
        <ele>194</ele>
        <time>2011-11-27T09:31:37Z</time>
      </trkpt>
      <trkpt lat="45.76579" lon="4.81992">
        <ele>191</ele>
        <time>2011-11-27T09:31:42Z</time>
      </trkpt>
      <trkpt lat="45.76583" lon="4.81984">
        <ele>192</ele>
        <time>2011-11-27T09:31:45Z</time>
      </trkpt>
      <trkpt lat="45.76585" lon="4.81983">
        <ele>181</ele>
        <time>2011-11-27T09:31:46Z</time>
      </trkpt>
      <trkpt lat="45.76591" lon="4.81971">
        <ele>179</ele>
        <time>2011-11-27T09:31:51Z</time>
      </trkpt>
      <trkpt lat="45.76592" lon="4.8197">
        <ele>179</ele>
        <time>2011-11-27T09:31:52Z</time>
      </trkpt>
      <trkpt lat="45.76605" lon="4.8197">
        <ele>178</ele>
        <time>2011-11-27T09:31:57Z</time>
      </trkpt>
      <trkpt lat="45.76609" lon="4.81969">
        <ele>177</ele>
        <time>2011-11-27T09:32:00Z</time>
      </trkpt>
      <trkpt lat="45.76613" lon="4.81971">
        <ele>177</ele>
        <time>2011-11-27T09:32:02Z</time>
      </trkpt>
      <trkpt lat="45.76628" lon="4.81977">
        <ele>175</ele>
        <time>2011-11-27T09:32:08Z</time>
      </trkpt>
      <trkpt lat="45.76631" lon="4.81972">
        <ele>174</ele>
        <time>2011-11-27T09:32:10Z</time>
      </trkpt>
      <trkpt lat="45.76638" lon="4.81977">
        <ele>173</ele>
        <time>2011-11-27T09:32:12Z</time>
      </trkpt>
      <trkpt lat="45.76648" lon="4.81987">
        <ele>171</ele>
        <time>2011-11-27T09:32:14Z</time>
      </trkpt>
      <trkpt lat="45.76653" lon="4.81992">
        <ele>170</ele>
        <time>2011-11-27T09:32:15Z</time>
      </trkpt>
      <trkpt lat="45.76656" lon="4.81997">
        <ele>169</ele>
        <time>2011-11-27T09:32:16Z</time>
      </trkpt>
      <trkpt lat="45.76661" lon="4.82004">
        <ele>169</ele>
        <time>2011-11-27T09:32:18Z</time>
      </trkpt>
      <trkpt lat="45.76666" lon="4.82009">
        <ele>170</ele>
        <time>2011-11-27T09:32:19Z</time>
      </trkpt>
      <trkpt lat="45.76667" lon="4.82014">
        <ele>166</ele>
        <time>2011-11-27T09:32:21Z</time>
      </trkpt>
      <trkpt lat="45.76667" lon="4.82018">
        <ele>166</ele>
        <time>2011-11-27T09:32:23Z</time>
      </trkpt>
      <trkpt lat="45.76667" lon="4.82022">
        <ele>166</ele>
        <time>2011-11-27T09:32:27Z</time>
      </trkpt>
      <trkpt lat="45.76668" lon="4.82027">
        <ele>167</ele>
        <time>2011-11-27T09:32:31Z</time>
      </trkpt>
      <trkpt lat="45.76668" lon="4.82029">
        <ele>167</ele>
        <time>2011-11-27T09:32:32Z</time>
      </trkpt>
      <trkpt lat="45.76668" lon="4.82029">
        <ele>167</ele>
        <time>2011-11-27T09:32:33Z</time>
      </trkpt>
      <trkpt lat="45.76668" lon="4.82031">
        <ele>167</ele>
        <time>2011-11-27T09:32:34Z</time>
      </trkpt>
      <trkpt lat="45.76669" lon="4.82037">
        <ele>167</ele>
        <time>2011-11-27T09:32:38Z</time>
      </trkpt>
      <trkpt lat="45.76671" lon="4.82048">
        <ele>167</ele>
        <time>2011-11-27T09:32:44Z</time>
      </trkpt>
      <trkpt lat="45.76672" lon="4.82053">
        <ele>167</ele>
        <time>2011-11-27T09:32:47Z</time>
      </trkpt>
      <trkpt lat="45.76672" lon="4.82056">
        <ele>167</ele>
        <time>2011-11-27T09:32:48Z</time>
      </trkpt>
      <trkpt lat="45.76673" lon="4.8206">
        <ele>167</ele>
        <time>2011-11-27T09:32:49Z</time>
      </trkpt>
      <trkpt lat="45.76672" lon="4.82066">
        <ele>166</ele>
        <time>2011-11-27T09:32:51Z</time>
      </trkpt>
      <trkpt lat="45.76672" lon="4.82071">
        <ele>166</ele>
        <time>2011-11-27T09:32:53Z</time>
      </trkpt>
      <trkpt lat="45.76674" lon="4.82074">
        <ele>166</ele>
        <time>2011-11-27T09:32:54Z</time>
      </trkpt>
      <trkpt lat="45.76679" lon="4.8208">
        <ele>166</ele>
        <time>2011-11-27T09:32:56Z</time>
      </trkpt>
      <trkpt lat="45.76686" lon="4.82092">
        <ele>170</ele>
        <time>2011-11-27T09:33:00Z</time>
      </trkpt>
      <trkpt lat="45.76688" lon="4.82104">
        <ele>172</ele>
        <time>2011-11-27T09:33:04Z</time>
      </trkpt>
      <trkpt lat="45.76691" lon="4.82114">
        <ele>173</ele>
        <time>2011-11-27T09:33:08Z</time>
      </trkpt>
      <trkpt lat="45.76696" lon="4.82118">
        <ele>174</ele>
        <time>2011-11-27T09:33:10Z</time>
      </trkpt>
      <trkpt lat="45.76697" lon="4.82127">
        <ele>175</ele>
        <time>2011-11-27T09:33:14Z</time>
      </trkpt>
      <trkpt lat="45.76698" lon="4.82133">
        <ele>176</ele>
        <time>2011-11-27T09:33:16Z</time>
      </trkpt>
      <trkpt lat="45.76699" lon="4.82148">
        <ele>177</ele>
        <time>2011-11-27T09:33:21Z</time>
      </trkpt>
      <trkpt lat="45.767" lon="4.82154">
        <ele>178</ele>
        <time>2011-11-27T09:33:23Z</time>
      </trkpt>
      <trkpt lat="45.76706" lon="4.82168">
        <ele>183</ele>
        <time>2011-11-27T09:33:27Z</time>
      </trkpt>
      <trkpt lat="45.76707" lon="4.82179">
        <ele>182</ele>
        <time>2011-11-27T09:33:30Z</time>
      </trkpt>
      <trkpt lat="45.76706" lon="4.82185">
        <ele>183</ele>
        <time>2011-11-27T09:33:32Z</time>
      </trkpt>
      <trkpt lat="45.76706" lon="4.82205">
        <ele>183</ele>
        <time>2011-11-27T09:33:38Z</time>
      </trkpt>
      <trkpt lat="45.76709" lon="4.82223">
        <ele>183</ele>
        <time>2011-11-27T09:33:43Z</time>
      </trkpt>
      <trkpt lat="45.76707" lon="4.82232">
        <ele>184</ele>
        <time>2011-11-27T09:33:46Z</time>
      </trkpt>
      <trkpt lat="45.76712" lon="4.82239">
        <ele>182</ele>
        <time>2011-11-27T09:33:48Z</time>
      </trkpt>
      <trkpt lat="45.76716" lon="4.82244">
        <ele>181</ele>
        <time>2011-11-27T09:33:49Z</time>
      </trkpt>
      <trkpt lat="45.76722" lon="4.82255">
        <ele>180</ele>
        <time>2011-11-27T09:33:52Z</time>
      </trkpt>
      <trkpt lat="45.76724" lon="4.82264">
        <ele>180</ele>
        <time>2011-11-27T09:33:54Z</time>
      </trkpt>
      <trkpt lat="45.76728" lon="4.82281">
        <ele>180</ele>
        <time>2011-11-27T09:33:58Z</time>
      </trkpt>
      <trkpt lat="45.76731" lon="4.82301">
        <ele>179</ele>
        <time>2011-11-27T09:34:03Z</time>
      </trkpt>
      <trkpt lat="45.7673" lon="4.82309">
        <ele>179</ele>
        <time>2011-11-27T09:34:05Z</time>
      </trkpt>
      <trkpt lat="45.7673" lon="4.82325">
        <ele>177</ele>
        <time>2011-11-27T09:34:09Z</time>
      </trkpt>
      <trkpt lat="45.76729" lon="4.82336">
        <ele>175</ele>
        <time>2011-11-27T09:34:12Z</time>
      </trkpt>
      <trkpt lat="45.76729" lon="4.82346">
        <ele>176</ele>
        <time>2011-11-27T09:34:15Z</time>
      </trkpt>
      <trkpt lat="45.76724" lon="4.82359">
        <ele>178</ele>
        <time>2011-11-27T09:34:19Z</time>
      </trkpt>
      <trkpt lat="45.76717" lon="4.82377">
        <ele>180</ele>
        <time>2011-11-27T09:34:24Z</time>
      </trkpt>
      <trkpt lat="45.76717" lon="4.82388">
        <ele>179</ele>
        <time>2011-11-27T09:34:27Z</time>
      </trkpt>
      <trkpt lat="45.76715" lon="4.82395">
        <ele>179</ele>
        <time>2011-11-27T09:34:29Z</time>
      </trkpt>
      <trkpt lat="45.76715" lon="4.82414">
        <ele>179</ele>
        <time>2011-11-27T09:34:34Z</time>
      </trkpt>
      <trkpt lat="45.76716" lon="4.82432">
        <ele>176</ele>
        <time>2011-11-27T09:34:39Z</time>
      </trkpt>
      <trkpt lat="45.76717" lon="4.82439">
        <ele>176</ele>
        <time>2011-11-27T09:34:41Z</time>
      </trkpt>
      <trkpt lat="45.76718" lon="4.82453">
        <ele>176</ele>
        <time>2011-11-27T09:34:45Z</time>
      </trkpt>
      <trkpt lat="45.76717" lon="4.82467">
        <ele>176</ele>
        <time>2011-11-27T09:34:49Z</time>
      </trkpt>
      <trkpt lat="45.76715" lon="4.82474">
        <ele>176</ele>
        <time>2011-11-27T09:34:51Z</time>
      </trkpt>
      <trkpt lat="45.76711" lon="4.82491">
        <ele>177</ele>
        <time>2011-11-27T09:34:56Z</time>
      </trkpt>
      <trkpt lat="45.76709" lon="4.82498">
        <ele>177</ele>
        <time>2011-11-27T09:34:58Z</time>
      </trkpt>
      <trkpt lat="45.76706" lon="4.82515">
        <ele>176</ele>
        <time>2011-11-27T09:35:03Z</time>
      </trkpt>
      <trkpt lat="45.76706" lon="4.82518">
        <ele>176</ele>
        <time>2011-11-27T09:35:04Z</time>
      </trkpt>
      <trkpt lat="45.76716" lon="4.82533">
        <ele>174</ele>
        <time>2011-11-27T09:35:09Z</time>
      </trkpt>
      <trkpt lat="45.76716" lon="4.82536">
        <ele>174</ele>
        <time>2011-11-27T09:35:10Z</time>
      </trkpt>
      <trkpt lat="45.76712" lon="4.82547">
        <ele>174</ele>
        <time>2011-11-27T09:35:14Z</time>
      </trkpt>
      <trkpt lat="45.76713" lon="4.82553">
        <ele>174</ele>
        <time>2011-11-27T09:35:16Z</time>
      </trkpt>
      <trkpt lat="45.76713" lon="4.82555">
        <ele>174</ele>
        <time>2011-11-27T09:35:17Z</time>
      </trkpt>
      <trkpt lat="45.76713" lon="4.82566">
        <ele>174</ele>
        <time>2011-11-27T09:35:21Z</time>
      </trkpt>
      <trkpt lat="45.76709" lon="4.82576">
        <ele>174</ele>
        <time>2011-11-27T09:35:25Z</time>
      </trkpt>
      <trkpt lat="45.76708" lon="4.82578">
        <ele>174</ele>
        <time>2011-11-27T09:35:26Z</time>
      </trkpt>
      <trkpt lat="45.76701" lon="4.82589">
        <ele>173</ele>
        <time>2011-11-27T09:35:31Z</time>
      </trkpt>
      <trkpt lat="45.76695" lon="4.82598">
        <ele>174</ele>
        <time>2011-11-27T09:35:35Z</time>
      </trkpt>
      <trkpt lat="45.76693" lon="4.82602">
        <ele>174</ele>
        <time>2011-11-27T09:35:36Z</time>
      </trkpt>
      <trkpt lat="45.7668" lon="4.82619">
        <ele>174</ele>
        <time>2011-11-27T09:35:42Z</time>
      </trkpt>
      <trkpt lat="45.76671" lon="4.82639">
        <ele>174</ele>
        <time>2011-11-27T09:35:48Z</time>
      </trkpt>
      <trkpt lat="45.76671" lon="4.82644">
        <ele>175</ele>
        <time>2011-11-27T09:35:50Z</time>
      </trkpt>
      <trkpt lat="45.76668" lon="4.82654">
        <ele>175</ele>
        <time>2011-11-27T09:35:54Z</time>
      </trkpt>
      <trkpt lat="45.76666" lon="4.82656">
        <ele>181</ele>
        <time>2011-11-27T09:35:56Z</time>
      </trkpt>
      <trkpt lat="45.76663" lon="4.82668">
        <ele>178</ele>
        <time>2011-11-27T09:36:03Z</time>
      </trkpt>
      <trkpt lat="45.76662" lon="4.82668">
        <ele>178</ele>
        <time>2011-11-27T09:36:04Z</time>
      </trkpt>
      <trkpt lat="45.76657" lon="4.82679">
        <ele>180</ele>
        <time>2011-11-27T09:36:09Z</time>
      </trkpt>
      <trkpt lat="45.76651" lon="4.82688">
        <ele>180</ele>
        <time>2011-11-27T09:36:12Z</time>
      </trkpt>
      <trkpt lat="45.7665" lon="4.82692">
        <ele>181</ele>
        <time>2011-11-27T09:36:13Z</time>
      </trkpt>
      <trkpt lat="45.7664" lon="4.82707">
        <ele>181</ele>
        <time>2011-11-27T09:36:18Z</time>
      </trkpt>
      <trkpt lat="45.76638" lon="4.82708">
        <ele>181</ele>
        <time>2011-11-27T09:36:19Z</time>
      </trkpt>
      <trkpt lat="45.76629" lon="4.82718">
        <ele>182</ele>
        <time>2011-11-27T09:36:24Z</time>
      </trkpt>
      <trkpt lat="45.76622" lon="4.82725">
        <ele>182</ele>
        <time>2011-11-27T09:36:28Z</time>
      </trkpt>
      <trkpt lat="45.7662" lon="4.82726">
        <ele>182</ele>
        <time>2011-11-27T09:36:29Z</time>
      </trkpt>
      <trkpt lat="45.76608" lon="4.82728">
        <ele>183</ele>
        <time>2011-11-27T09:36:35Z</time>
      </trkpt>
      <trkpt lat="45.76604" lon="4.8273">
        <ele>183</ele>
        <time>2011-11-27T09:36:37Z</time>
      </trkpt>
      <trkpt lat="45.76596" lon="4.82732">
        <ele>183</ele>
        <time>2011-11-27T09:36:41Z</time>
      </trkpt>
      <trkpt lat="45.76589" lon="4.82725">
        <ele>183</ele>
        <time>2011-11-27T09:36:45Z</time>
      </trkpt>
      <trkpt lat="45.76588" lon="4.82722">
        <ele>183</ele>
        <time>2011-11-27T09:36:46Z</time>
      </trkpt>
      <trkpt lat="45.76586" lon="4.82703">
        <ele>185</ele>
        <time>2011-11-27T09:36:51Z</time>
      </trkpt>
      <trkpt lat="45.76586" lon="4.82692">
        <ele>186</ele>
        <time>2011-11-27T09:36:53Z</time>
      </trkpt>
      <trkpt lat="45.76588" lon="4.82691">
        <ele>186</ele>
        <time>2011-11-27T09:36:54Z</time>
      </trkpt>
      <trkpt lat="45.76588" lon="4.82687">
        <ele>187</ele>
        <time>2011-11-27T09:36:55Z</time>
      </trkpt>
      <trkpt lat="45.76586" lon="4.82673">
        <ele>189</ele>
        <time>2011-11-27T09:37:00Z</time>
      </trkpt>
      <trkpt lat="45.76584" lon="4.82662">
        <ele>192</ele>
        <time>2011-11-27T09:37:05Z</time>
      </trkpt>
      <trkpt lat="45.76584" lon="4.82661">
        <ele>192</ele>
        <time>2011-11-27T09:37:06Z</time>
      </trkpt>
      <trkpt lat="45.76588" lon="4.82656">
        <ele>191</ele>
        <time>2011-11-27T09:37:09Z</time>
      </trkpt>
      <trkpt lat="45.76588" lon="4.82654">
        <ele>191</ele>
        <time>2011-11-27T09:37:10Z</time>
      </trkpt>
      <trkpt lat="45.76589" lon="4.82651">
        <ele>191</ele>
        <time>2011-11-27T09:37:13Z</time>
      </trkpt>
      <trkpt lat="45.76589" lon="4.82648">
        <ele>191</ele>
        <time>2011-11-27T09:37:15Z</time>
      </trkpt>
      <trkpt lat="45.76589" lon="4.82642">
        <ele>191</ele>
        <time>2011-11-27T09:37:20Z</time>
      </trkpt>
      <trkpt lat="45.76592" lon="4.82641">
        <ele>191</ele>
        <time>2011-11-27T09:37:26Z</time>
      </trkpt>
      <trkpt lat="45.76594" lon="4.82641">
        <ele>191</ele>
        <time>2011-11-27T09:37:27Z</time>
      </trkpt>
      <trkpt lat="45.76597" lon="4.8264">
        <ele>191</ele>
        <time>2011-11-27T09:37:30Z</time>
      </trkpt>
      <trkpt lat="45.76596" lon="4.82634">
        <ele>192</ele>
        <time>2011-11-27T09:37:34Z</time>
      </trkpt>
      <trkpt lat="45.76596" lon="4.8263">
        <ele>192</ele>
        <time>2011-11-27T09:37:38Z</time>
      </trkpt>
      <trkpt lat="45.76595" lon="4.82627">
        <ele>192</ele>
        <time>2011-11-27T09:37:40Z</time>
      </trkpt>
      <trkpt lat="45.76593" lon="4.82625">
        <ele>193</ele>
        <time>2011-11-27T09:37:41Z</time>
      </trkpt>
      <trkpt lat="45.7659" lon="4.82618">
        <ele>194</ele>
        <time>2011-11-27T09:37:45Z</time>
      </trkpt>
      <trkpt lat="45.76595" lon="4.82609">
        <ele>195</ele>
        <time>2011-11-27T09:37:50Z</time>
      </trkpt>
      <trkpt lat="45.76599" lon="4.82605">
        <ele>195</ele>
        <time>2011-11-27T09:37:53Z</time>
      </trkpt>
      <trkpt lat="45.76603" lon="4.82601">
        <ele>195</ele>
        <time>2011-11-27T09:37:56Z</time>
      </trkpt>
      <trkpt lat="45.76602" lon="4.82597">
        <ele>196</ele>
        <time>2011-11-27T09:37:59Z</time>
      </trkpt>
      <trkpt lat="45.76601" lon="4.82594">
        <ele>197</ele>
        <time>2011-11-27T09:38:00Z</time>
      </trkpt>
      <trkpt lat="45.76605" lon="4.82587">
        <ele>196</ele>
        <time>2011-11-27T09:38:05Z</time>
      </trkpt>
      <trkpt lat="45.76606" lon="4.82586">
        <ele>196</ele>
        <time>2011-11-27T09:38:06Z</time>
      </trkpt>
      <trkpt lat="45.7661" lon="4.82581">
        <ele>201</ele>
        <time>2011-11-27T09:38:10Z</time>
      </trkpt>
      <trkpt lat="45.76612" lon="4.82574">
        <ele>201</ele>
        <time>2011-11-27T09:38:14Z</time>
      </trkpt>
      <trkpt lat="45.7661" lon="4.82571">
        <ele>201</ele>
        <time>2011-11-27T09:38:15Z</time>
      </trkpt>
      <trkpt lat="45.7661" lon="4.82559">
        <ele>201</ele>
        <time>2011-11-27T09:38:22Z</time>
      </trkpt>
      <trkpt lat="45.7661" lon="4.82558">
        <ele>201</ele>
        <time>2011-11-27T09:38:23Z</time>
      </trkpt>
      <trkpt lat="45.7661" lon="4.82551">
        <ele>202</ele>
        <time>2011-11-27T09:38:27Z</time>
      </trkpt>
      <trkpt lat="45.76611" lon="4.82541">
        <ele>202</ele>
        <time>2011-11-27T09:38:33Z</time>
      </trkpt>
      <trkpt lat="45.76612" lon="4.82534">
        <ele>203</ele>
        <time>2011-11-27T09:38:37Z</time>
      </trkpt>
      <trkpt lat="45.76613" lon="4.82529">
        <ele>203</ele>
        <time>2011-11-27T09:38:39Z</time>
      </trkpt>
      <trkpt lat="45.76614" lon="4.82515">
        <ele>204</ele>
        <time>2011-11-27T09:38:44Z</time>
      </trkpt>
      <trkpt lat="45.76616" lon="4.82509">
        <ele>204</ele>
        <time>2011-11-27T09:38:46Z</time>
      </trkpt>
      <trkpt lat="45.76616" lon="4.825">
        <ele>205</ele>
        <time>2011-11-27T09:38:49Z</time>
      </trkpt>
      <trkpt lat="45.76618" lon="4.82486">
        <ele>209</ele>
        <time>2011-11-27T09:38:55Z</time>
      </trkpt>
      <trkpt lat="45.76619" lon="4.82483">
        <ele>209</ele>
        <time>2011-11-27T09:38:56Z</time>
      </trkpt>
      <trkpt lat="45.7662" lon="4.82469">
        <ele>209</ele>
        <time>2011-11-27T09:39:01Z</time>
      </trkpt>
      <trkpt lat="45.7662" lon="4.82466">
        <ele>209</ele>
        <time>2011-11-27T09:39:02Z</time>
      </trkpt>
      <trkpt lat="45.7662" lon="4.82459">
        <ele>209</ele>
        <time>2011-11-27T09:39:06Z</time>
      </trkpt>
      <trkpt lat="45.76619" lon="4.82459">
        <ele>209</ele>
        <time>2011-11-27T09:39:09Z</time>
      </trkpt>
      <trkpt lat="45.76617" lon="4.82458">
        <ele>209</ele>
        <time>2011-11-27T09:39:10Z</time>
      </trkpt>
      <trkpt lat="45.76613" lon="4.82453">
        <ele>210</ele>
        <time>2011-11-27T09:39:13Z</time>
      </trkpt>
      <trkpt lat="45.76612" lon="4.82452">
        <ele>211</ele>
        <time>2011-11-27T09:39:14Z</time>
      </trkpt>
      <trkpt lat="45.7661" lon="4.82452">
        <ele>211</ele>
        <time>2011-11-27T09:39:16Z</time>
      </trkpt>
      <trkpt lat="45.76611" lon="4.82455">
        <ele>211</ele>
        <time>2011-11-27T09:39:22Z</time>
      </trkpt>
      <trkpt lat="45.76605" lon="4.82453">
        <ele>212</ele>
        <time>2011-11-27T09:39:30Z</time>
      </trkpt>
      <trkpt lat="45.76603" lon="4.82451">
        <ele>213</ele>
        <time>2011-11-27T09:39:34Z</time>
      </trkpt>
      <trkpt lat="45.76602" lon="4.82448">
        <ele>213</ele>
        <time>2011-11-27T09:39:35Z</time>
      </trkpt>
      <trkpt lat="45.76602" lon="4.82444">
        <ele>213</ele>
        <time>2011-11-27T09:39:36Z</time>
      </trkpt>
      <trkpt lat="45.76599" lon="4.82437">
        <ele>215</ele>
        <time>2011-11-27T09:39:39Z</time>
      </trkpt>
      <trkpt lat="45.76599" lon="4.82433">
        <ele>216</ele>
        <time>2011-11-27T09:39:41Z</time>
      </trkpt>
      <trkpt lat="45.76593" lon="4.82431">
        <ele>218</ele>
        <time>2011-11-27T09:39:46Z</time>
      </trkpt>
      <trkpt lat="45.76592" lon="4.82431">
        <ele>218</ele>
        <time>2011-11-27T09:39:47Z</time>
      </trkpt>
      <trkpt lat="45.76588" lon="4.82424">
        <ele>222</ele>
        <time>2011-11-27T09:39:53Z</time>
      </trkpt>
      <trkpt lat="45.76582" lon="4.82416">
        <ele>229</ele>
        <time>2011-11-27T09:40:03Z</time>
      </trkpt>
      <trkpt lat="45.76581" lon="4.82417">
        <ele>229</ele>
        <time>2011-11-27T09:40:04Z</time>
      </trkpt>
      <trkpt lat="45.76579" lon="4.82416">
        <ele>231</ele>
        <time>2011-11-27T09:40:08Z</time>
      </trkpt>
      <trkpt lat="45.76578" lon="4.82414">
        <ele>231</ele>
        <time>2011-11-27T09:40:10Z</time>
      </trkpt>
      <trkpt lat="45.76577" lon="4.82413">
        <ele>232</ele>
        <time>2011-11-27T09:40:12Z</time>
      </trkpt>
      <trkpt lat="45.76575" lon="4.8241">
        <ele>233</ele>
        <time>2011-11-27T09:40:17Z</time>
      </trkpt>
      <trkpt lat="45.76571" lon="4.82408">
        <ele>235</ele>
        <time>2011-11-27T09:40:21Z</time>
      </trkpt>
      <trkpt lat="45.76568" lon="4.82398">
        <ele>237</ele>
        <time>2011-11-27T09:40:32Z</time>
      </trkpt>
      <trkpt lat="45.76565" lon="4.82398">
        <ele>237</ele>
        <time>2011-11-27T09:40:35Z</time>
      </trkpt>
      <trkpt lat="45.76564" lon="4.82398">
        <ele>238</ele>
        <time>2011-11-27T09:40:36Z</time>
      </trkpt>
      <trkpt lat="45.76563" lon="4.82398">
        <ele>238</ele>
        <time>2011-11-27T09:40:37Z</time>
      </trkpt>
      <trkpt lat="45.76559" lon="4.82395">
        <ele>239</ele>
        <time>2011-11-27T09:40:44Z</time>
      </trkpt>
      <trkpt lat="45.76555" lon="4.82391">
        <ele>240</ele>
        <time>2011-11-27T09:40:51Z</time>
      </trkpt>
      <trkpt lat="45.76553" lon="4.82386">
        <ele>241</ele>
        <time>2011-11-27T09:40:57Z</time>
      </trkpt>
      <trkpt lat="45.76548" lon="4.82384">
        <ele>241</ele>
        <time>2011-11-27T09:41:04Z</time>
      </trkpt>
      <trkpt lat="45.76547" lon="4.82382">
        <ele>242</ele>
        <time>2011-11-27T09:41:07Z</time>
      </trkpt>
      <trkpt lat="45.76541" lon="4.82373">
        <ele>243</ele>
        <time>2011-11-27T09:41:21Z</time>
      </trkpt>
      <trkpt lat="45.76539" lon="4.82369">
        <ele>243</ele>
        <time>2011-11-27T09:41:25Z</time>
      </trkpt>
      <trkpt lat="45.76537" lon="4.82368">
        <ele>244</ele>
        <time>2011-11-27T09:41:30Z</time>
      </trkpt>
      <trkpt lat="45.76534" lon="4.82365">
        <ele>244</ele>
        <time>2011-11-27T09:41:31Z</time>
      </trkpt>
      <trkpt lat="45.76528" lon="4.82359">
        <ele>246</ele>
        <time>2011-11-27T09:41:35Z</time>
      </trkpt>
      <trkpt lat="45.76534" lon="4.82361">
        <ele>245</ele>
        <time>2011-11-27T09:41:41Z</time>
      </trkpt>
      <trkpt lat="45.76529" lon="4.8236">
        <ele>246</ele>
        <time>2011-11-27T09:41:47Z</time>
      </trkpt>
      <trkpt lat="45.76527" lon="4.82354">
        <ele>247</ele>
        <time>2011-11-27T09:41:51Z</time>
      </trkpt>
      <trkpt lat="45.76525" lon="4.82353">
        <ele>247</ele>
        <time>2011-11-27T09:41:53Z</time>
      </trkpt>
      <trkpt lat="45.76522" lon="4.82353">
        <ele>248</ele>
        <time>2011-11-27T09:41:57Z</time>
      </trkpt>
      <trkpt lat="45.76519" lon="4.82352">
        <ele>249</ele>
        <time>2011-11-27T09:42:01Z</time>
      </trkpt>
      <trkpt lat="45.76518" lon="4.82351">
        <ele>249</ele>
        <time>2011-11-27T09:42:02Z</time>
      </trkpt>
      <trkpt lat="45.76515" lon="4.82347">
        <ele>251</ele>
        <time>2011-11-27T09:42:07Z</time>
      </trkpt>
      <trkpt lat="45.76513" lon="4.82345">
        <ele>252</ele>
        <time>2011-11-27T09:42:09Z</time>
      </trkpt>
      <trkpt lat="45.7651" lon="4.82343">
        <ele>253</ele>
        <time>2011-11-27T09:42:13Z</time>
      </trkpt>
      <trkpt lat="45.76508" lon="4.82344">
        <ele>253</ele>
        <time>2011-11-27T09:42:15Z</time>
      </trkpt>
      <trkpt lat="45.76504" lon="4.82341">
        <ele>255</ele>
        <time>2011-11-27T09:42:18Z</time>
      </trkpt>
      <trkpt lat="45.76502" lon="4.8234">
        <ele>257</ele>
        <time>2011-11-27T09:42:20Z</time>
      </trkpt>
      <trkpt lat="45.76499" lon="4.82334">
        <ele>261</ele>
        <time>2011-11-27T09:42:25Z</time>
      </trkpt>
      <trkpt lat="45.76499" lon="4.82334">
        <ele>261</ele>
        <time>2011-11-27T09:42:26Z</time>
      </trkpt>
      <trkpt lat="45.76495" lon="4.82332">
        <ele>263</ele>
        <time>2011-11-27T09:42:30Z</time>
      </trkpt>
      <trkpt lat="45.76489" lon="4.82326">
        <ele>265</ele>
        <time>2011-11-27T09:42:37Z</time>
      </trkpt>
      <trkpt lat="45.76485" lon="4.82318">
        <ele>266</ele>
        <time>2011-11-27T09:42:42Z</time>
      </trkpt>
      <trkpt lat="45.76484" lon="4.82315">
        <ele>266</ele>
        <time>2011-11-27T09:42:44Z</time>
      </trkpt>
      <trkpt lat="45.76482" lon="4.82313">
        <ele>267</ele>
        <time>2011-11-27T09:42:46Z</time>
      </trkpt>
      <trkpt lat="45.7648" lon="4.82309">
        <ele>267</ele>
        <time>2011-11-27T09:42:50Z</time>
      </trkpt>
      <trkpt lat="45.76479" lon="4.82307">
        <ele>267</ele>
        <time>2011-11-27T09:42:53Z</time>
      </trkpt>
      <trkpt lat="45.76477" lon="4.82301">
        <ele>268</ele>
        <time>2011-11-27T09:42:59Z</time>
      </trkpt>
      <trkpt lat="45.76474" lon="4.82302">
        <ele>268</ele>
        <time>2011-11-27T09:43:04Z</time>
      </trkpt>
      <trkpt lat="45.76472" lon="4.82299">
        <ele>268</ele>
        <time>2011-11-27T09:43:09Z</time>
      </trkpt>
      <trkpt lat="45.7647" lon="4.82297">
        <ele>269</ele>
        <time>2011-11-27T09:43:11Z</time>
      </trkpt>
      <trkpt lat="45.76464" lon="4.82293">
        <ele>269</ele>
        <time>2011-11-27T09:43:16Z</time>
      </trkpt>
      <trkpt lat="45.76463" lon="4.82294">
        <ele>269</ele>
        <time>2011-11-27T09:43:17Z</time>
      </trkpt>
      <trkpt lat="45.76458" lon="4.82288">
        <ele>270</ele>
        <time>2011-11-27T09:43:24Z</time>
      </trkpt>
      <trkpt lat="45.76456" lon="4.82285">
        <ele>270</ele>
        <time>2011-11-27T09:43:26Z</time>
      </trkpt>
      <trkpt lat="45.76455" lon="4.82285">
        <ele>271</ele>
        <time>2011-11-27T09:43:27Z</time>
      </trkpt>
      <trkpt lat="45.76451" lon="4.82285">
        <ele>271</ele>
        <time>2011-11-27T09:43:31Z</time>
      </trkpt>
      <trkpt lat="45.76446" lon="4.8228">
        <ele>272</ele>
        <time>2011-11-27T09:43:38Z</time>
      </trkpt>
      <trkpt lat="45.76439" lon="4.82279">
        <ele>273</ele>
        <time>2011-11-27T09:43:45Z</time>
      </trkpt>
      <trkpt lat="45.76437" lon="4.8228">
        <ele>273</ele>
        <time>2011-11-27T09:43:48Z</time>
      </trkpt>
      <trkpt lat="45.76435" lon="4.82281">
        <ele>273</ele>
        <time>2011-11-27T09:43:50Z</time>
      </trkpt>
      <trkpt lat="45.76433" lon="4.82279">
        <ele>274</ele>
        <time>2011-11-27T09:43:52Z</time>
      </trkpt>
      <trkpt lat="45.76432" lon="4.82278">
        <ele>274</ele>
        <time>2011-11-27T09:43:54Z</time>
      </trkpt>
      <trkpt lat="45.76431" lon="4.82278">
        <ele>274</ele>
        <time>2011-11-27T09:43:55Z</time>
      </trkpt>
      <trkpt lat="45.7643" lon="4.82273">
        <ele>275</ele>
        <time>2011-11-27T09:43:59Z</time>
      </trkpt>
      <trkpt lat="45.76429" lon="4.82273">
        <ele>275</ele>
        <time>2011-11-27T09:44:00Z</time>
      </trkpt>
      <trkpt lat="45.76428" lon="4.82273">
        <ele>275</ele>
        <time>2011-11-27T09:44:01Z</time>
      </trkpt>
      <trkpt lat="45.76424" lon="4.82271">
        <ele>276</ele>
        <time>2011-11-27T09:44:05Z</time>
      </trkpt>
      <trkpt lat="45.76422" lon="4.82271">
        <ele>276</ele>
        <time>2011-11-27T09:44:07Z</time>
      </trkpt>
      <trkpt lat="45.76421" lon="4.82271">
        <ele>276</ele>
        <time>2011-11-27T09:44:08Z</time>
      </trkpt>
      <trkpt lat="45.76415" lon="4.82268">
        <ele>283</ele>
        <time>2011-11-27T09:44:14Z</time>
      </trkpt>
      <trkpt lat="45.76412" lon="4.82267">
        <ele>284</ele>
        <time>2011-11-27T09:44:16Z</time>
      </trkpt>
      <trkpt lat="45.76408" lon="4.8227">
        <ele>283</ele>
        <time>2011-11-27T09:44:20Z</time>
      </trkpt>
      <trkpt lat="45.76406" lon="4.82271">
        <ele>283</ele>
        <time>2011-11-27T09:44:21Z</time>
      </trkpt>
      <trkpt lat="45.764" lon="4.82276">
        <ele>283</ele>
        <time>2011-11-27T09:44:24Z</time>
      </trkpt>
      <trkpt lat="45.76396" lon="4.82279">
        <ele>283</ele>
        <time>2011-11-27T09:44:26Z</time>
      </trkpt>
      <trkpt lat="45.76392" lon="4.82278">
        <ele>284</ele>
        <time>2011-11-27T09:44:30Z</time>
      </trkpt>
      <trkpt lat="45.7639" lon="4.82277">
        <ele>284</ele>
        <time>2011-11-27T09:44:32Z</time>
      </trkpt>
      <trkpt lat="45.76386" lon="4.82272">
        <ele>284</ele>
        <time>2011-11-27T09:44:35Z</time>
      </trkpt>
      <trkpt lat="45.76382" lon="4.82258">
        <ele>285</ele>
        <time>2011-11-27T09:44:39Z</time>
      </trkpt>
      <trkpt lat="45.76382" lon="4.82255">
        <ele>285</ele>
        <time>2011-11-27T09:44:40Z</time>
      </trkpt>
      <trkpt lat="45.76382" lon="4.82252">
        <ele>285</ele>
        <time>2011-11-27T09:44:41Z</time>
      </trkpt>
      <trkpt lat="45.76379" lon="4.8224">
        <ele>288</ele>
        <time>2011-11-27T09:44:45Z</time>
      </trkpt>
      <trkpt lat="45.76377" lon="4.82233">
        <ele>288</ele>
        <time>2011-11-27T09:44:47Z</time>
      </trkpt>
      <trkpt lat="45.76374" lon="4.82231">
        <ele>288</ele>
        <time>2011-11-27T09:44:48Z</time>
      </trkpt>
      <trkpt lat="45.76371" lon="4.82231">
        <ele>288</ele>
        <time>2011-11-27T09:44:49Z</time>
      </trkpt>
      <trkpt lat="45.76358" lon="4.82232">
        <ele>290</ele>
        <time>2011-11-27T09:44:54Z</time>
      </trkpt>
      <trkpt lat="45.76355" lon="4.82231">
        <ele>290</ele>
        <time>2011-11-27T09:44:55Z</time>
      </trkpt>
      <trkpt lat="45.76352" lon="4.8223">
        <ele>291</ele>
        <time>2011-11-27T09:44:56Z</time>
      </trkpt>
      <trkpt lat="45.76345" lon="4.82228">
        <ele>291</ele>
        <time>2011-11-27T09:44:59Z</time>
      </trkpt>
      <trkpt lat="45.76337" lon="4.82226">
        <ele>292</ele>
        <time>2011-11-27T09:45:02Z</time>
      </trkpt>
      <trkpt lat="45.76335" lon="4.82226">
        <ele>292</ele>
        <time>2011-11-27T09:45:03Z</time>
      </trkpt>
      <trkpt lat="45.7632" lon="4.82222">
        <ele>296</ele>
        <time>2011-11-27T09:45:09Z</time>
      </trkpt>
      <trkpt lat="45.76318" lon="4.82222">
        <ele>296</ele>
        <time>2011-11-27T09:45:10Z</time>
      </trkpt>
      <trkpt lat="45.76308" lon="4.8222">
        <ele>296</ele>
        <time>2011-11-27T09:45:14Z</time>
      </trkpt>
      <trkpt lat="45.76299" lon="4.82225">
        <ele>296</ele>
        <time>2011-11-27T09:45:18Z</time>
      </trkpt>
      <trkpt lat="45.76297" lon="4.82226">
        <ele>296</ele>
        <time>2011-11-27T09:45:19Z</time>
      </trkpt>
      <trkpt lat="45.7629" lon="4.82227">
        <ele>297</ele>
        <time>2011-11-27T09:45:23Z</time>
      </trkpt>
      <trkpt lat="45.7629" lon="4.82229">
        <ele>297</ele>
        <time>2011-11-27T09:45:24Z</time>
      </trkpt>
      <trkpt lat="45.76288" lon="4.8224">
        <ele>297</ele>
        <time>2011-11-27T09:45:27Z</time>
      </trkpt>
      <trkpt lat="45.76287" lon="4.82243">
        <ele>297</ele>
        <time>2011-11-27T09:45:28Z</time>
      </trkpt>
      <trkpt lat="45.76285" lon="4.82245">
        <ele>297</ele>
        <time>2011-11-27T09:45:29Z</time>
      </trkpt>
      <trkpt lat="45.76285" lon="4.82254">
        <ele>291</ele>
        <time>2011-11-27T09:45:32Z</time>
      </trkpt>
      <trkpt lat="45.76284" lon="4.82266">
        <ele>290</ele>
        <time>2011-11-27T09:45:36Z</time>
      </trkpt>
      <trkpt lat="45.76283" lon="4.82282">
        <ele>289</ele>
        <time>2011-11-27T09:45:41Z</time>
      </trkpt>
      <trkpt lat="45.7628" lon="4.82292">
        <ele>287</ele>
        <time>2011-11-27T09:45:44Z</time>
      </trkpt>
      <trkpt lat="45.76279" lon="4.823">
        <ele>286</ele>
        <time>2011-11-27T09:45:47Z</time>
      </trkpt>
      <trkpt lat="45.76279" lon="4.82305">
        <ele>286</ele>
        <time>2011-11-27T09:45:53Z</time>
      </trkpt>
      <trkpt lat="45.7628" lon="4.82308">
        <ele>285</ele>
        <time>2011-11-27T09:46:04Z</time>
      </trkpt>
      <trkpt lat="45.76278" lon="4.82307">
        <ele>285</ele>
        <time>2011-11-27T09:46:26Z</time>
      </trkpt>
      <trkpt lat="45.76273" lon="4.82303">
        <ele>286</ele>
        <time>2011-11-27T09:46:29Z</time>
      </trkpt>
      <trkpt lat="45.76272" lon="4.82302">
        <ele>286</ele>
        <time>2011-11-27T09:46:30Z</time>
      </trkpt>
      <trkpt lat="45.76261" lon="4.82295">
        <ele>286</ele>
        <time>2011-11-27T09:46:34Z</time>
      </trkpt>
      <trkpt lat="45.76254" lon="4.82293">
        <ele>287</ele>
        <time>2011-11-27T09:46:36Z</time>
      </trkpt>
      <trkpt lat="45.76252" lon="4.82292">
        <ele>287</ele>
        <time>2011-11-27T09:46:37Z</time>
      </trkpt>
      <trkpt lat="45.7625" lon="4.82293">
        <ele>287</ele>
        <time>2011-11-27T09:46:38Z</time>
      </trkpt>
      <trkpt lat="45.76245" lon="4.82292">
        <ele>287</ele>
        <time>2011-11-27T09:46:43Z</time>
      </trkpt>
      <trkpt lat="45.76242" lon="4.82297">
        <ele>286</ele>
        <time>2011-11-27T09:46:47Z</time>
      </trkpt>
      <trkpt lat="45.76243" lon="4.82301">
        <ele>285</ele>
        <time>2011-11-27T09:46:49Z</time>
      </trkpt>
      <trkpt lat="45.76245" lon="4.82307">
        <ele>283</ele>
        <time>2011-11-27T09:46:51Z</time>
      </trkpt>
      <trkpt lat="45.76248" lon="4.82313">
        <ele>282</ele>
        <time>2011-11-27T09:46:53Z</time>
      </trkpt>
      <trkpt lat="45.76251" lon="4.82315">
        <ele>282</ele>
        <time>2011-11-27T09:46:54Z</time>
      </trkpt>
      <trkpt lat="45.76256" lon="4.82319">
        <ele>281</ele>
        <time>2011-11-27T09:46:56Z</time>
      </trkpt>
      <trkpt lat="45.76261" lon="4.8232">
        <ele>281</ele>
        <time>2011-11-27T09:46:57Z</time>
      </trkpt>
      <trkpt lat="45.76273" lon="4.82324">
        <ele>283</ele>
        <time>2011-11-27T09:47:00Z</time>
      </trkpt>
      <trkpt lat="45.76276" lon="4.82325">
        <ele>283</ele>
        <time>2011-11-27T09:47:01Z</time>
      </trkpt>
      <trkpt lat="45.7628" lon="4.82329">
        <ele>283</ele>
        <time>2011-11-27T09:47:03Z</time>
      </trkpt>
      <trkpt lat="45.76285" lon="4.82332">
        <ele>283</ele>
        <time>2011-11-27T09:47:05Z</time>
      </trkpt>
      <trkpt lat="45.76293" lon="4.8234">
        <ele>270</ele>
        <time>2011-11-27T09:47:09Z</time>
      </trkpt>
      <trkpt lat="45.76293" lon="4.82342">
        <ele>270</ele>
        <time>2011-11-27T09:47:10Z</time>
      </trkpt>
      <trkpt lat="45.76291" lon="4.82344">
        <ele>269</ele>
        <time>2011-11-27T09:47:12Z</time>
      </trkpt>
      <trkpt lat="45.76288" lon="4.82344">
        <ele>269</ele>
        <time>2011-11-27T09:47:13Z</time>
      </trkpt>
      <trkpt lat="45.76279" lon="4.82341">
        <ele>269</ele>
        <time>2011-11-27T09:47:16Z</time>
      </trkpt>
      <trkpt lat="45.76273" lon="4.82339">
        <ele>270</ele>
        <time>2011-11-27T09:47:18Z</time>
      </trkpt>
      <trkpt lat="45.7626" lon="4.82338">
        <ele>272</ele>
        <time>2011-11-27T09:47:23Z</time>
      </trkpt>
      <trkpt lat="45.76242" lon="4.82332">
        <ele>278</ele>
        <time>2011-11-27T09:47:29Z</time>
      </trkpt>
      <trkpt lat="45.76236" lon="4.82333">
        <ele>280</ele>
        <time>2011-11-27T09:47:32Z</time>
      </trkpt>
      <trkpt lat="45.76235" lon="4.82336">
        <ele>269</ele>
        <time>2011-11-27T09:47:33Z</time>
      </trkpt>
      <trkpt lat="45.76239" lon="4.82342">
        <ele>269</ele>
        <time>2011-11-27T09:47:36Z</time>
      </trkpt>
      <trkpt lat="45.76242" lon="4.82344">
        <ele>269</ele>
        <time>2011-11-27T09:47:37Z</time>
      </trkpt>
      <trkpt lat="45.76246" lon="4.82348">
        <ele>268</ele>
        <time>2011-11-27T09:47:39Z</time>
      </trkpt>
      <trkpt lat="45.76252" lon="4.82354">
        <ele>269</ele>
        <time>2011-11-27T09:47:41Z</time>
      </trkpt>
      <trkpt lat="45.76258" lon="4.82357">
        <ele>268</ele>
        <time>2011-11-27T09:47:43Z</time>
      </trkpt>
      <trkpt lat="45.76267" lon="4.82365">
        <ele>266</ele>
        <time>2011-11-27T09:47:47Z</time>
      </trkpt>
      <trkpt lat="45.76277" lon="4.8237">
        <ele>266</ele>
        <time>2011-11-27T09:47:51Z</time>
      </trkpt>
      <trkpt lat="45.76279" lon="4.82372">
        <ele>265</ele>
        <time>2011-11-27T09:47:52Z</time>
      </trkpt>
      <trkpt lat="45.76276" lon="4.82379">
        <ele>264</ele>
        <time>2011-11-27T09:47:55Z</time>
      </trkpt>
      <trkpt lat="45.76267" lon="4.82377">
        <ele>264</ele>
        <time>2011-11-27T09:47:59Z</time>
      </trkpt>
      <trkpt lat="45.76265" lon="4.82376">
        <ele>264</ele>
        <time>2011-11-27T09:48:00Z</time>
      </trkpt>
      <trkpt lat="45.76248" lon="4.82373">
        <ele>261</ele>
        <time>2011-11-27T09:48:06Z</time>
      </trkpt>
      <trkpt lat="45.76232" lon="4.82371">
        <ele>261</ele>
        <time>2011-11-27T09:48:12Z</time>
      </trkpt>
      <trkpt lat="45.7623" lon="4.82372">
        <ele>261</ele>
        <time>2011-11-27T09:48:13Z</time>
      </trkpt>
      <trkpt lat="45.76229" lon="4.82379">
        <ele>260</ele>
        <time>2011-11-27T09:48:15Z</time>
      </trkpt>
      <trkpt lat="45.76231" lon="4.82391">
        <ele>257</ele>
        <time>2011-11-27T09:48:19Z</time>
      </trkpt>
      <trkpt lat="45.76232" lon="4.82394">
        <ele>256</ele>
        <time>2011-11-27T09:48:20Z</time>
      </trkpt>
      <trkpt lat="45.76234" lon="4.82396">
        <ele>256</ele>
        <time>2011-11-27T09:48:21Z</time>
      </trkpt>
      <trkpt lat="45.76239" lon="4.82401">
        <ele>254</ele>
        <time>2011-11-27T09:48:23Z</time>
      </trkpt>
      <trkpt lat="45.76249" lon="4.82411">
        <ele>251</ele>
        <time>2011-11-27T09:48:29Z</time>
      </trkpt>
      <trkpt lat="45.76252" lon="4.82413">
        <ele>251</ele>
        <time>2011-11-27T09:48:30Z</time>
      </trkpt>
      <trkpt lat="45.76257" lon="4.82418">
        <ele>246</ele>
        <time>2011-11-27T09:48:33Z</time>
      </trkpt>
      <trkpt lat="45.76266" lon="4.82428">
        <ele>244</ele>
        <time>2011-11-27T09:48:38Z</time>
      </trkpt>
      <trkpt lat="45.7626" lon="4.82434">
        <ele>243</ele>
        <time>2011-11-27T09:48:41Z</time>
      </trkpt>
      <trkpt lat="45.76249" lon="4.82429">
        <ele>241</ele>
        <time>2011-11-27T09:48:45Z</time>
      </trkpt>
      <trkpt lat="45.76233" lon="4.82419">
        <ele>240</ele>
        <time>2011-11-27T09:48:51Z</time>
      </trkpt>
      <trkpt lat="45.76232" lon="4.82418">
        <ele>239</ele>
        <time>2011-11-27T09:48:52Z</time>
      </trkpt>
      <trkpt lat="45.76223" lon="4.82418">
        <ele>237</ele>
        <time>2011-11-27T09:48:56Z</time>
      </trkpt>
      <trkpt lat="45.76221" lon="4.8242">
        <ele>237</ele>
        <time>2011-11-27T09:48:57Z</time>
      </trkpt>
      <trkpt lat="45.76221" lon="4.82426">
        <ele>236</ele>
        <time>2011-11-27T09:48:59Z</time>
      </trkpt>
      <trkpt lat="45.76222" lon="4.8243">
        <ele>236</ele>
        <time>2011-11-27T09:49:00Z</time>
      </trkpt>
      <trkpt lat="45.76226" lon="4.8244">
        <ele>235</ele>
        <time>2011-11-27T09:49:03Z</time>
      </trkpt>
      <trkpt lat="45.76227" lon="4.82442">
        <ele>234</ele>
        <time>2011-11-27T09:49:04Z</time>
      </trkpt>
      <trkpt lat="45.76235" lon="4.82451">
        <ele>233</ele>
        <time>2011-11-27T09:49:08Z</time>
      </trkpt>
      <trkpt lat="45.76238" lon="4.82457">
        <ele>232</ele>
        <time>2011-11-27T09:49:10Z</time>
      </trkpt>
      <trkpt lat="45.76243" lon="4.82469">
        <ele>229</ele>
        <time>2011-11-27T09:49:14Z</time>
      </trkpt>
      <trkpt lat="45.76246" lon="4.82473">
        <ele>229</ele>
        <time>2011-11-27T09:49:16Z</time>
      </trkpt>
      <trkpt lat="45.76248" lon="4.82476">
        <ele>228</ele>
        <time>2011-11-27T09:49:17Z</time>
      </trkpt>
      <trkpt lat="45.76245" lon="4.8248">
        <ele>227</ele>
        <time>2011-11-27T09:49:19Z</time>
      </trkpt>
      <trkpt lat="45.76249" lon="4.82498">
        <ele>223</ele>
        <time>2011-11-27T09:49:24Z</time>
      </trkpt>
      <trkpt lat="45.76252" lon="4.82514">
        <ele>220</ele>
        <time>2011-11-27T09:49:29Z</time>
      </trkpt>
      <trkpt lat="45.76257" lon="4.82523">
        <ele>218</ele>
        <time>2011-11-27T09:49:33Z</time>
      </trkpt>
      <trkpt lat="45.76258" lon="4.82527">
        <ele>218</ele>
        <time>2011-11-27T09:49:34Z</time>
      </trkpt>
      <trkpt lat="45.76262" lon="4.82532">
        <ele>217</ele>
        <time>2011-11-27T09:49:37Z</time>
      </trkpt>
      <trkpt lat="45.76264" lon="4.82533">
        <ele>217</ele>
        <time>2011-11-27T09:49:38Z</time>
      </trkpt>
      <trkpt lat="45.76268" lon="4.82535">
        <ele>217</ele>
        <time>2011-11-27T09:49:41Z</time>
      </trkpt>
      <trkpt lat="45.76269" lon="4.82534">
        <ele>217</ele>
        <time>2011-11-27T09:49:42Z</time>
      </trkpt>
      <trkpt lat="45.76269" lon="4.82533">
        <ele>217</ele>
        <time>2011-11-27T09:49:43Z</time>
      </trkpt>
      <trkpt lat="45.76263" lon="4.82534">
        <ele>217</ele>
        <time>2011-11-27T09:49:47Z</time>
      </trkpt>
      <trkpt lat="45.76262" lon="4.82534">
        <ele>217</ele>
        <time>2011-11-27T09:49:48Z</time>
      </trkpt>
      <trkpt lat="45.76257" lon="4.82542">
        <ele>215</ele>
        <time>2011-11-27T09:49:53Z</time>
      </trkpt>
      <trkpt lat="45.76248" lon="4.82554">
        <ele>206</ele>
        <time>2011-11-27T09:50:00Z</time>
      </trkpt>
      <trkpt lat="45.76244" lon="4.82565">
        <ele>204</ele>
        <time>2011-11-27T09:50:06Z</time>
      </trkpt>
      <trkpt lat="45.76239" lon="4.82577">
        <ele>203</ele>
        <time>2011-11-27T09:50:12Z</time>
      </trkpt>
      <trkpt lat="45.76232" lon="4.82588">
        <ele>195</ele>
        <time>2011-11-27T09:50:18Z</time>
      </trkpt>
      <trkpt lat="45.76228" lon="4.82598">
        <ele>193</ele>
        <time>2011-11-27T09:50:23Z</time>
      </trkpt>
      <trkpt lat="45.76226" lon="4.82597">
        <ele>193</ele>
        <time>2011-11-27T09:50:24Z</time>
      </trkpt>
      <trkpt lat="45.76222" lon="4.82601">
        <ele>192</ele>
        <time>2011-11-27T09:50:27Z</time>
      </trkpt>
      <trkpt lat="45.7622" lon="4.82607">
        <ele>191</ele>
        <time>2011-11-27T09:50:29Z</time>
      </trkpt>
      <trkpt lat="45.76215" lon="4.8261">
        <ele>191</ele>
        <time>2011-11-27T09:50:34Z</time>
      </trkpt>
      <trkpt lat="45.7621" lon="4.82615">
        <ele>190</ele>
        <time>2011-11-27T09:50:39Z</time>
      </trkpt>
      <trkpt lat="45.76203" lon="4.82618">
        <ele>189</ele>
        <time>2011-11-27T09:50:42Z</time>
      </trkpt>
      <trkpt lat="45.76198" lon="4.82621">
        <ele>189</ele>
        <time>2011-11-27T09:50:44Z</time>
      </trkpt>
      <trkpt lat="45.76197" lon="4.82622">
        <ele>189</ele>
        <time>2011-11-27T09:50:45Z</time>
      </trkpt>
      <trkpt lat="45.76196" lon="4.82623">
        <ele>189</ele>
        <time>2011-11-27T09:50:46Z</time>
      </trkpt>
      <trkpt lat="45.76195" lon="4.82622">
        <ele>189</ele>
        <time>2011-11-27T09:50:49Z</time>
      </trkpt>
      <trkpt lat="45.76195" lon="4.8262">
        <ele>189</ele>
        <time>2011-11-27T09:50:50Z</time>
      </trkpt>
      <trkpt lat="45.76194" lon="4.82618">
        <ele>189</ele>
        <time>2011-11-27T09:50:52Z</time>
      </trkpt>
      <trkpt lat="45.76188" lon="4.82613">
        <ele>189</ele>
        <time>2011-11-27T09:50:55Z</time>
      </trkpt>
      <trkpt lat="45.76181" lon="4.82609">
        <ele>188</ele>
        <time>2011-11-27T09:50:58Z</time>
      </trkpt>
      <trkpt lat="45.76179" lon="4.82609">
        <ele>188</ele>
        <time>2011-11-27T09:50:59Z</time>
      </trkpt>
      <trkpt lat="45.76176" lon="4.82608">
        <ele>188</ele>
        <time>2011-11-27T09:51:00Z</time>
      </trkpt>
      <trkpt lat="45.76171" lon="4.82608">
        <ele>188</ele>
        <time>2011-11-27T09:51:03Z</time>
      </trkpt>
      <trkpt lat="45.76171" lon="4.82611">
        <ele>188</ele>
        <time>2011-11-27T09:51:05Z</time>
      </trkpt>
      <trkpt lat="45.76164" lon="4.82611">
        <ele>183</ele>
        <time>2011-11-27T09:51:08Z</time>
      </trkpt>
      <trkpt lat="45.76159" lon="4.82609">
        <ele>183</ele>
        <time>2011-11-27T09:51:10Z</time>
      </trkpt>
      <trkpt lat="45.76146" lon="4.82605">
        <ele>183</ele>
        <time>2011-11-27T09:51:14Z</time>
      </trkpt>
      <trkpt lat="45.76143" lon="4.82604">
        <ele>183</ele>
        <time>2011-11-27T09:51:15Z</time>
      </trkpt>
      <trkpt lat="45.76137" lon="4.82604">
        <ele>183</ele>
        <time>2011-11-27T09:51:18Z</time>
      </trkpt>
      <trkpt lat="45.76133" lon="4.82603">
        <ele>183</ele>
        <time>2011-11-27T09:51:20Z</time>
      </trkpt>
      <trkpt lat="45.76126" lon="4.82604">
        <ele>182</ele>
        <time>2011-11-27T09:51:23Z</time>
      </trkpt>
      <trkpt lat="45.76115" lon="4.82598">
        <ele>182</ele>
        <time>2011-11-27T09:51:26Z</time>
      </trkpt>
      <trkpt lat="45.76107" lon="4.82592">
        <ele>181</ele>
        <time>2011-11-27T09:51:28Z</time>
      </trkpt>
      <trkpt lat="45.76096" lon="4.82583">
        <ele>185</ele>
        <time>2011-11-27T09:51:32Z</time>
      </trkpt>
      <trkpt lat="45.76091" lon="4.82581">
        <ele>183</ele>
        <time>2011-11-27T09:51:34Z</time>
      </trkpt>
      <trkpt lat="45.76089" lon="4.82581">
        <ele>182</ele>
        <time>2011-11-27T09:51:35Z</time>
      </trkpt>
      <trkpt lat="45.76085" lon="4.82582">
        <ele>180</ele>
        <time>2011-11-27T09:51:37Z</time>
      </trkpt>
      <trkpt lat="45.76073" lon="4.82583">
        <ele>179</ele>
        <time>2011-11-27T09:51:43Z</time>
      </trkpt>
      <trkpt lat="45.7607" lon="4.82583">
        <ele>184</ele>
        <time>2011-11-27T09:51:44Z</time>
      </trkpt>
      <trkpt lat="45.76054" lon="4.82577">
        <ele>187</ele>
        <time>2011-11-27T09:51:49Z</time>
      </trkpt>
      <trkpt lat="45.76049" lon="4.82578">
        <ele>187</ele>
        <time>2011-11-27T09:51:51Z</time>
      </trkpt>
      <trkpt lat="45.76042" lon="4.82575">
        <ele>187</ele>
        <time>2011-11-27T09:51:53Z</time>
      </trkpt>
      <trkpt lat="45.76037" lon="4.82571">
        <ele>188</ele>
        <time>2011-11-27T09:51:55Z</time>
      </trkpt>
      <trkpt lat="45.76031" lon="4.82567">
        <ele>188</ele>
        <time>2011-11-27T09:51:57Z</time>
      </trkpt>
      <trkpt lat="45.76025" lon="4.82562">
        <ele>188</ele>
        <time>2011-11-27T09:52:00Z</time>
      </trkpt>
      <trkpt lat="45.76012" lon="4.82561">
        <ele>188</ele>
        <time>2011-11-27T09:52:06Z</time>
      </trkpt>
      <trkpt lat="45.75997" lon="4.8256">
        <ele>188</ele>
        <time>2011-11-27T09:52:11Z</time>
      </trkpt>
      <trkpt lat="45.75995" lon="4.8256">
        <ele>188</ele>
        <time>2011-11-27T09:52:12Z</time>
      </trkpt>
      <trkpt lat="45.75992" lon="4.82559">
        <ele>188</ele>
        <time>2011-11-27T09:52:13Z</time>
      </trkpt>
      <trkpt lat="45.75984" lon="4.82558">
        <ele>188</ele>
        <time>2011-11-27T09:52:16Z</time>
      </trkpt>
      <trkpt lat="45.75973" lon="4.8256">
        <ele>188</ele>
        <time>2011-11-27T09:52:20Z</time>
      </trkpt>
      <trkpt lat="45.7597" lon="4.82561">
        <ele>188</ele>
        <time>2011-11-27T09:52:21Z</time>
      </trkpt>
      <trkpt lat="45.75964" lon="4.82561">
        <ele>188</ele>
        <time>2011-11-27T09:52:23Z</time>
      </trkpt>
      <trkpt lat="45.75959" lon="4.82558">
        <ele>188</ele>
        <time>2011-11-27T09:52:25Z</time>
      </trkpt>
      <trkpt lat="45.75952" lon="4.8256">
        <ele>188</ele>
        <time>2011-11-27T09:52:28Z</time>
      </trkpt>
      <trkpt lat="45.7595" lon="4.82562">
        <ele>188</ele>
        <time>2011-11-27T09:52:29Z</time>
      </trkpt>
      <trkpt lat="45.75942" lon="4.8256">
        <ele>188</ele>
        <time>2011-11-27T09:52:33Z</time>
      </trkpt>
      <trkpt lat="45.75941" lon="4.82559">
        <ele>188</ele>
        <time>2011-11-27T09:52:34Z</time>
      </trkpt>
      <trkpt lat="45.75935" lon="4.82551">
        <ele>189</ele>
        <time>2011-11-27T09:52:39Z</time>
      </trkpt>
      <trkpt lat="45.75932" lon="4.82538">
        <ele>190</ele>
        <time>2011-11-27T09:52:43Z</time>
      </trkpt>
      <trkpt lat="45.75932" lon="4.82532">
        <ele>191</ele>
        <time>2011-11-27T09:52:46Z</time>
      </trkpt>
      <trkpt lat="45.75927" lon="4.82525">
        <ele>192</ele>
        <time>2011-11-27T09:52:50Z</time>
      </trkpt>
      <trkpt lat="45.75924" lon="4.82524">
        <ele>192</ele>
        <time>2011-11-27T09:52:53Z</time>
      </trkpt>
      <trkpt lat="45.75922" lon="4.82522">
        <ele>192</ele>
        <time>2011-11-27T09:52:57Z</time>
      </trkpt>
      <trkpt lat="45.75918" lon="4.82522">
        <ele>192</ele>
        <time>2011-11-27T09:53:02Z</time>
      </trkpt>
      <trkpt lat="45.75915" lon="4.82517">
        <ele>190</ele>
        <time>2011-11-27T09:53:04Z</time>
      </trkpt>
      <trkpt lat="45.75913" lon="4.82515">
        <ele>191</ele>
        <time>2011-11-27T09:53:06Z</time>
      </trkpt>
      <trkpt lat="45.75907" lon="4.82509">
        <ele>191</ele>
        <time>2011-11-27T09:53:10Z</time>
      </trkpt>
      <trkpt lat="45.75906" lon="4.82506">
        <ele>191</ele>
        <time>2011-11-27T09:53:11Z</time>
      </trkpt>
      <trkpt lat="45.75901" lon="4.82497">
        <ele>199</ele>
        <time>2011-11-27T09:53:15Z</time>
      </trkpt>
      <trkpt lat="45.759" lon="4.82497">
        <ele>199</ele>
        <time>2011-11-27T09:53:16Z</time>
      </trkpt>
      <trkpt lat="45.75898" lon="4.82495">
        <ele>199</ele>
        <time>2011-11-27T09:53:18Z</time>
      </trkpt>
      <trkpt lat="45.7589" lon="4.82488">
        <ele>200</ele>
        <time>2011-11-27T09:53:23Z</time>
      </trkpt>
      <trkpt lat="45.75884" lon="4.82482">
        <ele>201</ele>
        <time>2011-11-27T09:53:28Z</time>
      </trkpt>
      <trkpt lat="45.75882" lon="4.82481">
        <ele>201</ele>
        <time>2011-11-27T09:53:29Z</time>
      </trkpt>
      <trkpt lat="45.7587" lon="4.82469">
        <ele>201</ele>
        <time>2011-11-27T09:53:36Z</time>
      </trkpt>
      <trkpt lat="45.75868" lon="4.82467">
        <ele>202</ele>
        <time>2011-11-27T09:53:37Z</time>
      </trkpt>
      <trkpt lat="45.75862" lon="4.82456">
        <ele>203</ele>
        <time>2011-11-27T09:53:42Z</time>
      </trkpt>
      <trkpt lat="45.75855" lon="4.8245">
        <ele>204</ele>
        <time>2011-11-27T09:53:47Z</time>
      </trkpt>
      <trkpt lat="45.75852" lon="4.82447">
        <ele>204</ele>
        <time>2011-11-27T09:53:49Z</time>
      </trkpt>
      <trkpt lat="45.7585" lon="4.82446">
        <ele>204</ele>
        <time>2011-11-27T09:53:52Z</time>
      </trkpt>
      <trkpt lat="45.75848" lon="4.82447">
        <ele>204</ele>
        <time>2011-11-27T09:53:55Z</time>
      </trkpt>
      <trkpt lat="45.75842" lon="4.82444">
        <ele>205</ele>
        <time>2011-11-27T09:54:07Z</time>
      </trkpt>
      <trkpt lat="45.75838" lon="4.82443">
        <ele>205</ele>
        <time>2011-11-27T09:54:09Z</time>
      </trkpt>
      <trkpt lat="45.7583" lon="4.82442">
        <ele>198</ele>
        <time>2011-11-27T09:54:14Z</time>
      </trkpt>
      <trkpt lat="45.7582" lon="4.82441">
        <ele>197</ele>
        <time>2011-11-27T09:54:20Z</time>
      </trkpt>
      <trkpt lat="45.75819" lon="4.82441">
        <ele>197</ele>
        <time>2011-11-27T09:54:21Z</time>
      </trkpt>
      <trkpt lat="45.75812" lon="4.82439">
        <ele>197</ele>
        <time>2011-11-27T09:54:25Z</time>
      </trkpt>
      <trkpt lat="45.75801" lon="4.82437">
        <ele>195</ele>
        <time>2011-11-27T09:54:30Z</time>
      </trkpt>
      <trkpt lat="45.75799" lon="4.82437">
        <ele>195</ele>
        <time>2011-11-27T09:54:31Z</time>
      </trkpt>
      <trkpt lat="45.7579" lon="4.82436">
        <ele>194</ele>
        <time>2011-11-27T09:54:36Z</time>
      </trkpt>
      <trkpt lat="45.75784" lon="4.8244">
        <ele>193</ele>
        <time>2011-11-27T09:54:40Z</time>
      </trkpt>
      <trkpt lat="45.75784" lon="4.82443">
        <ele>193</ele>
        <time>2011-11-27T09:54:41Z</time>
      </trkpt>
      <trkpt lat="45.75784" lon="4.82445">
        <ele>193</ele>
        <time>2011-11-27T09:54:42Z</time>
      </trkpt>
      <trkpt lat="45.75783" lon="4.82443">
        <ele>193</ele>
        <time>2011-11-27T09:54:44Z</time>
      </trkpt>
      <trkpt lat="45.7578" lon="4.82451">
        <ele>192</ele>
        <time>2011-11-27T09:54:47Z</time>
      </trkpt>
      <trkpt lat="45.75778" lon="4.82452">
        <ele>191</ele>
        <time>2011-11-27T09:54:49Z</time>
      </trkpt>
      <trkpt lat="45.75778" lon="4.82451">
        <ele>191</ele>
        <time>2011-11-27T09:54:50Z</time>
      </trkpt>
      <trkpt lat="45.75776" lon="4.8245">
        <ele>191</ele>
        <time>2011-11-27T09:54:51Z</time>
      </trkpt>
      <trkpt lat="45.75772" lon="4.82446">
        <ele>192</ele>
        <time>2011-11-27T09:54:55Z</time>
      </trkpt>
      <trkpt lat="45.75772" lon="4.82446">
        <ele>192</ele>
        <time>2011-11-27T09:54:56Z</time>
      </trkpt>
      <trkpt lat="45.75769" lon="4.82443">
        <ele>192</ele>
        <time>2011-11-27T09:54:58Z</time>
      </trkpt>
      <trkpt lat="45.75768" lon="4.82437">
        <ele>192</ele>
        <time>2011-11-27T09:55:00Z</time>
      </trkpt>
      <trkpt lat="45.75768" lon="4.82432">
        <ele>193</ele>
        <time>2011-11-27T09:55:05Z</time>
      </trkpt>
      <trkpt lat="45.75763" lon="4.82427">
        <ele>193</ele>
        <time>2011-11-27T09:55:09Z</time>
      </trkpt>
      <trkpt lat="45.7576" lon="4.82427">
        <ele>193</ele>
        <time>2011-11-27T09:55:11Z</time>
      </trkpt>
      <trkpt lat="45.75757" lon="4.82426">
        <ele>193</ele>
        <time>2011-11-27T09:55:14Z</time>
      </trkpt>
      <trkpt lat="45.75755" lon="4.82423">
        <ele>193</ele>
        <time>2011-11-27T09:55:15Z</time>
      </trkpt>
      <trkpt lat="45.75748" lon="4.82414">
        <ele>195</ele>
        <time>2011-11-27T09:55:18Z</time>
      </trkpt>
      <trkpt lat="45.75747" lon="4.82412">
        <ele>196</ele>
        <time>2011-11-27T09:55:19Z</time>
      </trkpt>
      <trkpt lat="45.75742" lon="4.82405">
        <ele>197</ele>
        <time>2011-11-27T09:55:23Z</time>
      </trkpt>
      <trkpt lat="45.75738" lon="4.82398">
        <ele>199</ele>
        <time>2011-11-27T09:55:30Z</time>
      </trkpt>
      <trkpt lat="45.75736" lon="4.82394">
        <ele>200</ele>
        <time>2011-11-27T09:55:34Z</time>
      </trkpt>
      <trkpt lat="45.75734" lon="4.82391">
        <ele>200</ele>
        <time>2011-11-27T09:55:36Z</time>
      </trkpt>
      <trkpt lat="45.75733" lon="4.82389">
        <ele>201</ele>
        <time>2011-11-27T09:55:38Z</time>
      </trkpt>
      <trkpt lat="45.75726" lon="4.82386">
        <ele>201</ele>
        <time>2011-11-27T09:55:44Z</time>
      </trkpt>
      <trkpt lat="45.75724" lon="4.82382">
        <ele>202</ele>
        <time>2011-11-27T09:55:47Z</time>
      </trkpt>
      <trkpt lat="45.75722" lon="4.82378">
        <ele>202</ele>
        <time>2011-11-27T09:55:50Z</time>
      </trkpt>
      <trkpt lat="45.75721" lon="4.82376">
        <ele>203</ele>
        <time>2011-11-27T09:55:51Z</time>
      </trkpt>
      <trkpt lat="45.75716" lon="4.82368">
        <ele>204</ele>
        <time>2011-11-27T09:55:59Z</time>
      </trkpt>
      <trkpt lat="45.75716" lon="4.82365">
        <ele>204</ele>
        <time>2011-11-27T09:56:02Z</time>
      </trkpt>
      <trkpt lat="45.75719" lon="4.82364">
        <ele>204</ele>
        <time>2011-11-27T09:56:04Z</time>
      </trkpt>
      <trkpt lat="45.75723" lon="4.82362">
        <ele>205</ele>
        <time>2011-11-27T09:56:07Z</time>
      </trkpt>
      <trkpt lat="45.75724" lon="4.82361">
        <ele>205</ele>
        <time>2011-11-27T09:56:10Z</time>
      </trkpt>
      <trkpt lat="45.75724" lon="4.82357">
        <ele>206</ele>
        <time>2011-11-27T09:56:16Z</time>
      </trkpt>
      <trkpt lat="45.75726" lon="4.82355">
        <ele>206</ele>
        <time>2011-11-27T09:56:21Z</time>
      </trkpt>
      <trkpt lat="45.75728" lon="4.82355">
        <ele>206</ele>
        <time>2011-11-27T09:56:22Z</time>
      </trkpt>
      <trkpt lat="45.7573" lon="4.82355">
        <ele>206</ele>
        <time>2011-11-27T09:56:25Z</time>
      </trkpt>
      <trkpt lat="45.7573" lon="4.82355">
        <ele>206</ele>
        <time>2011-11-27T09:56:26Z</time>
      </trkpt>
      <trkpt lat="45.75737" lon="4.82355">
        <ele>207</ele>
        <time>2011-11-27T09:56:30Z</time>
      </trkpt>
      <trkpt lat="45.75738" lon="4.82355">
        <ele>207</ele>
        <time>2011-11-27T09:56:31Z</time>
      </trkpt>
      <trkpt lat="45.75739" lon="4.82354">
        <ele>207</ele>
        <time>2011-11-27T09:56:32Z</time>
      </trkpt>
      <trkpt lat="45.75743" lon="4.82349">
        <ele>208</ele>
        <time>2011-11-27T09:56:37Z</time>
      </trkpt>
      <trkpt lat="45.75743" lon="4.82347">
        <ele>209</ele>
        <time>2011-11-27T09:56:38Z</time>
      </trkpt>
      <trkpt lat="45.75744" lon="4.82352">
        <ele>208</ele>
        <time>2011-11-27T09:56:44Z</time>
      </trkpt>
      <trkpt lat="45.75748" lon="4.8235">
        <ele>208</ele>
        <time>2011-11-27T09:56:48Z</time>
      </trkpt>
      <trkpt lat="45.75749" lon="4.82348">
        <ele>209</ele>
        <time>2011-11-27T09:56:52Z</time>
      </trkpt>
      <trkpt lat="45.75749" lon="4.82345">
        <ele>210</ele>
        <time>2011-11-27T09:56:54Z</time>
      </trkpt>
      <trkpt lat="45.75751" lon="4.82344">
        <ele>213</ele>
        <time>2011-11-27T09:56:57Z</time>
      </trkpt>
      <trkpt lat="45.75752" lon="4.82343">
        <ele>213</ele>
        <time>2011-11-27T09:56:58Z</time>
      </trkpt>
      <trkpt lat="45.7575" lon="4.82343">
        <ele>213</ele>
        <time>2011-11-27T09:57:02Z</time>
      </trkpt>
      <trkpt lat="45.7575" lon="4.82341">
        <ele>214</ele>
        <time>2011-11-27T09:57:03Z</time>
      </trkpt>
      <trkpt lat="45.75751" lon="4.82334">
        <ele>214</ele>
        <time>2011-11-27T09:57:07Z</time>
      </trkpt>
      <trkpt lat="45.75751" lon="4.82333">
        <ele>214</ele>
        <time>2011-11-27T09:57:08Z</time>
      </trkpt>
      <trkpt lat="45.75751" lon="4.82336">
        <ele>214</ele>
        <time>2011-11-27T09:57:10Z</time>
      </trkpt>
      <trkpt lat="45.75756" lon="4.82342">
        <ele>214</ele>
        <time>2011-11-27T09:57:15Z</time>
      </trkpt>
      <trkpt lat="45.75757" lon="4.82342">
        <ele>214</ele>
        <time>2011-11-27T09:57:16Z</time>
      </trkpt>
      <trkpt lat="45.75758" lon="4.8234">
        <ele>214</ele>
        <time>2011-11-27T09:57:17Z</time>
      </trkpt>
      <trkpt lat="45.7576" lon="4.82337">
        <ele>214</ele>
        <time>2011-11-27T09:57:20Z</time>
      </trkpt>
      <trkpt lat="45.75764" lon="4.82335">
        <ele>214</ele>
        <time>2011-11-27T09:57:23Z</time>
      </trkpt>
      <trkpt lat="45.75765" lon="4.82331">
        <ele>221</ele>
        <time>2011-11-27T09:57:26Z</time>
      </trkpt>
      <trkpt lat="45.75767" lon="4.82325">
        <ele>223</ele>
        <time>2011-11-27T09:57:30Z</time>
      </trkpt>
      <trkpt lat="45.75769" lon="4.82323">
        <ele>223</ele>
        <time>2011-11-27T09:57:32Z</time>
      </trkpt>
      <trkpt lat="45.75773" lon="4.82321">
        <ele>225</ele>
        <time>2011-11-27T09:57:35Z</time>
      </trkpt>
      <trkpt lat="45.75775" lon="4.8232">
        <ele>225</ele>
        <time>2011-11-27T09:57:37Z</time>
      </trkpt>
      <trkpt lat="45.75775" lon="4.82319">
        <ele>225</ele>
        <time>2011-11-27T09:57:38Z</time>
      </trkpt>
      <trkpt lat="45.75776" lon="4.82314">
        <ele>226</ele>
        <time>2011-11-27T09:57:41Z</time>
      </trkpt>
      <trkpt lat="45.75775" lon="4.82304">
        <ele>227</ele>
        <time>2011-11-27T09:57:45Z</time>
      </trkpt>
      <trkpt lat="45.75775" lon="4.82297">
        <ele>228</ele>
        <time>2011-11-27T09:57:48Z</time>
      </trkpt>
      <trkpt lat="45.75775" lon="4.82295">
        <ele>228</ele>
        <time>2011-11-27T09:57:49Z</time>
      </trkpt>
      <trkpt lat="45.75776" lon="4.82291">
        <ele>229</ele>
        <time>2011-11-27T09:57:52Z</time>
      </trkpt>
      <trkpt lat="45.75779" lon="4.82278">
        <ele>230</ele>
        <time>2011-11-27T09:57:59Z</time>
      </trkpt>
      <trkpt lat="45.75779" lon="4.82275">
        <ele>231</ele>
        <time>2011-11-27T09:58:01Z</time>
      </trkpt>
      <trkpt lat="45.7578" lon="4.82271">
        <ele>231</ele>
        <time>2011-11-27T09:58:03Z</time>
      </trkpt>
      <trkpt lat="45.75779" lon="4.82267">
        <ele>231</ele>
        <time>2011-11-27T09:58:05Z</time>
      </trkpt>
      <trkpt lat="45.7578" lon="4.82262">
        <ele>231</ele>
        <time>2011-11-27T09:58:08Z</time>
      </trkpt>
      <trkpt lat="45.75782" lon="4.82259">
        <ele>232</ele>
        <time>2011-11-27T09:58:11Z</time>
      </trkpt>
      <trkpt lat="45.75782" lon="4.8225">
        <ele>238</ele>
        <time>2011-11-27T09:58:16Z</time>
      </trkpt>
      <trkpt lat="45.75781" lon="4.82248">
        <ele>238</ele>
        <time>2011-11-27T09:58:17Z</time>
      </trkpt>
      <trkpt lat="45.75776" lon="4.82234">
        <ele>238</ele>
        <time>2011-11-27T09:58:24Z</time>
      </trkpt>
      <trkpt lat="45.75775" lon="4.82222">
        <ele>238</ele>
        <time>2011-11-27T09:58:30Z</time>
      </trkpt>
      <trkpt lat="45.75775" lon="4.8222">
        <ele>239</ele>
        <time>2011-11-27T09:58:31Z</time>
      </trkpt>
      <trkpt lat="45.75775" lon="4.82218">
        <ele>239</ele>
        <time>2011-11-27T09:58:32Z</time>
      </trkpt>
      <trkpt lat="45.7577" lon="4.8221">
        <ele>239</ele>
        <time>2011-11-27T09:58:36Z</time>
      </trkpt>
      <trkpt lat="45.75765" lon="4.822">
        <ele>239</ele>
        <time>2011-11-27T09:58:40Z</time>
      </trkpt>
      <trkpt lat="45.75759" lon="4.82195">
        <ele>240</ele>
        <time>2011-11-27T09:58:42Z</time>
      </trkpt>
      <trkpt lat="45.75759" lon="4.82189">
        <ele>240</ele>
        <time>2011-11-27T09:58:45Z</time>
      </trkpt>
      <trkpt lat="45.7576" lon="4.82186">
        <ele>240</ele>
        <time>2011-11-27T09:58:47Z</time>
      </trkpt>
      <trkpt lat="45.75762" lon="4.82182">
        <ele>240</ele>
        <time>2011-11-27T09:58:49Z</time>
      </trkpt>
      <trkpt lat="45.75761" lon="4.82181">
        <ele>240</ele>
        <time>2011-11-27T09:58:52Z</time>
      </trkpt>
      <trkpt lat="45.75756" lon="4.82181">
        <ele>240</ele>
        <time>2011-11-27T09:58:56Z</time>
      </trkpt>
      <trkpt lat="45.75755" lon="4.82179">
        <ele>240</ele>
        <time>2011-11-27T09:58:59Z</time>
      </trkpt>
      <trkpt lat="45.75754" lon="4.82171">
        <ele>241</ele>
        <time>2011-11-27T09:59:03Z</time>
      </trkpt>
      <trkpt lat="45.75752" lon="4.82161">
        <ele>242</ele>
        <time>2011-11-27T09:59:09Z</time>
      </trkpt>
      <trkpt lat="45.75749" lon="4.82159">
        <ele>242</ele>
        <time>2011-11-27T09:59:15Z</time>
      </trkpt>
      <trkpt lat="45.75752" lon="4.8216">
        <ele>242</ele>
        <time>2011-11-27T09:59:21Z</time>
      </trkpt>
      <trkpt lat="45.75753" lon="4.8216">
        <ele>242</ele>
        <time>2011-11-27T09:59:22Z</time>
      </trkpt>
      <trkpt lat="45.75758" lon="4.82164">
        <ele>242</ele>
        <time>2011-11-27T09:59:28Z</time>
      </trkpt>
      <trkpt lat="45.75759" lon="4.82165">
        <ele>243</ele>
        <time>2011-11-27T09:59:30Z</time>
      </trkpt>
      <trkpt lat="45.75759" lon="4.82162">
        <ele>243</ele>
        <time>2011-11-27T09:59:33Z</time>
      </trkpt>
      <trkpt lat="45.75759" lon="4.82161">
        <ele>243</ele>
        <time>2011-11-27T09:59:34Z</time>
      </trkpt>
      <trkpt lat="45.75763" lon="4.82154">
        <ele>244</ele>
        <time>2011-11-27T09:59:39Z</time>
      </trkpt>
      <trkpt lat="45.75763" lon="4.82152">
        <ele>244</ele>
        <time>2011-11-27T09:59:40Z</time>
      </trkpt>
      <trkpt lat="45.75764" lon="4.8215">
        <ele>244</ele>
        <time>2011-11-27T09:59:42Z</time>
      </trkpt>
      <trkpt lat="45.75765" lon="4.82146">
        <ele>244</ele>
        <time>2011-11-27T09:59:45Z</time>
      </trkpt>
      <trkpt lat="45.75769" lon="4.8214">
        <ele>245</ele>
        <time>2011-11-27T09:59:51Z</time>
      </trkpt>
      <trkpt lat="45.75769" lon="4.82137">
        <ele>245</ele>
        <time>2011-11-27T09:59:53Z</time>
      </trkpt>
      <trkpt lat="45.75771" lon="4.82136">
        <ele>245</ele>
        <time>2011-11-27T09:59:55Z</time>
      </trkpt>
      <trkpt lat="45.75774" lon="4.82134">
        <ele>245</ele>
        <time>2011-11-27T09:59:57Z</time>
      </trkpt>
      <trkpt lat="45.75776" lon="4.82133">
        <ele>245</ele>
        <time>2011-11-27T09:59:59Z</time>
      </trkpt>
      <trkpt lat="45.75778" lon="4.82132">
        <ele>245</ele>
        <time>2011-11-27T10:00:00Z</time>
      </trkpt>
      <trkpt lat="45.75784" lon="4.82129">
        <ele>246</ele>
        <time>2011-11-27T10:00:05Z</time>
      </trkpt>
      <trkpt lat="45.75792" lon="4.82124">
        <ele>246</ele>
        <time>2011-11-27T10:00:12Z</time>
      </trkpt>
      <trkpt lat="45.75794" lon="4.82123">
        <ele>246</ele>
        <time>2011-11-27T10:00:14Z</time>
      </trkpt>
      <trkpt lat="45.75799" lon="4.82119">
        <ele>246</ele>
        <time>2011-11-27T10:00:19Z</time>
      </trkpt>
      <trkpt lat="45.7581" lon="4.8212">
        <ele>246</ele>
        <time>2011-11-27T10:00:26Z</time>
      </trkpt>
      <trkpt lat="45.75812" lon="4.8212">
        <ele>246</ele>
        <time>2011-11-27T10:00:27Z</time>
      </trkpt>
      <trkpt lat="45.75825" lon="4.82123">
        <ele>246</ele>
        <time>2011-11-27T10:00:33Z</time>
      </trkpt>
      <trkpt lat="45.75831" lon="4.82123">
        <ele>246</ele>
        <time>2011-11-27T10:00:36Z</time>
      </trkpt>
      <trkpt lat="45.75837" lon="4.82124">
        <ele>249</ele>
        <time>2011-11-27T10:00:39Z</time>
      </trkpt>
      <trkpt lat="45.75849" lon="4.82128">
        <ele>250</ele>
        <time>2011-11-27T10:00:45Z</time>
      </trkpt>
      <trkpt lat="45.75862" lon="4.8213">
        <ele>250</ele>
        <time>2011-11-27T10:00:52Z</time>
      </trkpt>
      <trkpt lat="45.75867" lon="4.82126">
        <ele>250</ele>
        <time>2011-11-27T10:00:55Z</time>
      </trkpt>
      <trkpt lat="45.75871" lon="4.82124">
        <ele>251</ele>
        <time>2011-11-27T10:00:57Z</time>
      </trkpt>
      <trkpt lat="45.75877" lon="4.82123">
        <ele>251</ele>
        <time>2011-11-27T10:01:00Z</time>
      </trkpt>
      <trkpt lat="45.75882" lon="4.82123">
        <ele>251</ele>
        <time>2011-11-27T10:01:03Z</time>
      </trkpt>
      <trkpt lat="45.75886" lon="4.82123">
        <ele>251</ele>
        <time>2011-11-27T10:01:05Z</time>
      </trkpt>
      <trkpt lat="45.75889" lon="4.82122">
        <ele>251</ele>
        <time>2011-11-27T10:01:07Z</time>
      </trkpt>
      <trkpt lat="45.7589" lon="4.82121">
        <ele>252</ele>
        <time>2011-11-27T10:01:08Z</time>
      </trkpt>
      <trkpt lat="45.75895" lon="4.8212">
        <ele>252</ele>
        <time>2011-11-27T10:01:13Z</time>
      </trkpt>
      <trkpt lat="45.75894" lon="4.82119">
        <ele>252</ele>
        <time>2011-11-27T10:01:18Z</time>
      </trkpt>
      <trkpt lat="45.75893" lon="4.82111">
        <ele>252</ele>
        <time>2011-11-27T10:01:22Z</time>
      </trkpt>
      <trkpt lat="45.75894" lon="4.82108">
        <ele>252</ele>
        <time>2011-11-27T10:01:23Z</time>
      </trkpt>
      <trkpt lat="45.75898" lon="4.82095">
        <ele>253</ele>
        <time>2011-11-27T10:01:29Z</time>
      </trkpt>
      <trkpt lat="45.759" lon="4.82084">
        <ele>254</ele>
        <time>2011-11-27T10:01:34Z</time>
      </trkpt>
      <trkpt lat="45.75901" lon="4.82068">
        <ele>257</ele>
        <time>2011-11-27T10:01:40Z</time>
      </trkpt>
      <trkpt lat="45.75902" lon="4.82066">
        <ele>257</ele>
        <time>2011-11-27T10:01:41Z</time>
      </trkpt>
      <trkpt lat="45.75904" lon="4.82059">
        <ele>257</ele>
        <time>2011-11-27T10:01:45Z</time>
      </trkpt>
      <trkpt lat="45.75907" lon="4.82051">
        <ele>257</ele>
        <time>2011-11-27T10:01:50Z</time>
      </trkpt>
      <trkpt lat="45.7591" lon="4.82048">
        <ele>258</ele>
        <time>2011-11-27T10:01:52Z</time>
      </trkpt>
      <trkpt lat="45.75913" lon="4.82045">
        <ele>258</ele>
        <time>2011-11-27T10:01:55Z</time>
      </trkpt>
      <trkpt lat="45.75913" lon="4.82037">
        <ele>258</ele>
        <time>2011-11-27T10:01:58Z</time>
      </trkpt>
      <trkpt lat="45.75913" lon="4.82035">
        <ele>258</ele>
        <time>2011-11-27T10:01:59Z</time>
      </trkpt>
      <trkpt lat="45.75913" lon="4.82029">
        <ele>259</ele>
        <time>2011-11-27T10:02:01Z</time>
      </trkpt>
      <trkpt lat="45.75916" lon="4.82022">
        <ele>259</ele>
        <time>2011-11-27T10:02:05Z</time>
      </trkpt>
      <trkpt lat="45.75919" lon="4.82011">
        <ele>264</ele>
        <time>2011-11-27T10:02:10Z</time>
      </trkpt>
      <trkpt lat="45.7592" lon="4.82001">
        <ele>263</ele>
        <time>2011-11-27T10:02:14Z</time>
      </trkpt>
      <trkpt lat="45.75922" lon="4.81995">
        <ele>266</ele>
        <time>2011-11-27T10:02:17Z</time>
      </trkpt>
      <trkpt lat="45.75923" lon="4.81987">
        <ele>268</ele>
        <time>2011-11-27T10:02:21Z</time>
      </trkpt>
      <trkpt lat="45.75923" lon="4.81985">
        <ele>268</ele>
        <time>2011-11-27T10:02:22Z</time>
      </trkpt>
      <trkpt lat="45.75924" lon="4.81977">
        <ele>269</ele>
        <time>2011-11-27T10:02:26Z</time>
      </trkpt>
      <trkpt lat="45.75924" lon="4.81974">
        <ele>270</ele>
        <time>2011-11-27T10:02:29Z</time>
      </trkpt>
      <trkpt lat="45.75924" lon="4.81968">
        <ele>271</ele>
        <time>2011-11-27T10:02:33Z</time>
      </trkpt>
      <trkpt lat="45.75925" lon="4.81966">
        <ele>271</ele>
        <time>2011-11-27T10:02:36Z</time>
      </trkpt>
      <trkpt lat="45.75928" lon="4.8196">
        <ele>272</ele>
        <time>2011-11-27T10:02:43Z</time>
      </trkpt>
      <trkpt lat="45.75929" lon="4.81959">
        <ele>272</ele>
        <time>2011-11-27T10:02:44Z</time>
      </trkpt>
      <trkpt lat="45.75933" lon="4.81956">
        <ele>272</ele>
        <time>2011-11-27T10:02:50Z</time>
      </trkpt>
      <trkpt lat="45.75934" lon="4.81955">
        <ele>272</ele>
        <time>2011-11-27T10:02:51Z</time>
      </trkpt>
      <trkpt lat="45.75934" lon="4.81954">
        <ele>273</ele>
        <time>2011-11-27T10:02:52Z</time>
      </trkpt>
      <trkpt lat="45.75935" lon="4.81949">
        <ele>273</ele>
        <time>2011-11-27T10:02:57Z</time>
      </trkpt>
      <trkpt lat="45.75936" lon="4.81943">
        <ele>273</ele>
        <time>2011-11-27T10:03:02Z</time>
      </trkpt>
      <trkpt lat="45.75936" lon="4.8194">
        <ele>273</ele>
        <time>2011-11-27T10:03:04Z</time>
      </trkpt>
      <trkpt lat="45.75936" lon="4.8194">
        <ele>274</ele>
        <time>2011-11-27T10:03:05Z</time>
      </trkpt>
      <trkpt lat="45.75937" lon="4.81932">
        <ele>274</ele>
        <time>2011-11-27T10:03:11Z</time>
      </trkpt>
      <trkpt lat="45.75938" lon="4.81932">
        <ele>274</ele>
        <time>2011-11-27T10:03:12Z</time>
      </trkpt>
      <trkpt lat="45.75943" lon="4.81931">
        <ele>274</ele>
        <time>2011-11-27T10:03:16Z</time>
      </trkpt>
      <trkpt lat="45.75949" lon="4.8193">
        <ele>274</ele>
        <time>2011-11-27T10:03:20Z</time>
      </trkpt>
      <trkpt lat="45.75951" lon="4.8193">
        <ele>274</ele>
        <time>2011-11-27T10:03:22Z</time>
      </trkpt>
      <trkpt lat="45.75953" lon="4.81929">
        <ele>275</ele>
        <time>2011-11-27T10:03:24Z</time>
      </trkpt>
      <trkpt lat="45.75958" lon="4.81928">
        <ele>275</ele>
        <time>2011-11-27T10:03:27Z</time>
      </trkpt>
      <trkpt lat="45.75967" lon="4.81925">
        <ele>276</ele>
        <time>2011-11-27T10:03:32Z</time>
      </trkpt>
      <trkpt lat="45.7597" lon="4.81924">
        <ele>276</ele>
        <time>2011-11-27T10:03:34Z</time>
      </trkpt>
      <trkpt lat="45.75984" lon="4.81922">
        <ele>278</ele>
        <time>2011-11-27T10:03:44Z</time>
      </trkpt>
      <trkpt lat="45.75986" lon="4.81922">
        <ele>278</ele>
        <time>2011-11-27T10:03:45Z</time>
      </trkpt>
      <trkpt lat="45.75988" lon="4.81922">
        <ele>278</ele>
        <time>2011-11-27T10:03:47Z</time>
      </trkpt>
      <trkpt lat="45.75988" lon="4.81924">
        <ele>278</ele>
        <time>2011-11-27T10:03:49Z</time>
      </trkpt>
      <trkpt lat="45.75987" lon="4.81924">
        <ele>278</ele>
        <time>2011-11-27T10:03:56Z</time>
      </trkpt>
      <trkpt lat="45.75987" lon="4.81924">
        <ele>278</ele>
        <time>2011-11-27T10:04:03Z</time>
      </trkpt>
      <trkpt lat="45.75991" lon="4.8192">
        <ele>279</ele>
        <time>2011-11-27T10:04:09Z</time>
      </trkpt>
      <trkpt lat="45.75997" lon="4.81919">
        <ele>281</ele>
        <time>2011-11-27T10:04:17Z</time>
      </trkpt>
      <trkpt lat="45.76002" lon="4.81922">
        <ele>282</ele>
        <time>2011-11-27T10:04:20Z</time>
      </trkpt>
      <trkpt lat="45.76006" lon="4.81927">
        <ele>283</ele>
        <time>2011-11-27T10:04:22Z</time>
      </trkpt>
      <trkpt lat="45.76012" lon="4.8193">
        <ele>283</ele>
        <time>2011-11-27T10:04:25Z</time>
      </trkpt>
      <trkpt lat="45.76014" lon="4.81929">
        <ele>283</ele>
        <time>2011-11-27T10:04:26Z</time>
      </trkpt>
      <trkpt lat="45.76022" lon="4.81932">
        <ele>284</ele>
        <time>2011-11-27T10:04:30Z</time>
      </trkpt>
      <trkpt lat="45.76026" lon="4.81941">
        <ele>284</ele>
        <time>2011-11-27T10:04:33Z</time>
      </trkpt>
      <trkpt lat="45.76027" lon="4.81944">
        <ele>284</ele>
        <time>2011-11-27T10:04:34Z</time>
      </trkpt>
      <trkpt lat="45.76032" lon="4.81952">
        <ele>284</ele>
        <time>2011-11-27T10:04:37Z</time>
      </trkpt>
      <trkpt lat="45.76033" lon="4.81955">
        <ele>284</ele>
        <time>2011-11-27T10:04:38Z</time>
      </trkpt>
      <trkpt lat="45.76038" lon="4.81964">
        <ele>284</ele>
        <time>2011-11-27T10:04:41Z</time>
      </trkpt>
      <trkpt lat="45.76043" lon="4.8197">
        <ele>285</ele>
        <time>2011-11-27T10:04:44Z</time>
      </trkpt>
      <trkpt lat="45.76053" lon="4.81974">
        <ele>286</ele>
        <time>2011-11-27T10:04:49Z</time>
      </trkpt>
      <trkpt lat="45.76057" lon="4.81974">
        <ele>286</ele>
        <time>2011-11-27T10:04:51Z</time>
      </trkpt>
      <trkpt lat="45.76059" lon="4.81976">
        <ele>286</ele>
        <time>2011-11-27T10:04:52Z</time>
      </trkpt>
      <trkpt lat="45.76063" lon="4.8198">
        <ele>287</ele>
        <time>2011-11-27T10:04:54Z</time>
      </trkpt>
      <trkpt lat="45.76071" lon="4.81991">
        <ele>289</ele>
        <time>2011-11-27T10:04:58Z</time>
      </trkpt>
      <trkpt lat="45.76081" lon="4.82006">
        <ele>290</ele>
        <time>2011-11-27T10:05:03Z</time>
      </trkpt>
      <trkpt lat="45.76085" lon="4.82011">
        <ele>291</ele>
        <time>2011-11-27T10:05:05Z</time>
      </trkpt>
      <trkpt lat="45.76087" lon="4.82018">
        <ele>291</ele>
        <time>2011-11-27T10:05:07Z</time>
      </trkpt>
      <trkpt lat="45.76088" lon="4.82027">
        <ele>291</ele>
        <time>2011-11-27T10:05:09Z</time>
      </trkpt>
      <trkpt lat="45.76091" lon="4.82038">
        <ele>290</ele>
        <time>2011-11-27T10:05:12Z</time>
      </trkpt>
      <trkpt lat="45.76093" lon="4.82055">
        <ele>290</ele>
        <time>2011-11-27T10:05:16Z</time>
      </trkpt>
      <trkpt lat="45.76096" lon="4.82066">
        <ele>290</ele>
        <time>2011-11-27T10:05:19Z</time>
      </trkpt>
      <trkpt lat="45.76099" lon="4.82072">
        <ele>290</ele>
        <time>2011-11-27T10:05:21Z</time>
      </trkpt>
      <trkpt lat="45.76107" lon="4.82087">
        <ele>291</ele>
        <time>2011-11-27T10:05:26Z</time>
      </trkpt>
      <trkpt lat="45.76115" lon="4.82093">
        <ele>291</ele>
        <time>2011-11-27T10:05:30Z</time>
      </trkpt>
      <trkpt lat="45.76117" lon="4.82095">
        <ele>291</ele>
        <time>2011-11-27T10:05:31Z</time>
      </trkpt>
      <trkpt lat="45.76124" lon="4.82101">
        <ele>291</ele>
        <time>2011-11-27T10:05:35Z</time>
      </trkpt>
      <trkpt lat="45.76125" lon="4.82102">
        <ele>291</ele>
        <time>2011-11-27T10:05:36Z</time>
      </trkpt>
      <trkpt lat="45.76127" lon="4.82103">
        <ele>292</ele>
        <time>2011-11-27T10:05:37Z</time>
      </trkpt>
      <trkpt lat="45.76132" lon="4.82108">
        <ele>292</ele>
        <time>2011-11-27T10:05:40Z</time>
      </trkpt>
      <trkpt lat="45.76141" lon="4.82113">
        <ele>292</ele>
        <time>2011-11-27T10:05:44Z</time>
      </trkpt>
      <trkpt lat="45.76146" lon="4.82114">
        <ele>292</ele>
        <time>2011-11-27T10:05:46Z</time>
      </trkpt>
      <trkpt lat="45.76159" lon="4.82118">
        <ele>293</ele>
        <time>2011-11-27T10:05:51Z</time>
      </trkpt>
      <trkpt lat="45.76161" lon="4.82119">
        <ele>293</ele>
        <time>2011-11-27T10:05:52Z</time>
      </trkpt>
      <trkpt lat="45.76173" lon="4.82123">
        <ele>293</ele>
        <time>2011-11-27T10:05:58Z</time>
      </trkpt>
      <trkpt lat="45.7618" lon="4.82124">
        <ele>293</ele>
        <time>2011-11-27T10:06:01Z</time>
      </trkpt>
      <trkpt lat="45.76188" lon="4.82126">
        <ele>293</ele>
        <time>2011-11-27T10:06:04Z</time>
      </trkpt>
      <trkpt lat="45.76199" lon="4.82132">
        <ele>293</ele>
        <time>2011-11-27T10:06:09Z</time>
      </trkpt>
      <trkpt lat="45.762" lon="4.82134">
        <ele>293</ele>
        <time>2011-11-27T10:06:10Z</time>
      </trkpt>
      <trkpt lat="45.76205" lon="4.82139">
        <ele>293</ele>
        <time>2011-11-27T10:06:13Z</time>
      </trkpt>
      <trkpt lat="45.76215" lon="4.82149">
        <ele>293</ele>
        <time>2011-11-27T10:06:18Z</time>
      </trkpt>
      <trkpt lat="45.76228" lon="4.82156">
        <ele>293</ele>
        <time>2011-11-27T10:06:23Z</time>
      </trkpt>
      <trkpt lat="45.76233" lon="4.82159">
        <ele>293</ele>
        <time>2011-11-27T10:06:25Z</time>
      </trkpt>
      <trkpt lat="45.76237" lon="4.82163">
        <ele>293</ele>
        <time>2011-11-27T10:06:27Z</time>
      </trkpt>
      <trkpt lat="45.76238" lon="4.82166">
        <ele>293</ele>
        <time>2011-11-27T10:06:28Z</time>
      </trkpt>
      <trkpt lat="45.76241" lon="4.82182">
        <ele>295</ele>
        <time>2011-11-27T10:06:32Z</time>
      </trkpt>
      <trkpt lat="45.76242" lon="4.82186">
        <ele>296</ele>
        <time>2011-11-27T10:06:33Z</time>
      </trkpt>
      <trkpt lat="45.76249" lon="4.82199">
        <ele>296</ele>
        <time>2011-11-27T10:06:37Z</time>
      </trkpt>
      <trkpt lat="45.76252" lon="4.82205">
        <ele>296</ele>
        <time>2011-11-27T10:06:39Z</time>
      </trkpt>
      <trkpt lat="45.76254" lon="4.82211">
        <ele>296</ele>
        <time>2011-11-27T10:06:41Z</time>
      </trkpt>
      <trkpt lat="45.76254" lon="4.82215">
        <ele>296</ele>
        <time>2011-11-27T10:06:42Z</time>
      </trkpt>
      <trkpt lat="45.76253" lon="4.82224">
        <ele>297</ele>
        <time>2011-11-27T10:06:45Z</time>
      </trkpt>
      <trkpt lat="45.76255" lon="4.82225">
        <ele>297</ele>
        <time>2011-11-27T10:06:46Z</time>
      </trkpt>
      <trkpt lat="45.76258" lon="4.82226">
        <ele>297</ele>
        <time>2011-11-27T10:06:47Z</time>
      </trkpt>
      <trkpt lat="45.76261" lon="4.82228">
        <ele>297</ele>
        <time>2011-11-27T10:06:49Z</time>
      </trkpt>
      <trkpt lat="45.76266" lon="4.82241">
        <ele>297</ele>
        <time>2011-11-27T10:06:53Z</time>
      </trkpt>
      <trkpt lat="45.76266" lon="4.82245">
        <ele>297</ele>
        <time>2011-11-27T10:06:54Z</time>
      </trkpt>
      <trkpt lat="45.76267" lon="4.82249">
        <ele>297</ele>
        <time>2011-11-27T10:06:55Z</time>
      </trkpt>
      <trkpt lat="45.76267" lon="4.82263">
        <ele>292</ele>
        <time>2011-11-27T10:06:59Z</time>
      </trkpt>
      <trkpt lat="45.76266" lon="4.82277">
        <ele>290</ele>
        <time>2011-11-27T10:07:03Z</time>
      </trkpt>
      <trkpt lat="45.76267" lon="4.82283">
        <ele>289</ele>
        <time>2011-11-27T10:07:05Z</time>
      </trkpt>
      <trkpt lat="45.76271" lon="4.82291">
        <ele>287</ele>
        <time>2011-11-27T10:07:08Z</time>
      </trkpt>
      <trkpt lat="45.76274" lon="4.82294">
        <ele>287</ele>
        <time>2011-11-27T10:07:10Z</time>
      </trkpt>
      <trkpt lat="45.76277" lon="4.82297">
        <ele>287</ele>
        <time>2011-11-27T10:07:12Z</time>
      </trkpt>
      <trkpt lat="45.76278" lon="4.82299">
        <ele>286</ele>
        <time>2011-11-27T10:07:13Z</time>
      </trkpt>
      <trkpt lat="45.76282" lon="4.82305">
        <ele>286</ele>
        <time>2011-11-27T10:07:16Z</time>
      </trkpt>
      <trkpt lat="45.76285" lon="4.8231">
        <ele>285</ele>
        <time>2011-11-27T10:07:19Z</time>
      </trkpt>
      <trkpt lat="45.76287" lon="4.8231">
        <ele>285</ele>
        <time>2011-11-27T10:07:21Z</time>
      </trkpt>
      <trkpt lat="45.7629" lon="4.82308">
        <ele>286</ele>
        <time>2011-11-27T10:07:24Z</time>
      </trkpt>
      <trkpt lat="45.76291" lon="4.82306">
        <ele>286</ele>
        <time>2011-11-27T10:07:26Z</time>
      </trkpt>
      <trkpt lat="45.76289" lon="4.82291">
        <ele>288</ele>
        <time>2011-11-27T10:07:31Z</time>
      </trkpt>
      <trkpt lat="45.76287" lon="4.8228">
        <ele>289</ele>
        <time>2011-11-27T10:07:34Z</time>
      </trkpt>
      <trkpt lat="45.76286" lon="4.82269">
        <ele>290</ele>
        <time>2011-11-27T10:07:37Z</time>
      </trkpt>
      <trkpt lat="45.76288" lon="4.82253">
        <ele>291</ele>
        <time>2011-11-27T10:07:41Z</time>
      </trkpt>
      <trkpt lat="45.7629" lon="4.82237">
        <ele>297</ele>
        <time>2011-11-27T10:07:46Z</time>
      </trkpt>
      <trkpt lat="45.76291" lon="4.82225">
        <ele>296</ele>
        <time>2011-11-27T10:07:50Z</time>
      </trkpt>
      <trkpt lat="45.7629" lon="4.82223">
        <ele>296</ele>
        <time>2011-11-27T10:07:51Z</time>
      </trkpt>
      <trkpt lat="45.76291" lon="4.8222">
        <ele>296</ele>
        <time>2011-11-27T10:07:52Z</time>
      </trkpt>
      <trkpt lat="45.76297" lon="4.82221">
        <ele>296</ele>
        <time>2011-11-27T10:07:55Z</time>
      </trkpt>
      <trkpt lat="45.76305" lon="4.82223">
        <ele>296</ele>
        <time>2011-11-27T10:07:58Z</time>
      </trkpt>
      <trkpt lat="45.76311" lon="4.82224">
        <ele>296</ele>
        <time>2011-11-27T10:08:00Z</time>
      </trkpt>
      <trkpt lat="45.76323" lon="4.82225">
        <ele>297</ele>
        <time>2011-11-27T10:08:05Z</time>
      </trkpt>
      <trkpt lat="45.76326" lon="4.82225">
        <ele>297</ele>
        <time>2011-11-27T10:08:06Z</time>
      </trkpt>
      <trkpt lat="45.76338" lon="4.82227">
        <ele>292</ele>
        <time>2011-11-27T10:08:10Z</time>
      </trkpt>
      <trkpt lat="45.76344" lon="4.82229">
        <ele>291</ele>
        <time>2011-11-27T10:08:12Z</time>
      </trkpt>
      <trkpt lat="45.76355" lon="4.8223">
        <ele>290</ele>
        <time>2011-11-27T10:08:17Z</time>
      </trkpt>
      <trkpt lat="45.76357" lon="4.82228">
        <ele>290</ele>
        <time>2011-11-27T10:08:18Z</time>
      </trkpt>
      <trkpt lat="45.76358" lon="4.82219">
        <ele>289</ele>
        <time>2011-11-27T10:08:21Z</time>
      </trkpt>
      <trkpt lat="45.76358" lon="4.82207">
        <ele>289</ele>
        <time>2011-11-27T10:08:24Z</time>
      </trkpt>
      <trkpt lat="45.76359" lon="4.822">
        <ele>289</ele>
        <time>2011-11-27T10:08:26Z</time>
      </trkpt>
      <trkpt lat="45.7636" lon="4.82193">
        <ele>288</ele>
        <time>2011-11-27T10:08:28Z</time>
      </trkpt>
      <trkpt lat="45.7636" lon="4.8219">
        <ele>289</ele>
        <time>2011-11-27T10:08:29Z</time>
      </trkpt>
      <trkpt lat="45.76357" lon="4.82183">
        <ele>289</ele>
        <time>2011-11-27T10:08:31Z</time>
      </trkpt>
      <trkpt lat="45.76354" lon="4.82176">
        <ele>290</ele>
        <time>2011-11-27T10:08:33Z</time>
      </trkpt>
      <trkpt lat="45.76351" lon="4.8217">
        <ele>291</ele>
        <time>2011-11-27T10:08:35Z</time>
      </trkpt>
      <trkpt lat="45.76348" lon="4.82164">
        <ele>286</ele>
        <time>2011-11-27T10:08:37Z</time>
      </trkpt>
      <trkpt lat="45.76336" lon="4.82152">
        <ele>286</ele>
        <time>2011-11-27T10:08:42Z</time>
      </trkpt>
      <trkpt lat="45.76325" lon="4.8213">
        <ele>288</ele>
        <time>2011-11-27T10:08:48Z</time>
      </trkpt>
      <trkpt lat="45.7632" lon="4.82107">
        <ele>284</ele>
        <time>2011-11-27T10:08:54Z</time>
      </trkpt>
      <trkpt lat="45.76319" lon="4.82103">
        <ele>283</ele>
        <time>2011-11-27T10:08:55Z</time>
      </trkpt>
      <trkpt lat="45.76315" lon="4.82084">
        <ele>281</ele>
        <time>2011-11-27T10:09:00Z</time>
      </trkpt>
      <trkpt lat="45.76313" lon="4.82077">
        <ele>276</ele>
        <time>2011-11-27T10:09:02Z</time>
      </trkpt>
      <trkpt lat="45.76311" lon="4.82066">
        <ele>276</ele>
        <time>2011-11-27T10:09:05Z</time>
      </trkpt>
      <trkpt lat="45.76307" lon="4.82049">
        <ele>276</ele>
        <time>2011-11-27T10:09:10Z</time>
      </trkpt>
      <trkpt lat="45.76304" lon="4.82034">
        <ele>276</ele>
        <time>2011-11-27T10:09:15Z</time>
      </trkpt>
      <trkpt lat="45.76303" lon="4.82024">
        <ele>275</ele>
        <time>2011-11-27T10:09:18Z</time>
      </trkpt>
      <trkpt lat="45.76303" lon="4.82012">
        <ele>275</ele>
        <time>2011-11-27T10:09:21Z</time>
      </trkpt>
      <trkpt lat="45.76305" lon="4.81995">
        <ele>272</ele>
        <time>2011-11-27T10:09:25Z</time>
      </trkpt>
      <trkpt lat="45.76308" lon="4.81985">
        <ele>272</ele>
        <time>2011-11-27T10:09:28Z</time>
      </trkpt>
      <trkpt lat="45.76311" lon="4.81969">
        <ele>272</ele>
        <time>2011-11-27T10:09:33Z</time>
      </trkpt>
      <trkpt lat="45.76312" lon="4.81967">
        <ele>272</ele>
        <time>2011-11-27T10:09:34Z</time>
      </trkpt>
      <trkpt lat="45.76311" lon="4.81968">
        <ele>272</ele>
        <time>2011-11-27T10:09:37Z</time>
      </trkpt>
      <trkpt lat="45.76312" lon="4.81969">
        <ele>272</ele>
        <time>2011-11-27T10:09:43Z</time>
      </trkpt>
      <trkpt lat="45.76313" lon="4.81961">
        <ele>272</ele>
        <time>2011-11-27T10:09:47Z</time>
      </trkpt>
      <trkpt lat="45.76316" lon="4.81951">
        <ele>272</ele>
        <time>2011-11-27T10:09:50Z</time>
      </trkpt>
      <trkpt lat="45.76319" lon="4.81946">
        <ele>271</ele>
        <time>2011-11-27T10:09:52Z</time>
      </trkpt>
      <trkpt lat="45.76319" lon="4.81943">
        <ele>271</ele>
        <time>2011-11-27T10:09:55Z</time>
      </trkpt>
      <trkpt lat="45.76318" lon="4.8194">
        <ele>271</ele>
        <time>2011-11-27T10:09:59Z</time>
      </trkpt>
      <trkpt lat="45.76319" lon="4.81936">
        <ele>271</ele>
        <time>2011-11-27T10:10:01Z</time>
      </trkpt>
      <trkpt lat="45.76322" lon="4.81926">
        <ele>270</ele>
        <time>2011-11-27T10:10:04Z</time>
      </trkpt>
      <trkpt lat="45.76325" lon="4.81917">
        <ele>269</ele>
        <time>2011-11-27T10:10:07Z</time>
      </trkpt>
      <trkpt lat="45.76329" lon="4.81901">
        <ele>272</ele>
        <time>2011-11-27T10:10:12Z</time>
      </trkpt>
      <trkpt lat="45.7633" lon="4.81897">
        <ele>272</ele>
        <time>2011-11-27T10:10:13Z</time>
      </trkpt>
      <trkpt lat="45.76335" lon="4.81876">
        <ele>262</ele>
        <time>2011-11-27T10:10:19Z</time>
      </trkpt>
      <trkpt lat="45.76336" lon="4.81873">
        <ele>262</ele>
        <time>2011-11-27T10:10:20Z</time>
      </trkpt>
      <trkpt lat="45.76335" lon="4.81862">
        <ele>264</ele>
        <time>2011-11-27T10:10:23Z</time>
      </trkpt>
      <trkpt lat="45.76335" lon="4.81859">
        <ele>265</ele>
        <time>2011-11-27T10:10:24Z</time>
      </trkpt>
      <trkpt lat="45.76335" lon="4.81848">
        <ele>269</ele>
        <time>2011-11-27T10:10:27Z</time>
      </trkpt>
      <trkpt lat="45.76336" lon="4.81838">
        <ele>274</ele>
        <time>2011-11-27T10:10:30Z</time>
      </trkpt>
      <trkpt lat="45.76332" lon="4.81819">
        <ele>280</ele>
        <time>2011-11-27T10:10:34Z</time>
      </trkpt>
      <trkpt lat="45.76332" lon="4.81803">
        <ele>281</ele>
        <time>2011-11-27T10:10:38Z</time>
      </trkpt>
      <trkpt lat="45.76332" lon="4.8179">
        <ele>282</ele>
        <time>2011-11-27T10:10:42Z</time>
      </trkpt>
      <trkpt lat="45.76332" lon="4.81786">
        <ele>282</ele>
        <time>2011-11-27T10:10:43Z</time>
      </trkpt>
      <trkpt lat="45.76334" lon="4.81765">
        <ele>274</ele>
        <time>2011-11-27T10:10:49Z</time>
      </trkpt>
      <trkpt lat="45.76335" lon="4.81763">
        <ele>275</ele>
        <time>2011-11-27T10:10:50Z</time>
      </trkpt>
      <trkpt lat="45.76335" lon="4.81751">
        <ele>282</ele>
        <time>2011-11-27T10:10:53Z</time>
      </trkpt>
      <trkpt lat="45.76333" lon="4.81735">
        <ele>284</ele>
        <time>2011-11-27T10:10:57Z</time>
      </trkpt>
      <trkpt lat="45.76333" lon="4.81732">
        <ele>284</ele>
        <time>2011-11-27T10:10:58Z</time>
      </trkpt>
      <trkpt lat="45.76333" lon="4.8171">
        <ele>272</ele>
        <time>2011-11-27T10:11:04Z</time>
      </trkpt>
      <trkpt lat="45.76332" lon="4.81707">
        <ele>284</ele>
        <time>2011-11-27T10:11:05Z</time>
      </trkpt>
      <trkpt lat="45.76331" lon="4.817">
        <ele>284</ele>
        <time>2011-11-27T10:11:07Z</time>
      </trkpt>
      <trkpt lat="45.7633" lon="4.81694">
        <ele>283</ele>
        <time>2011-11-27T10:11:09Z</time>
      </trkpt>
      <trkpt lat="45.76328" lon="4.8168">
        <ele>282</ele>
        <time>2011-11-27T10:11:13Z</time>
      </trkpt>
      <trkpt lat="45.76327" lon="4.81676">
        <ele>282</ele>
        <time>2011-11-27T10:11:14Z</time>
      </trkpt>
      <trkpt lat="45.76322" lon="4.81657">
        <ele>282</ele>
        <time>2011-11-27T10:11:20Z</time>
      </trkpt>
      <trkpt lat="45.7632" lon="4.81654">
        <ele>283</ele>
        <time>2011-11-27T10:11:21Z</time>
      </trkpt>
      <trkpt lat="45.76318" lon="4.81635">
        <ele>284</ele>
        <time>2011-11-27T10:11:26Z</time>
      </trkpt>
      <trkpt lat="45.76317" lon="4.81626">
        <ele>284</ele>
        <time>2011-11-27T10:11:29Z</time>
      </trkpt>
      <trkpt lat="45.76316" lon="4.81618">
        <ele>284</ele>
        <time>2011-11-27T10:11:31Z</time>
      </trkpt>
      <trkpt lat="45.76314" lon="4.81598">
        <ele>284</ele>
        <time>2011-11-27T10:11:36Z</time>
      </trkpt>
      <trkpt lat="45.76314" lon="4.81594">
        <ele>284</ele>
        <time>2011-11-27T10:11:37Z</time>
      </trkpt>
      <trkpt lat="45.76313" lon="4.81587">
        <ele>284</ele>
        <time>2011-11-27T10:11:40Z</time>
      </trkpt>
      <trkpt lat="45.76314" lon="4.81586">
        <ele>284</ele>
        <time>2011-11-27T10:11:41Z</time>
      </trkpt>
      <trkpt lat="45.76313" lon="4.81573">
        <ele>286</ele>
        <time>2011-11-27T10:11:45Z</time>
      </trkpt>
      <trkpt lat="45.76311" lon="4.81564">
        <ele>286</ele>
        <time>2011-11-27T10:11:47Z</time>
      </trkpt>
      <trkpt lat="45.76308" lon="4.81549">
        <ele>287</ele>
        <time>2011-11-27T10:11:51Z</time>
      </trkpt>
      <trkpt lat="45.76308" lon="4.81546">
        <ele>287</ele>
        <time>2011-11-27T10:11:52Z</time>
      </trkpt>
      <trkpt lat="45.76305" lon="4.81532">
        <ele>287</ele>
        <time>2011-11-27T10:11:56Z</time>
      </trkpt>
      <trkpt lat="45.76303" lon="4.8152">
        <ele>288</ele>
        <time>2011-11-27T10:11:59Z</time>
      </trkpt>
      <trkpt lat="45.76302" lon="4.8151">
        <ele>288</ele>
        <time>2011-11-27T10:12:02Z</time>
      </trkpt>
      <trkpt lat="45.763" lon="4.81494">
        <ele>289</ele>
        <time>2011-11-27T10:12:07Z</time>
      </trkpt>
      <trkpt lat="45.76299" lon="4.81488">
        <ele>289</ele>
        <time>2011-11-27T10:12:09Z</time>
      </trkpt>
      <trkpt lat="45.76297" lon="4.81467">
        <ele>289</ele>
        <time>2011-11-27T10:12:15Z</time>
      </trkpt>
      <trkpt lat="45.76296" lon="4.81464">
        <ele>289</ele>
        <time>2011-11-27T10:12:16Z</time>
      </trkpt>
      <trkpt lat="45.76294" lon="4.81446">
        <ele>289</ele>
        <time>2011-11-27T10:12:21Z</time>
      </trkpt>
      <trkpt lat="45.76293" lon="4.81439">
        <ele>289</ele>
        <time>2011-11-27T10:12:23Z</time>
      </trkpt>
      <trkpt lat="45.76291" lon="4.81425">
        <ele>289</ele>
        <time>2011-11-27T10:12:27Z</time>
      </trkpt>
      <trkpt lat="45.76292" lon="4.81415">
        <ele>288</ele>
        <time>2011-11-27T10:12:30Z</time>
      </trkpt>
      <trkpt lat="45.76293" lon="4.81413">
        <ele>288</ele>
        <time>2011-11-27T10:12:31Z</time>
      </trkpt>
      <trkpt lat="45.76292" lon="4.814">
        <ele>288</ele>
        <time>2011-11-27T10:12:35Z</time>
      </trkpt>
      <trkpt lat="45.76294" lon="4.81391">
        <ele>288</ele>
        <time>2011-11-27T10:12:38Z</time>
      </trkpt>
      <trkpt lat="45.76295" lon="4.81387">
        <ele>288</ele>
        <time>2011-11-27T10:12:39Z</time>
      </trkpt>
      <trkpt lat="45.76295" lon="4.81384">
        <ele>288</ele>
        <time>2011-11-27T10:12:40Z</time>
      </trkpt>
      <trkpt lat="45.76298" lon="4.81371">
        <ele>288</ele>
        <time>2011-11-27T10:12:45Z</time>
      </trkpt>
      <trkpt lat="45.76297" lon="4.81362">
        <ele>288</ele>
        <time>2011-11-27T10:12:48Z</time>
      </trkpt>
      <trkpt lat="45.76297" lon="4.81353">
        <ele>288</ele>
        <time>2011-11-27T10:12:51Z</time>
      </trkpt>
      <trkpt lat="45.76298" lon="4.81348">
        <ele>288</ele>
        <time>2011-11-27T10:12:54Z</time>
      </trkpt>
      <trkpt lat="45.76299" lon="4.81346">
        <ele>287</ele>
        <time>2011-11-27T10:12:56Z</time>
      </trkpt>
      <trkpt lat="45.76299" lon="4.81343">
        <ele>287</ele>
        <time>2011-11-27T10:12:58Z</time>
      </trkpt>
      <trkpt lat="45.76301" lon="4.8134">
        <ele>287</ele>
        <time>2011-11-27T10:13:02Z</time>
      </trkpt>
      <trkpt lat="45.76302" lon="4.81341">
        <ele>287</ele>
        <time>2011-11-27T10:13:12Z</time>
      </trkpt>
      <trkpt lat="45.763" lon="4.81334">
        <ele>287</ele>
        <time>2011-11-27T10:13:38Z</time>
      </trkpt>
      <trkpt lat="45.76301" lon="4.81331">
        <ele>285</ele>
        <time>2011-11-27T10:13:42Z</time>
      </trkpt>
      <trkpt lat="45.76303" lon="4.81331">
        <ele>285</ele>
        <time>2011-11-27T10:13:44Z</time>
      </trkpt>
      <trkpt lat="45.76305" lon="4.81328">
        <ele>285</ele>
        <time>2011-11-27T10:13:48Z</time>
      </trkpt>
      <trkpt lat="45.76307" lon="4.81326">
        <ele>285</ele>
        <time>2011-11-27T10:13:50Z</time>
      </trkpt>
      <trkpt lat="45.7631" lon="4.81324">
        <ele>285</ele>
        <time>2011-11-27T10:13:53Z</time>
      </trkpt>
      <trkpt lat="45.76314" lon="4.81321">
        <ele>285</ele>
        <time>2011-11-27T10:13:55Z</time>
      </trkpt>
      <trkpt lat="45.7632" lon="4.81321">
        <ele>285</ele>
        <time>2011-11-27T10:13:57Z</time>
      </trkpt>
      <trkpt lat="45.76328" lon="4.81324">
        <ele>284</ele>
        <time>2011-11-27T10:14:00Z</time>
      </trkpt>
      <trkpt lat="45.76332" lon="4.81326">
        <ele>284</ele>
        <time>2011-11-27T10:14:02Z</time>
      </trkpt>
      <trkpt lat="45.76334" lon="4.81326">
        <ele>283</ele>
        <time>2011-11-27T10:14:03Z</time>
      </trkpt>
      <trkpt lat="45.76346" lon="4.81329">
        <ele>282</ele>
        <time>2011-11-27T10:14:09Z</time>
      </trkpt>
      <trkpt lat="45.76351" lon="4.8133">
        <ele>282</ele>
        <time>2011-11-27T10:14:11Z</time>
      </trkpt>
      <trkpt lat="45.76357" lon="4.81332">
        <ele>281</ele>
        <time>2011-11-27T10:14:14Z</time>
      </trkpt>
      <trkpt lat="45.76368" lon="4.81335">
        <ele>282</ele>
        <time>2011-11-27T10:14:19Z</time>
      </trkpt>
      <trkpt lat="45.7637" lon="4.81335">
        <ele>282</ele>
        <time>2011-11-27T10:14:20Z</time>
      </trkpt>
      <trkpt lat="45.76383" lon="4.81338">
        <ele>281</ele>
        <time>2011-11-27T10:14:25Z</time>
      </trkpt>
      <trkpt lat="45.76388" lon="4.8134">
        <ele>281</ele>
        <time>2011-11-27T10:14:27Z</time>
      </trkpt>
      <trkpt lat="45.76395" lon="4.81346">
        <ele>280</ele>
        <time>2011-11-27T10:14:30Z</time>
      </trkpt>
      <trkpt lat="45.76395" lon="4.8135">
        <ele>281</ele>
        <time>2011-11-27T10:14:31Z</time>
      </trkpt>
      <trkpt lat="45.76398" lon="4.81361">
        <ele>281</ele>
        <time>2011-11-27T10:14:34Z</time>
      </trkpt>
      <trkpt lat="45.76398" lon="4.81372">
        <ele>281</ele>
        <time>2011-11-27T10:14:37Z</time>
      </trkpt>
      <trkpt lat="45.76399" lon="4.81376">
        <ele>282</ele>
        <time>2011-11-27T10:14:38Z</time>
      </trkpt>
      <trkpt lat="45.764" lon="4.81387">
        <ele>282</ele>
        <time>2011-11-27T10:14:41Z</time>
      </trkpt>
      <trkpt lat="45.76401" lon="4.81394">
        <ele>282</ele>
        <time>2011-11-27T10:14:43Z</time>
      </trkpt>
      <trkpt lat="45.76403" lon="4.81412">
        <ele>282</ele>
        <time>2011-11-27T10:14:48Z</time>
      </trkpt>
      <trkpt lat="45.76403" lon="4.81416">
        <ele>282</ele>
        <time>2011-11-27T10:14:49Z</time>
      </trkpt>
      <trkpt lat="45.76403" lon="4.81436">
        <ele>282</ele>
        <time>2011-11-27T10:14:55Z</time>
      </trkpt>
      <trkpt lat="45.76404" lon="4.81443">
        <ele>281</ele>
        <time>2011-11-27T10:14:57Z</time>
      </trkpt>
      <trkpt lat="45.76407" lon="4.81458">
        <ele>281</ele>
        <time>2011-11-27T10:15:02Z</time>
      </trkpt>
      <trkpt lat="45.7641" lon="4.81467">
        <ele>280</ele>
        <time>2011-11-27T10:15:05Z</time>
      </trkpt>
      <trkpt lat="45.76418" lon="4.81481">
        <ele>270</ele>
        <time>2011-11-27T10:15:10Z</time>
      </trkpt>
      <trkpt lat="45.76424" lon="4.81486">
        <ele>270</ele>
        <time>2011-11-27T10:15:13Z</time>
      </trkpt>
      <trkpt lat="45.76428" lon="4.81487">
        <ele>270</ele>
        <time>2011-11-27T10:15:15Z</time>
      </trkpt>
      <trkpt lat="45.76438" lon="4.81493">
        <ele>269</ele>
        <time>2011-11-27T10:15:21Z</time>
      </trkpt>
      <trkpt lat="45.76442" lon="4.81494">
        <ele>268</ele>
        <time>2011-11-27T10:15:23Z</time>
      </trkpt>
      <trkpt lat="45.76443" lon="4.81496">
        <ele>268</ele>
        <time>2011-11-27T10:15:24Z</time>
      </trkpt>
      <trkpt lat="45.76443" lon="4.81497">
        <ele>268</ele>
        <time>2011-11-27T10:15:25Z</time>
      </trkpt>
      <trkpt lat="45.76448" lon="4.81498">
        <ele>267</ele>
        <time>2011-11-27T10:15:29Z</time>
      </trkpt>
      <trkpt lat="45.76454" lon="4.81499">
        <ele>266</ele>
        <time>2011-11-27T10:15:32Z</time>
      </trkpt>
      <trkpt lat="45.76455" lon="4.815">
        <ele>266</ele>
        <time>2011-11-27T10:15:33Z</time>
      </trkpt>
      <trkpt lat="45.76458" lon="4.815">
        <ele>260</ele>
        <time>2011-11-27T10:15:35Z</time>
      </trkpt>
      <trkpt lat="45.76462" lon="4.81501">
        <ele>260</ele>
        <time>2011-11-27T10:15:38Z</time>
      </trkpt>
      <trkpt lat="45.7647" lon="4.81502">
        <ele>259</ele>
        <time>2011-11-27T10:15:43Z</time>
      </trkpt>
      <trkpt lat="45.76477" lon="4.815">
        <ele>262</ele>
        <time>2011-11-27T10:15:46Z</time>
      </trkpt>
      <trkpt lat="45.76483" lon="4.815">
        <ele>261</ele>
        <time>2011-11-27T10:15:49Z</time>
      </trkpt>
      <trkpt lat="45.76496" lon="4.81498">
        <ele>257</ele>
        <time>2011-11-27T10:15:55Z</time>
      </trkpt>
      <trkpt lat="45.765" lon="4.81499">
        <ele>256</ele>
        <time>2011-11-27T10:15:57Z</time>
      </trkpt>
      <trkpt lat="45.76505" lon="4.81501">
        <ele>252</ele>
        <time>2011-11-27T10:15:59Z</time>
      </trkpt>
      <trkpt lat="45.76513" lon="4.81505">
        <ele>246</ele>
        <time>2011-11-27T10:16:04Z</time>
      </trkpt>
      <trkpt lat="45.76516" lon="4.81506">
        <ele>244</ele>
        <time>2011-11-27T10:16:07Z</time>
      </trkpt>
      <trkpt lat="45.76522" lon="4.81506">
        <ele>242</ele>
        <time>2011-11-27T10:16:10Z</time>
      </trkpt>
      <trkpt lat="45.76532" lon="4.81509">
        <ele>238</ele>
        <time>2011-11-27T10:16:15Z</time>
      </trkpt>
      <trkpt lat="45.76536" lon="4.8151">
        <ele>237</ele>
        <time>2011-11-27T10:16:17Z</time>
      </trkpt>
      <trkpt lat="45.7654" lon="4.81509">
        <ele>235</ele>
        <time>2011-11-27T10:16:19Z</time>
      </trkpt>
      <trkpt lat="45.76553" lon="4.81506">
        <ele>232</ele>
        <time>2011-11-27T10:16:26Z</time>
      </trkpt>
      <trkpt lat="45.76554" lon="4.81506">
        <ele>231</ele>
        <time>2011-11-27T10:16:28Z</time>
      </trkpt>
      <trkpt lat="45.7656" lon="4.81504">
        <ele>229</ele>
        <time>2011-11-27T10:16:32Z</time>
      </trkpt>
      <trkpt lat="45.76562" lon="4.81502">
        <ele>229</ele>
        <time>2011-11-27T10:16:34Z</time>
      </trkpt>
      <trkpt lat="45.76562" lon="4.81497">
        <ele>229</ele>
        <time>2011-11-27T10:16:38Z</time>
      </trkpt>
      <trkpt lat="45.76562" lon="4.81496">
        <ele>229</ele>
        <time>2011-11-27T10:16:39Z</time>
      </trkpt>
      <trkpt lat="45.76564" lon="4.81491">
        <ele>229</ele>
        <time>2011-11-27T10:16:43Z</time>
      </trkpt>
      <trkpt lat="45.76565" lon="4.81491">
        <ele>229</ele>
        <time>2011-11-27T10:16:44Z</time>
      </trkpt>
      <trkpt lat="45.76567" lon="4.81491">
        <ele>228</ele>
        <time>2011-11-27T10:16:45Z</time>
      </trkpt>
      <trkpt lat="45.76574" lon="4.81491">
        <ele>226</ele>
        <time>2011-11-27T10:16:49Z</time>
      </trkpt>
      <trkpt lat="45.7658" lon="4.81499">
        <ele>222</ele>
        <time>2011-11-27T10:16:54Z</time>
      </trkpt>
      <trkpt lat="45.76584" lon="4.81509">
        <ele>215</ele>
        <time>2011-11-27T10:16:59Z</time>
      </trkpt>
      <trkpt lat="45.76588" lon="4.81522">
        <ele>210</ele>
        <time>2011-11-27T10:17:06Z</time>
      </trkpt>
      <trkpt lat="45.76589" lon="4.81524">
        <ele>210</ele>
        <time>2011-11-27T10:17:07Z</time>
      </trkpt>
      <trkpt lat="45.7659" lon="4.81531">
        <ele>209</ele>
        <time>2011-11-27T10:17:12Z</time>
      </trkpt>
      <trkpt lat="45.76592" lon="4.81544">
        <ele>208</ele>
        <time>2011-11-27T10:17:19Z</time>
      </trkpt>
      <trkpt lat="45.76593" lon="4.81544">
        <ele>208</ele>
        <time>2011-11-27T10:17:21Z</time>
      </trkpt>
      <trkpt lat="45.76594" lon="4.81541">
        <ele>208</ele>
        <time>2011-11-27T10:17:23Z</time>
      </trkpt>
      <trkpt lat="45.76594" lon="4.8154">
        <ele>208</ele>
        <time>2011-11-27T10:17:24Z</time>
      </trkpt>
      <trkpt lat="45.76592" lon="4.81531">
        <ele>208</ele>
        <time>2011-11-27T10:17:28Z</time>
      </trkpt>
      <trkpt lat="45.76593" lon="4.8153">
        <ele>208</ele>
        <time>2011-11-27T10:17:29Z</time>
      </trkpt>
      <trkpt lat="45.76595" lon="4.81529">
        <ele>208</ele>
        <time>2011-11-27T10:17:30Z</time>
      </trkpt>
      <trkpt lat="45.76597" lon="4.81524">
        <ele>208</ele>
        <time>2011-11-27T10:17:37Z</time>
      </trkpt>
      <trkpt lat="45.76598" lon="4.81525">
        <ele>208</ele>
        <time>2011-11-27T10:17:38Z</time>
      </trkpt>
      <trkpt lat="45.76604" lon="4.81529">
        <ele>207</ele>
        <time>2011-11-27T10:17:42Z</time>
      </trkpt>
      <trkpt lat="45.76605" lon="4.8153">
        <ele>206</ele>
        <time>2011-11-27T10:17:43Z</time>
      </trkpt>
      <trkpt lat="45.76607" lon="4.81532">
        <ele>206</ele>
        <time>2011-11-27T10:17:46Z</time>
      </trkpt>
      <trkpt lat="45.76615" lon="4.81539">
        <ele>204</ele>
        <time>2011-11-27T10:17:50Z</time>
      </trkpt>
      <trkpt lat="45.76619" lon="4.81541">
        <ele>203</ele>
        <time>2011-11-27T10:17:53Z</time>
      </trkpt>
      <trkpt lat="45.76621" lon="4.81543">
        <ele>203</ele>
        <time>2011-11-27T10:17:55Z</time>
      </trkpt>
      <trkpt lat="45.76622" lon="4.81545">
        <ele>203</ele>
        <time>2011-11-27T10:17:57Z</time>
      </trkpt>
      <trkpt lat="45.76626" lon="4.81547">
        <ele>202</ele>
        <time>2011-11-27T10:18:00Z</time>
      </trkpt>
      <trkpt lat="45.76627" lon="4.81548">
        <ele>202</ele>
        <time>2011-11-27T10:18:01Z</time>
      </trkpt>
      <trkpt lat="45.76629" lon="4.81552">
        <ele>201</ele>
        <time>2011-11-27T10:18:05Z</time>
      </trkpt>
      <trkpt lat="45.76629" lon="4.81554">
        <ele>201</ele>
        <time>2011-11-27T10:18:07Z</time>
      </trkpt>
      <trkpt lat="45.76634" lon="4.81557">
        <ele>200</ele>
        <time>2011-11-27T10:18:16Z</time>
      </trkpt>
      <trkpt lat="45.76636" lon="4.8156">
        <ele>200</ele>
        <time>2011-11-27T10:18:22Z</time>
      </trkpt>
      <trkpt lat="45.76637" lon="4.81561">
        <ele>199</ele>
        <time>2011-11-27T10:18:23Z</time>
      </trkpt>
      <trkpt lat="45.76638" lon="4.81563">
        <ele>199</ele>
        <time>2011-11-27T10:18:24Z</time>
      </trkpt>
      <trkpt lat="45.76641" lon="4.81567">
        <ele>198</ele>
        <time>2011-11-27T10:18:28Z</time>
      </trkpt>
      <trkpt lat="45.76644" lon="4.81566">
        <ele>197</ele>
        <time>2011-11-27T10:18:29Z</time>
      </trkpt>
      <trkpt lat="45.76648" lon="4.81567">
        <ele>196</ele>
        <time>2011-11-27T10:18:32Z</time>
      </trkpt>
      <trkpt lat="45.76651" lon="4.81568">
        <ele>195</ele>
        <time>2011-11-27T10:18:34Z</time>
      </trkpt>
      <trkpt lat="45.76654" lon="4.81568">
        <ele>195</ele>
        <time>2011-11-27T10:18:37Z</time>
      </trkpt>
      <trkpt lat="45.76656" lon="4.81567">
        <ele>195</ele>
        <time>2011-11-27T10:18:39Z</time>
      </trkpt>
      <trkpt lat="45.76658" lon="4.81567">
        <ele>194</ele>
        <time>2011-11-27T10:18:40Z</time>
      </trkpt>
      <trkpt lat="45.76659" lon="4.81566">
        <ele>194</ele>
        <time>2011-11-27T10:18:42Z</time>
      </trkpt>
      <trkpt lat="45.76659" lon="4.81567">
        <ele>194</ele>
        <time>2011-11-27T10:18:43Z</time>
      </trkpt>
      <trkpt lat="45.7666" lon="4.81569">
        <ele>193</ele>
        <time>2011-11-27T10:18:45Z</time>
      </trkpt>
      <trkpt lat="45.76661" lon="4.8157">
        <ele>193</ele>
        <time>2011-11-27T10:18:47Z</time>
      </trkpt>
      <trkpt lat="45.76663" lon="4.81576">
        <ele>190</ele>
        <time>2011-11-27T10:18:50Z</time>
      </trkpt>
      <trkpt lat="45.76663" lon="4.81577">
        <ele>190</ele>
        <time>2011-11-27T10:18:51Z</time>
      </trkpt>
      <trkpt lat="45.76659" lon="4.81583">
        <ele>190</ele>
        <time>2011-11-27T10:18:56Z</time>
      </trkpt>
      <trkpt lat="45.76658" lon="4.81588">
        <ele>190</ele>
        <time>2011-11-27T10:18:59Z</time>
      </trkpt>
      <trkpt lat="45.76656" lon="4.81594">
        <ele>192</ele>
        <time>2011-11-27T10:19:03Z</time>
      </trkpt>
      <trkpt lat="45.76656" lon="4.81595">
        <ele>192</ele>
        <time>2011-11-27T10:19:04Z</time>
      </trkpt>
      <trkpt lat="45.76653" lon="4.81601">
        <ele>193</ele>
        <time>2011-11-27T10:19:08Z</time>
      </trkpt>
      <trkpt lat="45.76651" lon="4.81609">
        <ele>195</ele>
        <time>2011-11-27T10:19:14Z</time>
      </trkpt>
      <trkpt lat="45.7665" lon="4.8161">
        <ele>195</ele>
        <time>2011-11-27T10:19:15Z</time>
      </trkpt>
      <trkpt lat="45.76649" lon="4.8161">
        <ele>195</ele>
        <time>2011-11-27T10:19:16Z</time>
      </trkpt>
      <trkpt lat="45.76643" lon="4.81609">
        <ele>196</ele>
        <time>2011-11-27T10:19:20Z</time>
      </trkpt>
      <trkpt lat="45.76643" lon="4.81609">
        <ele>196</ele>
        <time>2011-11-27T10:19:21Z</time>
      </trkpt>
      <trkpt lat="45.7664" lon="4.81606">
        <ele>196</ele>
        <time>2011-11-27T10:19:26Z</time>
      </trkpt>
      <trkpt lat="45.76639" lon="4.81602">
        <ele>196</ele>
        <time>2011-11-27T10:19:29Z</time>
      </trkpt>
      <trkpt lat="45.76638" lon="4.81602">
        <ele>196</ele>
        <time>2011-11-27T10:19:32Z</time>
      </trkpt>
      <trkpt lat="45.76638" lon="4.81596">
        <ele>196</ele>
        <time>2011-11-27T10:19:39Z</time>
      </trkpt>
      <trkpt lat="45.76639" lon="4.81594">
        <ele>196</ele>
        <time>2011-11-27T10:19:40Z</time>
      </trkpt>
      <trkpt lat="45.7664" lon="4.81592">
        <ele>196</ele>
        <time>2011-11-27T10:19:41Z</time>
      </trkpt>
      <trkpt lat="45.76641" lon="4.81588">
        <ele>195</ele>
        <time>2011-11-27T10:19:43Z</time>
      </trkpt>
      <trkpt lat="45.76639" lon="4.81585">
        <ele>196</ele>
        <time>2011-11-27T10:19:45Z</time>
      </trkpt>
      <trkpt lat="45.76637" lon="4.81579">
        <ele>198</ele>
        <time>2011-11-27T10:19:49Z</time>
      </trkpt>
      <trkpt lat="45.76636" lon="4.81574">
        <ele>199</ele>
        <time>2011-11-27T10:19:51Z</time>
      </trkpt>
      <trkpt lat="45.76636" lon="4.8157">
        <ele>199</ele>
        <time>2011-11-27T10:19:53Z</time>
      </trkpt>
      <trkpt lat="45.76636" lon="4.81564">
        <ele>199</ele>
        <time>2011-11-27T10:19:57Z</time>
      </trkpt>
      <trkpt lat="45.76636" lon="4.81562">
        <ele>199</ele>
        <time>2011-11-27T10:19:58Z</time>
      </trkpt>
      <trkpt lat="45.76636" lon="4.81557">
        <ele>200</ele>
        <time>2011-11-27T10:20:03Z</time>
      </trkpt>
      <trkpt lat="45.76637" lon="4.81556">
        <ele>200</ele>
        <time>2011-11-27T10:20:05Z</time>
      </trkpt>
      <trkpt lat="45.76634" lon="4.81553">
        <ele>200</ele>
        <time>2011-11-27T10:20:09Z</time>
      </trkpt>
      <trkpt lat="45.76636" lon="4.81553">
        <ele>200</ele>
        <time>2011-11-27T10:20:13Z</time>
      </trkpt>
      <trkpt lat="45.76636" lon="4.81551">
        <ele>200</ele>
        <time>2011-11-27T10:20:19Z</time>
      </trkpt>
      <trkpt lat="45.76636" lon="4.8155">
        <ele>200</ele>
        <time>2011-11-27T10:20:21Z</time>
      </trkpt>
      <trkpt lat="45.76634" lon="4.81548">
        <ele>200</ele>
        <time>2011-11-27T10:20:23Z</time>
      </trkpt>
      <trkpt lat="45.76634" lon="4.81549">
        <ele>200</ele>
        <time>2011-11-27T10:20:25Z</time>
      </trkpt>
      <trkpt lat="45.76634" lon="4.8155">
        <ele>200</ele>
        <time>2011-11-27T10:20:26Z</time>
      </trkpt>
      <trkpt lat="45.76634" lon="4.81551">
        <ele>200</ele>
        <time>2011-11-27T10:20:31Z</time>
      </trkpt>
      <trkpt lat="45.76629" lon="4.81545">
        <ele>202</ele>
        <time>2011-11-27T10:20:47Z</time>
      </trkpt>
      <trkpt lat="45.76628" lon="4.81545">
        <ele>202</ele>
        <time>2011-11-27T10:20:48Z</time>
      </trkpt>
      <trkpt lat="45.76624" lon="4.81545">
        <ele>202</ele>
        <time>2011-11-27T10:20:54Z</time>
      </trkpt>
      <trkpt lat="45.76619" lon="4.81544">
        <ele>203</ele>
        <time>2011-11-27T10:20:58Z</time>
      </trkpt>
      <trkpt lat="45.76619" lon="4.81541">
        <ele>203</ele>
        <time>2011-11-27T10:21:03Z</time>
      </trkpt>
      <trkpt lat="45.76619" lon="4.81542">
        <ele>203</ele>
        <time>2011-11-27T10:21:06Z</time>
      </trkpt>
      <trkpt lat="45.76615" lon="4.81539">
        <ele>204</ele>
        <time>2011-11-27T10:21:11Z</time>
      </trkpt>
      <trkpt lat="45.76614" lon="4.81538">
        <ele>204</ele>
        <time>2011-11-27T10:21:13Z</time>
      </trkpt>
      <trkpt lat="45.76614" lon="4.81537">
        <ele>204</ele>
        <time>2011-11-27T10:21:15Z</time>
      </trkpt>
      <trkpt lat="45.76614" lon="4.81535">
        <ele>205</ele>
        <time>2011-11-27T10:21:17Z</time>
      </trkpt>
      <trkpt lat="45.76613" lon="4.81534">
        <ele>205</ele>
        <time>2011-11-27T10:21:19Z</time>
      </trkpt>
      <trkpt lat="45.76608" lon="4.81529">
        <ele>206</ele>
        <time>2011-11-27T10:21:25Z</time>
      </trkpt>
      <trkpt lat="45.76605" lon="4.81527">
        <ele>207</ele>
        <time>2011-11-27T10:21:27Z</time>
      </trkpt>
      <trkpt lat="45.76603" lon="4.81526">
        <ele>207</ele>
        <time>2011-11-27T10:21:29Z</time>
      </trkpt>
      <trkpt lat="45.76602" lon="4.81528">
        <ele>207</ele>
        <time>2011-11-27T10:21:30Z</time>
      </trkpt>
      <trkpt lat="45.76599" lon="4.81536">
        <ele>207</ele>
        <time>2011-11-27T10:21:36Z</time>
      </trkpt>
      <trkpt lat="45.76599" lon="4.81537">
        <ele>207</ele>
        <time>2011-11-27T10:21:37Z</time>
      </trkpt>
      <trkpt lat="45.76599" lon="4.81543">
        <ele>207</ele>
        <time>2011-11-27T10:21:41Z</time>
      </trkpt>
      <trkpt lat="45.76597" lon="4.81545">
        <ele>207</ele>
        <time>2011-11-27T10:21:44Z</time>
      </trkpt>
      <trkpt lat="45.76597" lon="4.81546">
        <ele>207</ele>
        <time>2011-11-27T10:21:45Z</time>
      </trkpt>
      <trkpt lat="45.76591" lon="4.81549">
        <ele>208</ele>
        <time>2011-11-27T10:22:06Z</time>
      </trkpt>
      <trkpt lat="45.76592" lon="4.8154">
        <ele>208</ele>
        <time>2011-11-27T10:22:10Z</time>
      </trkpt>
      <trkpt lat="45.76592" lon="4.81537">
        <ele>208</ele>
        <time>2011-11-27T10:22:13Z</time>
      </trkpt>
      <trkpt lat="45.76595" lon="4.81534">
        <ele>208</ele>
        <time>2011-11-27T10:22:21Z</time>
      </trkpt>
      <trkpt lat="45.76595" lon="4.81532">
        <ele>208</ele>
        <time>2011-11-27T10:22:25Z</time>
      </trkpt>
      <trkpt lat="45.76594" lon="4.8153">
        <ele>208</ele>
        <time>2011-11-27T10:22:27Z</time>
      </trkpt>
      <trkpt lat="45.76591" lon="4.81524">
        <ele>210</ele>
        <time>2011-11-27T10:22:32Z</time>
      </trkpt>
      <trkpt lat="45.7659" lon="4.8152">
        <ele>211</ele>
        <time>2011-11-27T10:22:34Z</time>
      </trkpt>
      <trkpt lat="45.76587" lon="4.81511">
        <ele>214</ele>
        <time>2011-11-27T10:22:37Z</time>
      </trkpt>
      <trkpt lat="45.7658" lon="4.81497">
        <ele>223</ele>
        <time>2011-11-27T10:22:42Z</time>
      </trkpt>
      <trkpt lat="45.76576" lon="4.81491">
        <ele>225</ele>
        <time>2011-11-27T10:22:44Z</time>
      </trkpt>
      <trkpt lat="45.76568" lon="4.8148">
        <ele>229</ele>
        <time>2011-11-27T10:22:49Z</time>
      </trkpt>
      <trkpt lat="45.76566" lon="4.81478">
        <ele>229</ele>
        <time>2011-11-27T10:22:50Z</time>
      </trkpt>
      <trkpt lat="45.76558" lon="4.81466">
        <ele>231</ele>
        <time>2011-11-27T10:22:56Z</time>
      </trkpt>
      <trkpt lat="45.76552" lon="4.81458">
        <ele>232</ele>
        <time>2011-11-27T10:23:00Z</time>
      </trkpt>
      <trkpt lat="45.7655" lon="4.81454">
        <ele>233</ele>
        <time>2011-11-27T10:23:02Z</time>
      </trkpt>
      <trkpt lat="45.76542" lon="4.81437">
        <ele>234</ele>
        <time>2011-11-27T10:23:09Z</time>
      </trkpt>
      <trkpt lat="45.76541" lon="4.81435">
        <ele>234</ele>
        <time>2011-11-27T10:23:10Z</time>
      </trkpt>
      <trkpt lat="45.76537" lon="4.8142">
        <ele>235</ele>
        <time>2011-11-27T10:23:16Z</time>
      </trkpt>
      <trkpt lat="45.76537" lon="4.81415">
        <ele>233</ele>
        <time>2011-11-27T10:23:18Z</time>
      </trkpt>
      <trkpt lat="45.7654" lon="4.81412">
        <ele>232</ele>
        <time>2011-11-27T10:23:20Z</time>
      </trkpt>
      <trkpt lat="45.76545" lon="4.81412">
        <ele>230</ele>
        <time>2011-11-27T10:23:23Z</time>
      </trkpt>
      <trkpt lat="45.76547" lon="4.81413">
        <ele>230</ele>
        <time>2011-11-27T10:23:25Z</time>
      </trkpt>
      <trkpt lat="45.7655" lon="4.81415">
        <ele>228</ele>
        <time>2011-11-27T10:23:29Z</time>
      </trkpt>
      <trkpt lat="45.76552" lon="4.81417">
        <ele>228</ele>
        <time>2011-11-27T10:23:32Z</time>
      </trkpt>
      <trkpt lat="45.76559" lon="4.81418">
        <ele>227</ele>
        <time>2011-11-27T10:23:37Z</time>
      </trkpt>
      <trkpt lat="45.7656" lon="4.81419">
        <ele>227</ele>
        <time>2011-11-27T10:23:38Z</time>
      </trkpt>
      <trkpt lat="45.76567" lon="4.81421">
        <ele>224</ele>
        <time>2011-11-27T10:23:42Z</time>
      </trkpt>
      <trkpt lat="45.76569" lon="4.81421">
        <ele>223</ele>
        <time>2011-11-27T10:23:43Z</time>
      </trkpt>
      <trkpt lat="45.76576" lon="4.81422">
        <ele>220</ele>
        <time>2011-11-27T10:23:46Z</time>
      </trkpt>
      <trkpt lat="45.76579" lon="4.81423">
        <ele>219</ele>
        <time>2011-11-27T10:23:48Z</time>
      </trkpt>
      <trkpt lat="45.7658" lon="4.81423">
        <ele>218</ele>
        <time>2011-11-27T10:23:49Z</time>
      </trkpt>
      <trkpt lat="45.7659" lon="4.81423">
        <ele>209</ele>
        <time>2011-11-27T10:23:53Z</time>
      </trkpt>
      <trkpt lat="45.76594" lon="4.81422">
        <ele>208</ele>
        <time>2011-11-27T10:23:55Z</time>
      </trkpt>
      <trkpt lat="45.76602" lon="4.81427">
        <ele>206</ele>
        <time>2011-11-27T10:23:59Z</time>
      </trkpt>
      <trkpt lat="45.76607" lon="4.81433">
        <ele>204</ele>
        <time>2011-11-27T10:24:03Z</time>
      </trkpt>
      <trkpt lat="45.76611" lon="4.81437">
        <ele>203</ele>
        <time>2011-11-27T10:24:05Z</time>
      </trkpt>
      <trkpt lat="45.76618" lon="4.8144">
        <ele>202</ele>
        <time>2011-11-27T10:24:08Z</time>
      </trkpt>
      <trkpt lat="45.76626" lon="4.81441">
        <ele>200</ele>
        <time>2011-11-27T10:24:11Z</time>
      </trkpt>
      <trkpt lat="45.7663" lon="4.81441">
        <ele>199</ele>
        <time>2011-11-27T10:24:13Z</time>
      </trkpt>
      <trkpt lat="45.76634" lon="4.81442">
        <ele>198</ele>
        <time>2011-11-27T10:24:15Z</time>
      </trkpt>
      <trkpt lat="45.76636" lon="4.81442">
        <ele>198</ele>
        <time>2011-11-27T10:24:18Z</time>
      </trkpt>
      <trkpt lat="45.76637" lon="4.81445">
        <ele>198</ele>
        <time>2011-11-27T10:24:20Z</time>
      </trkpt>
      <trkpt lat="45.76645" lon="4.81449">
        <ele>196</ele>
        <time>2011-11-27T10:24:23Z</time>
      </trkpt>
      <trkpt lat="45.76648" lon="4.8145">
        <ele>196</ele>
        <time>2011-11-27T10:24:24Z</time>
      </trkpt>
      <trkpt lat="45.76655" lon="4.81452">
        <ele>195</ele>
        <time>2011-11-27T10:24:29Z</time>
      </trkpt>
      <trkpt lat="45.76667" lon="4.81455">
        <ele>178</ele>
        <time>2011-11-27T10:24:34Z</time>
      </trkpt>
      <trkpt lat="45.76672" lon="4.81455">
        <ele>178</ele>
        <time>2011-11-27T10:24:36Z</time>
      </trkpt>
      <trkpt lat="45.76681" lon="4.81459">
        <ele>178</ele>
        <time>2011-11-27T10:24:41Z</time>
      </trkpt>
      <trkpt lat="45.76686" lon="4.81462">
        <ele>177</ele>
        <time>2011-11-27T10:24:44Z</time>
      </trkpt>
      <trkpt lat="45.76689" lon="4.81464">
        <ele>177</ele>
        <time>2011-11-27T10:24:46Z</time>
      </trkpt>
      <trkpt lat="45.76698" lon="4.81469">
        <ele>176</ele>
        <time>2011-11-27T10:24:51Z</time>
      </trkpt>
      <trkpt lat="45.76703" lon="4.81473">
        <ele>176</ele>
        <time>2011-11-27T10:24:55Z</time>
      </trkpt>
      <trkpt lat="45.76715" lon="4.81477">
        <ele>174</ele>
        <time>2011-11-27T10:25:02Z</time>
      </trkpt>
      <trkpt lat="45.76719" lon="4.81471">
        <ele>173</ele>
        <time>2011-11-27T10:25:04Z</time>
      </trkpt>
      <trkpt lat="45.76723" lon="4.81464">
        <ele>173</ele>
        <time>2011-11-27T10:25:06Z</time>
      </trkpt>
      <trkpt lat="45.76729" lon="4.8146">
        <ele>172</ele>
        <time>2011-11-27T10:25:09Z</time>
      </trkpt>
      <trkpt lat="45.76734" lon="4.81457">
        <ele>172</ele>
        <time>2011-11-27T10:25:11Z</time>
      </trkpt>
      <trkpt lat="45.76745" lon="4.81442">
        <ele>170</ele>
        <time>2011-11-27T10:25:16Z</time>
      </trkpt>
      <trkpt lat="45.76747" lon="4.81438">
        <ele>170</ele>
        <time>2011-11-27T10:25:17Z</time>
      </trkpt>
      <trkpt lat="45.76755" lon="4.81419">
        <ele>165</ele>
        <time>2011-11-27T10:25:23Z</time>
      </trkpt>
      <trkpt lat="45.76756" lon="4.81415">
        <ele>166</ele>
        <time>2011-11-27T10:25:24Z</time>
      </trkpt>
      <trkpt lat="45.76764" lon="4.81395">
        <ele>167</ele>
        <time>2011-11-27T10:25:30Z</time>
      </trkpt>
      <trkpt lat="45.76765" lon="4.81392">
        <ele>167</ele>
        <time>2011-11-27T10:25:31Z</time>
      </trkpt>
      <trkpt lat="45.76774" lon="4.81373">
        <ele>168</ele>
        <time>2011-11-27T10:25:37Z</time>
      </trkpt>
      <trkpt lat="45.76776" lon="4.8137">
        <ele>168</ele>
        <time>2011-11-27T10:25:38Z</time>
      </trkpt>
      <trkpt lat="45.76786" lon="4.81354">
        <ele>168</ele>
        <time>2011-11-27T10:25:44Z</time>
      </trkpt>
      <trkpt lat="45.7679" lon="4.81349">
        <ele>168</ele>
        <time>2011-11-27T10:25:46Z</time>
      </trkpt>
      <trkpt lat="45.76797" lon="4.81339">
        <ele>168</ele>
        <time>2011-11-27T10:25:50Z</time>
      </trkpt>
      <trkpt lat="45.76805" lon="4.81331">
        <ele>170</ele>
        <time>2011-11-27T10:25:54Z</time>
      </trkpt>
      <trkpt lat="45.76809" lon="4.81326">
        <ele>170</ele>
        <time>2011-11-27T10:25:56Z</time>
      </trkpt>
      <trkpt lat="45.7682" lon="4.81316">
        <ele>169</ele>
        <time>2011-11-27T10:26:01Z</time>
      </trkpt>
      <trkpt lat="45.76834" lon="4.81305">
        <ele>166</ele>
        <time>2011-11-27T10:26:07Z</time>
      </trkpt>
      <trkpt lat="45.76836" lon="4.81303">
        <ele>167</ele>
        <time>2011-11-27T10:26:08Z</time>
      </trkpt>
      <trkpt lat="45.76849" lon="4.81296">
        <ele>167</ele>
        <time>2011-11-27T10:26:13Z</time>
      </trkpt>
      <trkpt lat="45.76854" lon="4.81294">
        <ele>167</ele>
        <time>2011-11-27T10:26:15Z</time>
      </trkpt>
      <trkpt lat="45.76863" lon="4.8129">
        <ele>167</ele>
        <time>2011-11-27T10:26:19Z</time>
      </trkpt>
      <trkpt lat="45.76872" lon="4.81288">
        <ele>167</ele>
        <time>2011-11-27T10:26:23Z</time>
      </trkpt>
      <trkpt lat="45.76877" lon="4.81286">
        <ele>167</ele>
        <time>2011-11-27T10:26:25Z</time>
      </trkpt>
      <trkpt lat="45.76891" lon="4.81284">
        <ele>166</ele>
        <time>2011-11-27T10:26:31Z</time>
      </trkpt>
      <trkpt lat="45.76906" lon="4.8128">
        <ele>166</ele>
        <time>2011-11-27T10:26:37Z</time>
      </trkpt>
      <trkpt lat="45.76911" lon="4.81278">
        <ele>166</ele>
        <time>2011-11-27T10:26:39Z</time>
      </trkpt>
      <trkpt lat="45.76921" lon="4.81276">
        <ele>165</ele>
        <time>2011-11-27T10:26:43Z</time>
      </trkpt>
      <trkpt lat="45.76929" lon="4.81275">
        <ele>165</ele>
        <time>2011-11-27T10:26:46Z</time>
      </trkpt>
      <trkpt lat="45.76934" lon="4.81274">
        <ele>165</ele>
        <time>2011-11-27T10:26:48Z</time>
      </trkpt>
      <trkpt lat="45.76949" lon="4.81271">
        <ele>165</ele>
        <time>2011-11-27T10:26:54Z</time>
      </trkpt>
      <trkpt lat="45.76951" lon="4.81271">
        <ele>165</ele>
        <time>2011-11-27T10:26:55Z</time>
      </trkpt>
      <trkpt lat="45.76968" lon="4.81269">
        <ele>165</ele>
        <time>2011-11-27T10:27:02Z</time>
      </trkpt>
      <trkpt lat="45.76979" lon="4.81266">
        <ele>165</ele>
        <time>2011-11-27T10:27:07Z</time>
      </trkpt>
      <trkpt lat="45.76986" lon="4.81265">
        <ele>165</ele>
        <time>2011-11-27T10:27:10Z</time>
      </trkpt>
      <trkpt lat="45.76991" lon="4.81264">
        <ele>165</ele>
        <time>2011-11-27T10:27:12Z</time>
      </trkpt>
      <trkpt lat="45.77003" lon="4.81262">
        <ele>165</ele>
        <time>2011-11-27T10:27:17Z</time>
      </trkpt>
      <trkpt lat="45.77005" lon="4.81261">
        <ele>165</ele>
        <time>2011-11-27T10:27:18Z</time>
      </trkpt>
      <trkpt lat="45.77015" lon="4.81253">
        <ele>165</ele>
        <time>2011-11-27T10:27:22Z</time>
      </trkpt>
      <trkpt lat="45.77021" lon="4.81246">
        <ele>168</ele>
        <time>2011-11-27T10:27:25Z</time>
      </trkpt>
      <trkpt lat="45.77026" lon="4.81243">
        <ele>168</ele>
        <time>2011-11-27T10:27:27Z</time>
      </trkpt>
      <trkpt lat="45.7703" lon="4.81241">
        <ele>168</ele>
        <time>2011-11-27T10:27:29Z</time>
      </trkpt>
      <trkpt lat="45.77035" lon="4.81239">
        <ele>169</ele>
        <time>2011-11-27T10:27:31Z</time>
      </trkpt>
      <trkpt lat="45.7704" lon="4.81237">
        <ele>169</ele>
        <time>2011-11-27T10:27:33Z</time>
      </trkpt>
      <trkpt lat="45.77042" lon="4.81237">
        <ele>169</ele>
        <time>2011-11-27T10:27:34Z</time>
      </trkpt>
      <trkpt lat="45.77049" lon="4.81235">
        <ele>169</ele>
        <time>2011-11-27T10:27:37Z</time>
      </trkpt>
      <trkpt lat="45.77055" lon="4.8123">
        <ele>169</ele>
        <time>2011-11-27T10:27:41Z</time>
      </trkpt>
      <trkpt lat="45.77057" lon="4.81229">
        <ele>169</ele>
        <time>2011-11-27T10:27:42Z</time>
      </trkpt>
      <trkpt lat="45.77064" lon="4.81228">
        <ele>169</ele>
        <time>2011-11-27T10:27:45Z</time>
      </trkpt>
      <trkpt lat="45.7707" lon="4.81226">
        <ele>169</ele>
        <time>2011-11-27T10:27:47Z</time>
      </trkpt>
      <trkpt lat="45.77077" lon="4.81223">
        <ele>169</ele>
        <time>2011-11-27T10:27:50Z</time>
      </trkpt>
      <trkpt lat="45.77081" lon="4.81219">
        <ele>169</ele>
        <time>2011-11-27T10:27:52Z</time>
      </trkpt>
      <trkpt lat="45.7709" lon="4.8121">
        <ele>170</ele>
        <time>2011-11-27T10:27:56Z</time>
      </trkpt>
      <trkpt lat="45.77091" lon="4.81207">
        <ele>170</ele>
        <time>2011-11-27T10:27:57Z</time>
      </trkpt>
      <trkpt lat="45.77101" lon="4.81203">
        <ele>170</ele>
        <time>2011-11-27T10:28:01Z</time>
      </trkpt>
      <trkpt lat="45.77111" lon="4.812">
        <ele>170</ele>
        <time>2011-11-27T10:28:05Z</time>
      </trkpt>
      <trkpt lat="45.77113" lon="4.81199">
        <ele>170</ele>
        <time>2011-11-27T10:28:06Z</time>
      </trkpt>
      <trkpt lat="45.77116" lon="4.81199">
        <ele>170</ele>
        <time>2011-11-27T10:28:07Z</time>
      </trkpt>
      <trkpt lat="45.77124" lon="4.81197">
        <ele>170</ele>
        <time>2011-11-27T10:28:10Z</time>
      </trkpt>
      <trkpt lat="45.77125" lon="4.81196">
        <ele>170</ele>
        <time>2011-11-27T10:28:11Z</time>
      </trkpt>
      <trkpt lat="45.77128" lon="4.81194">
        <ele>171</ele>
        <time>2011-11-27T10:28:12Z</time>
      </trkpt>
      <trkpt lat="45.7713" lon="4.81195">
        <ele>170</ele>
        <time>2011-11-27T10:28:13Z</time>
      </trkpt>
      <trkpt lat="45.77135" lon="4.81195">
        <ele>170</ele>
        <time>2011-11-27T10:28:15Z</time>
      </trkpt>
      <trkpt lat="45.77144" lon="4.81189">
        <ele>171</ele>
        <time>2011-11-27T10:28:19Z</time>
      </trkpt>
      <trkpt lat="45.77146" lon="4.81188">
        <ele>171</ele>
        <time>2011-11-27T10:28:20Z</time>
      </trkpt>
      <trkpt lat="45.77149" lon="4.81186">
        <ele>171</ele>
        <time>2011-11-27T10:28:21Z</time>
      </trkpt>
      <trkpt lat="45.77157" lon="4.81183">
        <ele>172</ele>
        <time>2011-11-27T10:28:24Z</time>
      </trkpt>
      <trkpt lat="45.77167" lon="4.81179">
        <ele>172</ele>
        <time>2011-11-27T10:28:28Z</time>
      </trkpt>
      <trkpt lat="45.77171" lon="4.81176">
        <ele>172</ele>
        <time>2011-11-27T10:28:30Z</time>
      </trkpt>
      <trkpt lat="45.77182" lon="4.81166">
        <ele>173</ele>
        <time>2011-11-27T10:28:35Z</time>
      </trkpt>
      <trkpt lat="45.77184" lon="4.81164">
        <ele>173</ele>
        <time>2011-11-27T10:28:36Z</time>
      </trkpt>
      <trkpt lat="45.77193" lon="4.81156">
        <ele>173</ele>
        <time>2011-11-27T10:28:41Z</time>
      </trkpt>
      <trkpt lat="45.77202" lon="4.81151">
        <ele>173</ele>
        <time>2011-11-27T10:28:45Z</time>
      </trkpt>
      <trkpt lat="45.77206" lon="4.81146">
        <ele>173</ele>
        <time>2011-11-27T10:28:47Z</time>
      </trkpt>
      <trkpt lat="45.77219" lon="4.81135">
        <ele>172</ele>
        <time>2011-11-27T10:28:53Z</time>
      </trkpt>
      <trkpt lat="45.77231" lon="4.81125">
        <ele>172</ele>
        <time>2011-11-27T10:28:59Z</time>
      </trkpt>
      <trkpt lat="45.77236" lon="4.8112">
        <ele>172</ele>
        <time>2011-11-27T10:29:01Z</time>
      </trkpt>
      <trkpt lat="45.77242" lon="4.81113">
        <ele>172</ele>
        <time>2011-11-27T10:29:04Z</time>
      </trkpt>
      <trkpt lat="45.7725" lon="4.81104">
        <ele>169</ele>
        <time>2011-11-27T10:29:08Z</time>
      </trkpt>
      <trkpt lat="45.77256" lon="4.81097">
        <ele>170</ele>
        <time>2011-11-27T10:29:11Z</time>
      </trkpt>
      <trkpt lat="45.77266" lon="4.81087">
        <ele>169</ele>
        <time>2011-11-27T10:29:16Z</time>
      </trkpt>
      <trkpt lat="45.7728" lon="4.81072">
        <ele>173</ele>
        <time>2011-11-27T10:29:23Z</time>
      </trkpt>
      <trkpt lat="45.77282" lon="4.8107">
        <ele>173</ele>
        <time>2011-11-27T10:29:24Z</time>
      </trkpt>
      <trkpt lat="45.7729" lon="4.8106">
        <ele>173</ele>
        <time>2011-11-27T10:29:28Z</time>
      </trkpt>
      <trkpt lat="45.77295" lon="4.81051">
        <ele>174</ele>
        <time>2011-11-27T10:29:31Z</time>
      </trkpt>
      <trkpt lat="45.77302" lon="4.81042">
        <ele>174</ele>
        <time>2011-11-27T10:29:35Z</time>
      </trkpt>
      <trkpt lat="45.77309" lon="4.81034">
        <ele>174</ele>
        <time>2011-11-27T10:29:39Z</time>
      </trkpt>
      <trkpt lat="45.77313" lon="4.81029">
        <ele>174</ele>
        <time>2011-11-27T10:29:41Z</time>
      </trkpt>
      <trkpt lat="45.77325" lon="4.81017">
        <ele>174</ele>
        <time>2011-11-27T10:29:47Z</time>
      </trkpt>
      <trkpt lat="45.77336" lon="4.81006">
        <ele>172</ele>
        <time>2011-11-27T10:29:53Z</time>
      </trkpt>
      <trkpt lat="45.77336" lon="4.81003">
        <ele>173</ele>
        <time>2011-11-27T10:29:54Z</time>
      </trkpt>
      <trkpt lat="45.77338" lon="4.81">
        <ele>173</ele>
        <time>2011-11-27T10:29:55Z</time>
      </trkpt>
      <trkpt lat="45.77343" lon="4.80996">
        <ele>173</ele>
        <time>2011-11-27T10:29:57Z</time>
      </trkpt>
      <trkpt lat="45.77344" lon="4.80994">
        <ele>173</ele>
        <time>2011-11-27T10:29:58Z</time>
      </trkpt>
      <trkpt lat="45.77355" lon="4.80987">
        <ele>172</ele>
        <time>2011-11-27T10:30:03Z</time>
      </trkpt>
      <trkpt lat="45.77358" lon="4.80984">
        <ele>172</ele>
        <time>2011-11-27T10:30:04Z</time>
      </trkpt>
      <trkpt lat="45.7737" lon="4.8097">
        <ele>172</ele>
        <time>2011-11-27T10:30:10Z</time>
      </trkpt>
      <trkpt lat="45.77381" lon="4.80957">
        <ele>172</ele>
        <time>2011-11-27T10:30:16Z</time>
      </trkpt>
      <trkpt lat="45.77386" lon="4.80953">
        <ele>172</ele>
        <time>2011-11-27T10:30:18Z</time>
      </trkpt>
      <trkpt lat="45.77395" lon="4.80946">
        <ele>171</ele>
        <time>2011-11-27T10:30:22Z</time>
      </trkpt>
      <trkpt lat="45.77404" lon="4.8094">
        <ele>171</ele>
        <time>2011-11-27T10:30:26Z</time>
      </trkpt>
      <trkpt lat="45.77406" lon="4.80939">
        <ele>172</ele>
        <time>2011-11-27T10:30:27Z</time>
      </trkpt>
      <trkpt lat="45.77417" lon="4.80929">
        <ele>170</ele>
        <time>2011-11-27T10:30:33Z</time>
      </trkpt>
      <trkpt lat="45.7742" lon="4.80924">
        <ele>170</ele>
        <time>2011-11-27T10:30:35Z</time>
      </trkpt>
      <trkpt lat="45.77424" lon="4.80919">
        <ele>170</ele>
        <time>2011-11-27T10:30:38Z</time>
      </trkpt>
      <trkpt lat="45.77438" lon="4.80909">
        <ele>171</ele>
        <time>2011-11-27T10:30:43Z</time>
      </trkpt>
      <trkpt lat="45.7744" lon="4.80907">
        <ele>171</ele>
        <time>2011-11-27T10:30:44Z</time>
      </trkpt>
      <trkpt lat="45.77453" lon="4.80893">
        <ele>171</ele>
        <time>2011-11-27T10:30:50Z</time>
      </trkpt>
      <trkpt lat="45.77463" lon="4.80885">
        <ele>171</ele>
        <time>2011-11-27T10:30:55Z</time>
      </trkpt>
      <trkpt lat="45.7747" lon="4.80878">
        <ele>170</ele>
        <time>2011-11-27T10:31:00Z</time>
      </trkpt>
      <trkpt lat="45.77474" lon="4.8088">
        <ele>170</ele>
        <time>2011-11-27T10:31:05Z</time>
      </trkpt>
      <trkpt lat="45.77474" lon="4.80878">
        <ele>170</ele>
        <time>2011-11-27T10:31:07Z</time>
      </trkpt>
      <trkpt lat="45.77502" lon="4.80854">
        <ele>169</ele>
        <time>2011-11-27T10:31:25Z</time>
      </trkpt>
      <trkpt lat="45.77521" lon="4.80851">
        <ele>169</ele>
        <time>2011-11-27T10:31:27Z</time>
      </trkpt>
      <trkpt lat="45.77526" lon="4.80847">
        <ele>169</ele>
        <time>2011-11-27T10:31:30Z</time>
      </trkpt>
      <trkpt lat="45.77531" lon="4.80848">
        <ele>169</ele>
        <time>2011-11-27T10:31:32Z</time>
      </trkpt>
      <trkpt lat="45.77535" lon="4.80845">
        <ele>169</ele>
        <time>2011-11-27T10:31:34Z</time>
      </trkpt>
      <trkpt lat="45.77537" lon="4.80843">
        <ele>169</ele>
        <time>2011-11-27T10:31:35Z</time>
      </trkpt>
      <trkpt lat="45.77541" lon="4.80842">
        <ele>169</ele>
        <time>2011-11-27T10:31:37Z</time>
      </trkpt>
      <trkpt lat="45.77543" lon="4.80841">
        <ele>169</ele>
        <time>2011-11-27T10:31:38Z</time>
      </trkpt>
      <trkpt lat="45.77555" lon="4.80836">
        <ele>169</ele>
        <time>2011-11-27T10:31:44Z</time>
      </trkpt>
      <trkpt lat="45.77572" lon="4.8083">
        <ele>171</ele>
        <time>2011-11-27T10:31:52Z</time>
      </trkpt>
      <trkpt lat="45.77574" lon="4.80829">
        <ele>171</ele>
        <time>2011-11-27T10:31:53Z</time>
      </trkpt>
      <trkpt lat="45.77582" lon="4.80825">
        <ele>171</ele>
        <time>2011-11-27T10:31:57Z</time>
      </trkpt>
      <trkpt lat="45.77591" lon="4.80822">
        <ele>170</ele>
        <time>2011-11-27T10:32:02Z</time>
      </trkpt>
      <trkpt lat="45.77593" lon="4.80822">
        <ele>170</ele>
        <time>2011-11-27T10:32:03Z</time>
      </trkpt>
      <trkpt lat="45.77594" lon="4.80821">
        <ele>170</ele>
        <time>2011-11-27T10:32:04Z</time>
      </trkpt>
      <trkpt lat="45.77602" lon="4.80818">
        <ele>170</ele>
        <time>2011-11-27T10:32:09Z</time>
      </trkpt>
      <trkpt lat="45.77611" lon="4.80816">
        <ele>170</ele>
        <time>2011-11-27T10:32:14Z</time>
      </trkpt>
      <trkpt lat="45.77617" lon="4.80814">
        <ele>170</ele>
        <time>2011-11-27T10:32:17Z</time>
      </trkpt>
      <trkpt lat="45.77628" lon="4.80811">
        <ele>169</ele>
        <time>2011-11-27T10:32:22Z</time>
      </trkpt>
      <trkpt lat="45.77631" lon="4.8081">
        <ele>169</ele>
        <time>2011-11-27T10:32:23Z</time>
      </trkpt>
      <trkpt lat="45.77638" lon="4.80806">
        <ele>169</ele>
        <time>2011-11-27T10:32:27Z</time>
      </trkpt>
      <trkpt lat="45.77648" lon="4.808">
        <ele>169</ele>
        <time>2011-11-27T10:32:32Z</time>
      </trkpt>
      <trkpt lat="45.7765" lon="4.80799">
        <ele>169</ele>
        <time>2011-11-27T10:32:33Z</time>
      </trkpt>
      <trkpt lat="45.77658" lon="4.80793">
        <ele>169</ele>
        <time>2011-11-27T10:32:38Z</time>
      </trkpt>
      <trkpt lat="45.77667" lon="4.8079">
        <ele>168</ele>
        <time>2011-11-27T10:32:41Z</time>
      </trkpt>
      <trkpt lat="45.77674" lon="4.80789">
        <ele>168</ele>
        <time>2011-11-27T10:32:43Z</time>
      </trkpt>
      <trkpt lat="45.77688" lon="4.80785">
        <ele>168</ele>
        <time>2011-11-27T10:32:47Z</time>
      </trkpt>
      <trkpt lat="45.77691" lon="4.80784">
        <ele>168</ele>
        <time>2011-11-27T10:32:48Z</time>
      </trkpt>
      <trkpt lat="45.77704" lon="4.80785">
        <ele>168</ele>
        <time>2011-11-27T10:32:52Z</time>
      </trkpt>
      <trkpt lat="45.77709" lon="4.80784">
        <ele>168</ele>
        <time>2011-11-27T10:32:54Z</time>
      </trkpt>
      <trkpt lat="45.7772" lon="4.80786">
        <ele>168</ele>
        <time>2011-11-27T10:32:57Z</time>
      </trkpt>
      <trkpt lat="45.7773" lon="4.80787">
        <ele>168</ele>
        <time>2011-11-27T10:33:00Z</time>
      </trkpt>
      <trkpt lat="45.77737" lon="4.80787">
        <ele>168</ele>
        <time>2011-11-27T10:33:02Z</time>
      </trkpt>
      <trkpt lat="45.77742" lon="4.80788">
        <ele>168</ele>
        <time>2011-11-27T10:33:03Z</time>
      </trkpt>
      <trkpt lat="45.77749" lon="4.8079">
        <ele>168</ele>
        <time>2011-11-27T10:33:05Z</time>
      </trkpt>
      <trkpt lat="45.77755" lon="4.80791">
        <ele>169</ele>
        <time>2011-11-27T10:33:07Z</time>
      </trkpt>
      <trkpt lat="45.77757" lon="4.80793">
        <ele>169</ele>
        <time>2011-11-27T10:33:08Z</time>
      </trkpt>
      <trkpt lat="45.77768" lon="4.80797">
        <ele>169</ele>
        <time>2011-11-27T10:33:12Z</time>
      </trkpt>
      <trkpt lat="45.77784" lon="4.80802">
        <ele>169</ele>
        <time>2011-11-27T10:33:17Z</time>
      </trkpt>
      <trkpt lat="45.77787" lon="4.80803">
        <ele>169</ele>
        <time>2011-11-27T10:33:18Z</time>
      </trkpt>
      <trkpt lat="45.77792" lon="4.80803">
        <ele>169</ele>
        <time>2011-11-27T10:33:22Z</time>
      </trkpt>
      <trkpt lat="45.77804" lon="4.80805">
        <ele>169</ele>
        <time>2011-11-27T10:33:27Z</time>
      </trkpt>
      <trkpt lat="45.77807" lon="4.80806">
        <ele>169</ele>
        <time>2011-11-27T10:33:28Z</time>
      </trkpt>
      <trkpt lat="45.7781" lon="4.80806">
        <ele>169</ele>
        <time>2011-11-27T10:33:29Z</time>
      </trkpt>
      <trkpt lat="45.77821" lon="4.80808">
        <ele>168</ele>
        <time>2011-11-27T10:33:33Z</time>
      </trkpt>
      <trkpt lat="45.77826" lon="4.80809">
        <ele>168</ele>
        <time>2011-11-27T10:33:35Z</time>
      </trkpt>
      <trkpt lat="45.77835" lon="4.80811">
        <ele>169</ele>
        <time>2011-11-27T10:33:39Z</time>
      </trkpt>
      <trkpt lat="45.77843" lon="4.8081">
        <ele>170</ele>
        <time>2011-11-27T10:33:43Z</time>
      </trkpt>
      <trkpt lat="45.77846" lon="4.80807">
        <ele>170</ele>
        <time>2011-11-27T10:33:44Z</time>
      </trkpt>
      <trkpt lat="45.77857" lon="4.80807">
        <ele>171</ele>
        <time>2011-11-27T10:33:48Z</time>
      </trkpt>
      <trkpt lat="45.7786" lon="4.80809">
        <ele>171</ele>
        <time>2011-11-27T10:33:49Z</time>
      </trkpt>
      <trkpt lat="45.77863" lon="4.80811">
        <ele>171</ele>
        <time>2011-11-27T10:33:50Z</time>
      </trkpt>
      <trkpt lat="45.77876" lon="4.80818">
        <ele>172</ele>
        <time>2011-11-27T10:33:55Z</time>
      </trkpt>
      <trkpt lat="45.77881" lon="4.8082">
        <ele>172</ele>
        <time>2011-11-27T10:33:57Z</time>
      </trkpt>
      <trkpt lat="45.77886" lon="4.80824">
        <ele>172</ele>
        <time>2011-11-27T10:33:59Z</time>
      </trkpt>
      <trkpt lat="45.77899" lon="4.8083">
        <ele>173</ele>
        <time>2011-11-27T10:34:04Z</time>
      </trkpt>
      <trkpt lat="45.77915" lon="4.80838">
        <ele>173</ele>
        <time>2011-11-27T10:34:09Z</time>
      </trkpt>
      <trkpt lat="45.77917" lon="4.8084">
        <ele>174</ele>
        <time>2011-11-27T10:34:10Z</time>
      </trkpt>
      <trkpt lat="45.77925" lon="4.80846">
        <ele>173</ele>
        <time>2011-11-27T10:34:13Z</time>
      </trkpt>
      <trkpt lat="45.77936" lon="4.80854">
        <ele>173</ele>
        <time>2011-11-27T10:34:18Z</time>
      </trkpt>
      <trkpt lat="45.77944" lon="4.8086">
        <ele>173</ele>
        <time>2011-11-27T10:34:22Z</time>
      </trkpt>
      <trkpt lat="45.77954" lon="4.80869">
        <ele>173</ele>
        <time>2011-11-27T10:34:27Z</time>
      </trkpt>
      <trkpt lat="45.77967" lon="4.80878">
        <ele>173</ele>
        <time>2011-11-27T10:34:32Z</time>
      </trkpt>
      <trkpt lat="45.77972" lon="4.80883">
        <ele>173</ele>
        <time>2011-11-27T10:34:35Z</time>
      </trkpt>
      <trkpt lat="45.77977" lon="4.80888">
        <ele>173</ele>
        <time>2011-11-27T10:34:38Z</time>
      </trkpt>
      <trkpt lat="45.77981" lon="4.80891">
        <ele>173</ele>
        <time>2011-11-27T10:34:40Z</time>
      </trkpt>
      <trkpt lat="45.77986" lon="4.80893">
        <ele>174</ele>
        <time>2011-11-27T10:34:42Z</time>
      </trkpt>
      <trkpt lat="45.77988" lon="4.80894">
        <ele>174</ele>
        <time>2011-11-27T10:34:43Z</time>
      </trkpt>
      <trkpt lat="45.78001" lon="4.80899">
        <ele>174</ele>
        <time>2011-11-27T10:34:48Z</time>
      </trkpt>
      <trkpt lat="45.78007" lon="4.80903">
        <ele>174</ele>
        <time>2011-11-27T10:34:51Z</time>
      </trkpt>
      <trkpt lat="45.78014" lon="4.80908">
        <ele>174</ele>
        <time>2011-11-27T10:34:55Z</time>
      </trkpt>
      <trkpt lat="45.78024" lon="4.80916">
        <ele>174</ele>
        <time>2011-11-27T10:35:00Z</time>
      </trkpt>
      <trkpt lat="45.7804" lon="4.80926">
        <ele>170</ele>
        <time>2011-11-27T10:35:07Z</time>
      </trkpt>
      <trkpt lat="45.78057" lon="4.80939">
        <ele>169</ele>
        <time>2011-11-27T10:35:14Z</time>
      </trkpt>
      <trkpt lat="45.7807" lon="4.80946">
        <ele>169</ele>
        <time>2011-11-27T10:35:19Z</time>
      </trkpt>
      <trkpt lat="45.78075" lon="4.80949">
        <ele>169</ele>
        <time>2011-11-27T10:35:21Z</time>
      </trkpt>
      <trkpt lat="45.78085" lon="4.80957">
        <ele>167</ele>
        <time>2011-11-27T10:35:25Z</time>
      </trkpt>
      <trkpt lat="45.78093" lon="4.80962">
        <ele>167</ele>
        <time>2011-11-27T10:35:28Z</time>
      </trkpt>
      <trkpt lat="45.781" lon="4.80968">
        <ele>167</ele>
        <time>2011-11-27T10:35:31Z</time>
      </trkpt>
      <trkpt lat="45.78109" lon="4.80976">
        <ele>167</ele>
        <time>2011-11-27T10:35:35Z</time>
      </trkpt>
      <trkpt lat="45.78115" lon="4.80981">
        <ele>166</ele>
        <time>2011-11-27T10:35:38Z</time>
      </trkpt>
      <trkpt lat="45.78126" lon="4.8099">
        <ele>166</ele>
        <time>2011-11-27T10:35:43Z</time>
      </trkpt>
      <trkpt lat="45.78128" lon="4.80991">
        <ele>166</ele>
        <time>2011-11-27T10:35:44Z</time>
      </trkpt>
      <trkpt lat="45.78143" lon="4.81003">
        <ele>165</ele>
        <time>2011-11-27T10:35:51Z</time>
      </trkpt>
      <trkpt lat="45.78156" lon="4.81014">
        <ele>165</ele>
        <time>2011-11-27T10:35:57Z</time>
      </trkpt>
      <trkpt lat="45.7816" lon="4.81017">
        <ele>165</ele>
        <time>2011-11-27T10:35:59Z</time>
      </trkpt>
      <trkpt lat="45.78167" lon="4.81024">
        <ele>166</ele>
        <time>2011-11-27T10:36:03Z</time>
      </trkpt>
      <trkpt lat="45.78177" lon="4.81033">
        <ele>167</ele>
        <time>2011-11-27T10:36:08Z</time>
      </trkpt>
      <trkpt lat="45.78179" lon="4.81035">
        <ele>167</ele>
        <time>2011-11-27T10:36:09Z</time>
      </trkpt>
      <trkpt lat="45.78193" lon="4.81046">
        <ele>167</ele>
        <time>2011-11-27T10:36:15Z</time>
      </trkpt>
      <trkpt lat="45.78195" lon="4.81047">
        <ele>167</ele>
        <time>2011-11-27T10:36:16Z</time>
      </trkpt>
      <trkpt lat="45.78205" lon="4.81056">
        <ele>167</ele>
        <time>2011-11-27T10:36:21Z</time>
      </trkpt>
      <trkpt lat="45.78212" lon="4.81061">
        <ele>168</ele>
        <time>2011-11-27T10:36:24Z</time>
      </trkpt>
      <trkpt lat="45.78222" lon="4.81069">
        <ele>168</ele>
        <time>2011-11-27T10:36:29Z</time>
      </trkpt>
      <trkpt lat="45.78228" lon="4.81075">
        <ele>169</ele>
        <time>2011-11-27T10:36:32Z</time>
      </trkpt>
      <trkpt lat="45.78237" lon="4.81082">
        <ele>169</ele>
        <time>2011-11-27T10:36:36Z</time>
      </trkpt>
      <trkpt lat="45.78245" lon="4.81088">
        <ele>170</ele>
        <time>2011-11-27T10:36:40Z</time>
      </trkpt>
      <trkpt lat="45.78247" lon="4.8109">
        <ele>170</ele>
        <time>2011-11-27T10:36:41Z</time>
      </trkpt>
      <trkpt lat="45.78257" lon="4.81099">
        <ele>171</ele>
        <time>2011-11-27T10:36:46Z</time>
      </trkpt>
      <trkpt lat="45.78261" lon="4.81103">
        <ele>171</ele>
        <time>2011-11-27T10:36:48Z</time>
      </trkpt>
      <trkpt lat="45.78263" lon="4.81105">
        <ele>171</ele>
        <time>2011-11-27T10:36:49Z</time>
      </trkpt>
      <trkpt lat="45.78265" lon="4.81107">
        <ele>171</ele>
        <time>2011-11-27T10:36:50Z</time>
      </trkpt>
      <trkpt lat="45.7828" lon="4.81115">
        <ele>171</ele>
        <time>2011-11-27T10:36:55Z</time>
      </trkpt>
      <trkpt lat="45.78294" lon="4.81123">
        <ele>172</ele>
        <time>2011-11-27T10:36:59Z</time>
      </trkpt>
      <trkpt lat="45.78298" lon="4.81125">
        <ele>172</ele>
        <time>2011-11-27T10:37:00Z</time>
      </trkpt>
      <trkpt lat="45.78307" lon="4.81133">
        <ele>172</ele>
        <time>2011-11-27T10:37:05Z</time>
      </trkpt>
      <trkpt lat="45.78309" lon="4.81135">
        <ele>172</ele>
        <time>2011-11-27T10:37:06Z</time>
      </trkpt>
      <trkpt lat="45.78315" lon="4.8114">
        <ele>173</ele>
        <time>2011-11-27T10:37:08Z</time>
      </trkpt>
      <trkpt lat="45.78319" lon="4.81142">
        <ele>173</ele>
        <time>2011-11-27T10:37:09Z</time>
      </trkpt>
      <trkpt lat="45.78321" lon="4.81144">
        <ele>173</ele>
        <time>2011-11-27T10:37:10Z</time>
      </trkpt>
      <trkpt lat="45.7833" lon="4.81151">
        <ele>174</ele>
        <time>2011-11-27T10:37:13Z</time>
      </trkpt>
      <trkpt lat="45.78337" lon="4.81155">
        <ele>175</ele>
        <time>2011-11-27T10:37:15Z</time>
      </trkpt>
      <trkpt lat="45.78343" lon="4.81159">
        <ele>175</ele>
        <time>2011-11-27T10:37:17Z</time>
      </trkpt>
      <trkpt lat="45.78346" lon="4.81164">
        <ele>175</ele>
        <time>2011-11-27T10:37:19Z</time>
      </trkpt>
      <trkpt lat="45.78348" lon="4.81165">
        <ele>175</ele>
        <time>2011-11-27T10:37:20Z</time>
      </trkpt>
      <trkpt lat="45.78358" lon="4.81175">
        <ele>173</ele>
        <time>2011-11-27T10:37:24Z</time>
      </trkpt>
      <trkpt lat="45.78365" lon="4.8118">
        <ele>173</ele>
        <time>2011-11-27T10:37:27Z</time>
      </trkpt>
      <trkpt lat="45.78368" lon="4.81183">
        <ele>173</ele>
        <time>2011-11-27T10:37:29Z</time>
      </trkpt>
      <trkpt lat="45.78379" lon="4.81196">
        <ele>172</ele>
        <time>2011-11-27T10:37:35Z</time>
      </trkpt>
      <trkpt lat="45.78382" lon="4.81199">
        <ele>172</ele>
        <time>2011-11-27T10:37:37Z</time>
      </trkpt>
      <trkpt lat="45.78389" lon="4.81206">
        <ele>172</ele>
        <time>2011-11-27T10:37:41Z</time>
      </trkpt>
      <trkpt lat="45.78391" lon="4.81208">
        <ele>172</ele>
        <time>2011-11-27T10:37:42Z</time>
      </trkpt>
      <trkpt lat="45.78394" lon="4.8121">
        <ele>172</ele>
        <time>2011-11-27T10:37:43Z</time>
      </trkpt>
      <trkpt lat="45.78403" lon="4.81219">
        <ele>172</ele>
        <time>2011-11-27T10:37:47Z</time>
      </trkpt>
      <trkpt lat="45.78411" lon="4.81221">
        <ele>172</ele>
        <time>2011-11-27T10:37:50Z</time>
      </trkpt>
      <trkpt lat="45.78423" lon="4.81229">
        <ele>172</ele>
        <time>2011-11-27T10:37:54Z</time>
      </trkpt>
      <trkpt lat="45.78425" lon="4.81231">
        <ele>172</ele>
        <time>2011-11-27T10:37:55Z</time>
      </trkpt>
      <trkpt lat="45.78427" lon="4.81234">
        <ele>172</ele>
        <time>2011-11-27T10:37:56Z</time>
      </trkpt>
      <trkpt lat="45.78433" lon="4.81238">
        <ele>172</ele>
        <time>2011-11-27T10:37:58Z</time>
      </trkpt>
      <trkpt lat="45.78445" lon="4.81247">
        <ele>172</ele>
        <time>2011-11-27T10:38:03Z</time>
      </trkpt>
      <trkpt lat="45.78447" lon="4.81249">
        <ele>172</ele>
        <time>2011-11-27T10:38:04Z</time>
      </trkpt>
      <trkpt lat="45.78458" lon="4.81258">
        <ele>169</ele>
        <time>2011-11-27T10:38:09Z</time>
      </trkpt>
      <trkpt lat="45.78462" lon="4.81262">
        <ele>169</ele>
        <time>2011-11-27T10:38:11Z</time>
      </trkpt>
      <trkpt lat="45.7847" lon="4.81269">
        <ele>169</ele>
        <time>2011-11-27T10:38:15Z</time>
      </trkpt>
      <trkpt lat="45.78478" lon="4.81276">
        <ele>169</ele>
        <time>2011-11-27T10:38:18Z</time>
      </trkpt>
      <trkpt lat="45.78483" lon="4.8128">
        <ele>169</ele>
        <time>2011-11-27T10:38:20Z</time>
      </trkpt>
      <trkpt lat="45.78495" lon="4.81289">
        <ele>168</ele>
        <time>2011-11-27T10:38:25Z</time>
      </trkpt>
      <trkpt lat="45.78499" lon="4.81293">
        <ele>168</ele>
        <time>2011-11-27T10:38:27Z</time>
      </trkpt>
      <trkpt lat="45.78512" lon="4.81305">
        <ele>167</ele>
        <time>2011-11-27T10:38:34Z</time>
      </trkpt>
      <trkpt lat="45.78516" lon="4.81306">
        <ele>167</ele>
        <time>2011-11-27T10:38:39Z</time>
      </trkpt>
      <trkpt lat="45.78521" lon="4.8131">
        <ele>167</ele>
        <time>2011-11-27T10:38:47Z</time>
      </trkpt>
      <trkpt lat="45.78528" lon="4.81317">
        <ele>167</ele>
        <time>2011-11-27T10:38:51Z</time>
      </trkpt>
      <trkpt lat="45.78533" lon="4.81321">
        <ele>167</ele>
        <time>2011-11-27T10:38:53Z</time>
      </trkpt>
      <trkpt lat="45.78547" lon="4.8133">
        <ele>168</ele>
        <time>2011-11-27T10:38:58Z</time>
      </trkpt>
      <trkpt lat="45.78548" lon="4.81333">
        <ele>168</ele>
        <time>2011-11-27T10:38:59Z</time>
      </trkpt>
      <trkpt lat="45.78559" lon="4.81341">
        <ele>166</ele>
        <time>2011-11-27T10:39:03Z</time>
      </trkpt>
      <trkpt lat="45.78563" lon="4.81344">
        <ele>167</ele>
        <time>2011-11-27T10:39:05Z</time>
      </trkpt>
      <trkpt lat="45.78571" lon="4.8135">
        <ele>167</ele>
        <time>2011-11-27T10:39:08Z</time>
      </trkpt>
      <trkpt lat="45.78586" lon="4.8136">
        <ele>168</ele>
        <time>2011-11-27T10:39:12Z</time>
      </trkpt>
      <trkpt lat="45.78586" lon="4.8136">
        <ele>168</ele>
        <time>2011-11-27T10:39:13Z</time>
      </trkpt>
      <trkpt lat="45.78603" lon="4.81368">
        <ele>168</ele>
        <time>2011-11-27T10:39:19Z</time>
      </trkpt>
      <trkpt lat="45.78605" lon="4.81369">
        <ele>168</ele>
        <time>2011-11-27T10:39:20Z</time>
      </trkpt>
      <trkpt lat="45.7862" lon="4.81379">
        <ele>168</ele>
        <time>2011-11-27T10:39:27Z</time>
      </trkpt>
      <trkpt lat="45.78631" lon="4.81388">
        <ele>168</ele>
        <time>2011-11-27T10:39:32Z</time>
      </trkpt>
      <trkpt lat="45.78637" lon="4.81391">
        <ele>168</ele>
        <time>2011-11-27T10:39:35Z</time>
      </trkpt>
      <trkpt lat="45.78642" lon="4.81395">
        <ele>169</ele>
        <time>2011-11-27T10:39:38Z</time>
      </trkpt>
      <trkpt lat="45.78654" lon="4.81403">
        <ele>169</ele>
        <time>2011-11-27T10:39:44Z</time>
      </trkpt>
      <trkpt lat="45.78671" lon="4.81413">
        <ele>171</ele>
        <time>2011-11-27T10:39:50Z</time>
      </trkpt>
      <trkpt lat="45.78677" lon="4.81416">
        <ele>171</ele>
        <time>2011-11-27T10:39:52Z</time>
      </trkpt>
      <trkpt lat="45.78685" lon="4.81422">
        <ele>170</ele>
        <time>2011-11-27T10:39:56Z</time>
      </trkpt>
      <trkpt lat="45.78693" lon="4.81428">
        <ele>170</ele>
        <time>2011-11-27T10:40:00Z</time>
      </trkpt>
      <trkpt lat="45.78697" lon="4.81431">
        <ele>170</ele>
        <time>2011-11-27T10:40:03Z</time>
      </trkpt>
      <trkpt lat="45.78711" lon="4.8144">
        <ele>170</ele>
        <time>2011-11-27T10:40:08Z</time>
      </trkpt>
      <trkpt lat="45.78711" lon="4.8144">
        <ele>170</ele>
        <time>2011-11-27T10:40:09Z</time>
      </trkpt>
      <trkpt lat="45.7872" lon="4.81447">
        <ele>171</ele>
        <time>2011-11-27T10:40:13Z</time>
      </trkpt>
      <trkpt lat="45.78728" lon="4.81455">
        <ele>171</ele>
        <time>2011-11-27T10:40:18Z</time>
      </trkpt>
      <trkpt lat="45.78731" lon="4.81457">
        <ele>171</ele>
        <time>2011-11-27T10:40:19Z</time>
      </trkpt>
      <trkpt lat="45.78731" lon="4.81457">
        <ele>171</ele>
        <time>2011-11-27T10:40:20Z</time>
      </trkpt>
      <trkpt lat="45.78745" lon="4.81464">
        <ele>171</ele>
        <time>2011-11-27T10:40:24Z</time>
      </trkpt>
      <trkpt lat="45.78747" lon="4.81467">
        <ele>171</ele>
        <time>2011-11-27T10:40:25Z</time>
      </trkpt>
      <trkpt lat="45.78749" lon="4.81469">
        <ele>171</ele>
        <time>2011-11-27T10:40:26Z</time>
      </trkpt>
      <trkpt lat="45.78762" lon="4.8148">
        <ele>173</ele>
        <time>2011-11-27T10:40:33Z</time>
      </trkpt>
      <trkpt lat="45.78775" lon="4.8149">
        <ele>173</ele>
        <time>2011-11-27T10:40:38Z</time>
      </trkpt>
      <trkpt lat="45.78782" lon="4.81496">
        <ele>173</ele>
        <time>2011-11-27T10:40:40Z</time>
      </trkpt>
      <trkpt lat="45.78786" lon="4.81502">
        <ele>172</ele>
        <time>2011-11-27T10:40:43Z</time>
      </trkpt>
      <trkpt lat="45.78797" lon="4.81512">
        <ele>171</ele>
        <time>2011-11-27T10:40:48Z</time>
      </trkpt>
      <trkpt lat="45.78798" lon="4.81514">
        <ele>171</ele>
        <time>2011-11-27T10:40:49Z</time>
      </trkpt>
      <trkpt lat="45.78805" lon="4.8152">
        <ele>171</ele>
        <time>2011-11-27T10:40:52Z</time>
      </trkpt>
      <trkpt lat="45.78812" lon="4.81528">
        <ele>171</ele>
        <time>2011-11-27T10:40:57Z</time>
      </trkpt>
      <trkpt lat="45.78815" lon="4.81532">
        <ele>171</ele>
        <time>2011-11-27T10:40:58Z</time>
      </trkpt>
      <trkpt lat="45.78829" lon="4.81539">
        <ele>172</ele>
        <time>2011-11-27T10:41:03Z</time>
      </trkpt>
      <trkpt lat="45.78835" lon="4.81544">
        <ele>172</ele>
        <time>2011-11-27T10:41:04Z</time>
      </trkpt>
      <trkpt lat="45.78842" lon="4.81551">
        <ele>172</ele>
        <time>2011-11-27T10:41:07Z</time>
      </trkpt>
      <trkpt lat="45.78844" lon="4.81553">
        <ele>172</ele>
        <time>2011-11-27T10:41:08Z</time>
      </trkpt>
      <trkpt lat="45.78848" lon="4.81557">
        <ele>172</ele>
        <time>2011-11-27T10:41:10Z</time>
      </trkpt>
      <trkpt lat="45.78853" lon="4.8156">
        <ele>172</ele>
        <time>2011-11-27T10:41:12Z</time>
      </trkpt>
      <trkpt lat="45.78863" lon="4.81569">
        <ele>172</ele>
        <time>2011-11-27T10:41:16Z</time>
      </trkpt>
      <trkpt lat="45.78864" lon="4.81571">
        <ele>172</ele>
        <time>2011-11-27T10:41:17Z</time>
      </trkpt>
      <trkpt lat="45.7887" lon="4.81575">
        <ele>172</ele>
        <time>2011-11-27T10:41:19Z</time>
      </trkpt>
      <trkpt lat="45.78871" lon="4.81577">
        <ele>171</ele>
        <time>2011-11-27T10:41:20Z</time>
      </trkpt>
      <trkpt lat="45.7888" lon="4.81589">
        <ele>170</ele>
        <time>2011-11-27T10:41:25Z</time>
      </trkpt>
      <trkpt lat="45.78882" lon="4.81592">
        <ele>170</ele>
        <time>2011-11-27T10:41:26Z</time>
      </trkpt>
      <trkpt lat="45.78892" lon="4.81606">
        <ele>170</ele>
        <time>2011-11-27T10:41:32Z</time>
      </trkpt>
      <trkpt lat="45.78894" lon="4.81608">
        <ele>170</ele>
        <time>2011-11-27T10:41:33Z</time>
      </trkpt>
      <trkpt lat="45.78904" lon="4.81621">
        <ele>170</ele>
        <time>2011-11-27T10:41:38Z</time>
      </trkpt>
      <trkpt lat="45.78909" lon="4.81626">
        <ele>170</ele>
        <time>2011-11-27T10:41:40Z</time>
      </trkpt>
      <trkpt lat="45.78917" lon="4.81637">
        <ele>170</ele>
        <time>2011-11-27T10:41:44Z</time>
      </trkpt>
      <trkpt lat="45.78925" lon="4.81643">
        <ele>170</ele>
        <time>2011-11-27T10:41:47Z</time>
      </trkpt>
      <trkpt lat="45.78928" lon="4.81649">
        <ele>170</ele>
        <time>2011-11-27T10:41:49Z</time>
      </trkpt>
      <trkpt lat="45.78938" lon="4.81664">
        <ele>170</ele>
        <time>2011-11-27T10:41:55Z</time>
      </trkpt>
      <trkpt lat="45.78945" lon="4.81674">
        <ele>169</ele>
        <time>2011-11-27T10:42:00Z</time>
      </trkpt>
      <trkpt lat="45.7895" lon="4.81685">
        <ele>169</ele>
        <time>2011-11-27T10:42:04Z</time>
      </trkpt>
      <trkpt lat="45.78952" lon="4.8169">
        <ele>169</ele>
        <time>2011-11-27T10:42:06Z</time>
      </trkpt>
      <trkpt lat="45.78964" lon="4.81704">
        <ele>168</ele>
        <time>2011-11-27T10:42:11Z</time>
      </trkpt>
      <trkpt lat="45.78966" lon="4.81707">
        <ele>168</ele>
        <time>2011-11-27T10:42:12Z</time>
      </trkpt>
      <trkpt lat="45.78969" lon="4.81717">
        <ele>168</ele>
        <time>2011-11-27T10:42:16Z</time>
      </trkpt>
      <trkpt lat="45.78976" lon="4.81726">
        <ele>168</ele>
        <time>2011-11-27T10:42:19Z</time>
      </trkpt>
      <trkpt lat="45.78978" lon="4.81729">
        <ele>168</ele>
        <time>2011-11-27T10:42:20Z</time>
      </trkpt>
      <trkpt lat="45.78978" lon="4.81729">
        <ele>168</ele>
        <time>2011-11-27T10:42:21Z</time>
      </trkpt>
      <trkpt lat="45.78984" lon="4.81738">
        <ele>168</ele>
        <time>2011-11-27T10:42:23Z</time>
      </trkpt>
      <trkpt lat="45.78986" lon="4.81745">
        <ele>169</ele>
        <time>2011-11-27T10:42:25Z</time>
      </trkpt>
      <trkpt lat="45.78988" lon="4.81747">
        <ele>169</ele>
        <time>2011-11-27T10:42:26Z</time>
      </trkpt>
      <trkpt lat="45.78988" lon="4.81747">
        <ele>169</ele>
        <time>2011-11-27T10:42:27Z</time>
      </trkpt>
      <trkpt lat="45.78991" lon="4.81753">
        <ele>168</ele>
        <time>2011-11-27T10:42:28Z</time>
      </trkpt>
      <trkpt lat="45.78994" lon="4.81758">
        <ele>168</ele>
        <time>2011-11-27T10:42:30Z</time>
      </trkpt>
      <trkpt lat="45.78997" lon="4.81763">
        <ele>168</ele>
        <time>2011-11-27T10:42:33Z</time>
      </trkpt>
      <trkpt lat="45.79" lon="4.81769">
        <ele>167</ele>
        <time>2011-11-27T10:42:34Z</time>
      </trkpt>
      <trkpt lat="45.79009" lon="4.81786">
        <ele>168</ele>
        <time>2011-11-27T10:42:40Z</time>
      </trkpt>
      <trkpt lat="45.79015" lon="4.81792">
        <ele>167</ele>
        <time>2011-11-27T10:42:42Z</time>
      </trkpt>
      <trkpt lat="45.79021" lon="4.81802">
        <ele>167</ele>
        <time>2011-11-27T10:42:46Z</time>
      </trkpt>
      <trkpt lat="45.79031" lon="4.81809">
        <ele>167</ele>
        <time>2011-11-27T10:42:49Z</time>
      </trkpt>
      <trkpt lat="45.79034" lon="4.81815">
        <ele>167</ele>
        <time>2011-11-27T10:42:51Z</time>
      </trkpt>
      <trkpt lat="45.79036" lon="4.81818">
        <ele>167</ele>
        <time>2011-11-27T10:42:52Z</time>
      </trkpt>
      <trkpt lat="45.79041" lon="4.81826">
        <ele>167</ele>
        <time>2011-11-27T10:42:55Z</time>
      </trkpt>
      <trkpt lat="45.79042" lon="4.81829">
        <ele>167</ele>
        <time>2011-11-27T10:42:56Z</time>
      </trkpt>
      <trkpt lat="45.79043" lon="4.81832">
        <ele>167</ele>
        <time>2011-11-27T10:42:57Z</time>
      </trkpt>
      <trkpt lat="45.79048" lon="4.81842">
        <ele>166</ele>
        <time>2011-11-27T10:43:01Z</time>
      </trkpt>
      <trkpt lat="45.79055" lon="4.81852">
        <ele>166</ele>
        <time>2011-11-27T10:43:05Z</time>
      </trkpt>
      <trkpt lat="45.79059" lon="4.81857">
        <ele>166</ele>
        <time>2011-11-27T10:43:07Z</time>
      </trkpt>
      <trkpt lat="45.79064" lon="4.81864">
        <ele>166</ele>
        <time>2011-11-27T10:43:10Z</time>
      </trkpt>
      <trkpt lat="45.79065" lon="4.81866">
        <ele>166</ele>
        <time>2011-11-27T10:43:11Z</time>
      </trkpt>
      <trkpt lat="45.7907" lon="4.81872">
        <ele>166</ele>
        <time>2011-11-27T10:43:13Z</time>
      </trkpt>
      <trkpt lat="45.79079" lon="4.81879">
        <ele>166</ele>
        <time>2011-11-27T10:43:16Z</time>
      </trkpt>
      <trkpt lat="45.79088" lon="4.81885">
        <ele>168</ele>
        <time>2011-11-27T10:43:19Z</time>
      </trkpt>
      <trkpt lat="45.79091" lon="4.81887">
        <ele>168</ele>
        <time>2011-11-27T10:43:20Z</time>
      </trkpt>
      <trkpt lat="45.79091" lon="4.81887">
        <ele>168</ele>
        <time>2011-11-27T10:43:21Z</time>
      </trkpt>
      <trkpt lat="45.79103" lon="4.81899">
        <ele>168</ele>
        <time>2011-11-27T10:43:25Z</time>
      </trkpt>
      <trkpt lat="45.79106" lon="4.81902">
        <ele>168</ele>
        <time>2011-11-27T10:43:26Z</time>
      </trkpt>
      <trkpt lat="45.79114" lon="4.81912">
        <ele>168</ele>
        <time>2011-11-27T10:43:30Z</time>
      </trkpt>
      <trkpt lat="45.79122" lon="4.8192">
        <ele>167</ele>
        <time>2011-11-27T10:43:33Z</time>
      </trkpt>
      <trkpt lat="45.79128" lon="4.81924">
        <ele>167</ele>
        <time>2011-11-27T10:43:35Z</time>
      </trkpt>
      <trkpt lat="45.79134" lon="4.81934">
        <ele>167</ele>
        <time>2011-11-27T10:43:39Z</time>
      </trkpt>
      <trkpt lat="45.79135" lon="4.81937">
        <ele>167</ele>
        <time>2011-11-27T10:43:40Z</time>
      </trkpt>
      <trkpt lat="45.79137" lon="4.81939">
        <ele>167</ele>
        <time>2011-11-27T10:43:41Z</time>
      </trkpt>
      <trkpt lat="45.79143" lon="4.81949">
        <ele>167</ele>
        <time>2011-11-27T10:43:45Z</time>
      </trkpt>
      <trkpt lat="45.79148" lon="4.81955">
        <ele>167</ele>
        <time>2011-11-27T10:43:48Z</time>
      </trkpt>
      <trkpt lat="45.79151" lon="4.81958">
        <ele>167</ele>
        <time>2011-11-27T10:43:49Z</time>
      </trkpt>
      <trkpt lat="45.79155" lon="4.8196">
        <ele>167</ele>
        <time>2011-11-27T10:43:51Z</time>
      </trkpt>
      <trkpt lat="45.79166" lon="4.81974">
        <ele>166</ele>
        <time>2011-11-27T10:43:56Z</time>
      </trkpt>
      <trkpt lat="45.79177" lon="4.81991">
        <ele>167</ele>
        <time>2011-11-27T10:44:03Z</time>
      </trkpt>
      <trkpt lat="45.79179" lon="4.81993">
        <ele>167</ele>
        <time>2011-11-27T10:44:04Z</time>
      </trkpt>
      <trkpt lat="45.79184" lon="4.82002">
        <ele>166</ele>
        <time>2011-11-27T10:44:08Z</time>
      </trkpt>
      <trkpt lat="45.79192" lon="4.82012">
        <ele>166</ele>
        <time>2011-11-27T10:44:13Z</time>
      </trkpt>
      <trkpt lat="45.79206" lon="4.82029">
        <ele>167</ele>
        <time>2011-11-27T10:44:20Z</time>
      </trkpt>
      <trkpt lat="45.79207" lon="4.82031">
        <ele>167</ele>
        <time>2011-11-27T10:44:21Z</time>
      </trkpt>
      <trkpt lat="45.79214" lon="4.8204">
        <ele>167</ele>
        <time>2011-11-27T10:44:25Z</time>
      </trkpt>
      <trkpt lat="45.79222" lon="4.82049">
        <ele>167</ele>
        <time>2011-11-27T10:44:29Z</time>
      </trkpt>
      <trkpt lat="45.79227" lon="4.82053">
        <ele>166</ele>
        <time>2011-11-27T10:44:31Z</time>
      </trkpt>
      <trkpt lat="45.79235" lon="4.82062">
        <ele>166</ele>
        <time>2011-11-27T10:44:35Z</time>
      </trkpt>
      <trkpt lat="45.79238" lon="4.82065">
        <ele>166</ele>
        <time>2011-11-27T10:44:36Z</time>
      </trkpt>
      <trkpt lat="45.79246" lon="4.82074">
        <ele>166</ele>
        <time>2011-11-27T10:44:40Z</time>
      </trkpt>
      <trkpt lat="45.79252" lon="4.82083">
        <ele>166</ele>
        <time>2011-11-27T10:44:44Z</time>
      </trkpt>
      <trkpt lat="45.79262" lon="4.82098">
        <ele>167</ele>
        <time>2011-11-27T10:44:50Z</time>
      </trkpt>
      <trkpt lat="45.79266" lon="4.82103">
        <ele>167</ele>
        <time>2011-11-27T10:44:52Z</time>
      </trkpt>
      <trkpt lat="45.79272" lon="4.8211">
        <ele>167</ele>
        <time>2011-11-27T10:44:55Z</time>
      </trkpt>
      <trkpt lat="45.79277" lon="4.82121">
        <ele>168</ele>
        <time>2011-11-27T10:45:00Z</time>
      </trkpt>
      <trkpt lat="45.79279" lon="4.82123">
        <ele>168</ele>
        <time>2011-11-27T10:45:01Z</time>
      </trkpt>
      <trkpt lat="45.79285" lon="4.82132">
        <ele>168</ele>
        <time>2011-11-27T10:45:05Z</time>
      </trkpt>
      <trkpt lat="45.79286" lon="4.82134">
        <ele>168</ele>
        <time>2011-11-27T10:45:06Z</time>
      </trkpt>
      <trkpt lat="45.7929" lon="4.8214">
        <ele>168</ele>
        <time>2011-11-27T10:45:09Z</time>
      </trkpt>
      <trkpt lat="45.79293" lon="4.82144">
        <ele>168</ele>
        <time>2011-11-27T10:45:11Z</time>
      </trkpt>
      <trkpt lat="45.793" lon="4.82151">
        <ele>168</ele>
        <time>2011-11-27T10:45:14Z</time>
      </trkpt>
      <trkpt lat="45.79309" lon="4.82159">
        <ele>169</ele>
        <time>2011-11-27T10:45:17Z</time>
      </trkpt>
      <trkpt lat="45.79317" lon="4.82166">
        <ele>169</ele>
        <time>2011-11-27T10:45:20Z</time>
      </trkpt>
      <trkpt lat="45.79323" lon="4.82176">
        <ele>168</ele>
        <time>2011-11-27T10:45:24Z</time>
      </trkpt>
      <trkpt lat="45.79325" lon="4.82179">
        <ele>168</ele>
        <time>2011-11-27T10:45:25Z</time>
      </trkpt>
      <trkpt lat="45.79332" lon="4.8219">
        <ele>168</ele>
        <time>2011-11-27T10:45:30Z</time>
      </trkpt>
      <trkpt lat="45.79336" lon="4.82195">
        <ele>170</ele>
        <time>2011-11-27T10:45:32Z</time>
      </trkpt>
      <trkpt lat="45.79341" lon="4.82202">
        <ele>170</ele>
        <time>2011-11-27T10:45:35Z</time>
      </trkpt>
      <trkpt lat="45.79349" lon="4.82214">
        <ele>170</ele>
        <time>2011-11-27T10:45:40Z</time>
      </trkpt>
      <trkpt lat="45.79351" lon="4.82217">
        <ele>170</ele>
        <time>2011-11-27T10:45:41Z</time>
      </trkpt>
      <trkpt lat="45.7936" lon="4.82232">
        <ele>170</ele>
        <time>2011-11-27T10:45:46Z</time>
      </trkpt>
      <trkpt lat="45.79362" lon="4.82235">
        <ele>170</ele>
        <time>2011-11-27T10:45:47Z</time>
      </trkpt>
      <trkpt lat="45.7937" lon="4.82249">
        <ele>171</ele>
        <time>2011-11-27T10:45:52Z</time>
      </trkpt>
      <trkpt lat="45.79374" lon="4.82255">
        <ele>168</ele>
        <time>2011-11-27T10:45:54Z</time>
      </trkpt>
      <trkpt lat="45.79382" lon="4.82266">
        <ele>169</ele>
        <time>2011-11-27T10:45:58Z</time>
      </trkpt>
      <trkpt lat="45.79387" lon="4.82277">
        <ele>169</ele>
        <time>2011-11-27T10:46:02Z</time>
      </trkpt>
      <trkpt lat="45.79388" lon="4.8228">
        <ele>168</ele>
        <time>2011-11-27T10:46:03Z</time>
      </trkpt>
      <trkpt lat="45.79391" lon="4.82286">
        <ele>168</ele>
        <time>2011-11-27T10:46:05Z</time>
      </trkpt>
      <trkpt lat="45.79393" lon="4.82293">
        <ele>168</ele>
        <time>2011-11-27T10:46:07Z</time>
      </trkpt>
      <trkpt lat="45.79399" lon="4.82301">
        <ele>168</ele>
        <time>2011-11-27T10:46:10Z</time>
      </trkpt>
      <trkpt lat="45.79402" lon="4.82307">
        <ele>167</ele>
        <time>2011-11-27T10:46:12Z</time>
      </trkpt>
      <trkpt lat="45.79408" lon="4.82319">
        <ele>166</ele>
        <time>2011-11-27T10:46:16Z</time>
      </trkpt>
      <trkpt lat="45.7941" lon="4.82322">
        <ele>166</ele>
        <time>2011-11-27T10:46:17Z</time>
      </trkpt>
      <trkpt lat="45.79412" lon="4.82324">
        <ele>166</ele>
        <time>2011-11-27T10:46:18Z</time>
      </trkpt>
      <trkpt lat="45.79417" lon="4.82333">
        <ele>165</ele>
        <time>2011-11-27T10:46:21Z</time>
      </trkpt>
      <trkpt lat="45.79423" lon="4.82347">
        <ele>166</ele>
        <time>2011-11-27T10:46:26Z</time>
      </trkpt>
      <trkpt lat="45.79432" lon="4.82363">
        <ele>167</ele>
        <time>2011-11-27T10:46:32Z</time>
      </trkpt>
      <trkpt lat="45.79435" lon="4.82368">
        <ele>167</ele>
        <time>2011-11-27T10:46:34Z</time>
      </trkpt>
      <trkpt lat="45.7944" lon="4.82376">
        <ele>167</ele>
        <time>2011-11-27T10:46:37Z</time>
      </trkpt>
      <trkpt lat="45.79446" lon="4.82389">
        <ele>167</ele>
        <time>2011-11-27T10:46:41Z</time>
      </trkpt>
      <trkpt lat="45.7945" lon="4.82395">
        <ele>168</ele>
        <time>2011-11-27T10:46:43Z</time>
      </trkpt>
      <trkpt lat="45.79458" lon="4.82409">
        <ele>168</ele>
        <time>2011-11-27T10:46:48Z</time>
      </trkpt>
      <trkpt lat="45.79462" lon="4.82416">
        <ele>168</ele>
        <time>2011-11-27T10:46:50Z</time>
      </trkpt>
      <trkpt lat="45.79469" lon="4.8243">
        <ele>167</ele>
        <time>2011-11-27T10:46:55Z</time>
      </trkpt>
      <trkpt lat="45.7948" lon="4.82449">
        <ele>167</ele>
        <time>2011-11-27T10:47:01Z</time>
      </trkpt>
      <trkpt lat="45.79482" lon="4.82452">
        <ele>167</ele>
        <time>2011-11-27T10:47:02Z</time>
      </trkpt>
      <trkpt lat="45.79489" lon="4.82464">
        <ele>166</ele>
        <time>2011-11-27T10:47:06Z</time>
      </trkpt>
      <trkpt lat="45.79494" lon="4.82475">
        <ele>166</ele>
        <time>2011-11-27T10:47:10Z</time>
      </trkpt>
      <trkpt lat="45.79504" lon="4.82489">
        <ele>167</ele>
        <time>2011-11-27T10:47:15Z</time>
      </trkpt>
      <trkpt lat="45.79507" lon="4.82495">
        <ele>167</ele>
        <time>2011-11-27T10:47:17Z</time>
      </trkpt>
      <trkpt lat="45.79514" lon="4.82506">
        <ele>167</ele>
        <time>2011-11-27T10:47:21Z</time>
      </trkpt>
      <trkpt lat="45.7952" lon="4.82518">
        <ele>167</ele>
        <time>2011-11-27T10:47:25Z</time>
      </trkpt>
      <trkpt lat="45.79523" lon="4.82523">
        <ele>167</ele>
        <time>2011-11-27T10:47:27Z</time>
      </trkpt>
      <trkpt lat="45.79526" lon="4.8253">
        <ele>168</ele>
        <time>2011-11-27T10:47:29Z</time>
      </trkpt>
      <trkpt lat="45.79529" lon="4.82536">
        <ele>168</ele>
        <time>2011-11-27T10:47:31Z</time>
      </trkpt>
      <trkpt lat="45.79531" lon="4.82542">
        <ele>168</ele>
        <time>2011-11-27T10:47:33Z</time>
      </trkpt>
      <trkpt lat="45.79535" lon="4.82548">
        <ele>168</ele>
        <time>2011-11-27T10:47:35Z</time>
      </trkpt>
      <trkpt lat="45.79542" lon="4.82564">
        <ele>168</ele>
        <time>2011-11-27T10:47:40Z</time>
      </trkpt>
      <trkpt lat="45.79552" lon="4.8258">
        <ele>169</ele>
        <time>2011-11-27T10:47:45Z</time>
      </trkpt>
      <trkpt lat="45.79556" lon="4.82585">
        <ele>168</ele>
        <time>2011-11-27T10:47:47Z</time>
      </trkpt>
      <trkpt lat="45.7956" lon="4.82593">
        <ele>168</ele>
        <time>2011-11-27T10:47:50Z</time>
      </trkpt>
      <trkpt lat="45.79567" lon="4.82607">
        <ele>168</ele>
        <time>2011-11-27T10:47:55Z</time>
      </trkpt>
      <trkpt lat="45.79569" lon="4.8261">
        <ele>168</ele>
        <time>2011-11-27T10:47:56Z</time>
      </trkpt>
      <trkpt lat="45.79579" lon="4.82627">
        <ele>167</ele>
        <time>2011-11-27T10:48:02Z</time>
      </trkpt>
      <trkpt lat="45.79584" lon="4.82641">
        <ele>168</ele>
        <time>2011-11-27T10:48:07Z</time>
      </trkpt>
      <trkpt lat="45.79587" lon="4.82647">
        <ele>167</ele>
        <time>2011-11-27T10:48:09Z</time>
      </trkpt>
      <trkpt lat="45.79588" lon="4.8265">
        <ele>167</ele>
        <time>2011-11-27T10:48:10Z</time>
      </trkpt>
      <trkpt lat="45.79591" lon="4.82656">
        <ele>167</ele>
        <time>2011-11-27T10:48:12Z</time>
      </trkpt>
      <trkpt lat="45.79592" lon="4.82659">
        <ele>167</ele>
        <time>2011-11-27T10:48:13Z</time>
      </trkpt>
      <trkpt lat="45.79599" lon="4.82674">
        <ele>166</ele>
        <time>2011-11-27T10:48:18Z</time>
      </trkpt>
      <trkpt lat="45.79609" lon="4.82694">
        <ele>167</ele>
        <time>2011-11-27T10:48:25Z</time>
      </trkpt>
      <trkpt lat="45.7961" lon="4.82697">
        <ele>167</ele>
        <time>2011-11-27T10:48:26Z</time>
      </trkpt>
      <trkpt lat="45.79618" lon="4.82708">
        <ele>167</ele>
        <time>2011-11-27T10:48:30Z</time>
      </trkpt>
      <trkpt lat="45.79624" lon="4.82717">
        <ele>167</ele>
        <time>2011-11-27T10:48:33Z</time>
      </trkpt>
      <trkpt lat="45.79629" lon="4.82725">
        <ele>167</ele>
        <time>2011-11-27T10:48:36Z</time>
      </trkpt>
      <trkpt lat="45.79636" lon="4.82737">
        <ele>167</ele>
        <time>2011-11-27T10:48:40Z</time>
      </trkpt>
      <trkpt lat="45.79638" lon="4.8274">
        <ele>167</ele>
        <time>2011-11-27T10:48:41Z</time>
      </trkpt>
      <trkpt lat="45.79647" lon="4.82759">
        <ele>167</ele>
        <time>2011-11-27T10:48:47Z</time>
      </trkpt>
      <trkpt lat="45.79648" lon="4.82762">
        <ele>167</ele>
        <time>2011-11-27T10:48:48Z</time>
      </trkpt>
      <trkpt lat="45.79657" lon="4.8278">
        <ele>166</ele>
        <time>2011-11-27T10:48:54Z</time>
      </trkpt>
      <trkpt lat="45.79663" lon="4.828">
        <ele>166</ele>
        <time>2011-11-27T10:49:01Z</time>
      </trkpt>
      <trkpt lat="45.79665" lon="4.82802">
        <ele>166</ele>
        <time>2011-11-27T10:49:03Z</time>
      </trkpt>
      <trkpt lat="45.79673" lon="4.82817">
        <ele>167</ele>
        <time>2011-11-27T10:49:07Z</time>
      </trkpt>
      <trkpt lat="45.79681" lon="4.82825">
        <ele>167</ele>
        <time>2011-11-27T10:49:10Z</time>
      </trkpt>
      <trkpt lat="45.79684" lon="4.82831">
        <ele>167</ele>
        <time>2011-11-27T10:49:12Z</time>
      </trkpt>
      <trkpt lat="45.79689" lon="4.82847">
        <ele>167</ele>
        <time>2011-11-27T10:49:18Z</time>
      </trkpt>
      <trkpt lat="45.79689" lon="4.82849">
        <ele>167</ele>
        <time>2011-11-27T10:49:19Z</time>
      </trkpt>
      <trkpt lat="45.79694" lon="4.82864">
        <ele>167</ele>
        <time>2011-11-27T10:49:24Z</time>
      </trkpt>
      <trkpt lat="45.79697" lon="4.82874">
        <ele>167</ele>
        <time>2011-11-27T10:49:28Z</time>
      </trkpt>
      <trkpt lat="45.79699" lon="4.82877">
        <ele>167</ele>
        <time>2011-11-27T10:49:29Z</time>
      </trkpt>
      <trkpt lat="45.79699" lon="4.82882">
        <ele>167</ele>
        <time>2011-11-27T10:49:31Z</time>
      </trkpt>
      <trkpt lat="45.79701" lon="4.82887">
        <ele>167</ele>
        <time>2011-11-27T10:49:33Z</time>
      </trkpt>
      <trkpt lat="45.79703" lon="4.82899">
        <ele>167</ele>
        <time>2011-11-27T10:49:38Z</time>
      </trkpt>
      <trkpt lat="45.7971" lon="4.82916">
        <ele>168</ele>
        <time>2011-11-27T10:49:44Z</time>
      </trkpt>
      <trkpt lat="45.79712" lon="4.82924">
        <ele>167</ele>
        <time>2011-11-27T10:49:47Z</time>
      </trkpt>
      <trkpt lat="45.79716" lon="4.82933">
        <ele>167</ele>
        <time>2011-11-27T10:49:50Z</time>
      </trkpt>
      <trkpt lat="45.79724" lon="4.82946">
        <ele>167</ele>
        <time>2011-11-27T10:49:55Z</time>
      </trkpt>
      <trkpt lat="45.79726" lon="4.82949">
        <ele>167</ele>
        <time>2011-11-27T10:49:56Z</time>
      </trkpt>
      <trkpt lat="45.79731" lon="4.82963">
        <ele>167</ele>
        <time>2011-11-27T10:50:01Z</time>
      </trkpt>
      <trkpt lat="45.79737" lon="4.82969">
        <ele>167</ele>
        <time>2011-11-27T10:50:03Z</time>
      </trkpt>
      <trkpt lat="45.79741" lon="4.82981">
        <ele>166</ele>
        <time>2011-11-27T10:50:07Z</time>
      </trkpt>
      <trkpt lat="45.79749" lon="4.8299">
        <ele>166</ele>
        <time>2011-11-27T10:50:11Z</time>
      </trkpt>
      <trkpt lat="45.79752" lon="4.82991">
        <ele>167</ele>
        <time>2011-11-27T10:50:12Z</time>
      </trkpt>
      <trkpt lat="45.79767" lon="4.82989">
        <ele>169</ele>
        <time>2011-11-27T10:50:17Z</time>
      </trkpt>
      <trkpt lat="45.7977" lon="4.82988">
        <ele>169</ele>
        <time>2011-11-27T10:50:18Z</time>
      </trkpt>
      <trkpt lat="45.7978" lon="4.82986">
        <ele>170</ele>
        <time>2011-11-27T10:50:22Z</time>
      </trkpt>
      <trkpt lat="45.79788" lon="4.82986">
        <ele>171</ele>
        <time>2011-11-27T10:50:25Z</time>
      </trkpt>
      <trkpt lat="45.79795" lon="4.82989">
        <ele>172</ele>
        <time>2011-11-27T10:50:28Z</time>
      </trkpt>
      <trkpt lat="45.79808" lon="4.82994">
        <ele>173</ele>
        <time>2011-11-27T10:50:32Z</time>
      </trkpt>
      <trkpt lat="45.79812" lon="4.82996">
        <ele>173</ele>
        <time>2011-11-27T10:50:33Z</time>
      </trkpt>
      <trkpt lat="45.79825" lon="4.83008">
        <ele>173</ele>
        <time>2011-11-27T10:50:39Z</time>
      </trkpt>
      <trkpt lat="45.79831" lon="4.83009">
        <ele>173</ele>
        <time>2011-11-27T10:50:42Z</time>
      </trkpt>
      <trkpt lat="45.79833" lon="4.83008">
        <ele>174</ele>
        <time>2011-11-27T10:50:43Z</time>
      </trkpt>
      <trkpt lat="45.79838" lon="4.83006">
        <ele>177</ele>
        <time>2011-11-27T10:50:46Z</time>
      </trkpt>
      <trkpt lat="45.79841" lon="4.83008">
        <ele>178</ele>
        <time>2011-11-27T10:50:48Z</time>
      </trkpt>
      <trkpt lat="45.79842" lon="4.83011">
        <ele>178</ele>
        <time>2011-11-27T10:50:49Z</time>
      </trkpt>
      <trkpt lat="45.79842" lon="4.83014">
        <ele>179</ele>
        <time>2011-11-27T10:50:50Z</time>
      </trkpt>
      <trkpt lat="45.79844" lon="4.83016">
        <ele>179</ele>
        <time>2011-11-27T10:50:51Z</time>
      </trkpt>
      <trkpt lat="45.79848" lon="4.83019">
        <ele>180</ele>
        <time>2011-11-27T10:50:53Z</time>
      </trkpt>
      <trkpt lat="45.79859" lon="4.83016">
        <ele>181</ele>
        <time>2011-11-27T10:50:58Z</time>
      </trkpt>
      <trkpt lat="45.79864" lon="4.83013">
        <ele>182</ele>
        <time>2011-11-27T10:51:01Z</time>
      </trkpt>
      <trkpt lat="45.79867" lon="4.83013">
        <ele>182</ele>
        <time>2011-11-27T10:51:03Z</time>
      </trkpt>
      <trkpt lat="45.79876" lon="4.83021">
        <ele>183</ele>
        <time>2011-11-27T10:51:08Z</time>
      </trkpt>
      <trkpt lat="45.79876" lon="4.83023">
        <ele>183</ele>
        <time>2011-11-27T10:51:09Z</time>
      </trkpt>
      <trkpt lat="45.79883" lon="4.83032">
        <ele>184</ele>
        <time>2011-11-27T10:51:13Z</time>
      </trkpt>
      <trkpt lat="45.79885" lon="4.83037">
        <ele>183</ele>
        <time>2011-11-27T10:51:15Z</time>
      </trkpt>
      <trkpt lat="45.79887" lon="4.83041">
        <ele>183</ele>
        <time>2011-11-27T10:51:17Z</time>
      </trkpt>
      <trkpt lat="45.7989" lon="4.8305">
        <ele>183</ele>
        <time>2011-11-27T10:51:21Z</time>
      </trkpt>
      <trkpt lat="45.79892" lon="4.83053">
        <ele>183</ele>
        <time>2011-11-27T10:51:23Z</time>
      </trkpt>
      <trkpt lat="45.79894" lon="4.83053">
        <ele>183</ele>
        <time>2011-11-27T10:51:26Z</time>
      </trkpt>
      <trkpt lat="45.79898" lon="4.8305">
        <ele>184</ele>
        <time>2011-11-27T10:51:28Z</time>
      </trkpt>
      <trkpt lat="45.79899" lon="4.83049">
        <ele>184</ele>
        <time>2011-11-27T10:51:29Z</time>
      </trkpt>
      <trkpt lat="45.799" lon="4.83048">
        <ele>184</ele>
        <time>2011-11-27T10:51:30Z</time>
      </trkpt>
      <trkpt lat="45.799" lon="4.83039">
        <ele>185</ele>
        <time>2011-11-27T10:51:35Z</time>
      </trkpt>
      <trkpt lat="45.79899" lon="4.83036">
        <ele>185</ele>
        <time>2011-11-27T10:51:36Z</time>
      </trkpt>
      <trkpt lat="45.79896" lon="4.83023">
        <ele>186</ele>
        <time>2011-11-27T10:51:41Z</time>
      </trkpt>
      <trkpt lat="45.79895" lon="4.83021">
        <ele>186</ele>
        <time>2011-11-27T10:51:42Z</time>
      </trkpt>
      <trkpt lat="45.79888" lon="4.83004">
        <ele>186</ele>
        <time>2011-11-27T10:51:50Z</time>
      </trkpt>
      <trkpt lat="45.79889" lon="4.82999">
        <ele>189</ele>
        <time>2011-11-27T10:51:53Z</time>
      </trkpt>
      <trkpt lat="45.7989" lon="4.82993">
        <ele>190</ele>
        <time>2011-11-27T10:51:56Z</time>
      </trkpt>
      <trkpt lat="45.79888" lon="4.82982">
        <ele>189</ele>
        <time>2011-11-27T10:52:00Z</time>
      </trkpt>
      <trkpt lat="45.79886" lon="4.82977">
        <ele>189</ele>
        <time>2011-11-27T10:52:02Z</time>
      </trkpt>
      <trkpt lat="45.79886" lon="4.82977">
        <ele>189</ele>
        <time>2011-11-27T10:52:03Z</time>
      </trkpt>
      <trkpt lat="45.79884" lon="4.82965">
        <ele>189</ele>
        <time>2011-11-27T10:52:06Z</time>
      </trkpt>
      <trkpt lat="45.79885" lon="4.82964">
        <ele>189</ele>
        <time>2011-11-27T10:52:08Z</time>
      </trkpt>
      <trkpt lat="45.79886" lon="4.82972">
        <ele>189</ele>
        <time>2011-11-27T10:52:12Z</time>
      </trkpt>
      <trkpt lat="45.79887" lon="4.82978">
        <ele>189</ele>
        <time>2011-11-27T10:52:14Z</time>
      </trkpt>
      <trkpt lat="45.7989" lon="4.82984">
        <ele>190</ele>
        <time>2011-11-27T10:52:17Z</time>
      </trkpt>
      <trkpt lat="45.79892" lon="4.82996">
        <ele>190</ele>
        <time>2011-11-27T10:52:22Z</time>
      </trkpt>
      <trkpt lat="45.79894" lon="4.83003">
        <ele>187</ele>
        <time>2011-11-27T10:52:25Z</time>
      </trkpt>
      <trkpt lat="45.79895" lon="4.83005">
        <ele>187</ele>
        <time>2011-11-27T10:52:27Z</time>
      </trkpt>
      <trkpt lat="45.79897" lon="4.8301">
        <ele>188</ele>
        <time>2011-11-27T10:52:29Z</time>
      </trkpt>
      <trkpt lat="45.79901" lon="4.83018">
        <ele>187</ele>
        <time>2011-11-27T10:52:36Z</time>
      </trkpt>
      <trkpt lat="45.79906" lon="4.83016">
        <ele>189</ele>
        <time>2011-11-27T10:52:40Z</time>
      </trkpt>
      <trkpt lat="45.79907" lon="4.83014">
        <ele>189</ele>
        <time>2011-11-27T10:52:42Z</time>
      </trkpt>
      <trkpt lat="45.79908" lon="4.83006">
        <ele>191</ele>
        <time>2011-11-27T10:52:48Z</time>
      </trkpt>
      <trkpt lat="45.79908" lon="4.82998">
        <ele>194</ele>
        <time>2011-11-27T10:52:54Z</time>
      </trkpt>
      <trkpt lat="45.79907" lon="4.8299">
        <ele>193</ele>
        <time>2011-11-27T10:52:59Z</time>
      </trkpt>
      <trkpt lat="45.79908" lon="4.82986">
        <ele>192</ele>
        <time>2011-11-27T10:53:01Z</time>
      </trkpt>
      <trkpt lat="45.79909" lon="4.82981">
        <ele>192</ele>
        <time>2011-11-27T10:53:04Z</time>
      </trkpt>
      <trkpt lat="45.7991" lon="4.82976">
        <ele>192</ele>
        <time>2011-11-27T10:53:08Z</time>
      </trkpt>
      <trkpt lat="45.79911" lon="4.82971">
        <ele>192</ele>
        <time>2011-11-27T10:53:11Z</time>
      </trkpt>
      <trkpt lat="45.79913" lon="4.82971">
        <ele>192</ele>
        <time>2011-11-27T10:53:14Z</time>
      </trkpt>
      <trkpt lat="45.79915" lon="4.82973">
        <ele>192</ele>
        <time>2011-11-27T10:53:17Z</time>
      </trkpt>
      <trkpt lat="45.79917" lon="4.82974">
        <ele>192</ele>
        <time>2011-11-27T10:53:20Z</time>
      </trkpt>
      <trkpt lat="45.79919" lon="4.82969">
        <ele>206</ele>
        <time>2011-11-27T10:53:25Z</time>
      </trkpt>
      <trkpt lat="45.79919" lon="4.82968">
        <ele>207</ele>
        <time>2011-11-27T10:53:26Z</time>
      </trkpt>
      <trkpt lat="45.79919" lon="4.82966">
        <ele>207</ele>
        <time>2011-11-27T10:53:27Z</time>
      </trkpt>
      <trkpt lat="45.79917" lon="4.82957">
        <ele>207</ele>
        <time>2011-11-27T10:53:31Z</time>
      </trkpt>
      <trkpt lat="45.79915" lon="4.82953">
        <ele>193</ele>
        <time>2011-11-27T10:53:34Z</time>
      </trkpt>
      <trkpt lat="45.79914" lon="4.82945">
        <ele>193</ele>
        <time>2011-11-27T10:53:38Z</time>
      </trkpt>
      <trkpt lat="45.79914" lon="4.82933">
        <ele>196</ele>
        <time>2011-11-27T10:53:44Z</time>
      </trkpt>
      <trkpt lat="45.79912" lon="4.82924">
        <ele>198</ele>
        <time>2011-11-27T10:53:49Z</time>
      </trkpt>
      <trkpt lat="45.79909" lon="4.82917">
        <ele>199</ele>
        <time>2011-11-27T10:53:52Z</time>
      </trkpt>
      <trkpt lat="45.79906" lon="4.82905">
        <ele>198</ele>
        <time>2011-11-27T10:53:56Z</time>
      </trkpt>
      <trkpt lat="45.79906" lon="4.82903">
        <ele>197</ele>
        <time>2011-11-27T10:53:57Z</time>
      </trkpt>
      <trkpt lat="45.79907" lon="4.82901">
        <ele>197</ele>
        <time>2011-11-27T10:53:58Z</time>
      </trkpt>
      <trkpt lat="45.79915" lon="4.82893">
        <ele>197</ele>
        <time>2011-11-27T10:54:03Z</time>
      </trkpt>
      <trkpt lat="45.79923" lon="4.82886">
        <ele>211</ele>
        <time>2011-11-27T10:54:08Z</time>
      </trkpt>
      <trkpt lat="45.79925" lon="4.82883">
        <ele>211</ele>
        <time>2011-11-27T10:54:10Z</time>
      </trkpt>
      <trkpt lat="45.79932" lon="4.82872">
        <ele>212</ele>
        <time>2011-11-27T10:54:17Z</time>
      </trkpt>
      <trkpt lat="45.79935" lon="4.82868">
        <ele>213</ele>
        <time>2011-11-27T10:54:21Z</time>
      </trkpt>
      <trkpt lat="45.79937" lon="4.82864">
        <ele>213</ele>
        <time>2011-11-27T10:54:22Z</time>
      </trkpt>
      <trkpt lat="45.79938" lon="4.82863">
        <ele>213</ele>
        <time>2011-11-27T10:54:23Z</time>
      </trkpt>
      <trkpt lat="45.79945" lon="4.82853">
        <ele>214</ele>
        <time>2011-11-27T10:54:29Z</time>
      </trkpt>
      <trkpt lat="45.79948" lon="4.82847">
        <ele>214</ele>
        <time>2011-11-27T10:54:32Z</time>
      </trkpt>
      <trkpt lat="45.7995" lon="4.82845">
        <ele>214</ele>
        <time>2011-11-27T10:54:33Z</time>
      </trkpt>
      <trkpt lat="45.79951" lon="4.82842">
        <ele>214</ele>
        <time>2011-11-27T10:54:35Z</time>
      </trkpt>
      <trkpt lat="45.79957" lon="4.82832">
        <ele>218</ele>
        <time>2011-11-27T10:54:40Z</time>
      </trkpt>
      <trkpt lat="45.7996" lon="4.82829">
        <ele>219</ele>
        <time>2011-11-27T10:54:42Z</time>
      </trkpt>
      <trkpt lat="45.7996" lon="4.82827">
        <ele>219</ele>
        <time>2011-11-27T10:54:43Z</time>
      </trkpt>
      <trkpt lat="45.79962" lon="4.82824">
        <ele>219</ele>
        <time>2011-11-27T10:54:45Z</time>
      </trkpt>
      <trkpt lat="45.79968" lon="4.82813">
        <ele>220</ele>
        <time>2011-11-27T10:54:51Z</time>
      </trkpt>
      <trkpt lat="45.79974" lon="4.82812">
        <ele>221</ele>
        <time>2011-11-27T10:54:55Z</time>
      </trkpt>
      <trkpt lat="45.79976" lon="4.82812">
        <ele>221</ele>
        <time>2011-11-27T10:54:57Z</time>
      </trkpt>
      <trkpt lat="45.79976" lon="4.82812">
        <ele>221</ele>
        <time>2011-11-27T10:55:00Z</time>
      </trkpt>
      <trkpt lat="45.79978" lon="4.82818">
        <ele>222</ele>
        <time>2011-11-27T10:55:22Z</time>
      </trkpt>
      <trkpt lat="45.79979" lon="4.82828">
        <ele>222</ele>
        <time>2011-11-27T10:55:28Z</time>
      </trkpt>
      <trkpt lat="45.79978" lon="4.82844">
        <ele>220</ele>
        <time>2011-11-27T10:55:35Z</time>
      </trkpt>
      <trkpt lat="45.7998" lon="4.82854">
        <ele>219</ele>
        <time>2011-11-27T10:55:38Z</time>
      </trkpt>
      <trkpt lat="45.7998" lon="4.82864">
        <ele>218</ele>
        <time>2011-11-27T10:55:41Z</time>
      </trkpt>
      <trkpt lat="45.79982" lon="4.82881">
        <ele>218</ele>
        <time>2011-11-27T10:55:46Z</time>
      </trkpt>
      <trkpt lat="45.79989" lon="4.82901">
        <ele>221</ele>
        <time>2011-11-27T10:55:53Z</time>
      </trkpt>
      <trkpt lat="45.7999" lon="4.82904">
        <ele>221</ele>
        <time>2011-11-27T10:55:54Z</time>
      </trkpt>
      <trkpt lat="45.79997" lon="4.82915">
        <ele>225</ele>
        <time>2011-11-27T10:55:59Z</time>
      </trkpt>
      <trkpt lat="45.80001" lon="4.82926">
        <ele>226</ele>
        <time>2011-11-27T10:56:03Z</time>
      </trkpt>
      <trkpt lat="45.80006" lon="4.82934">
        <ele>227</ele>
        <time>2011-11-27T10:56:06Z</time>
      </trkpt>
      <trkpt lat="45.8001" lon="4.82944">
        <ele>227</ele>
        <time>2011-11-27T10:56:10Z</time>
      </trkpt>
      <trkpt lat="45.80012" lon="4.82946">
        <ele>227</ele>
        <time>2011-11-27T10:56:11Z</time>
      </trkpt>
      <trkpt lat="45.80014" lon="4.82948">
        <ele>227</ele>
        <time>2011-11-27T10:56:12Z</time>
      </trkpt>
      <trkpt lat="45.8002" lon="4.82958">
        <ele>227</ele>
        <time>2011-11-27T10:56:16Z</time>
      </trkpt>
      <trkpt lat="45.80026" lon="4.82972">
        <ele>226</ele>
        <time>2011-11-27T10:56:21Z</time>
      </trkpt>
      <trkpt lat="45.80034" lon="4.82985">
        <ele>226</ele>
        <time>2011-11-27T10:56:26Z</time>
      </trkpt>
      <trkpt lat="45.80039" lon="4.8299">
        <ele>227</ele>
        <time>2011-11-27T10:56:28Z</time>
      </trkpt>
      <trkpt lat="45.80045" lon="4.82996">
        <ele>227</ele>
        <time>2011-11-27T10:56:31Z</time>
      </trkpt>
      <trkpt lat="45.80055" lon="4.83004">
        <ele>224</ele>
        <time>2011-11-27T10:56:35Z</time>
      </trkpt>
      <trkpt lat="45.8006" lon="4.83006">
        <ele>224</ele>
        <time>2011-11-27T10:56:37Z</time>
      </trkpt>
      <trkpt lat="45.80072" lon="4.83014">
        <ele>225</ele>
        <time>2011-11-27T10:56:42Z</time>
      </trkpt>
      <trkpt lat="45.80082" lon="4.83032">
        <ele>223</ele>
        <time>2011-11-27T10:56:48Z</time>
      </trkpt>
      <trkpt lat="45.80083" lon="4.83034">
        <ele>223</ele>
        <time>2011-11-27T10:56:49Z</time>
      </trkpt>
      <trkpt lat="45.80086" lon="4.83046">
        <ele>223</ele>
        <time>2011-11-27T10:56:53Z</time>
      </trkpt>
      <trkpt lat="45.80094" lon="4.83058">
        <ele>222</ele>
        <time>2011-11-27T10:56:58Z</time>
      </trkpt>
      <trkpt lat="45.80105" lon="4.8307">
        <ele>222</ele>
        <time>2011-11-27T10:57:04Z</time>
      </trkpt>
      <trkpt lat="45.80111" lon="4.83071">
        <ele>221</ele>
        <time>2011-11-27T10:57:07Z</time>
      </trkpt>
      <trkpt lat="45.80116" lon="4.83072">
        <ele>221</ele>
        <time>2011-11-27T10:57:09Z</time>
      </trkpt>
      <trkpt lat="45.80119" lon="4.83071">
        <ele>221</ele>
        <time>2011-11-27T10:57:10Z</time>
      </trkpt>
      <trkpt lat="45.80123" lon="4.83066">
        <ele>221</ele>
        <time>2011-11-27T10:57:12Z</time>
      </trkpt>
      <trkpt lat="45.80126" lon="4.83057">
        <ele>221</ele>
        <time>2011-11-27T10:57:15Z</time>
      </trkpt>
      <trkpt lat="45.80129" lon="4.83048">
        <ele>221</ele>
        <time>2011-11-27T10:57:18Z</time>
      </trkpt>
      <trkpt lat="45.80128" lon="4.83041">
        <ele>221</ele>
        <time>2011-11-27T10:57:21Z</time>
      </trkpt>
      <trkpt lat="45.80129" lon="4.83039">
        <ele>221</ele>
        <time>2011-11-27T10:57:23Z</time>
      </trkpt>
      <trkpt lat="45.80131" lon="4.8304">
        <ele>221</ele>
        <time>2011-11-27T10:57:27Z</time>
      </trkpt>
      <trkpt lat="45.80133" lon="4.83042">
        <ele>221</ele>
        <time>2011-11-27T10:57:28Z</time>
      </trkpt>
      <trkpt lat="45.80136" lon="4.83047">
        <ele>221</ele>
        <time>2011-11-27T10:57:30Z</time>
      </trkpt>
      <trkpt lat="45.80136" lon="4.8306">
        <ele>220</ele>
        <time>2011-11-27T10:57:34Z</time>
      </trkpt>
      <trkpt lat="45.80135" lon="4.83068">
        <ele>220</ele>
        <time>2011-11-27T10:57:37Z</time>
      </trkpt>
      <trkpt lat="45.80135" lon="4.83073">
        <ele>220</ele>
        <time>2011-11-27T10:57:40Z</time>
      </trkpt>
      <trkpt lat="45.80135" lon="4.83074">
        <ele>220</ele>
        <time>2011-11-27T10:57:41Z</time>
      </trkpt>
      <trkpt lat="45.80136" lon="4.83074">
        <ele>220</ele>
        <time>2011-11-27T10:57:42Z</time>
      </trkpt>
      <trkpt lat="45.80138" lon="4.83072">
        <ele>220</ele>
        <time>2011-11-27T10:57:44Z</time>
      </trkpt>
      <trkpt lat="45.8015" lon="4.83069">
        <ele>219</ele>
        <time>2011-11-27T10:57:48Z</time>
      </trkpt>
      <trkpt lat="45.80164" lon="4.8306">
        <ele>219</ele>
        <time>2011-11-27T10:57:53Z</time>
      </trkpt>
      <trkpt lat="45.80166" lon="4.83058">
        <ele>219</ele>
        <time>2011-11-27T10:57:54Z</time>
      </trkpt>
      <trkpt lat="45.80173" lon="4.83049">
        <ele>221</ele>
        <time>2011-11-27T10:57:58Z</time>
      </trkpt>
      <trkpt lat="45.80175" lon="4.83042">
        <ele>221</ele>
        <time>2011-11-27T10:58:01Z</time>
      </trkpt>
      <trkpt lat="45.80176" lon="4.83042">
        <ele>221</ele>
        <time>2011-11-27T10:58:03Z</time>
      </trkpt>
      <trkpt lat="45.80174" lon="4.83048">
        <ele>221</ele>
        <time>2011-11-27T10:58:06Z</time>
      </trkpt>
      <trkpt lat="45.80172" lon="4.8305">
        <ele>220</ele>
        <time>2011-11-27T10:58:07Z</time>
      </trkpt>
      <trkpt lat="45.80162" lon="4.83061">
        <ele>219</ele>
        <time>2011-11-27T10:58:12Z</time>
      </trkpt>
      <trkpt lat="45.8016" lon="4.83062">
        <ele>219</ele>
        <time>2011-11-27T10:58:13Z</time>
      </trkpt>
      <trkpt lat="45.80157" lon="4.83063">
        <ele>219</ele>
        <time>2011-11-27T10:58:14Z</time>
      </trkpt>
      <trkpt lat="45.80153" lon="4.83065">
        <ele>219</ele>
        <time>2011-11-27T10:58:16Z</time>
      </trkpt>
      <trkpt lat="45.80142" lon="4.83069">
        <ele>220</ele>
        <time>2011-11-27T10:58:21Z</time>
      </trkpt>
      <trkpt lat="45.80139" lon="4.83071">
        <ele>220</ele>
        <time>2011-11-27T10:58:23Z</time>
      </trkpt>
      <trkpt lat="45.80137" lon="4.83076">
        <ele>220</ele>
        <time>2011-11-27T10:58:25Z</time>
      </trkpt>
      <trkpt lat="45.80136" lon="4.8308">
        <ele>220</ele>
        <time>2011-11-27T10:58:27Z</time>
      </trkpt>
      <trkpt lat="45.80136" lon="4.83079">
        <ele>220</ele>
        <time>2011-11-27T10:58:30Z</time>
      </trkpt>
      <trkpt lat="45.80139" lon="4.8308">
        <ele>220</ele>
        <time>2011-11-27T10:58:36Z</time>
      </trkpt>
      <trkpt lat="45.8014" lon="4.83085">
        <ele>216</ele>
        <time>2011-11-27T10:58:41Z</time>
      </trkpt>
      <trkpt lat="45.80141" lon="4.8309">
        <ele>216</ele>
        <time>2011-11-27T10:58:44Z</time>
      </trkpt>
      <trkpt lat="45.80144" lon="4.83093">
        <ele>216</ele>
        <time>2011-11-27T10:58:46Z</time>
      </trkpt>
      <trkpt lat="45.80148" lon="4.83101">
        <ele>216</ele>
        <time>2011-11-27T10:58:49Z</time>
      </trkpt>
      <trkpt lat="45.80149" lon="4.83104">
        <ele>215</ele>
        <time>2011-11-27T10:58:50Z</time>
      </trkpt>
      <trkpt lat="45.80152" lon="4.83114">
        <ele>215</ele>
        <time>2011-11-27T10:58:53Z</time>
      </trkpt>
      <trkpt lat="45.80154" lon="4.83124">
        <ele>215</ele>
        <time>2011-11-27T10:58:56Z</time>
      </trkpt>
      <trkpt lat="45.80156" lon="4.8314">
        <ele>214</ele>
        <time>2011-11-27T10:59:01Z</time>
      </trkpt>
      <trkpt lat="45.80156" lon="4.83143">
        <ele>214</ele>
        <time>2011-11-27T10:59:02Z</time>
      </trkpt>
      <trkpt lat="45.80158" lon="4.83163">
        <ele>214</ele>
        <time>2011-11-27T10:59:08Z</time>
      </trkpt>
      <trkpt lat="45.80158" lon="4.83169">
        <ele>212</ele>
        <time>2011-11-27T10:59:10Z</time>
      </trkpt>
      <trkpt lat="45.80161" lon="4.83183">
        <ele>211</ele>
        <time>2011-11-27T10:59:15Z</time>
      </trkpt>
      <trkpt lat="45.80163" lon="4.83195">
        <ele>210</ele>
        <time>2011-11-27T10:59:19Z</time>
      </trkpt>
      <trkpt lat="45.80163" lon="4.83201">
        <ele>209</ele>
        <time>2011-11-27T10:59:21Z</time>
      </trkpt>
      <trkpt lat="45.80166" lon="4.83214">
        <ele>209</ele>
        <time>2011-11-27T10:59:26Z</time>
      </trkpt>
      <trkpt lat="45.80168" lon="4.83222">
        <ele>216</ele>
        <time>2011-11-27T10:59:29Z</time>
      </trkpt>
      <trkpt lat="45.80169" lon="4.83232">
        <ele>215</ele>
        <time>2011-11-27T10:59:33Z</time>
      </trkpt>
      <trkpt lat="45.80171" lon="4.83249">
        <ele>212</ele>
        <time>2011-11-27T10:59:40Z</time>
      </trkpt>
      <trkpt lat="45.80172" lon="4.83264">
        <ele>212</ele>
        <time>2011-11-27T10:59:46Z</time>
      </trkpt>
      <trkpt lat="45.80173" lon="4.83276">
        <ele>212</ele>
        <time>2011-11-27T10:59:51Z</time>
      </trkpt>
      <trkpt lat="45.80174" lon="4.83278">
        <ele>212</ele>
        <time>2011-11-27T10:59:52Z</time>
      </trkpt>
      <trkpt lat="45.80182" lon="4.83289">
        <ele>212</ele>
        <time>2011-11-27T10:59:59Z</time>
      </trkpt>
      <trkpt lat="45.80188" lon="4.83289">
        <ele>212</ele>
        <time>2011-11-27T11:00:04Z</time>
      </trkpt>
      <trkpt lat="45.8019" lon="4.83289">
        <ele>213</ele>
        <time>2011-11-27T11:00:05Z</time>
      </trkpt>
      <trkpt lat="45.80204" lon="4.83281">
        <ele>214</ele>
        <time>2011-11-27T11:00:12Z</time>
      </trkpt>
      <trkpt lat="45.80205" lon="4.8328">
        <ele>214</ele>
        <time>2011-11-27T11:00:13Z</time>
      </trkpt>
      <trkpt lat="45.80216" lon="4.83271">
        <ele>215</ele>
        <time>2011-11-27T11:00:19Z</time>
      </trkpt>
      <trkpt lat="45.80221" lon="4.83267">
        <ele>215</ele>
        <time>2011-11-27T11:00:22Z</time>
      </trkpt>
      <trkpt lat="45.80225" lon="4.83261">
        <ele>216</ele>
        <time>2011-11-27T11:00:25Z</time>
      </trkpt>
      <trkpt lat="45.80234" lon="4.83248">
        <ele>220</ele>
        <time>2011-11-27T11:00:31Z</time>
      </trkpt>
      <trkpt lat="45.80241" lon="4.83233">
        <ele>221</ele>
        <time>2011-11-27T11:00:37Z</time>
      </trkpt>
      <trkpt lat="45.80244" lon="4.83225">
        <ele>221</ele>
        <time>2011-11-27T11:00:40Z</time>
      </trkpt>
      <trkpt lat="45.80246" lon="4.8322">
        <ele>221</ele>
        <time>2011-11-27T11:00:42Z</time>
      </trkpt>
      <trkpt lat="45.80249" lon="4.83213">
        <ele>221</ele>
        <time>2011-11-27T11:00:45Z</time>
      </trkpt>
      <trkpt lat="45.80251" lon="4.83205">
        <ele>228</ele>
        <time>2011-11-27T11:00:48Z</time>
      </trkpt>
      <trkpt lat="45.80252" lon="4.832">
        <ele>228</ele>
        <time>2011-11-27T11:00:50Z</time>
      </trkpt>
      <trkpt lat="45.80253" lon="4.83189">
        <ele>229</ele>
        <time>2011-11-27T11:00:54Z</time>
      </trkpt>
      <trkpt lat="45.80254" lon="4.83173">
        <ele>229</ele>
        <time>2011-11-27T11:00:59Z</time>
      </trkpt>
      <trkpt lat="45.80255" lon="4.83168">
        <ele>229</ele>
        <time>2011-11-27T11:01:01Z</time>
      </trkpt>
      <trkpt lat="45.80257" lon="4.83158">
        <ele>230</ele>
        <time>2011-11-27T11:01:05Z</time>
      </trkpt>
      <trkpt lat="45.80259" lon="4.83156">
        <ele>230</ele>
        <time>2011-11-27T11:01:06Z</time>
      </trkpt>
      <trkpt lat="45.80264" lon="4.8315">
        <ele>231</ele>
        <time>2011-11-27T11:01:11Z</time>
      </trkpt>
      <trkpt lat="45.80267" lon="4.83148">
        <ele>231</ele>
        <time>2011-11-27T11:01:14Z</time>
      </trkpt>
      <trkpt lat="45.8027" lon="4.83151">
        <ele>231</ele>
        <time>2011-11-27T11:01:16Z</time>
      </trkpt>
      <trkpt lat="45.80276" lon="4.83156">
        <ele>231</ele>
        <time>2011-11-27T11:01:19Z</time>
      </trkpt>
      <trkpt lat="45.80281" lon="4.83162">
        <ele>231</ele>
        <time>2011-11-27T11:01:22Z</time>
      </trkpt>
      <trkpt lat="45.80291" lon="4.83171">
        <ele>230</ele>
        <time>2011-11-27T11:01:28Z</time>
      </trkpt>
      <trkpt lat="45.80298" lon="4.83177">
        <ele>230</ele>
        <time>2011-11-27T11:01:32Z</time>
      </trkpt>
      <trkpt lat="45.80301" lon="4.83179">
        <ele>230</ele>
        <time>2011-11-27T11:01:34Z</time>
      </trkpt>
      <trkpt lat="45.80312" lon="4.83188">
        <ele>231</ele>
        <time>2011-11-27T11:01:40Z</time>
      </trkpt>
      <trkpt lat="45.80315" lon="4.83189">
        <ele>231</ele>
        <time>2011-11-27T11:01:41Z</time>
      </trkpt>
      <trkpt lat="45.80327" lon="4.83193">
        <ele>231</ele>
        <time>2011-11-27T11:01:46Z</time>
      </trkpt>
      <trkpt lat="45.80334" lon="4.83195">
        <ele>234</ele>
        <time>2011-11-27T11:01:49Z</time>
      </trkpt>
      <trkpt lat="45.8034" lon="4.83198">
        <ele>234</ele>
        <time>2011-11-27T11:01:52Z</time>
      </trkpt>
      <trkpt lat="45.80351" lon="4.83204">
        <ele>234</ele>
        <time>2011-11-27T11:01:57Z</time>
      </trkpt>
      <trkpt lat="45.80355" lon="4.83203">
        <ele>234</ele>
        <time>2011-11-27T11:01:59Z</time>
      </trkpt>
      <trkpt lat="45.80361" lon="4.83199">
        <ele>234</ele>
        <time>2011-11-27T11:02:01Z</time>
      </trkpt>
      <trkpt lat="45.80363" lon="4.83196">
        <ele>234</ele>
        <time>2011-11-27T11:02:02Z</time>
      </trkpt>
      <trkpt lat="45.80366" lon="4.8319">
        <ele>234</ele>
        <time>2011-11-27T11:02:04Z</time>
      </trkpt>
      <trkpt lat="45.80367" lon="4.83187">
        <ele>234</ele>
        <time>2011-11-27T11:02:05Z</time>
      </trkpt>
      <trkpt lat="45.80376" lon="4.83166">
        <ele>237</ele>
        <time>2011-11-27T11:02:12Z</time>
      </trkpt>
      <trkpt lat="45.80385" lon="4.83152">
        <ele>237</ele>
        <time>2011-11-27T11:02:17Z</time>
      </trkpt>
      <trkpt lat="45.80387" lon="4.83145">
        <ele>237</ele>
        <time>2011-11-27T11:02:19Z</time>
      </trkpt>
      <trkpt lat="45.80392" lon="4.83134">
        <ele>237</ele>
        <time>2011-11-27T11:02:23Z</time>
      </trkpt>
      <trkpt lat="45.80396" lon="4.8313">
        <ele>238</ele>
        <time>2011-11-27T11:02:25Z</time>
      </trkpt>
      <trkpt lat="45.804" lon="4.83131">
        <ele>238</ele>
        <time>2011-11-27T11:02:27Z</time>
      </trkpt>
      <trkpt lat="45.80403" lon="4.83133">
        <ele>238</ele>
        <time>2011-11-27T11:02:28Z</time>
      </trkpt>
      <trkpt lat="45.80406" lon="4.83135">
        <ele>238</ele>
        <time>2011-11-27T11:02:30Z</time>
      </trkpt>
    </trkseg>
  </trk>
</gpx>